<?xml version='1.0' encoding='UTF-8'?><gpx version="1.1" creator="JPX - https://github.com/jenetics/jpx" xmlns="http://www.topografix.com/GPX/1/1"><trk><trkseg><trkpt lat="45.2533583" lon="9.0387267"><ele>95.0</ele><time>2026-04-18T12:44:15.991Z</time></trkpt><trkpt lat="45.2533633" lon="9.0388617"><ele>95.0</ele><time>2026-04-18T12:44:17.991Z</time></trkpt><trkpt lat="45.2534517" lon="9.0389533"><ele>95.0</ele><time>2026-04-18T12:44:19.991Z</time></trkpt><trkpt lat="45.253535" lon="9.0389783"><ele>95.0</ele><time>2026-04-18T12:44:21.991Z</time></trkpt><trkpt lat="45.2536467" lon="9.0388767"><ele>95.0</ele><time>2026-04-18T12:44:23.991Z</time></trkpt><trkpt lat="45.2537117" lon="9.0387717"><ele>95.0</ele><time>2026-04-18T12:44:24.991Z</time></trkpt><trkpt lat="45.2537667" lon="9.0386517"><ele>95.0</ele><time>2026-04-18T12:44:25.991Z</time></trkpt><trkpt lat="45.253825" lon="9.0385067"><ele>95.0</ele><time>2026-04-18T12:44:26.991Z</time></trkpt><trkpt lat="45.25389" lon="9.0383667"><ele>95.0</ele><time>2026-04-18T12:44:27.991Z</time></trkpt><trkpt lat="45.2539633" lon="9.038225"><ele>95.0</ele><time>2026-04-18T12:44:28.991Z</time></trkpt><trkpt lat="45.254025" lon="9.038085"><ele>95.0</ele><time>2026-04-18T12:44:29.991Z</time></trkpt><trkpt lat="45.25409" lon="9.0379417"><ele>95.0</ele><time>2026-04-18T12:44:30.991Z</time></trkpt><trkpt lat="45.254155" lon="9.0377867"><ele>95.0</ele><time>2026-04-18T12:44:31.991Z</time></trkpt><trkpt lat="45.2542183" lon="9.0376233"><ele>94.5</ele><time>2026-04-18T12:44:32.991Z</time></trkpt><trkpt lat="45.25429" lon="9.0374667"><ele>94.0</ele><time>2026-04-18T12:44:33.991Z</time></trkpt><trkpt lat="45.2543667" lon="9.0373"><ele>93.5</ele><time>2026-04-18T12:44:34.992Z</time></trkpt><trkpt lat="45.25444" lon="9.0371283"><ele>93.0</ele><time>2026-04-18T12:44:35.991Z</time></trkpt><trkpt lat="45.2545233" lon="9.0369633"><ele>93.0</ele><time>2026-04-18T12:44:36.991Z</time></trkpt><trkpt lat="45.2546033" lon="9.0367883"><ele>93.0</ele><time>2026-04-18T12:44:37.991Z</time></trkpt><trkpt lat="45.25468" lon="9.0366033"><ele>93.0</ele><time>2026-04-18T12:44:38.991Z</time></trkpt><trkpt lat="45.25476" lon="9.0364133"><ele>92.66666666666667</ele><time>2026-04-18T12:44:39.991Z</time></trkpt><trkpt lat="45.2548383" lon="9.0362217"><ele>92.33333333333334</ele><time>2026-04-18T12:44:40.991Z</time></trkpt><trkpt lat="45.2549233" lon="9.0360283"><ele>92.0</ele><time>2026-04-18T12:44:41.991Z</time></trkpt><trkpt lat="45.2550083" lon="9.0358283"><ele>91.66666666666667</ele><time>2026-04-18T12:44:42.991Z</time></trkpt><trkpt lat="45.2550983" lon="9.03563"><ele>91.33333333333333</ele><time>2026-04-18T12:44:43.991Z</time></trkpt><trkpt lat="45.2551783" lon="9.0354317"><ele>91.0</ele><time>2026-04-18T12:44:44.992Z</time></trkpt><trkpt lat="45.2552533" lon="9.0352317"><ele>91.0</ele><time>2026-04-18T12:44:45.991Z</time></trkpt><trkpt lat="45.2553383" lon="9.0350383"><ele>91.0</ele><time>2026-04-18T12:44:46.991Z</time></trkpt><trkpt lat="45.2554167" lon="9.0348517"><ele>91.0</ele><time>2026-04-18T12:44:47.991Z</time></trkpt><trkpt lat="45.25549" lon="9.0346817"><ele>91.25</ele><time>2026-04-18T12:44:48.991Z</time></trkpt><trkpt lat="45.2555533" lon="9.03452"><ele>91.5</ele><time>2026-04-18T12:44:49.991Z</time></trkpt><trkpt lat="45.2556083" lon="9.034365"><ele>91.75</ele><time>2026-04-18T12:44:50.991Z</time></trkpt><trkpt lat="45.2556617" lon="9.0342283"><ele>92.0</ele><time>2026-04-18T12:44:51.991Z</time></trkpt><trkpt lat="45.25573" lon="9.034115"><ele>92.0</ele><time>2026-04-18T12:44:52.991Z</time></trkpt><trkpt lat="45.255815" lon="9.03402"><ele>92.0</ele><time>2026-04-18T12:44:53.991Z</time></trkpt><trkpt lat="45.2559283" lon="9.0339583"><ele>92.0</ele><time>2026-04-18T12:44:54.992Z</time></trkpt><trkpt lat="45.25602" lon="9.0339133"><ele>92.0</ele><time>2026-04-18T12:44:55.991Z</time></trkpt><trkpt lat="45.25611" lon="9.03386"><ele>92.0</ele><time>2026-04-18T12:44:56.991Z</time></trkpt><trkpt lat="45.256195" lon="9.0337883"><ele>92.0</ele><time>2026-04-18T12:44:57.991Z</time></trkpt><trkpt lat="45.256245" lon="9.03369"><ele>92.0</ele><time>2026-04-18T12:44:58.991Z</time></trkpt><trkpt lat="45.2562817" lon="9.0335717"><ele>92.0</ele><time>2026-04-18T12:44:59.992Z</time></trkpt><trkpt lat="45.2562983" lon="9.0334483"><ele>92.0</ele><time>2026-04-18T12:45:00.991Z</time></trkpt><trkpt lat="45.2562933" lon="9.0333317"><ele>92.0</ele><time>2026-04-18T12:45:01.991Z</time></trkpt><trkpt lat="45.25627" lon="9.0332083"><ele>92.0</ele><time>2026-04-18T12:45:02.991Z</time></trkpt><trkpt lat="45.2562583" lon="9.033085"><ele>92.19999999999999</ele><time>2026-04-18T12:45:03.991Z</time></trkpt><trkpt lat="45.2562583" lon="9.0329667"><ele>92.4</ele><time>2026-04-18T12:45:04.991Z</time></trkpt><trkpt lat="45.256275" lon="9.0328367"><ele>92.6</ele><time>2026-04-18T12:45:05.991Z</time></trkpt><trkpt lat="45.2563117" lon="9.0327017"><ele>92.80000000000001</ele><time>2026-04-18T12:45:06.991Z</time></trkpt><trkpt lat="45.256365" lon="9.0325533"><ele>93.0</ele><time>2026-04-18T12:45:07.991Z</time></trkpt><trkpt lat="45.2564183" lon="9.032405"><ele>93.25</ele><time>2026-04-18T12:45:08.992Z</time></trkpt><trkpt lat="45.25649" lon="9.03225"><ele>93.5</ele><time>2026-04-18T12:45:09.991Z</time></trkpt><trkpt lat="45.2565717" lon="9.0320933"><ele>93.75</ele><time>2026-04-18T12:45:10.991Z</time></trkpt><trkpt lat="45.2566483" lon="9.0319217"><ele>94.0</ele><time>2026-04-18T12:45:11.992Z</time></trkpt><trkpt lat="45.2567367" lon="9.0317533"><ele>93.75</ele><time>2026-04-18T12:45:12.991Z</time></trkpt><trkpt lat="45.2568233" lon="9.0315867"><ele>93.5</ele><time>2026-04-18T12:45:13.991Z</time></trkpt><trkpt lat="45.2569067" lon="9.031415"><ele>93.25</ele><time>2026-04-18T12:45:14.991Z</time></trkpt><trkpt lat="45.256985" lon="9.0312467"><ele>93.0</ele><time>2026-04-18T12:45:15.991Z</time></trkpt><trkpt lat="45.25707" lon="9.03107"><ele>93.0</ele><time>2026-04-18T12:45:16.991Z</time></trkpt><trkpt lat="45.2571567" lon="9.030885"><ele>93.0</ele><time>2026-04-18T12:45:17.991Z</time></trkpt><trkpt lat="45.2573283" lon="9.03051"><ele>93.0</ele><time>2026-04-18T12:45:19.991Z</time></trkpt><trkpt lat="45.257415" lon="9.0303233"><ele>93.0</ele><time>2026-04-18T12:45:20.992Z</time></trkpt><trkpt lat="45.2574983" lon="9.03013"><ele>93.0</ele><time>2026-04-18T12:45:21.991Z</time></trkpt><trkpt lat="45.2575883" lon="9.02994"><ele>93.0</ele><time>2026-04-18T12:45:22.991Z</time></trkpt><trkpt lat="45.2576783" lon="9.0297433"><ele>93.0</ele><time>2026-04-18T12:45:23.991Z</time></trkpt><trkpt lat="45.257765" lon="9.029555"><ele>93.0</ele><time>2026-04-18T12:45:24.991Z</time></trkpt><trkpt lat="45.2578483" lon="9.0293733"><ele>93.0</ele><time>2026-04-18T12:45:25.991Z</time></trkpt><trkpt lat="45.2579317" lon="9.029195"><ele>93.0</ele><time>2026-04-18T12:45:26.991Z</time></trkpt><trkpt lat="45.25801" lon="9.0290133"><ele>93.0</ele><time>2026-04-18T12:45:27.991Z</time></trkpt><trkpt lat="45.2580933" lon="9.0288433"><ele>93.0</ele><time>2026-04-18T12:45:28.991Z</time></trkpt><trkpt lat="45.25816" lon="9.02867"><ele>93.25</ele><time>2026-04-18T12:45:29.991Z</time></trkpt><trkpt lat="45.2582183" lon="9.0285033"><ele>93.5</ele><time>2026-04-18T12:45:30.992Z</time></trkpt><trkpt lat="45.2582467" lon="9.0283317"><ele>93.75</ele><time>2026-04-18T12:45:31.992Z</time></trkpt><trkpt lat="45.2582567" lon="9.0281733"><ele>94.0</ele><time>2026-04-18T12:45:32.991Z</time></trkpt><trkpt lat="45.25824" lon="9.0280183"><ele>94.2</ele><time>2026-04-18T12:45:33.991Z</time></trkpt><trkpt lat="45.2582117" lon="9.02787"><ele>94.4</ele><time>2026-04-18T12:45:34.991Z</time></trkpt><trkpt lat="45.2581883" lon="9.0277317"><ele>94.6</ele><time>2026-04-18T12:45:35.991Z</time></trkpt><trkpt lat="45.258185" lon="9.0275933"><ele>94.8</ele><time>2026-04-18T12:45:36.991Z</time></trkpt><trkpt lat="45.258175" lon="9.02748"><ele>95.0</ele><time>2026-04-18T12:45:37.991Z</time></trkpt><trkpt lat="45.2581317" lon="9.0273417"><ele>95.16666666666667</ele><time>2026-04-18T12:45:39.991Z</time></trkpt><trkpt lat="45.2580183" lon="9.027305"><ele>95.33333333333334</ele><time>2026-04-18T12:45:41.991Z</time></trkpt><trkpt lat="45.2579517" lon="9.0273267"><ele>95.5</ele><time>2026-04-18T12:45:42.991Z</time></trkpt><trkpt lat="45.2578767" lon="9.027355"><ele>95.66666666666667</ele><time>2026-04-18T12:45:43.991Z</time></trkpt><trkpt lat="45.25781" lon="9.02739"><ele>95.83333333333333</ele><time>2026-04-18T12:45:44.992Z</time></trkpt><trkpt lat="45.2577333" lon="9.0274"><ele>96.0</ele><time>2026-04-18T12:45:45.991Z</time></trkpt><trkpt lat="45.2576633" lon="9.0273917"><ele>96.0</ele><time>2026-04-18T12:45:46.991Z</time></trkpt><trkpt lat="45.2575883" lon="9.0273383"><ele>96.0</ele><time>2026-04-18T12:45:47.992Z</time></trkpt><trkpt lat="45.2575183" lon="9.0272583"><ele>96.0</ele><time>2026-04-18T12:45:48.991Z</time></trkpt><trkpt lat="45.2574467" lon="9.0271733"><ele>96.0</ele><time>2026-04-18T12:45:49.991Z</time></trkpt><trkpt lat="45.2573667" lon="9.0270767"><ele>96.0</ele><time>2026-04-18T12:45:50.992Z</time></trkpt><trkpt lat="45.257285" lon="9.0269867"><ele>95.25</ele><time>2026-04-18T12:45:51.991Z</time></trkpt><trkpt lat="45.257205" lon="9.0268917"><ele>94.5</ele><time>2026-04-18T12:45:52.991Z</time></trkpt><trkpt lat="45.2571083" lon="9.0267933"><ele>93.75</ele><time>2026-04-18T12:45:53.991Z</time></trkpt><trkpt lat="45.257" lon="9.0267"><ele>93.0</ele><time>2026-04-18T12:45:54.991Z</time></trkpt><trkpt lat="45.2568867" lon="9.026615"><ele>92.80000000000001</ele><time>2026-04-18T12:45:55.991Z</time></trkpt><trkpt lat="45.2567833" lon="9.0265317"><ele>92.6</ele><time>2026-04-18T12:45:56.991Z</time></trkpt><trkpt lat="45.2567067" lon="9.0264483"><ele>92.4</ele><time>2026-04-18T12:45:57.991Z</time></trkpt><trkpt lat="45.2566317" lon="9.0263467"><ele>92.19999999999999</ele><time>2026-04-18T12:45:58.991Z</time></trkpt><trkpt lat="45.2565683" lon="9.0262467"><ele>92.0</ele><time>2026-04-18T12:45:59.991Z</time></trkpt><trkpt lat="45.2564933" lon="9.0261467"><ele>92.0</ele><time>2026-04-18T12:46:00.991Z</time></trkpt><trkpt lat="45.2564183" lon="9.0260583"><ele>92.0</ele><time>2026-04-18T12:46:01.991Z</time></trkpt><trkpt lat="45.2563483" lon="9.0259717"><ele>92.0</ele><time>2026-04-18T12:46:02.992Z</time></trkpt><trkpt lat="45.2562783" lon="9.025895"><ele>92.0</ele><time>2026-04-18T12:46:03.991Z</time></trkpt><trkpt lat="45.2562033" lon="9.025815"><ele>92.0</ele><time>2026-04-18T12:46:04.991Z</time></trkpt><trkpt lat="45.25614" lon="9.025735"><ele>92.16666666666667</ele><time>2026-04-18T12:46:05.991Z</time></trkpt><trkpt lat="45.2560683" lon="9.0256583"><ele>92.33333333333334</ele><time>2026-04-18T12:46:06.992Z</time></trkpt><trkpt lat="45.2559833" lon="9.0256017"><ele>92.5</ele><time>2026-04-18T12:46:07.991Z</time></trkpt><trkpt lat="45.2559033" lon="9.025555"><ele>92.66666666666667</ele><time>2026-04-18T12:46:08.991Z</time></trkpt><trkpt lat="45.25582" lon="9.0255167"><ele>92.83333333333333</ele><time>2026-04-18T12:46:09.991Z</time></trkpt><trkpt lat="45.2557383" lon="9.025485"><ele>93.0</ele><time>2026-04-18T12:46:10.991Z</time></trkpt><trkpt lat="45.25566" lon="9.0254417"><ele>93.16666666666667</ele><time>2026-04-18T12:46:11.99Z</time></trkpt><trkpt lat="45.255575" lon="9.025395"><ele>93.33333333333333</ele><time>2026-04-18T12:46:12.99Z</time></trkpt><trkpt lat="45.255495" lon="9.0253417"><ele>93.5</ele><time>2026-04-18T12:46:13.99Z</time></trkpt><trkpt lat="45.2554167" lon="9.02528"><ele>93.66666666666666</ele><time>2026-04-18T12:46:14.99Z</time></trkpt><trkpt lat="45.25534" lon="9.0252383"><ele>93.83333333333333</ele><time>2026-04-18T12:46:15.99Z</time></trkpt><trkpt lat="45.2552767" lon="9.0251867"><ele>94.0</ele><time>2026-04-18T12:46:16.99Z</time></trkpt><trkpt lat="45.25521" lon="9.025125"><ele>94.0</ele><time>2026-04-18T12:46:17.99Z</time></trkpt><trkpt lat="45.2551433" lon="9.025055"><ele>94.0</ele><time>2026-04-18T12:46:18.99Z</time></trkpt><trkpt lat="45.2550717" lon="9.0249733"><ele>94.0</ele><time>2026-04-18T12:46:19.99Z</time></trkpt><trkpt lat="45.2549933" lon="9.0248883"><ele>94.0</ele><time>2026-04-18T12:46:20.99Z</time></trkpt><trkpt lat="45.25491" lon="9.0247967"><ele>94.0</ele><time>2026-04-18T12:46:21.99Z</time></trkpt><trkpt lat="45.2548217" lon="9.0247033"><ele>93.4</ele><time>2026-04-18T12:46:22.991Z</time></trkpt><trkpt lat="45.2547367" lon="9.0246133"><ele>92.80000000000001</ele><time>2026-04-18T12:46:23.991Z</time></trkpt><trkpt lat="45.2546483" lon="9.024525"><ele>92.19999999999999</ele><time>2026-04-18T12:46:24.99Z</time></trkpt><trkpt lat="45.2545567" lon="9.0244383"><ele>91.6</ele><time>2026-04-18T12:46:25.99Z</time></trkpt><trkpt lat="45.2544683" lon="9.0243617"><ele>91.0</ele><time>2026-04-18T12:46:26.99Z</time></trkpt><trkpt lat="45.2543833" lon="9.024275"><ele>91.0</ele><time>2026-04-18T12:46:27.99Z</time></trkpt><trkpt lat="45.254295" lon="9.02421"><ele>91.0</ele><time>2026-04-18T12:46:28.99Z</time></trkpt><trkpt lat="45.2542" lon="9.0241283"><ele>91.0</ele><time>2026-04-18T12:46:29.99Z</time></trkpt><trkpt lat="45.2541067" lon="9.02405"><ele>91.0</ele><time>2026-04-18T12:46:30.99Z</time></trkpt><trkpt lat="45.2540133" lon="9.02397"><ele>91.0</ele><time>2026-04-18T12:46:31.99Z</time></trkpt><trkpt lat="45.253915" lon="9.02389"><ele>91.0</ele><time>2026-04-18T12:46:32.99Z</time></trkpt><trkpt lat="45.25382" lon="9.0238117"><ele>91.0</ele><time>2026-04-18T12:46:33.99Z</time></trkpt><trkpt lat="45.253725" lon="9.0237317"><ele>91.0</ele><time>2026-04-18T12:46:34.99Z</time></trkpt><trkpt lat="45.2536417" lon="9.02366"><ele>91.0</ele><time>2026-04-18T12:46:35.99Z</time></trkpt><trkpt lat="45.253565" lon="9.02359"><ele>91.0</ele><time>2026-04-18T12:46:36.99Z</time></trkpt><trkpt lat="45.2535" lon="9.0235333"><ele>91.0</ele><time>2026-04-18T12:46:37.99Z</time></trkpt><trkpt lat="45.25342" lon="9.0234367"><ele>91.0</ele><time>2026-04-18T12:46:39.991Z</time></trkpt><trkpt lat="45.2533917" lon="9.02335"><ele>91.0</ele><time>2026-04-18T12:46:41.99Z</time></trkpt><trkpt lat="45.25341" lon="9.02324"><ele>91.0</ele><time>2026-04-18T12:46:43.99Z</time></trkpt><trkpt lat="45.2534933" lon="9.023085"><ele>91.0</ele><time>2026-04-18T12:46:45.99Z</time></trkpt><trkpt lat="45.25355" lon="9.0229817"><ele>90.6</ele><time>2026-04-18T12:46:46.99Z</time></trkpt><trkpt lat="45.253615" lon="9.022875"><ele>90.19999999999999</ele><time>2026-04-18T12:46:47.99Z</time></trkpt><trkpt lat="45.2536867" lon="9.0227633"><ele>89.80000000000001</ele><time>2026-04-18T12:46:48.99Z</time></trkpt><trkpt lat="45.2537617" lon="9.022645"><ele>89.4</ele><time>2026-04-18T12:46:49.99Z</time></trkpt><trkpt lat="45.2538267" lon="9.0225217"><ele>89.0</ele><time>2026-04-18T12:46:50.99Z</time></trkpt><trkpt lat="45.2538867" lon="9.0223933"><ele>89.0</ele><time>2026-04-18T12:46:51.99Z</time></trkpt><trkpt lat="45.253945" lon="9.0222533"><ele>89.0</ele><time>2026-04-18T12:46:52.991Z</time></trkpt><trkpt lat="45.2540033" lon="9.022115"><ele>89.0</ele><time>2026-04-18T12:46:53.99Z</time></trkpt><trkpt lat="45.2540633" lon="9.0219783"><ele>89.0</ele><time>2026-04-18T12:46:54.99Z</time></trkpt><trkpt lat="45.2541217" lon="9.0218533"><ele>89.0</ele><time>2026-04-18T12:46:55.99Z</time></trkpt><trkpt lat="45.2541767" lon="9.0217367"><ele>89.2</ele><time>2026-04-18T12:46:56.991Z</time></trkpt><trkpt lat="45.25423" lon="9.0216183"><ele>89.4</ele><time>2026-04-18T12:46:57.99Z</time></trkpt><trkpt lat="45.2542783" lon="9.02152"><ele>89.6</ele><time>2026-04-18T12:46:58.99Z</time></trkpt><trkpt lat="45.2543217" lon="9.02143"><ele>89.8</ele><time>2026-04-18T12:46:59.99Z</time></trkpt><trkpt lat="45.2543717" lon="9.0212917"><ele>90.0</ele><time>2026-04-18T12:47:01.99Z</time></trkpt><trkpt lat="45.2543683" lon="9.021175"><ele>90.0</ele><time>2026-04-18T12:47:03.99Z</time></trkpt><trkpt lat="45.2542917" lon="9.0210817"><ele>90.0</ele><time>2026-04-18T12:47:05.99Z</time></trkpt><trkpt lat="45.254165" lon="9.0210217"><ele>90.0</ele><time>2026-04-18T12:47:07.99Z</time></trkpt><trkpt lat="45.25409" lon="9.0209767"><ele>90.0</ele><time>2026-04-18T12:47:08.99Z</time></trkpt><trkpt lat="45.25402" lon="9.020935"><ele>90.0</ele><time>2026-04-18T12:47:09.99Z</time></trkpt><trkpt lat="45.2539483" lon="9.02088"><ele>89.8</ele><time>2026-04-18T12:47:10.99Z</time></trkpt><trkpt lat="45.25387" lon="9.0208217"><ele>89.6</ele><time>2026-04-18T12:47:11.99Z</time></trkpt><trkpt lat="45.2537883" lon="9.0207633"><ele>89.4</ele><time>2026-04-18T12:47:12.99Z</time></trkpt><trkpt lat="45.2537017" lon="9.0207"><ele>89.2</ele><time>2026-04-18T12:47:13.99Z</time></trkpt><trkpt lat="45.253615" lon="9.020635"><ele>89.0</ele><time>2026-04-18T12:47:14.99Z</time></trkpt><trkpt lat="45.2535267" lon="9.0205683"><ele>89.0</ele><time>2026-04-18T12:47:15.99Z</time></trkpt><trkpt lat="45.25344" lon="9.0205033"><ele>89.0</ele><time>2026-04-18T12:47:16.99Z</time></trkpt><trkpt lat="45.2533567" lon="9.0204483"><ele>89.0</ele><time>2026-04-18T12:47:17.99Z</time></trkpt><trkpt lat="45.2532767" lon="9.0204067"><ele>89.0</ele><time>2026-04-18T12:47:18.99Z</time></trkpt><trkpt lat="45.2532067" lon="9.0203567"><ele>89.0</ele><time>2026-04-18T12:47:19.99Z</time></trkpt><trkpt lat="45.2531417" lon="9.0203117"><ele>89.0</ele><time>2026-04-18T12:47:20.99Z</time></trkpt><trkpt lat="45.253085" lon="9.0202583"><ele>89.0</ele><time>2026-04-18T12:47:21.99Z</time></trkpt><trkpt lat="45.2530283" lon="9.0202017"><ele>89.0</ele><time>2026-04-18T12:47:22.991Z</time></trkpt><trkpt lat="45.2529683" lon="9.02013"><ele>89.0</ele><time>2026-04-18T12:47:23.99Z</time></trkpt><trkpt lat="45.2529067" lon="9.0200433"><ele>89.0</ele><time>2026-04-18T12:47:24.99Z</time></trkpt><trkpt lat="45.25285" lon="9.0199583"><ele>89.0</ele><time>2026-04-18T12:47:25.99Z</time></trkpt><trkpt lat="45.252795" lon="9.0198683"><ele>89.0</ele><time>2026-04-18T12:47:26.99Z</time></trkpt><trkpt lat="45.2527367" lon="9.01977"><ele>89.0</ele><time>2026-04-18T12:47:27.99Z</time></trkpt><trkpt lat="45.25268" lon="9.0196617"><ele>89.0</ele><time>2026-04-18T12:47:28.99Z</time></trkpt><trkpt lat="45.2526217" lon="9.0195533"><ele>89.0</ele><time>2026-04-18T12:47:29.99Z</time></trkpt><trkpt lat="45.25256" lon="9.019435"><ele>89.0</ele><time>2026-04-18T12:47:30.99Z</time></trkpt><trkpt lat="45.2524933" lon="9.019315"><ele>89.0</ele><time>2026-04-18T12:47:31.99Z</time></trkpt><trkpt lat="45.2524267" lon="9.0191967"><ele>89.0</ele><time>2026-04-18T12:47:32.99Z</time></trkpt><trkpt lat="45.2523583" lon="9.019075"><ele>89.0</ele><time>2026-04-18T12:47:33.99Z</time></trkpt><trkpt lat="45.25229" lon="9.0189517"><ele>89.0</ele><time>2026-04-18T12:47:34.99Z</time></trkpt><trkpt lat="45.2522233" lon="9.0188233"><ele>89.0</ele><time>2026-04-18T12:47:35.99Z</time></trkpt><trkpt lat="45.25215" lon="9.0186933"><ele>89.0</ele><time>2026-04-18T12:47:36.991Z</time></trkpt><trkpt lat="45.2520783" lon="9.018565"><ele>89.0</ele><time>2026-04-18T12:47:37.99Z</time></trkpt><trkpt lat="45.2520033" lon="9.0184417"><ele>89.0</ele><time>2026-04-18T12:47:38.99Z</time></trkpt><trkpt lat="45.25193" lon="9.0183133"><ele>89.0</ele><time>2026-04-18T12:47:39.99Z</time></trkpt><trkpt lat="45.25186" lon="9.0182"><ele>89.0</ele><time>2026-04-18T12:47:40.99Z</time></trkpt><trkpt lat="45.2517867" lon="9.0180733"><ele>89.0</ele><time>2026-04-18T12:47:41.99Z</time></trkpt><trkpt lat="45.2517167" lon="9.0179267"><ele>89.0</ele><time>2026-04-18T12:47:42.99Z</time></trkpt><trkpt lat="45.2516533" lon="9.0177633"><ele>89.0</ele><time>2026-04-18T12:47:43.99Z</time></trkpt><trkpt lat="45.2515983" lon="9.017605"><ele>88.5</ele><time>2026-04-18T12:47:44.99Z</time></trkpt><trkpt lat="45.2515333" lon="9.0174383"><ele>88.0</ele><time>2026-04-18T12:47:45.99Z</time></trkpt><trkpt lat="45.2514783" lon="9.0172633"><ele>87.5</ele><time>2026-04-18T12:47:46.99Z</time></trkpt><trkpt lat="45.2514117" lon="9.0171"><ele>87.0</ele><time>2026-04-18T12:47:47.99Z</time></trkpt><trkpt lat="45.2513433" lon="9.0169233"><ele>86.75</ele><time>2026-04-18T12:47:48.99Z</time></trkpt><trkpt lat="45.2512833" lon="9.0167567"><ele>86.5</ele><time>2026-04-18T12:47:49.99Z</time></trkpt><trkpt lat="45.25122" lon="9.01658"><ele>86.25</ele><time>2026-04-18T12:47:50.99Z</time></trkpt><trkpt lat="45.2511533" lon="9.0163933"><ele>86.0</ele><time>2026-04-18T12:47:51.99Z</time></trkpt><trkpt lat="45.25109" lon="9.01621"><ele>86.0</ele><time>2026-04-18T12:47:52.99Z</time></trkpt><trkpt lat="45.2510167" lon="9.0160217"><ele>86.0</ele><time>2026-04-18T12:47:53.99Z</time></trkpt><trkpt lat="45.25095" lon="9.0158267"><ele>86.0</ele><time>2026-04-18T12:47:54.991Z</time></trkpt><trkpt lat="45.2508767" lon="9.015615"><ele>85.66666666666667</ele><time>2026-04-18T12:47:55.991Z</time></trkpt><trkpt lat="45.2508017" lon="9.01541"><ele>85.33333333333333</ele><time>2026-04-18T12:47:56.99Z</time></trkpt><trkpt lat="45.2507283" lon="9.0152133"><ele>85.0</ele><time>2026-04-18T12:47:57.99Z</time></trkpt><trkpt lat="45.25066" lon="9.0150117"><ele>85.25</ele><time>2026-04-18T12:47:58.99Z</time></trkpt><trkpt lat="45.25059" lon="9.014825"><ele>85.5</ele><time>2026-04-18T12:47:59.99Z</time></trkpt><trkpt lat="45.2505167" lon="9.014645"><ele>85.75</ele><time>2026-04-18T12:48:00.99Z</time></trkpt><trkpt lat="45.250445" lon="9.01446"><ele>86.0</ele><time>2026-04-18T12:48:01.99Z</time></trkpt><trkpt lat="45.250385" lon="9.01429"><ele>86.25</ele><time>2026-04-18T12:48:02.99Z</time></trkpt><trkpt lat="45.2503267" lon="9.01413"><ele>86.5</ele><time>2026-04-18T12:48:03.99Z</time></trkpt><trkpt lat="45.250265" lon="9.0139633"><ele>86.75</ele><time>2026-04-18T12:48:04.99Z</time></trkpt><trkpt lat="45.2502017" lon="9.0138133"><ele>87.0</ele><time>2026-04-18T12:48:05.99Z</time></trkpt><trkpt lat="45.2501267" lon="9.0136833"><ele>87.0</ele><time>2026-04-18T12:48:06.99Z</time></trkpt><trkpt lat="45.25005" lon="9.0135867"><ele>87.0</ele><time>2026-04-18T12:48:07.99Z</time></trkpt><trkpt lat="45.2499867" lon="9.0135167"><ele>87.0</ele><time>2026-04-18T12:48:08.99Z</time></trkpt><trkpt lat="45.2499017" lon="9.01343"><ele>87.0</ele><time>2026-04-18T12:48:10.99Z</time></trkpt><trkpt lat="45.2499033" lon="9.0133133"><ele>87.0</ele><time>2026-04-18T12:48:13.99Z</time></trkpt><trkpt lat="45.2499733" lon="9.0131983"><ele>86.66666666666667</ele><time>2026-04-18T12:48:15.99Z</time></trkpt><trkpt lat="45.2500333" lon="9.01312"><ele>86.33333333333333</ele><time>2026-04-18T12:48:16.99Z</time></trkpt><trkpt lat="45.2500967" lon="9.0130283"><ele>86.0</ele><time>2026-04-18T12:48:17.99Z</time></trkpt><trkpt lat="45.250165" lon="9.0129417"><ele>85.66666666666666</ele><time>2026-04-18T12:48:18.99Z</time></trkpt><trkpt lat="45.2502283" lon="9.0128467"><ele>85.33333333333333</ele><time>2026-04-18T12:48:19.99Z</time></trkpt><trkpt lat="45.2502967" lon="9.0127683"><ele>85.0</ele><time>2026-04-18T12:48:20.99Z</time></trkpt><trkpt lat="45.250365" lon="9.0127067"><ele>85.0</ele><time>2026-04-18T12:48:21.991Z</time></trkpt><trkpt lat="45.2504367" lon="9.0126683"><ele>85.0</ele><time>2026-04-18T12:48:22.991Z</time></trkpt><trkpt lat="45.25052" lon="9.01266"><ele>85.0</ele><time>2026-04-18T12:48:23.99Z</time></trkpt><trkpt lat="45.2506067" lon="9.0126767"><ele>85.0</ele><time>2026-04-18T12:48:24.991Z</time></trkpt><trkpt lat="45.25069" lon="9.012695"><ele>85.0</ele><time>2026-04-18T12:48:25.99Z</time></trkpt><trkpt lat="45.2507717" lon="9.0127083"><ele>85.0</ele><time>2026-04-18T12:48:26.99Z</time></trkpt><trkpt lat="45.2508517" lon="9.0127283"><ele>85.8</ele><time>2026-04-18T12:48:27.99Z</time></trkpt><trkpt lat="45.2509367" lon="9.012765"><ele>86.6</ele><time>2026-04-18T12:48:28.99Z</time></trkpt><trkpt lat="45.251015" lon="9.01282"><ele>87.4</ele><time>2026-04-18T12:48:29.99Z</time></trkpt><trkpt lat="45.2510867" lon="9.0128883"><ele>88.2</ele><time>2026-04-18T12:48:30.99Z</time></trkpt><trkpt lat="45.2511633" lon="9.0129767"><ele>89.0</ele><time>2026-04-18T12:48:31.99Z</time></trkpt><trkpt lat="45.251245" lon="9.0130567"><ele>89.0</ele><time>2026-04-18T12:48:32.99Z</time></trkpt><trkpt lat="45.25133" lon="9.013125"><ele>89.0</ele><time>2026-04-18T12:48:33.99Z</time></trkpt><trkpt lat="45.2514183" lon="9.0131867"><ele>89.0</ele><time>2026-04-18T12:48:34.99Z</time></trkpt><trkpt lat="45.2515117" lon="9.0132517"><ele>89.0</ele><time>2026-04-18T12:48:35.99Z</time></trkpt><trkpt lat="45.2516083" lon="9.0133267"><ele>89.0</ele><time>2026-04-18T12:48:36.99Z</time></trkpt><trkpt lat="45.25171" lon="9.0133817"><ele>89.2</ele><time>2026-04-18T12:48:37.99Z</time></trkpt><trkpt lat="45.2518133" lon="9.013435"><ele>89.4</ele><time>2026-04-18T12:48:38.99Z</time></trkpt><trkpt lat="45.2519133" lon="9.013475"><ele>89.6</ele><time>2026-04-18T12:48:39.99Z</time></trkpt><trkpt lat="45.2520167" lon="9.01351"><ele>89.8</ele><time>2026-04-18T12:48:40.99Z</time></trkpt><trkpt lat="45.2521183" lon="9.01354"><ele>90.0</ele><time>2026-04-18T12:48:41.99Z</time></trkpt><trkpt lat="45.2522183" lon="9.01356"><ele>90.6</ele><time>2026-04-18T12:48:42.99Z</time></trkpt><trkpt lat="45.2523217" lon="9.013575"><ele>91.2</ele><time>2026-04-18T12:48:43.99Z</time></trkpt><trkpt lat="45.2524183" lon="9.01358"><ele>91.80000000000001</ele><time>2026-04-18T12:48:44.99Z</time></trkpt><trkpt lat="45.2525167" lon="9.0135533"><ele>92.4</ele><time>2026-04-18T12:48:45.99Z</time></trkpt><trkpt lat="45.25261" lon="9.0135117"><ele>93.0</ele><time>2026-04-18T12:48:46.99Z</time></trkpt><trkpt lat="45.2527" lon="9.0134533"><ele>93.0</ele><time>2026-04-18T12:48:47.99Z</time></trkpt><trkpt lat="45.2527933" lon="9.013385"><ele>93.0</ele><time>2026-04-18T12:48:48.99Z</time></trkpt><trkpt lat="45.2528817" lon="9.0133183"><ele>93.0</ele><time>2026-04-18T12:48:49.99Z</time></trkpt><trkpt lat="45.2529517" lon="9.013255"><ele>93.0</ele><time>2026-04-18T12:48:50.99Z</time></trkpt><trkpt lat="45.2530333" lon="9.0132067"><ele>93.0</ele><time>2026-04-18T12:48:51.99Z</time></trkpt><trkpt lat="45.25311" lon="9.0131867"><ele>92.83333333333333</ele><time>2026-04-18T12:48:52.99Z</time></trkpt><trkpt lat="45.253235" lon="9.01319"><ele>92.66666666666667</ele><time>2026-04-18T12:48:54.99Z</time></trkpt><trkpt lat="45.2532967" lon="9.01322"><ele>92.5</ele><time>2026-04-18T12:48:55.99Z</time></trkpt><trkpt lat="45.253355" lon="9.01326"><ele>92.33333333333334</ele><time>2026-04-18T12:48:56.99Z</time></trkpt><trkpt lat="45.2534133" lon="9.0133017"><ele>92.16666666666667</ele><time>2026-04-18T12:48:57.99Z</time></trkpt><trkpt lat="45.2534717" lon="9.0133517"><ele>92.0</ele><time>2026-04-18T12:48:58.99Z</time></trkpt><trkpt lat="45.2535817" lon="9.0134383"><ele>92.6</ele><time>2026-04-18T12:49:00.99Z</time></trkpt><trkpt lat="45.2537" lon="9.01351"><ele>93.19999999999999</ele><time>2026-04-18T12:49:02.991Z</time></trkpt><trkpt lat="45.2537683" lon="9.01356"><ele>93.8</ele><time>2026-04-18T12:49:03.99Z</time></trkpt><trkpt lat="45.25383" lon="9.0136017"><ele>94.4</ele><time>2026-04-18T12:49:04.991Z</time></trkpt><trkpt lat="45.2539433" lon="9.0136717"><ele>95.0</ele><time>2026-04-18T12:49:06.99Z</time></trkpt><trkpt lat="45.254045" lon="9.013735"><ele>93.4</ele><time>2026-04-18T12:49:08.99Z</time></trkpt><trkpt lat="45.2541067" lon="9.0137767"><ele>91.8</ele><time>2026-04-18T12:49:09.99Z</time></trkpt><trkpt lat="45.2541633" lon="9.0138167"><ele>90.19999999999999</ele><time>2026-04-18T12:49:10.99Z</time></trkpt><trkpt lat="45.254255" lon="9.0138667"><ele>88.6</ele><time>2026-04-18T12:49:12.99Z</time></trkpt><trkpt lat="45.25436" lon="9.0139233"><ele>87.0</ele><time>2026-04-18T12:49:14.991Z</time></trkpt><trkpt lat="45.254465" lon="9.013995"><ele>87.0</ele><time>2026-04-18T12:49:16.99Z</time></trkpt><trkpt lat="45.2545833" lon="9.0140233"><ele>87.0</ele><time>2026-04-18T12:49:18.99Z</time></trkpt><trkpt lat="45.2546483" lon="9.014015"><ele>87.0</ele><time>2026-04-18T12:49:19.99Z</time></trkpt><trkpt lat="45.2547133" lon="9.013995"><ele>87.0</ele><time>2026-04-18T12:49:20.99Z</time></trkpt><trkpt lat="45.2547783" lon="9.0139617"><ele>87.0</ele><time>2026-04-18T12:49:21.99Z</time></trkpt><trkpt lat="45.2548433" lon="9.0139183"><ele>87.0</ele><time>2026-04-18T12:49:22.99Z</time></trkpt><trkpt lat="45.25491" lon="9.0138683"><ele>87.0</ele><time>2026-04-18T12:49:23.99Z</time></trkpt><trkpt lat="45.25498" lon="9.01381"><ele>87.0</ele><time>2026-04-18T12:49:24.99Z</time></trkpt><trkpt lat="45.2550517" lon="9.0137617"><ele>87.0</ele><time>2026-04-18T12:49:25.99Z</time></trkpt><trkpt lat="45.2551317" lon="9.0137117"><ele>87.0</ele><time>2026-04-18T12:49:26.99Z</time></trkpt><trkpt lat="45.25521" lon="9.0136617"><ele>87.0</ele><time>2026-04-18T12:49:27.99Z</time></trkpt><trkpt lat="45.2552967" lon="9.0136217"><ele>87.0</ele><time>2026-04-18T12:49:28.99Z</time></trkpt><trkpt lat="45.25538" lon="9.013585"><ele>87.0</ele><time>2026-04-18T12:49:29.99Z</time></trkpt><trkpt lat="45.2554683" lon="9.013545"><ele>87.0</ele><time>2026-04-18T12:49:30.99Z</time></trkpt><trkpt lat="45.2555617" lon="9.0135033"><ele>87.0</ele><time>2026-04-18T12:49:31.99Z</time></trkpt><trkpt lat="45.255665" lon="9.0134483"><ele>87.0</ele><time>2026-04-18T12:49:32.99Z</time></trkpt><trkpt lat="45.2557667" lon="9.0134017"><ele>87.0</ele><time>2026-04-18T12:49:33.99Z</time></trkpt><trkpt lat="45.2558717" lon="9.013315"><ele>87.19999999999999</ele><time>2026-04-18T12:49:34.99Z</time></trkpt><trkpt lat="45.2559733" lon="9.0132317"><ele>87.4</ele><time>2026-04-18T12:49:35.99Z</time></trkpt><trkpt lat="45.2560667" lon="9.01315"><ele>87.6</ele><time>2026-04-18T12:49:36.99Z</time></trkpt><trkpt lat="45.2561483" lon="9.013065"><ele>87.80000000000001</ele><time>2026-04-18T12:49:37.99Z</time></trkpt><trkpt lat="45.2562083" lon="9.0129817"><ele>88.0</ele><time>2026-04-18T12:49:38.99Z</time></trkpt><trkpt lat="45.2562667" lon="9.012885"><ele>88.0</ele><time>2026-04-18T12:49:39.99Z</time></trkpt><trkpt lat="45.2563217" lon="9.0127933"><ele>88.0</ele><time>2026-04-18T12:49:40.99Z</time></trkpt><trkpt lat="45.2563717" lon="9.0127"><ele>88.0</ele><time>2026-04-18T12:49:41.99Z</time></trkpt><trkpt lat="45.25643" lon="9.0125917"><ele>88.0</ele><time>2026-04-18T12:49:42.99Z</time></trkpt><trkpt lat="45.2564867" lon="9.012485"><ele>88.0</ele><time>2026-04-18T12:49:43.99Z</time></trkpt><trkpt lat="45.2565483" lon="9.0123833"><ele>88.0</ele><time>2026-04-18T12:49:44.991Z</time></trkpt><trkpt lat="45.256615" lon="9.0122867"><ele>88.0</ele><time>2026-04-18T12:49:45.99Z</time></trkpt><trkpt lat="45.25668" lon="9.0121833"><ele>88.0</ele><time>2026-04-18T12:49:46.99Z</time></trkpt><trkpt lat="45.256735" lon="9.0120683"><ele>88.0</ele><time>2026-04-18T12:49:47.99Z</time></trkpt><trkpt lat="45.2567917" lon="9.0119583"><ele>88.0</ele><time>2026-04-18T12:49:48.99Z</time></trkpt><trkpt lat="45.2568517" lon="9.01185"><ele>88.0</ele><time>2026-04-18T12:49:49.991Z</time></trkpt><trkpt lat="45.2569067" lon="9.011745"><ele>88.0</ele><time>2026-04-18T12:49:50.99Z</time></trkpt><trkpt lat="45.2569617" lon="9.0116467"><ele>88.0</ele><time>2026-04-18T12:49:51.99Z</time></trkpt><trkpt lat="45.2570233" lon="9.0115567"><ele>88.0</ele><time>2026-04-18T12:49:52.99Z</time></trkpt><trkpt lat="45.257075" lon="9.0114783"><ele>88.0</ele><time>2026-04-18T12:49:53.99Z</time></trkpt><trkpt lat="45.257145" lon="9.01141"><ele>88.0</ele><time>2026-04-18T12:49:54.99Z</time></trkpt><trkpt lat="45.2572283" lon="9.0113467"><ele>88.4</ele><time>2026-04-18T12:49:55.99Z</time></trkpt><trkpt lat="45.25731" lon="9.0112833"><ele>88.80000000000001</ele><time>2026-04-18T12:49:56.99Z</time></trkpt><trkpt lat="45.2573933" lon="9.01121"><ele>89.2</ele><time>2026-04-18T12:49:57.991Z</time></trkpt><trkpt lat="45.2574767" lon="9.011135"><ele>89.6</ele><time>2026-04-18T12:49:58.99Z</time></trkpt><trkpt lat="45.25755" lon="9.0110517"><ele>90.0</ele><time>2026-04-18T12:49:59.99Z</time></trkpt><trkpt lat="45.2576317" lon="9.0109683"><ele>90.0</ele><time>2026-04-18T12:50:00.99Z</time></trkpt><trkpt lat="45.257725" lon="9.01088"><ele>90.0</ele><time>2026-04-18T12:50:01.99Z</time></trkpt><trkpt lat="45.2578217" lon="9.0107967"><ele>90.0</ele><time>2026-04-18T12:50:02.99Z</time></trkpt><trkpt lat="45.2579067" lon="9.0107033"><ele>90.0</ele><time>2026-04-18T12:50:03.991Z</time></trkpt><trkpt lat="45.2579883" lon="9.0106067"><ele>90.0</ele><time>2026-04-18T12:50:04.99Z</time></trkpt><trkpt lat="45.25807" lon="9.01051"><ele>90.2</ele><time>2026-04-18T12:50:05.99Z</time></trkpt><trkpt lat="45.258165" lon="9.0104217"><ele>90.4</ele><time>2026-04-18T12:50:06.99Z</time></trkpt><trkpt lat="45.2582583" lon="9.0103367"><ele>90.6</ele><time>2026-04-18T12:50:07.99Z</time></trkpt><trkpt lat="45.2583483" lon="9.0102483"><ele>90.8</ele><time>2026-04-18T12:50:08.99Z</time></trkpt><trkpt lat="45.25843" lon="9.0101517"><ele>91.0</ele><time>2026-04-18T12:50:09.99Z</time></trkpt><trkpt lat="45.2585117" lon="9.010055"><ele>90.6</ele><time>2026-04-18T12:50:10.99Z</time></trkpt><trkpt lat="45.2586017" lon="9.0099617"><ele>90.19999999999999</ele><time>2026-04-18T12:50:11.99Z</time></trkpt><trkpt lat="45.2586883" lon="9.0098767"><ele>89.80000000000001</ele><time>2026-04-18T12:50:12.99Z</time></trkpt><trkpt lat="45.25878" lon="9.009795"><ele>89.4</ele><time>2026-04-18T12:50:13.99Z</time></trkpt><trkpt lat="45.2588567" lon="9.0097217"><ele>89.0</ele><time>2026-04-18T12:50:14.99Z</time></trkpt><trkpt lat="45.25893" lon="9.009635"><ele>89.33333333333334</ele><time>2026-04-18T12:50:15.99Z</time></trkpt><trkpt lat="45.259" lon="9.0095633"><ele>89.66666666666667</ele><time>2026-04-18T12:50:16.99Z</time></trkpt><trkpt lat="45.2590733" lon="9.0095083"><ele>90.0</ele><time>2026-04-18T12:50:17.99Z</time></trkpt><trkpt lat="45.259145" lon="9.00945"><ele>90.33333333333333</ele><time>2026-04-18T12:50:18.99Z</time></trkpt><trkpt lat="45.259235" lon="9.00941"><ele>90.66666666666666</ele><time>2026-04-18T12:50:19.991Z</time></trkpt><trkpt lat="45.259315" lon="9.0093833"><ele>91.0</ele><time>2026-04-18T12:50:20.99Z</time></trkpt><trkpt lat="45.25938" lon="9.00936"><ele>91.0</ele><time>2026-04-18T12:50:21.99Z</time></trkpt><trkpt lat="45.25949" lon="9.0093083"><ele>91.0</ele><time>2026-04-18T12:50:23.99Z</time></trkpt><trkpt lat="45.259545" lon="9.0091683"><ele>91.0</ele><time>2026-04-18T12:50:25.99Z</time></trkpt><trkpt lat="45.2595717" lon="9.00907"><ele>91.0</ele><time>2026-04-18T12:50:26.99Z</time></trkpt><trkpt lat="45.2596" lon="9.0089717"><ele>91.0</ele><time>2026-04-18T12:50:27.99Z</time></trkpt><trkpt lat="45.2596367" lon="9.0088717"><ele>90.8</ele><time>2026-04-18T12:50:28.99Z</time></trkpt><trkpt lat="45.259695" lon="9.0087867"><ele>90.6</ele><time>2026-04-18T12:50:29.99Z</time></trkpt><trkpt lat="45.2597417" lon="9.0086733"><ele>90.4</ele><time>2026-04-18T12:50:30.99Z</time></trkpt><trkpt lat="45.2597933" lon="9.0085517"><ele>90.2</ele><time>2026-04-18T12:50:31.99Z</time></trkpt><trkpt lat="45.2598517" lon="9.008435"><ele>90.0</ele><time>2026-04-18T12:50:32.991Z</time></trkpt><trkpt lat="45.2599067" lon="9.0083183"><ele>89.6</ele><time>2026-04-18T12:50:33.99Z</time></trkpt><trkpt lat="45.2599617" lon="9.0081983"><ele>89.2</ele><time>2026-04-18T12:50:34.99Z</time></trkpt><trkpt lat="45.2600133" lon="9.0080667"><ele>88.80000000000001</ele><time>2026-04-18T12:50:35.99Z</time></trkpt><trkpt lat="45.2600617" lon="9.0079417"><ele>88.4</ele><time>2026-04-18T12:50:36.99Z</time></trkpt><trkpt lat="45.260115" lon="9.0078283"><ele>88.0</ele><time>2026-04-18T12:50:37.99Z</time></trkpt><trkpt lat="45.26017" lon="9.0077167"><ele>88.0</ele><time>2026-04-18T12:50:38.99Z</time></trkpt><trkpt lat="45.2602233" lon="9.007605"><ele>88.0</ele><time>2026-04-18T12:50:39.99Z</time></trkpt><trkpt lat="45.2602783" lon="9.0074983"><ele>88.0</ele><time>2026-04-18T12:50:40.99Z</time></trkpt><trkpt lat="45.260335" lon="9.0073883"><ele>88.0</ele><time>2026-04-18T12:50:41.99Z</time></trkpt><trkpt lat="45.2603883" lon="9.0072733"><ele>88.0</ele><time>2026-04-18T12:50:42.99Z</time></trkpt><trkpt lat="45.2604433" lon="9.007165"><ele>88.60000000000001</ele><time>2026-04-18T12:50:43.99Z</time></trkpt><trkpt lat="45.2605033" lon="9.007065"><ele>89.2</ele><time>2026-04-18T12:50:44.99Z</time></trkpt><trkpt lat="45.26057" lon="9.0069733"><ele>89.8</ele><time>2026-04-18T12:50:45.99Z</time></trkpt><trkpt lat="45.2606467" lon="9.0068833"><ele>90.4</ele><time>2026-04-18T12:50:46.99Z</time></trkpt><trkpt lat="45.260715" lon="9.0067783"><ele>91.0</ele><time>2026-04-18T12:50:47.99Z</time></trkpt><trkpt lat="45.260775" lon="9.006665"><ele>90.0</ele><time>2026-04-18T12:50:48.991Z</time></trkpt><trkpt lat="45.2608383" lon="9.006555"><ele>89.0</ele><time>2026-04-18T12:50:49.99Z</time></trkpt><trkpt lat="45.2608917" lon="9.006435"><ele>88.0</ele><time>2026-04-18T12:50:50.99Z</time></trkpt><trkpt lat="45.260955" lon="9.0063233"><ele>87.0</ele><time>2026-04-18T12:50:51.99Z</time></trkpt><trkpt lat="45.2610167" lon="9.006205"><ele>86.0</ele><time>2026-04-18T12:50:52.99Z</time></trkpt><trkpt lat="45.26109" lon="9.0061017"><ele>86.0</ele><time>2026-04-18T12:50:53.99Z</time></trkpt><trkpt lat="45.261165" lon="9.005995"><ele>86.0</ele><time>2026-04-18T12:50:54.99Z</time></trkpt><trkpt lat="45.2612533" lon="9.0059033"><ele>86.0</ele><time>2026-04-18T12:50:55.99Z</time></trkpt><trkpt lat="45.2613433" lon="9.00581"><ele>86.0</ele><time>2026-04-18T12:50:56.99Z</time></trkpt><trkpt lat="45.261425" lon="9.005715"><ele>86.0</ele><time>2026-04-18T12:50:57.99Z</time></trkpt><trkpt lat="45.2615083" lon="9.0056233"><ele>86.6</ele><time>2026-04-18T12:50:58.99Z</time></trkpt><trkpt lat="45.2615983" lon="9.0055383"><ele>87.19999999999999</ele><time>2026-04-18T12:50:59.99Z</time></trkpt><trkpt lat="45.2616967" lon="9.0054583"><ele>87.80000000000001</ele><time>2026-04-18T12:51:00.99Z</time></trkpt><trkpt lat="45.2617783" lon="9.0053717"><ele>88.4</ele><time>2026-04-18T12:51:01.99Z</time></trkpt><trkpt lat="45.2618533" lon="9.00529"><ele>89.0</ele><time>2026-04-18T12:51:02.99Z</time></trkpt><trkpt lat="45.2619483" lon="9.0052083"><ele>89.0</ele><time>2026-04-18T12:51:03.99Z</time></trkpt><trkpt lat="45.2620167" lon="9.0050983"><ele>89.0</ele><time>2026-04-18T12:51:04.99Z</time></trkpt><trkpt lat="45.2620767" lon="9.0049883"><ele>89.0</ele><time>2026-04-18T12:51:05.99Z</time></trkpt><trkpt lat="45.262125" lon="9.0048717"><ele>89.0</ele><time>2026-04-18T12:51:06.99Z</time></trkpt><trkpt lat="45.2621717" lon="9.00477"><ele>89.0</ele><time>2026-04-18T12:51:07.99Z</time></trkpt><trkpt lat="45.2622083" lon="9.0046817"><ele>88.66666666666667</ele><time>2026-04-18T12:51:08.99Z</time></trkpt><trkpt lat="45.2622417" lon="9.0045933"><ele>88.33333333333334</ele><time>2026-04-18T12:51:09.99Z</time></trkpt><trkpt lat="45.262275" lon="9.0045"><ele>88.0</ele><time>2026-04-18T12:51:10.99Z</time></trkpt><trkpt lat="45.2623183" lon="9.0043983"><ele>87.66666666666667</ele><time>2026-04-18T12:51:11.99Z</time></trkpt><trkpt lat="45.2623617" lon="9.0043017"><ele>87.33333333333333</ele><time>2026-04-18T12:51:12.99Z</time></trkpt><trkpt lat="45.26241" lon="9.0042167"><ele>87.0</ele><time>2026-04-18T12:51:13.99Z</time></trkpt><trkpt lat="45.2624617" lon="9.0041283"><ele>87.66666666666667</ele><time>2026-04-18T12:51:14.99Z</time></trkpt><trkpt lat="45.26251" lon="9.0040417"><ele>88.33333333333333</ele><time>2026-04-18T12:51:15.99Z</time></trkpt><trkpt lat="45.2625567" lon="9.0039617"><ele>89.0</ele><time>2026-04-18T12:51:16.99Z</time></trkpt><trkpt lat="45.2626" lon="9.00389"><ele>89.66666666666666</ele><time>2026-04-18T12:51:17.99Z</time></trkpt><trkpt lat="45.2627" lon="9.00384"><ele>90.33333333333333</ele><time>2026-04-18T12:51:19.991Z</time></trkpt><trkpt lat="45.262805" lon="9.0038017"><ele>91.0</ele><time>2026-04-18T12:51:21.99Z</time></trkpt><trkpt lat="45.262885" lon="9.0036967"><ele>91.0</ele><time>2026-04-18T12:51:23.99Z</time></trkpt><trkpt lat="45.26293" lon="9.0036267"><ele>91.0</ele><time>2026-04-18T12:51:24.991Z</time></trkpt><trkpt lat="45.2629783" lon="9.00354"><ele>91.0</ele><time>2026-04-18T12:51:25.99Z</time></trkpt><trkpt lat="45.263025" lon="9.0034517"><ele>91.0</ele><time>2026-04-18T12:51:26.99Z</time></trkpt><trkpt lat="45.2630733" lon="9.00335"><ele>91.0</ele><time>2026-04-18T12:51:27.99Z</time></trkpt><trkpt lat="45.2631233" lon="9.003255"><ele>91.0</ele><time>2026-04-18T12:51:28.99Z</time></trkpt><trkpt lat="45.263175" lon="9.0031717"><ele>91.66666666666666</ele><time>2026-04-18T12:51:29.991Z</time></trkpt><trkpt lat="45.2632217" lon="9.0030783"><ele>92.33333333333333</ele><time>2026-04-18T12:51:30.99Z</time></trkpt><trkpt lat="45.263265" lon="9.0030017"><ele>93.0</ele><time>2026-04-18T12:51:31.99Z</time></trkpt><trkpt lat="45.2633067" lon="9.002925"><ele>93.66666666666667</ele><time>2026-04-18T12:51:32.99Z</time></trkpt><trkpt lat="45.2633467" lon="9.0028483"><ele>94.33333333333334</ele><time>2026-04-18T12:51:33.99Z</time></trkpt><trkpt lat="45.2634367" lon="9.0027517"><ele>95.0</ele><time>2026-04-18T12:51:35.99Z</time></trkpt><trkpt lat="45.2635117" lon="9.0027467"><ele>95.0</ele><time>2026-04-18T12:51:37.99Z</time></trkpt><trkpt lat="45.2635917" lon="9.0026833"><ele>95.0</ele><time>2026-04-18T12:51:39.99Z</time></trkpt><trkpt lat="45.2636367" lon="9.0026083"><ele>95.0</ele><time>2026-04-18T12:51:40.99Z</time></trkpt><trkpt lat="45.26368" lon="9.0025117"><ele>95.0</ele><time>2026-04-18T12:51:41.99Z</time></trkpt><trkpt lat="45.26373" lon="9.0024083"><ele>95.0</ele><time>2026-04-18T12:51:42.99Z</time></trkpt><trkpt lat="45.2637833" lon="9.002285"><ele>95.0</ele><time>2026-04-18T12:51:43.99Z</time></trkpt><trkpt lat="45.2638567" lon="9.0021617"><ele>94.5</ele><time>2026-04-18T12:51:44.991Z</time></trkpt><trkpt lat="45.2639317" lon="9.0020383"><ele>94.0</ele><time>2026-04-18T12:51:45.99Z</time></trkpt><trkpt lat="45.2639967" lon="9.0018983"><ele>93.5</ele><time>2026-04-18T12:51:46.99Z</time></trkpt><trkpt lat="45.26407" lon="9.0017567"><ele>93.0</ele><time>2026-04-18T12:51:47.99Z</time></trkpt><trkpt lat="45.2641333" lon="9.0016233"><ele>93.80000000000001</ele><time>2026-04-18T12:51:48.99Z</time></trkpt><trkpt lat="45.26421" lon="9.0014933"><ele>94.6</ele><time>2026-04-18T12:51:49.99Z</time></trkpt><trkpt lat="45.2642867" lon="9.0013633"><ele>95.4</ele><time>2026-04-18T12:51:50.99Z</time></trkpt><trkpt lat="45.264355" lon="9.0012483"><ele>96.19999999999999</ele><time>2026-04-18T12:51:51.99Z</time></trkpt><trkpt lat="45.2644183" lon="9.00113"><ele>97.0</ele><time>2026-04-18T12:51:52.99Z</time></trkpt><trkpt lat="45.2644717" lon="9.0010133"><ele>97.00000000000001</ele><time>2026-04-18T12:51:53.99Z</time></trkpt><trkpt lat="45.2645283" lon="9.0008933"><ele>97.0</ele><time>2026-04-18T12:51:54.99Z</time></trkpt><trkpt lat="45.264585" lon="9.00079"><ele>97.0</ele><time>2026-04-18T12:51:55.99Z</time></trkpt><trkpt lat="45.264635" lon="9.0006883"><ele>97.0</ele><time>2026-04-18T12:51:56.991Z</time></trkpt><trkpt lat="45.2646883" lon="9.0006017"><ele>97.00000000000001</ele><time>2026-04-18T12:51:57.991Z</time></trkpt><trkpt lat="45.2647367" lon="9.0005167"><ele>97.0</ele><time>2026-04-18T12:51:58.99Z</time></trkpt><trkpt lat="45.2647783" lon="9.0004383"><ele>96.6</ele><time>2026-04-18T12:51:59.99Z</time></trkpt><trkpt lat="45.2648417" lon="9.0003033"><ele>96.19999999999999</ele><time>2026-04-18T12:52:01.99Z</time></trkpt><trkpt lat="45.2649017" lon="9.0001717"><ele>95.8</ele><time>2026-04-18T12:52:03.99Z</time></trkpt><trkpt lat="45.2649617" lon="9.00004"><ele>95.4</ele><time>2026-04-18T12:52:05.99Z</time></trkpt><trkpt lat="45.2649933" lon="8.9999133"><ele>95.0</ele><time>2026-04-18T12:52:07.99Z</time></trkpt><trkpt lat="45.2650433" lon="8.9998083"><ele>95.0</ele><time>2026-04-18T12:52:10.99Z</time></trkpt><trkpt lat="45.2651083" lon="8.99975"><ele>95.0</ele><time>2026-04-18T12:52:12.99Z</time></trkpt><trkpt lat="45.26518" lon="8.999595"><ele>95.0</ele><time>2026-04-18T12:52:14.99Z</time></trkpt><trkpt lat="45.2652167" lon="8.9995067"><ele>95.0</ele><time>2026-04-18T12:52:15.99Z</time></trkpt><trkpt lat="45.2652583" lon="8.99942"><ele>95.0</ele><time>2026-04-18T12:52:16.99Z</time></trkpt><trkpt lat="45.2653033" lon="8.999325"><ele>95.0</ele><time>2026-04-18T12:52:17.99Z</time></trkpt><trkpt lat="45.26536" lon="8.999225"><ele>95.0</ele><time>2026-04-18T12:52:18.99Z</time></trkpt><trkpt lat="45.2654083" lon="8.99912"><ele>95.0</ele><time>2026-04-18T12:52:19.99Z</time></trkpt><trkpt lat="45.265455" lon="8.9990183"><ele>95.0</ele><time>2026-04-18T12:52:20.99Z</time></trkpt><trkpt lat="45.265505" lon="8.9989183"><ele>95.0</ele><time>2026-04-18T12:52:21.99Z</time></trkpt><trkpt lat="45.2655517" lon="8.998815"><ele>95.0</ele><time>2026-04-18T12:52:22.99Z</time></trkpt><trkpt lat="45.2656033" lon="8.9987167"><ele>95.0</ele><time>2026-04-18T12:52:23.99Z</time></trkpt><trkpt lat="45.265655" lon="8.9986183"><ele>95.0</ele><time>2026-04-18T12:52:24.99Z</time></trkpt><trkpt lat="45.265705" lon="8.9985133"><ele>95.0</ele><time>2026-04-18T12:52:25.99Z</time></trkpt><trkpt lat="45.2657567" lon="8.99841"><ele>95.0</ele><time>2026-04-18T12:52:26.991Z</time></trkpt><trkpt lat="45.2658083" lon="8.9983167"><ele>95.0</ele><time>2026-04-18T12:52:27.99Z</time></trkpt><trkpt lat="45.26585" lon="8.9982233"><ele>95.0</ele><time>2026-04-18T12:52:28.99Z</time></trkpt><trkpt lat="45.2658967" lon="8.9981417"><ele>95.0</ele><time>2026-04-18T12:52:29.99Z</time></trkpt><trkpt lat="45.2659433" lon="8.9980517"><ele>95.0</ele><time>2026-04-18T12:52:30.99Z</time></trkpt><trkpt lat="45.2659883" lon="8.9979683"><ele>95.0</ele><time>2026-04-18T12:52:31.99Z</time></trkpt><trkpt lat="45.2660317" lon="8.9978817"><ele>95.0</ele><time>2026-04-18T12:52:32.99Z</time></trkpt><trkpt lat="45.2660717" lon="8.997785"><ele>95.0</ele><time>2026-04-18T12:52:33.99Z</time></trkpt><trkpt lat="45.2661217" lon="8.99769"><ele>95.0</ele><time>2026-04-18T12:52:34.99Z</time></trkpt><trkpt lat="45.2661733" lon="8.9975883"><ele>95.0</ele><time>2026-04-18T12:52:35.99Z</time></trkpt><trkpt lat="45.2662333" lon="8.9974867"><ele>94.83333333333334</ele><time>2026-04-18T12:52:36.99Z</time></trkpt><trkpt lat="45.2662967" lon="8.997375"><ele>94.66666666666667</ele><time>2026-04-18T12:52:37.99Z</time></trkpt><trkpt lat="45.2663517" lon="8.9972733"><ele>94.5</ele><time>2026-04-18T12:52:38.99Z</time></trkpt><trkpt lat="45.2663967" lon="8.99717"><ele>94.33333333333333</ele><time>2026-04-18T12:52:39.99Z</time></trkpt><trkpt lat="45.266445" lon="8.9970767"><ele>94.16666666666666</ele><time>2026-04-18T12:52:40.99Z</time></trkpt><trkpt lat="45.2664883" lon="8.9969783"><ele>94.0</ele><time>2026-04-18T12:52:41.99Z</time></trkpt><trkpt lat="45.2665317" lon="8.9969033"><ele>94.0</ele><time>2026-04-18T12:52:42.99Z</time></trkpt><trkpt lat="45.2665733" lon="8.9968167"><ele>94.0</ele><time>2026-04-18T12:52:43.99Z</time></trkpt><trkpt lat="45.2666133" lon="8.99674"><ele>94.0</ele><time>2026-04-18T12:52:44.99Z</time></trkpt><trkpt lat="45.266685" lon="8.996625"><ele>94.0</ele><time>2026-04-18T12:52:46.99Z</time></trkpt><trkpt lat="45.2667683" lon="8.9966183"><ele>94.0</ele><time>2026-04-18T12:52:48.99Z</time></trkpt><trkpt lat="45.2668767" lon="8.9967183"><ele>94.0</ele><time>2026-04-18T12:52:50.99Z</time></trkpt><trkpt lat="45.26694" lon="8.996785"><ele>94.0</ele><time>2026-04-18T12:52:51.99Z</time></trkpt><trkpt lat="45.26701" lon="8.9968483"><ele>94.0</ele><time>2026-04-18T12:52:52.99Z</time></trkpt><trkpt lat="45.2670917" lon="8.9969167"><ele>94.0</ele><time>2026-04-18T12:52:53.99Z</time></trkpt><trkpt lat="45.2671717" lon="8.99698"><ele>94.0</ele><time>2026-04-18T12:52:54.99Z</time></trkpt><trkpt lat="45.2672517" lon="8.99705"><ele>94.0</ele><time>2026-04-18T12:52:55.99Z</time></trkpt><trkpt lat="45.2673217" lon="8.9971133"><ele>94.5</ele><time>2026-04-18T12:52:56.99Z</time></trkpt><trkpt lat="45.267395" lon="8.9971767"><ele>95.0</ele><time>2026-04-18T12:52:57.99Z</time></trkpt><trkpt lat="45.2674683" lon="8.9972383"><ele>95.5</ele><time>2026-04-18T12:52:58.991Z</time></trkpt><trkpt lat="45.2675367" lon="8.9972983"><ele>96.0</ele><time>2026-04-18T12:52:59.99Z</time></trkpt><trkpt lat="45.2676067" lon="8.9973567"><ele>96.50000000000001</ele><time>2026-04-18T12:53:00.99Z</time></trkpt><trkpt lat="45.2676683" lon="8.9974117"><ele>97.0</ele><time>2026-04-18T12:53:01.99Z</time></trkpt><trkpt lat="45.267735" lon="8.997465"><ele>97.00000000000001</ele><time>2026-04-18T12:53:02.99Z</time></trkpt><trkpt lat="45.2677983" lon="8.997515"><ele>97.0</ele><time>2026-04-18T12:53:03.99Z</time></trkpt><trkpt lat="45.2678583" lon="8.9975633"><ele>97.0</ele><time>2026-04-18T12:53:04.99Z</time></trkpt><trkpt lat="45.2679483" lon="8.99763"><ele>97.0</ele><time>2026-04-18T12:53:06.99Z</time></trkpt><trkpt lat="45.2680133" lon="8.9976567"><ele>97.00000000000001</ele><time>2026-04-18T12:53:08.99Z</time></trkpt><trkpt lat="45.2680783" lon="8.9976183"><ele>97.0</ele><time>2026-04-18T12:53:11.99Z</time></trkpt><trkpt lat="45.26811" lon="8.9975283"><ele>97.00000000000001</ele><time>2026-04-18T12:53:13.99Z</time></trkpt><trkpt lat="45.2681583" lon="8.99738"><ele>97.0</ele><time>2026-04-18T12:53:15.99Z</time></trkpt><trkpt lat="45.2681917" lon="8.99728"><ele>97.0</ele><time>2026-04-18T12:53:16.99Z</time></trkpt><trkpt lat="45.2682233" lon="8.9971717"><ele>97.0</ele><time>2026-04-18T12:53:17.99Z</time></trkpt><trkpt lat="45.2682633" lon="8.997075"><ele>97.00000000000001</ele><time>2026-04-18T12:53:18.99Z</time></trkpt><trkpt lat="45.2683017" lon="8.996965"><ele>97.0</ele><time>2026-04-18T12:53:19.99Z</time></trkpt><trkpt lat="45.26834" lon="8.99685"><ele>97.0</ele><time>2026-04-18T12:53:20.99Z</time></trkpt><trkpt lat="45.2683817" lon="8.996745"><ele>97.0</ele><time>2026-04-18T12:53:21.99Z</time></trkpt><trkpt lat="45.2684167" lon="8.996635"><ele>97.0</ele><time>2026-04-18T12:53:22.99Z</time></trkpt><trkpt lat="45.2684433" lon="8.9965417"><ele>97.0</ele><time>2026-04-18T12:53:23.99Z</time></trkpt><trkpt lat="45.268485" lon="8.9964667"><ele>97.0</ele><time>2026-04-18T12:53:24.99Z</time></trkpt><trkpt lat="45.26853" lon="8.9964"><ele>97.0</ele><time>2026-04-18T12:53:25.99Z</time></trkpt><trkpt lat="45.268595" lon="8.996355"><ele>97.0</ele><time>2026-04-18T12:53:26.99Z</time></trkpt><trkpt lat="45.2686617" lon="8.9963267"><ele>97.0</ele><time>2026-04-18T12:53:27.99Z</time></trkpt><trkpt lat="45.2687283" lon="8.9963017"><ele>97.0</ele><time>2026-04-18T12:53:28.99Z</time></trkpt><trkpt lat="45.2688367" lon="8.99619"><ele>97.0</ele><time>2026-04-18T12:53:30.99Z</time></trkpt><trkpt lat="45.2689017" lon="8.9961083"><ele>97.0</ele><time>2026-04-18T12:53:31.99Z</time></trkpt><trkpt lat="45.2689683" lon="8.9960183"><ele>97.0</ele><time>2026-04-18T12:53:32.991Z</time></trkpt><trkpt lat="45.2690383" lon="8.995925"><ele>97.00000000000001</ele><time>2026-04-18T12:53:33.99Z</time></trkpt><trkpt lat="45.269115" lon="8.9958333"><ele>97.0</ele><time>2026-04-18T12:53:34.99Z</time></trkpt><trkpt lat="45.2691833" lon="8.9957467"><ele>97.0</ele><time>2026-04-18T12:53:35.99Z</time></trkpt><trkpt lat="45.2692467" lon="8.9956633"><ele>97.0</ele><time>2026-04-18T12:53:36.99Z</time></trkpt><trkpt lat="45.2693033" lon="8.9955833"><ele>97.00000000000001</ele><time>2026-04-18T12:53:37.99Z</time></trkpt><trkpt lat="45.2693533" lon="8.995515"><ele>97.0</ele><time>2026-04-18T12:53:38.99Z</time></trkpt><trkpt lat="45.2694417" lon="8.9954117"><ele>97.0</ele><time>2026-04-18T12:53:40.99Z</time></trkpt><trkpt lat="45.2695483" lon="8.995415"><ele>97.0</ele><time>2026-04-18T12:53:42.991Z</time></trkpt><trkpt lat="45.2696217" lon="8.9954867"><ele>97.0</ele><time>2026-04-18T12:53:43.99Z</time></trkpt><trkpt lat="45.269705" lon="8.99557"><ele>97.0</ele><time>2026-04-18T12:53:44.991Z</time></trkpt><trkpt lat="45.2697767" lon="8.9956467"><ele>97.0</ele><time>2026-04-18T12:53:45.99Z</time></trkpt><trkpt lat="45.2698467" lon="8.9957133"><ele>96.8</ele><time>2026-04-18T12:53:46.991Z</time></trkpt><trkpt lat="45.2699167" lon="8.9957767"><ele>96.6</ele><time>2026-04-18T12:53:47.99Z</time></trkpt><trkpt lat="45.26998" lon="8.9958217"><ele>96.39999999999999</ele><time>2026-04-18T12:53:48.99Z</time></trkpt><trkpt lat="45.2700817" lon="8.9958883"><ele>96.19999999999999</ele><time>2026-04-18T12:53:50.991Z</time></trkpt><trkpt lat="45.2701667" lon="8.99587"><ele>96.0</ele><time>2026-04-18T12:53:52.99Z</time></trkpt><trkpt lat="45.2702633" lon="8.995785"><ele>96.0</ele><time>2026-04-18T12:53:54.99Z</time></trkpt><trkpt lat="45.2703083" lon="8.9957017"><ele>96.0</ele><time>2026-04-18T12:53:55.99Z</time></trkpt><trkpt lat="45.2703583" lon="8.9956017"><ele>96.0</ele><time>2026-04-18T12:53:56.99Z</time></trkpt><trkpt lat="45.2704117" lon="8.9954933"><ele>96.0</ele><time>2026-04-18T12:53:57.99Z</time></trkpt><trkpt lat="45.2704767" lon="8.995395"><ele>96.0</ele><time>2026-04-18T12:53:58.99Z</time></trkpt><trkpt lat="45.2705417" lon="8.995305"><ele>96.0</ele><time>2026-04-18T12:53:59.99Z</time></trkpt><trkpt lat="45.2706067" lon="8.9952317"><ele>96.0</ele><time>2026-04-18T12:54:00.991Z</time></trkpt><trkpt lat="45.2706683" lon="8.9951717"><ele>96.0</ele><time>2026-04-18T12:54:01.99Z</time></trkpt><trkpt lat="45.2707283" lon="8.99513"><ele>96.0</ele><time>2026-04-18T12:54:02.99Z</time></trkpt><trkpt lat="45.27085" lon="8.99509"><ele>96.0</ele><time>2026-04-18T12:54:04.99Z</time></trkpt><trkpt lat="45.2709533" lon="8.9951067"><ele>96.0</ele><time>2026-04-18T12:54:06.99Z</time></trkpt><trkpt lat="45.2710133" lon="8.9951967"><ele>96.0</ele><time>2026-04-18T12:54:08.99Z</time></trkpt><trkpt lat="45.2710383" lon="8.9953333"><ele>96.0</ele><time>2026-04-18T12:54:10.99Z</time></trkpt><trkpt lat="45.271035" lon="8.9954283"><ele>96.0</ele><time>2026-04-18T12:54:11.99Z</time></trkpt><trkpt lat="45.271025" lon="8.9955383"><ele>96.0</ele><time>2026-04-18T12:54:12.99Z</time></trkpt><trkpt lat="45.2710133" lon="8.995655"><ele>96.0</ele><time>2026-04-18T12:54:13.99Z</time></trkpt><trkpt lat="45.2710017" lon="8.9957717"><ele>96.0</ele><time>2026-04-18T12:54:14.991Z</time></trkpt><trkpt lat="45.2710067" lon="8.9958767"><ele>95.99999999999999</ele><time>2026-04-18T12:54:15.99Z</time></trkpt><trkpt lat="45.2710333" lon="8.995965"><ele>96.0</ele><time>2026-04-18T12:54:16.99Z</time></trkpt><trkpt lat="45.2710817" lon="8.9960467"><ele>96.0</ele><time>2026-04-18T12:54:17.99Z</time></trkpt><trkpt lat="45.27114" lon="8.9961183"><ele>96.0</ele><time>2026-04-18T12:54:18.99Z</time></trkpt><trkpt lat="45.2711883" lon="8.9962033"><ele>96.0</ele><time>2026-04-18T12:54:19.99Z</time></trkpt><trkpt lat="45.2712183" lon="8.9962983"><ele>95.99999999999999</ele><time>2026-04-18T12:54:20.99Z</time></trkpt><trkpt lat="45.2712367" lon="8.99639"><ele>96.0</ele><time>2026-04-18T12:54:21.99Z</time></trkpt><trkpt lat="45.27123" lon="8.9964817"><ele>96.0</ele><time>2026-04-18T12:54:22.99Z</time></trkpt><trkpt lat="45.2711967" lon="8.9965883"><ele>96.0</ele><time>2026-04-18T12:54:23.99Z</time></trkpt><trkpt lat="45.27113" lon="8.9967067"><ele>96.0</ele><time>2026-04-18T12:54:24.99Z</time></trkpt><trkpt lat="45.2710617" lon="8.9968467"><ele>96.0</ele><time>2026-04-18T12:54:25.99Z</time></trkpt><trkpt lat="45.271005" lon="8.996985"><ele>96.0</ele><time>2026-04-18T12:54:26.99Z</time></trkpt><trkpt lat="45.2709533" lon="8.9971083"><ele>95.83333333333333</ele><time>2026-04-18T12:54:27.99Z</time></trkpt><trkpt lat="45.2709117" lon="8.997215"><ele>95.66666666666667</ele><time>2026-04-18T12:54:28.99Z</time></trkpt><trkpt lat="45.2708717" lon="8.9973133"><ele>95.5</ele><time>2026-04-18T12:54:29.99Z</time></trkpt><trkpt lat="45.27083" lon="8.9974217"><ele>95.33333333333334</ele><time>2026-04-18T12:54:30.99Z</time></trkpt><trkpt lat="45.2707867" lon="8.9975267"><ele>95.16666666666667</ele><time>2026-04-18T12:54:31.99Z</time></trkpt><trkpt lat="45.270745" lon="8.997625"><ele>95.0</ele><time>2026-04-18T12:54:32.99Z</time></trkpt><trkpt lat="45.2707083" lon="8.9977117"><ele>95.0</ele><time>2026-04-18T12:54:33.99Z</time></trkpt><trkpt lat="45.270675" lon="8.9978017"><ele>95.0</ele><time>2026-04-18T12:54:34.99Z</time></trkpt><trkpt lat="45.27064" lon="8.9979083"><ele>95.0</ele><time>2026-04-18T12:54:35.99Z</time></trkpt><trkpt lat="45.2706033" lon="8.9980183"><ele>95.0</ele><time>2026-04-18T12:54:36.99Z</time></trkpt><trkpt lat="45.2705567" lon="8.9981333"><ele>95.0</ele><time>2026-04-18T12:54:37.99Z</time></trkpt><trkpt lat="45.2705067" lon="8.9982517"><ele>95.0</ele><time>2026-04-18T12:54:38.99Z</time></trkpt><trkpt lat="45.2704567" lon="8.9983817"><ele>95.0</ele><time>2026-04-18T12:54:39.991Z</time></trkpt><trkpt lat="45.2703967" lon="8.99853"><ele>95.0</ele><time>2026-04-18T12:54:40.991Z</time></trkpt><trkpt lat="45.2703367" lon="8.9986733"><ele>95.0</ele><time>2026-04-18T12:54:41.99Z</time></trkpt><trkpt lat="45.2702833" lon="8.998815"><ele>95.0</ele><time>2026-04-18T12:54:42.99Z</time></trkpt><trkpt lat="45.2702333" lon="8.998955"><ele>95.0</ele><time>2026-04-18T12:54:43.99Z</time></trkpt><trkpt lat="45.27018" lon="8.9990933"><ele>95.0</ele><time>2026-04-18T12:54:44.99Z</time></trkpt><trkpt lat="45.2701267" lon="8.9992233"><ele>95.0</ele><time>2026-04-18T12:54:45.99Z</time></trkpt><trkpt lat="45.2700783" lon="8.9993533"><ele>95.0</ele><time>2026-04-18T12:54:46.99Z</time></trkpt><trkpt lat="45.2700317" lon="8.9994767"><ele>95.0</ele><time>2026-04-18T12:54:47.99Z</time></trkpt><trkpt lat="45.2699817" lon="8.9995983"><ele>95.0</ele><time>2026-04-18T12:54:48.99Z</time></trkpt><trkpt lat="45.26994" lon="8.99972"><ele>95.0</ele><time>2026-04-18T12:54:49.99Z</time></trkpt><trkpt lat="45.2698917" lon="8.99984"><ele>95.0</ele><time>2026-04-18T12:54:50.989Z</time></trkpt><trkpt lat="45.26985" lon="8.9999467"><ele>95.0</ele><time>2026-04-18T12:54:51.989Z</time></trkpt><trkpt lat="45.2698133" lon="9.0000517"><ele>95.0</ele><time>2026-04-18T12:54:52.989Z</time></trkpt><trkpt lat="45.269775" lon="9.0001417"><ele>95.0</ele><time>2026-04-18T12:54:53.989Z</time></trkpt><trkpt lat="45.26974" lon="9.0002217"><ele>95.0</ele><time>2026-04-18T12:54:54.989Z</time></trkpt><trkpt lat="45.269705" lon="9.0003"><ele>95.0</ele><time>2026-04-18T12:54:55.989Z</time></trkpt><trkpt lat="45.26967" lon="9.00038"><ele>95.0</ele><time>2026-04-18T12:54:56.989Z</time></trkpt><trkpt lat="45.2696383" lon="9.0004717"><ele>95.0</ele><time>2026-04-18T12:54:57.989Z</time></trkpt><trkpt lat="45.2696017" lon="9.0005583"><ele>95.0</ele><time>2026-04-18T12:54:58.989Z</time></trkpt><trkpt lat="45.2695633" lon="9.0006517"><ele>95.0</ele><time>2026-04-18T12:54:59.989Z</time></trkpt><trkpt lat="45.26952" lon="9.0007533"><ele>95.0</ele><time>2026-04-18T12:55:00.989Z</time></trkpt><trkpt lat="45.2694867" lon="9.000855"><ele>95.33333333333334</ele><time>2026-04-18T12:55:01.989Z</time></trkpt><trkpt lat="45.26945" lon="9.0009617"><ele>95.66666666666667</ele><time>2026-04-18T12:55:02.989Z</time></trkpt><trkpt lat="45.26941" lon="9.0010717"><ele>96.0</ele><time>2026-04-18T12:55:03.989Z</time></trkpt><trkpt lat="45.2693667" lon="9.0011767"><ele>96.33333333333334</ele><time>2026-04-18T12:55:04.989Z</time></trkpt><trkpt lat="45.2693317" lon="9.0012733"><ele>96.66666666666667</ele><time>2026-04-18T12:55:05.989Z</time></trkpt><trkpt lat="45.2692917" lon="9.0013617"><ele>97.0</ele><time>2026-04-18T12:55:06.989Z</time></trkpt><trkpt lat="45.2692433" lon="9.001435"><ele>97.00000000000001</ele><time>2026-04-18T12:55:07.989Z</time></trkpt><trkpt lat="45.2691883" lon="9.001505"><ele>97.0</ele><time>2026-04-18T12:55:08.989Z</time></trkpt><trkpt lat="45.2691217" lon="9.0015733"><ele>97.0</ele><time>2026-04-18T12:55:09.989Z</time></trkpt><trkpt lat="45.2690533" lon="9.00164"><ele>97.0</ele><time>2026-04-18T12:55:10.989Z</time></trkpt><trkpt lat="45.2689817" lon="9.0017017"><ele>97.00000000000001</ele><time>2026-04-18T12:55:11.989Z</time></trkpt><trkpt lat="45.2689133" lon="9.0017633"><ele>97.0</ele><time>2026-04-18T12:55:12.989Z</time></trkpt><trkpt lat="45.2688467" lon="9.0018233"><ele>96.50000000000001</ele><time>2026-04-18T12:55:13.989Z</time></trkpt><trkpt lat="45.26878" lon="9.0018817"><ele>96.0</ele><time>2026-04-18T12:55:14.989Z</time></trkpt><trkpt lat="45.268725" lon="9.0019317"><ele>95.5</ele><time>2026-04-18T12:55:15.989Z</time></trkpt><trkpt lat="45.268635" lon="9.002015"><ele>95.0</ele><time>2026-04-18T12:55:17.989Z</time></trkpt><trkpt lat="45.2685733" lon="9.0020733"><ele>94.5</ele><time>2026-04-18T12:55:19.989Z</time></trkpt><trkpt lat="45.268665" lon="9.00199"><ele>94.0</ele><time>2026-04-18T12:56:05.989Z</time></trkpt><trkpt lat="45.2687717" lon="9.00189"><ele>94.0</ele><time>2026-04-18T12:56:07.989Z</time></trkpt><trkpt lat="45.2688417" lon="9.0018333"><ele>94.0</ele><time>2026-04-18T12:56:08.989Z</time></trkpt><trkpt lat="45.2689117" lon="9.0017767"><ele>94.0</ele><time>2026-04-18T12:56:09.989Z</time></trkpt><trkpt lat="45.2689867" lon="9.0017133"><ele>94.0</ele><time>2026-04-18T12:56:10.989Z</time></trkpt><trkpt lat="45.2690617" lon="9.00165"><ele>94.0</ele><time>2026-04-18T12:56:11.989Z</time></trkpt><trkpt lat="45.2691383" lon="9.0015833"><ele>94.0</ele><time>2026-04-18T12:56:12.989Z</time></trkpt><trkpt lat="45.26921" lon="9.0015167"><ele>94.5</ele><time>2026-04-18T12:56:13.989Z</time></trkpt><trkpt lat="45.2692717" lon="9.0014417"><ele>95.0</ele><time>2026-04-18T12:56:14.989Z</time></trkpt><trkpt lat="45.2693217" lon="9.0013567"><ele>95.5</ele><time>2026-04-18T12:56:15.989Z</time></trkpt><trkpt lat="45.2693667" lon="9.0012533"><ele>96.0</ele><time>2026-04-18T12:56:16.989Z</time></trkpt><trkpt lat="45.26941" lon="9.0011367"><ele>96.50000000000001</ele><time>2026-04-18T12:56:17.989Z</time></trkpt><trkpt lat="45.2694533" lon="9.0010083"><ele>97.0</ele><time>2026-04-18T12:56:18.989Z</time></trkpt><trkpt lat="45.2695" lon="9.00088"><ele>96.6</ele><time>2026-04-18T12:56:19.989Z</time></trkpt><trkpt lat="45.2695483" lon="9.0007533"><ele>96.19999999999999</ele><time>2026-04-18T12:56:20.989Z</time></trkpt><trkpt lat="45.2695917" lon="9.00064"><ele>95.8</ele><time>2026-04-18T12:56:21.989Z</time></trkpt><trkpt lat="45.269635" lon="9.0005333"><ele>95.4</ele><time>2026-04-18T12:56:22.989Z</time></trkpt><trkpt lat="45.26968" lon="9.0004267"><ele>95.0</ele><time>2026-04-18T12:56:23.989Z</time></trkpt><trkpt lat="45.2697233" lon="9.000325"><ele>95.0</ele><time>2026-04-18T12:56:24.989Z</time></trkpt><trkpt lat="45.269765" lon="9.0002233"><ele>95.0</ele><time>2026-04-18T12:56:25.989Z</time></trkpt><trkpt lat="45.269805" lon="9.0001183"><ele>95.0</ele><time>2026-04-18T12:56:26.989Z</time></trkpt><trkpt lat="45.2698433" lon="9.000005"><ele>95.0</ele><time>2026-04-18T12:56:27.989Z</time></trkpt><trkpt lat="45.2698883" lon="8.9998933"><ele>95.0</ele><time>2026-04-18T12:56:28.989Z</time></trkpt><trkpt lat="45.26993" lon="8.9997783"><ele>95.0</ele><time>2026-04-18T12:56:29.989Z</time></trkpt><trkpt lat="45.2699733" lon="8.999665"><ele>95.0</ele><time>2026-04-18T12:56:30.989Z</time></trkpt><trkpt lat="45.2700133" lon="8.9995533"><ele>95.0</ele><time>2026-04-18T12:56:31.989Z</time></trkpt><trkpt lat="45.2700567" lon="8.9994367"><ele>95.0</ele><time>2026-04-18T12:56:32.989Z</time></trkpt><trkpt lat="45.2701033" lon="8.9993217"><ele>95.0</ele><time>2026-04-18T12:56:33.989Z</time></trkpt><trkpt lat="45.27015" lon="8.9992033"><ele>95.0</ele><time>2026-04-18T12:56:34.989Z</time></trkpt><trkpt lat="45.2701967" lon="8.9990833"><ele>95.0</ele><time>2026-04-18T12:56:35.989Z</time></trkpt><trkpt lat="45.2702433" lon="8.9989667"><ele>95.0</ele><time>2026-04-18T12:56:36.989Z</time></trkpt><trkpt lat="45.27029" lon="8.9988533"><ele>95.0</ele><time>2026-04-18T12:56:37.989Z</time></trkpt><trkpt lat="45.2703333" lon="8.9987383"><ele>95.0</ele><time>2026-04-18T12:56:38.989Z</time></trkpt><trkpt lat="45.270375" lon="8.9986283"><ele>95.0</ele><time>2026-04-18T12:56:39.989Z</time></trkpt><trkpt lat="45.2704117" lon="8.9985267"><ele>95.0</ele><time>2026-04-18T12:56:40.989Z</time></trkpt><trkpt lat="45.2704517" lon="8.9984233"><ele>95.0</ele><time>2026-04-18T12:56:41.989Z</time></trkpt><trkpt lat="45.2704967" lon="8.9983217"><ele>95.0</ele><time>2026-04-18T12:56:42.989Z</time></trkpt><trkpt lat="45.2705333" lon="8.9982217"><ele>95.0</ele><time>2026-04-18T12:56:43.989Z</time></trkpt><trkpt lat="45.2705683" lon="8.9981183"><ele>95.0</ele><time>2026-04-18T12:56:44.99Z</time></trkpt><trkpt lat="45.2706067" lon="8.99802"><ele>95.0</ele><time>2026-04-18T12:56:45.99Z</time></trkpt><trkpt lat="45.2706467" lon="8.997925"><ele>95.0</ele><time>2026-04-18T12:56:46.989Z</time></trkpt><trkpt lat="45.2706783" lon="8.99783"><ele>95.0</ele><time>2026-04-18T12:56:47.989Z</time></trkpt><trkpt lat="45.2707117" lon="8.9977383"><ele>95.0</ele><time>2026-04-18T12:56:48.989Z</time></trkpt><trkpt lat="45.270745" lon="8.9976383"><ele>95.0</ele><time>2026-04-18T12:56:49.989Z</time></trkpt><trkpt lat="45.270785" lon="8.99754"><ele>95.0</ele><time>2026-04-18T12:56:50.989Z</time></trkpt><trkpt lat="45.2708267" lon="8.9974367"><ele>95.0</ele><time>2026-04-18T12:56:51.989Z</time></trkpt><trkpt lat="45.27087" lon="8.99733"><ele>95.0</ele><time>2026-04-18T12:56:52.989Z</time></trkpt><trkpt lat="45.27092" lon="8.99721"><ele>95.0</ele><time>2026-04-18T12:56:53.989Z</time></trkpt><trkpt lat="45.2709633" lon="8.9970933"><ele>95.0</ele><time>2026-04-18T12:56:54.989Z</time></trkpt><trkpt lat="45.2710017" lon="8.9969883"><ele>95.0</ele><time>2026-04-18T12:56:55.989Z</time></trkpt><trkpt lat="45.2710417" lon="8.996895"><ele>95.0</ele><time>2026-04-18T12:56:56.99Z</time></trkpt><trkpt lat="45.2710767" lon="8.99681"><ele>95.0</ele><time>2026-04-18T12:56:57.989Z</time></trkpt><trkpt lat="45.2711117" lon="8.99673"><ele>95.0</ele><time>2026-04-18T12:56:58.989Z</time></trkpt><trkpt lat="45.27117" lon="8.9965883"><ele>95.16666666666667</ele><time>2026-04-18T12:57:00.989Z</time></trkpt><trkpt lat="45.2712167" lon="8.9964833"><ele>95.33333333333334</ele><time>2026-04-18T12:57:02.989Z</time></trkpt><trkpt lat="45.271245" lon="8.9963717"><ele>95.5</ele><time>2026-04-18T12:57:28.99Z</time></trkpt><trkpt lat="45.271215" lon="8.99625"><ele>95.66666666666667</ele><time>2026-04-18T12:57:30.99Z</time></trkpt><trkpt lat="45.2711867" lon="8.996165"><ele>95.83333333333333</ele><time>2026-04-18T12:57:32.989Z</time></trkpt><trkpt lat="45.27119" lon="8.9960683"><ele>96.0</ele><time>2026-04-18T12:57:48.989Z</time></trkpt><trkpt lat="45.271245" lon="8.9960033"><ele>96.0</ele><time>2026-04-18T12:57:52.989Z</time></trkpt><trkpt lat="45.2713117" lon="8.9959833"><ele>96.0</ele><time>2026-04-18T12:57:55.989Z</time></trkpt><trkpt lat="45.271375" lon="8.9959533"><ele>96.0</ele><time>2026-04-18T12:58:34.99Z</time></trkpt><trkpt lat="45.2714483" lon="8.99594"><ele>96.0</ele><time>2026-04-18T12:58:37.989Z</time></trkpt><trkpt lat="45.27154" lon="8.9959333"><ele>96.0</ele><time>2026-04-18T12:58:40.989Z</time></trkpt><trkpt lat="45.27162" lon="8.995925"><ele>96.0</ele><time>2026-04-18T12:58:42.99Z</time></trkpt><trkpt lat="45.271705" lon="8.9959267"><ele>95.6</ele><time>2026-04-18T12:58:44.989Z</time></trkpt><trkpt lat="45.271795" lon="8.9959167"><ele>95.19999999999999</ele><time>2026-04-18T12:58:46.989Z</time></trkpt><trkpt lat="45.2719" lon="8.9959017"><ele>94.80000000000001</ele><time>2026-04-18T12:58:48.989Z</time></trkpt><trkpt lat="45.272015" lon="8.9958967"><ele>94.4</ele><time>2026-04-18T12:58:50.989Z</time></trkpt><trkpt lat="45.2721233" lon="8.9958833"><ele>94.0</ele><time>2026-04-18T12:58:52.989Z</time></trkpt><trkpt lat="45.2722183" lon="8.9958767"><ele>94.16666666666666</ele><time>2026-04-18T12:58:54.989Z</time></trkpt><trkpt lat="45.2723033" lon="8.995885"><ele>94.33333333333333</ele><time>2026-04-18T12:58:56.989Z</time></trkpt><trkpt lat="45.2724017" lon="8.995865"><ele>94.5</ele><time>2026-04-18T12:59:02.989Z</time></trkpt><trkpt lat="45.272495" lon="8.9958267"><ele>94.66666666666667</ele><time>2026-04-18T12:59:05.989Z</time></trkpt><trkpt lat="45.2725617" lon="8.995805"><ele>94.83333333333334</ele><time>2026-04-18T12:59:07.989Z</time></trkpt><trkpt lat="45.2726383" lon="8.99578"><ele>95.0</ele><time>2026-04-18T12:59:09.989Z</time></trkpt><trkpt lat="45.2727233" lon="8.9957467"><ele>95.0</ele><time>2026-04-18T12:59:11.989Z</time></trkpt><trkpt lat="45.27279" lon="8.9957217"><ele>95.0</ele><time>2026-04-18T12:59:13.989Z</time></trkpt><trkpt lat="45.2728617" lon="8.995715"><ele>95.0</ele><time>2026-04-18T12:59:16.989Z</time></trkpt><trkpt lat="45.2729283" lon="8.9957267"><ele>95.0</ele><time>2026-04-18T12:59:19.989Z</time></trkpt><trkpt lat="45.272825" lon="8.9956917"><ele>95.0</ele><time>2026-04-18T13:00:12.989Z</time></trkpt><trkpt lat="45.2727217" lon="8.9957067"><ele>95.0</ele><time>2026-04-18T13:00:14.989Z</time></trkpt><trkpt lat="45.2726217" lon="8.9957283"><ele>95.0</ele><time>2026-04-18T13:00:16.989Z</time></trkpt><trkpt lat="45.27252" lon="8.9957633"><ele>95.0</ele><time>2026-04-18T13:00:18.989Z</time></trkpt><trkpt lat="45.272435" lon="8.9957883"><ele>95.0</ele><time>2026-04-18T13:00:20.989Z</time></trkpt><trkpt lat="45.2723683" lon="8.9958217"><ele>95.0</ele><time>2026-04-18T13:00:22.989Z</time></trkpt><trkpt lat="45.27244" lon="8.9958333"><ele>95.0</ele><time>2026-04-18T13:00:54.989Z</time></trkpt><trkpt lat="45.272505" lon="8.9958433"><ele>95.0</ele><time>2026-04-18T13:00:57.989Z</time></trkpt><trkpt lat="45.2725883" lon="8.9958217"><ele>95.0</ele><time>2026-04-18T13:01:00.989Z</time></trkpt><trkpt lat="45.272655" lon="8.9957967"><ele>95.0</ele><time>2026-04-18T13:01:02.989Z</time></trkpt><trkpt lat="45.2727267" lon="8.9957667"><ele>95.0</ele><time>2026-04-18T13:01:04.989Z</time></trkpt><trkpt lat="45.27281" lon="8.9957317"><ele>95.0</ele><time>2026-04-18T13:01:06.989Z</time></trkpt><trkpt lat="45.2728917" lon="8.9957183"><ele>95.0</ele><time>2026-04-18T13:01:08.989Z</time></trkpt><trkpt lat="45.2729617" lon="8.9956983"><ele>95.0</ele><time>2026-04-18T13:01:10.989Z</time></trkpt><trkpt lat="45.2730367" lon="8.9956667"><ele>95.0</ele><time>2026-04-18T13:01:12.989Z</time></trkpt><trkpt lat="45.273125" lon="8.99564"><ele>95.0</ele><time>2026-04-18T13:01:14.989Z</time></trkpt><trkpt lat="45.2732133" lon="8.9955883"><ele>95.0</ele><time>2026-04-18T13:01:16.99Z</time></trkpt><trkpt lat="45.2733133" lon="8.99555"><ele>95.0</ele><time>2026-04-18T13:01:18.989Z</time></trkpt><trkpt lat="45.2734267" lon="8.9955083"><ele>95.0</ele><time>2026-04-18T13:01:20.989Z</time></trkpt><trkpt lat="45.2735417" lon="8.9954683"><ele>95.0</ele><time>2026-04-18T13:01:22.989Z</time></trkpt><trkpt lat="45.2736067" lon="8.9954583"><ele>95.0</ele><time>2026-04-18T13:01:23.989Z</time></trkpt><trkpt lat="45.2737067" lon="8.9954133"><ele>95.0</ele><time>2026-04-18T13:01:25.989Z</time></trkpt><trkpt lat="45.2738033" lon="8.9953883"><ele>95.0</ele><time>2026-04-18T13:01:27.988Z</time></trkpt><trkpt lat="45.2738867" lon="8.9953583"><ele>95.0</ele><time>2026-04-18T13:01:29.988Z</time></trkpt><trkpt lat="45.2739767" lon="8.9953333"><ele>95.0</ele><time>2026-04-18T13:01:31.989Z</time></trkpt><trkpt lat="45.274065" lon="8.9953067"><ele>95.33333333333334</ele><time>2026-04-18T13:01:33.988Z</time></trkpt><trkpt lat="45.274155" lon="8.99528"><ele>95.66666666666667</ele><time>2026-04-18T13:01:35.988Z</time></trkpt><trkpt lat="45.27424" lon="8.9952533"><ele>96.0</ele><time>2026-04-18T13:01:37.988Z</time></trkpt><trkpt lat="45.2743083" lon="8.9952317"><ele>96.33333333333334</ele><time>2026-04-18T13:01:39.988Z</time></trkpt><trkpt lat="45.27442" lon="8.9953033"><ele>96.66666666666667</ele><time>2026-04-18T13:02:25.988Z</time></trkpt><trkpt lat="45.274425" lon="8.9954017"><ele>97.0</ele><time>2026-04-18T13:02:27.988Z</time></trkpt><trkpt lat="45.2744183" lon="8.9955383"><ele>97.00000000000001</ele><time>2026-04-18T13:02:29.988Z</time></trkpt><trkpt lat="45.2744167" lon="8.995705"><ele>97.0</ele><time>2026-04-18T13:02:31.989Z</time></trkpt><trkpt lat="45.27442" lon="8.99581"><ele>97.0</ele><time>2026-04-18T13:02:32.988Z</time></trkpt><trkpt lat="45.2744217" lon="8.9959233"><ele>97.0</ele><time>2026-04-18T13:02:33.988Z</time></trkpt><trkpt lat="45.27443" lon="8.9960167"><ele>97.00000000000001</ele><time>2026-04-18T13:02:34.988Z</time></trkpt><trkpt lat="45.2744433" lon="8.996125"><ele>97.0</ele><time>2026-04-18T13:02:35.988Z</time></trkpt><trkpt lat="45.27445" lon="8.99624"><ele>97.0</ele><time>2026-04-18T13:02:36.988Z</time></trkpt><trkpt lat="45.2744567" lon="8.99637"><ele>97.0</ele><time>2026-04-18T13:02:37.988Z</time></trkpt><trkpt lat="45.27446" lon="8.99651"><ele>97.0</ele><time>2026-04-18T13:02:38.988Z</time></trkpt><trkpt lat="45.2744667" lon="8.9966467"><ele>97.0</ele><time>2026-04-18T13:02:39.988Z</time></trkpt><trkpt lat="45.274475" lon="8.996775"><ele>97.0</ele><time>2026-04-18T13:02:40.988Z</time></trkpt><trkpt lat="45.2744733" lon="8.9969033"><ele>97.00000000000001</ele><time>2026-04-18T13:02:41.988Z</time></trkpt><trkpt lat="45.2744783" lon="8.99703"><ele>97.0</ele><time>2026-04-18T13:02:42.988Z</time></trkpt><trkpt lat="45.274485" lon="8.9971417"><ele>97.0</ele><time>2026-04-18T13:02:43.988Z</time></trkpt><trkpt lat="45.27449" lon="8.99725"><ele>97.0</ele><time>2026-04-18T13:02:44.988Z</time></trkpt><trkpt lat="45.2744917" lon="8.9973567"><ele>97.00000000000001</ele><time>2026-04-18T13:02:45.988Z</time></trkpt><trkpt lat="45.2745033" lon="8.9974517"><ele>97.0</ele><time>2026-04-18T13:02:46.988Z</time></trkpt><trkpt lat="45.2745717" lon="8.99756"><ele>97.6</ele><time>2026-04-18T13:02:48.988Z</time></trkpt><trkpt lat="45.274705" lon="8.99753"><ele>98.19999999999999</ele><time>2026-04-18T13:02:50.988Z</time></trkpt><trkpt lat="45.274795" lon="8.9974783"><ele>98.8</ele><time>2026-04-18T13:02:51.988Z</time></trkpt><trkpt lat="45.27488" lon="8.997425"><ele>99.4</ele><time>2026-04-18T13:02:52.988Z</time></trkpt><trkpt lat="45.2749617" lon="8.99738"><ele>100.0</ele><time>2026-04-18T13:02:53.988Z</time></trkpt><trkpt lat="45.2750433" lon="8.9973433"><ele>100.16666666666667</ele><time>2026-04-18T13:02:54.988Z</time></trkpt><trkpt lat="45.2751183" lon="8.9973083"><ele>100.33333333333334</ele><time>2026-04-18T13:02:55.988Z</time></trkpt><trkpt lat="45.275195" lon="8.9972733"><ele>100.5</ele><time>2026-04-18T13:02:56.988Z</time></trkpt><trkpt lat="45.275275" lon="8.9972417"><ele>100.66666666666666</ele><time>2026-04-18T13:02:57.988Z</time></trkpt><trkpt lat="45.2753567" lon="8.9972"><ele>100.83333333333333</ele><time>2026-04-18T13:02:58.988Z</time></trkpt><trkpt lat="45.2754367" lon="8.9971533"><ele>101.0</ele><time>2026-04-18T13:02:59.989Z</time></trkpt><trkpt lat="45.2755217" lon="8.9971083"><ele>101.0</ele><time>2026-04-18T13:03:00.989Z</time></trkpt><trkpt lat="45.2756017" lon="8.9970667"><ele>101.0</ele><time>2026-04-18T13:03:01.988Z</time></trkpt><trkpt lat="45.27569" lon="8.997025"><ele>101.0</ele><time>2026-04-18T13:03:02.988Z</time></trkpt><trkpt lat="45.2757883" lon="8.9969783"><ele>101.0</ele><time>2026-04-18T13:03:03.988Z</time></trkpt><trkpt lat="45.27589" lon="8.9969367"><ele>101.0</ele><time>2026-04-18T13:03:04.988Z</time></trkpt><trkpt lat="45.2759833" lon="8.9968883"><ele>101.6</ele><time>2026-04-18T13:03:05.988Z</time></trkpt><trkpt lat="45.2760833" lon="8.9968383"><ele>102.19999999999999</ele><time>2026-04-18T13:03:06.988Z</time></trkpt><trkpt lat="45.2761833" lon="8.9967917"><ele>102.80000000000001</ele><time>2026-04-18T13:03:07.988Z</time></trkpt><trkpt lat="45.2762817" lon="8.9967417"><ele>103.4</ele><time>2026-04-18T13:03:08.988Z</time></trkpt><trkpt lat="45.2763783" lon="8.9967083"><ele>104.0</ele><time>2026-04-18T13:03:09.988Z</time></trkpt><trkpt lat="45.27648" lon="8.996675"><ele>103.6</ele><time>2026-04-18T13:03:10.988Z</time></trkpt><trkpt lat="45.2765733" lon="8.996635"><ele>103.2</ele><time>2026-04-18T13:03:11.989Z</time></trkpt><trkpt lat="45.27666" lon="8.9965983"><ele>102.8</ele><time>2026-04-18T13:03:12.988Z</time></trkpt><trkpt lat="45.2767533" lon="8.996555"><ele>102.39999999999999</ele><time>2026-04-18T13:03:13.988Z</time></trkpt><trkpt lat="45.2768583" lon="8.9965067"><ele>102.0</ele><time>2026-04-18T13:03:14.988Z</time></trkpt><trkpt lat="45.27697" lon="8.9964433"><ele>102.0</ele><time>2026-04-18T13:03:15.988Z</time></trkpt><trkpt lat="45.27709" lon="8.99639"><ele>102.0</ele><time>2026-04-18T13:03:16.988Z</time></trkpt><trkpt lat="45.2772067" lon="8.9963317"><ele>102.0</ele><time>2026-04-18T13:03:17.988Z</time></trkpt><trkpt lat="45.27732" lon="8.9962783"><ele>102.0</ele><time>2026-04-18T13:03:18.988Z</time></trkpt><trkpt lat="45.2774217" lon="8.9962317"><ele>101.39999999999999</ele><time>2026-04-18T13:03:19.988Z</time></trkpt><trkpt lat="45.277515" lon="8.9961833"><ele>100.8</ele><time>2026-04-18T13:03:20.988Z</time></trkpt><trkpt lat="45.2776067" lon="8.9961367"><ele>100.2</ele><time>2026-04-18T13:03:21.988Z</time></trkpt><trkpt lat="45.2777" lon="8.996085"><ele>99.6</ele><time>2026-04-18T13:03:22.988Z</time></trkpt><trkpt lat="45.2777967" lon="8.996035"><ele>99.0</ele><time>2026-04-18T13:03:23.989Z</time></trkpt><trkpt lat="45.277905" lon="8.9959817"><ele>99.0</ele><time>2026-04-18T13:03:24.988Z</time></trkpt><trkpt lat="45.2780217" lon="8.9959217"><ele>99.0</ele><time>2026-04-18T13:03:25.988Z</time></trkpt><trkpt lat="45.2781533" lon="8.9958633"><ele>99.0</ele><time>2026-04-18T13:03:26.989Z</time></trkpt><trkpt lat="45.2782917" lon="8.995775"><ele>99.0</ele><time>2026-04-18T13:03:27.988Z</time></trkpt><trkpt lat="45.27844" lon="8.9957083"><ele>99.0</ele><time>2026-04-18T13:03:28.988Z</time></trkpt><trkpt lat="45.2785867" lon="8.9956283"><ele>99.0</ele><time>2026-04-18T13:03:29.988Z</time></trkpt><trkpt lat="45.27874" lon="8.9955467"><ele>99.0</ele><time>2026-04-18T13:03:30.989Z</time></trkpt><trkpt lat="45.2789017" lon="8.9954717"><ele>99.0</ele><time>2026-04-18T13:03:31.988Z</time></trkpt><trkpt lat="45.2790583" lon="8.995395"><ele>99.0</ele><time>2026-04-18T13:03:32.988Z</time></trkpt><trkpt lat="45.2792167" lon="8.99532"><ele>99.0</ele><time>2026-04-18T13:03:33.988Z</time></trkpt><trkpt lat="45.2793667" lon="8.99525"><ele>99.0</ele><time>2026-04-18T13:03:34.988Z</time></trkpt><trkpt lat="45.2795033" lon="8.9951867"><ele>99.0</ele><time>2026-04-18T13:03:35.988Z</time></trkpt><trkpt lat="45.2796283" lon="8.995125"><ele>99.0</ele><time>2026-04-18T13:03:36.988Z</time></trkpt><trkpt lat="45.279735" lon="8.9950633"><ele>99.0</ele><time>2026-04-18T13:03:37.988Z</time></trkpt><trkpt lat="45.2798417" lon="8.9950167"><ele>99.0</ele><time>2026-04-18T13:03:38.988Z</time></trkpt><trkpt lat="45.2799383" lon="8.9949633"><ele>99.0</ele><time>2026-04-18T13:03:39.988Z</time></trkpt><trkpt lat="45.280025" lon="8.9949233"><ele>99.0</ele><time>2026-04-18T13:03:40.988Z</time></trkpt><trkpt lat="45.280105" lon="8.99489"><ele>99.0</ele><time>2026-04-18T13:03:41.988Z</time></trkpt><trkpt lat="45.2801733" lon="8.99485"><ele>99.0</ele><time>2026-04-18T13:03:42.988Z</time></trkpt><trkpt lat="45.2802633" lon="8.994805"><ele>99.0</ele><time>2026-04-18T13:03:44.988Z</time></trkpt><trkpt lat="45.2803283" lon="8.994785"><ele>99.0</ele><time>2026-04-18T13:03:47.988Z</time></trkpt><trkpt lat="45.2803817" lon="8.9946767"><ele>99.0</ele><time>2026-04-18T13:03:49.988Z</time></trkpt><trkpt lat="45.2803983" lon="8.9945767"><ele>99.0</ele><time>2026-04-18T13:03:50.988Z</time></trkpt><trkpt lat="45.280415" lon="8.9944517"><ele>99.0</ele><time>2026-04-18T13:03:51.988Z</time></trkpt><trkpt lat="45.28044" lon="8.9943117"><ele>99.0</ele><time>2026-04-18T13:03:52.989Z</time></trkpt><trkpt lat="45.2804617" lon="8.9941717"><ele>98.25</ele><time>2026-04-18T13:03:53.989Z</time></trkpt><trkpt lat="45.2804883" lon="8.994"><ele>97.5</ele><time>2026-04-18T13:03:54.988Z</time></trkpt><trkpt lat="45.2805167" lon="8.9938367"><ele>96.75</ele><time>2026-04-18T13:03:55.988Z</time></trkpt><trkpt lat="45.2805417" lon="8.9936617"><ele>96.0</ele><time>2026-04-18T13:03:56.988Z</time></trkpt><trkpt lat="45.2805617" lon="8.9934833"><ele>96.0</ele><time>2026-04-18T13:03:57.988Z</time></trkpt><trkpt lat="45.2805767" lon="8.9933217"><ele>96.0</ele><time>2026-04-18T13:03:58.988Z</time></trkpt><trkpt lat="45.28059" lon="8.993165"><ele>96.0</ele><time>2026-04-18T13:03:59.988Z</time></trkpt><trkpt lat="45.2806117" lon="8.9930117"><ele>96.0</ele><time>2026-04-18T13:04:00.988Z</time></trkpt><trkpt lat="45.2806383" lon="8.99285"><ele>96.0</ele><time>2026-04-18T13:04:01.988Z</time></trkpt><trkpt lat="45.2806583" lon="8.9926733"><ele>96.0</ele><time>2026-04-18T13:04:02.989Z</time></trkpt><trkpt lat="45.2806733" lon="8.9924933"><ele>96.0</ele><time>2026-04-18T13:04:03.988Z</time></trkpt><trkpt lat="45.28069" lon="8.9923167"><ele>96.0</ele><time>2026-04-18T13:04:04.988Z</time></trkpt><trkpt lat="45.2807067" lon="8.99215"><ele>96.0</ele><time>2026-04-18T13:04:05.988Z</time></trkpt><trkpt lat="45.28073" lon="8.9919767"><ele>96.0</ele><time>2026-04-18T13:04:06.989Z</time></trkpt><trkpt lat="45.28075" lon="8.9918"><ele>96.0</ele><time>2026-04-18T13:04:07.988Z</time></trkpt><trkpt lat="45.2807717" lon="8.9916167"><ele>96.0</ele><time>2026-04-18T13:04:08.988Z</time></trkpt><trkpt lat="45.2807933" lon="8.99144"><ele>95.75</ele><time>2026-04-18T13:04:09.988Z</time></trkpt><trkpt lat="45.2808233" lon="8.9912533"><ele>95.5</ele><time>2026-04-18T13:04:10.988Z</time></trkpt><trkpt lat="45.2808517" lon="8.9910683"><ele>95.25</ele><time>2026-04-18T13:04:11.988Z</time></trkpt><trkpt lat="45.2808883" lon="8.9908817"><ele>95.0</ele><time>2026-04-18T13:04:12.988Z</time></trkpt><trkpt lat="45.2809317" lon="8.990695"><ele>95.0</ele><time>2026-04-18T13:04:13.988Z</time></trkpt><trkpt lat="45.2809883" lon="8.9905167"><ele>95.0</ele><time>2026-04-18T13:04:14.989Z</time></trkpt><trkpt lat="45.281055" lon="8.9903433"><ele>95.0</ele><time>2026-04-18T13:04:15.988Z</time></trkpt><trkpt lat="45.2811217" lon="8.9901917"><ele>95.0</ele><time>2026-04-18T13:04:16.989Z</time></trkpt><trkpt lat="45.2811883" lon="8.9900317"><ele>95.25</ele><time>2026-04-18T13:04:17.988Z</time></trkpt><trkpt lat="45.2812717" lon="8.98987"><ele>95.5</ele><time>2026-04-18T13:04:18.988Z</time></trkpt><trkpt lat="45.2813567" lon="8.9897133"><ele>95.75</ele><time>2026-04-18T13:04:19.988Z</time></trkpt><trkpt lat="45.2814433" lon="8.98956"><ele>96.0</ele><time>2026-04-18T13:04:20.988Z</time></trkpt><trkpt lat="45.2815267" lon="8.9893967"><ele>96.75</ele><time>2026-04-18T13:04:21.988Z</time></trkpt><trkpt lat="45.2816083" lon="8.9892383"><ele>97.5</ele><time>2026-04-18T13:04:22.988Z</time></trkpt><trkpt lat="45.2816917" lon="8.9890733"><ele>98.25</ele><time>2026-04-18T13:04:23.989Z</time></trkpt><trkpt lat="45.2817717" lon="8.9888983"><ele>99.0</ele><time>2026-04-18T13:04:24.989Z</time></trkpt><trkpt lat="45.281845" lon="8.98872"><ele>99.0</ele><time>2026-04-18T13:04:25.988Z</time></trkpt><trkpt lat="45.2819117" lon="8.9885383"><ele>99.0</ele><time>2026-04-18T13:04:26.988Z</time></trkpt><trkpt lat="45.2819667" lon="8.9883467"><ele>99.0</ele><time>2026-04-18T13:04:27.988Z</time></trkpt><trkpt lat="45.28201" lon="8.9881467"><ele>99.0</ele><time>2026-04-18T13:04:28.988Z</time></trkpt><trkpt lat="45.2820517" lon="8.9879467"><ele>95.66666666666667</ele><time>2026-04-18T13:04:29.988Z</time></trkpt><trkpt lat="45.2821433" lon="8.9875583"><ele>92.33333333333334</ele><time>2026-04-18T13:04:31.989Z</time></trkpt><trkpt lat="45.2821983" lon="8.98737"><ele>89.0</ele><time>2026-04-18T13:04:32.988Z</time></trkpt><trkpt lat="45.2822517" lon="8.987185"><ele>91.25</ele><time>2026-04-18T13:04:33.988Z</time></trkpt><trkpt lat="45.2823017" lon="8.986985"><ele>93.5</ele><time>2026-04-18T13:04:34.988Z</time></trkpt><trkpt lat="45.2823533" lon="8.9867867"><ele>95.75</ele><time>2026-04-18T13:04:35.989Z</time></trkpt><trkpt lat="45.2824033" lon="8.9865883"><ele>98.0</ele><time>2026-04-18T13:04:36.988Z</time></trkpt><trkpt lat="45.282455" lon="8.986395"><ele>98.0</ele><time>2026-04-18T13:04:37.988Z</time></trkpt><trkpt lat="45.2825017" lon="8.986205"><ele>98.0</ele><time>2026-04-18T13:04:38.988Z</time></trkpt><trkpt lat="45.2825517" lon="8.98603"><ele>98.0</ele><time>2026-04-18T13:04:39.988Z</time></trkpt><trkpt lat="45.2826017" lon="8.9858683"><ele>98.0</ele><time>2026-04-18T13:04:40.988Z</time></trkpt><trkpt lat="45.282655" lon="8.98573"><ele>98.4</ele><time>2026-04-18T13:04:41.988Z</time></trkpt><trkpt lat="45.28272" lon="8.985605"><ele>98.80000000000001</ele><time>2026-04-18T13:04:42.988Z</time></trkpt><trkpt lat="45.2827933" lon="8.9855"><ele>99.2</ele><time>2026-04-18T13:04:43.988Z</time></trkpt><trkpt lat="45.282875" lon="8.98541"><ele>99.6</ele><time>2026-04-18T13:04:44.989Z</time></trkpt><trkpt lat="45.2829633" lon="8.9853417"><ele>100.0</ele><time>2026-04-18T13:04:45.988Z</time></trkpt><trkpt lat="45.2830517" lon="8.98529"><ele>99.85714285714286</ele><time>2026-04-18T13:04:46.988Z</time></trkpt><trkpt lat="45.2831217" lon="8.98526"><ele>99.71428571428572</ele><time>2026-04-18T13:04:47.988Z</time></trkpt><trkpt lat="45.28319" lon="8.9852433"><ele>99.57142857142858</ele><time>2026-04-18T13:04:48.988Z</time></trkpt><trkpt lat="45.283245" lon="8.9851967"><ele>99.42857142857143</ele><time>2026-04-18T13:04:49.988Z</time></trkpt><trkpt lat="45.2832783" lon="8.9850867"><ele>99.28571428571428</ele><time>2026-04-18T13:04:51.989Z</time></trkpt><trkpt lat="45.2832667" lon="8.9849917"><ele>99.14285714285715</ele><time>2026-04-18T13:04:53.988Z</time></trkpt><trkpt lat="45.28325" lon="8.9848883"><ele>99.0</ele><time>2026-04-18T13:04:55.988Z</time></trkpt><trkpt lat="45.283225" lon="8.9847267"><ele>99.0</ele><time>2026-04-18T13:04:57.988Z</time></trkpt><trkpt lat="45.2832067" lon="8.9846183"><ele>99.0</ele><time>2026-04-18T13:04:58.988Z</time></trkpt><trkpt lat="45.2831867" lon="8.9844983"><ele>99.0</ele><time>2026-04-18T13:04:59.988Z</time></trkpt><trkpt lat="45.2831667" lon="8.9843783"><ele>99.0</ele><time>2026-04-18T13:05:00.988Z</time></trkpt><trkpt lat="45.2831467" lon="8.984255"><ele>99.0</ele><time>2026-04-18T13:05:01.988Z</time></trkpt><trkpt lat="45.283125" lon="8.9841333"><ele>99.0</ele><time>2026-04-18T13:05:02.988Z</time></trkpt><trkpt lat="45.2831117" lon="8.9840083"><ele>99.0</ele><time>2026-04-18T13:05:03.988Z</time></trkpt><trkpt lat="45.2830983" lon="8.9838783"><ele>99.0</ele><time>2026-04-18T13:05:04.988Z</time></trkpt><trkpt lat="45.283085" lon="8.9837433"><ele>99.0</ele><time>2026-04-18T13:05:05.988Z</time></trkpt><trkpt lat="45.283075" lon="8.9836017"><ele>99.0</ele><time>2026-04-18T13:05:06.988Z</time></trkpt><trkpt lat="45.2830617" lon="8.98347"><ele>99.0</ele><time>2026-04-18T13:05:07.988Z</time></trkpt><trkpt lat="45.2830467" lon="8.9833383"><ele>100.16666666666667</ele><time>2026-04-18T13:05:08.988Z</time></trkpt><trkpt lat="45.2830333" lon="8.983215"><ele>101.33333333333334</ele><time>2026-04-18T13:05:09.988Z</time></trkpt><trkpt lat="45.28302" lon="8.9831"><ele>102.5</ele><time>2026-04-18T13:05:10.989Z</time></trkpt><trkpt lat="45.2830067" lon="8.9829933"><ele>103.66666666666667</ele><time>2026-04-18T13:05:11.988Z</time></trkpt><trkpt lat="45.2829967" lon="8.9828883"><ele>104.83333333333334</ele><time>2026-04-18T13:05:12.988Z</time></trkpt><trkpt lat="45.2829867" lon="8.982775"><ele>106.0</ele><time>2026-04-18T13:05:13.988Z</time></trkpt><trkpt lat="45.2829817" lon="8.9826633"><ele>106.0</ele><time>2026-04-18T13:05:14.988Z</time></trkpt><trkpt lat="45.282975" lon="8.9825483"><ele>106.0</ele><time>2026-04-18T13:05:15.988Z</time></trkpt><trkpt lat="45.2829667" lon="8.982435"><ele>106.0</ele><time>2026-04-18T13:05:16.988Z</time></trkpt><trkpt lat="45.2829583" lon="8.9823333"><ele>106.0</ele><time>2026-04-18T13:05:17.989Z</time></trkpt><trkpt lat="45.2829367" lon="8.98217"><ele>106.0</ele><time>2026-04-18T13:05:19.988Z</time></trkpt><trkpt lat="45.2829067" lon="8.9820083"><ele>106.00000000000001</ele><time>2026-04-18T13:05:21.988Z</time></trkpt><trkpt lat="45.2828933" lon="8.9819183"><ele>106.0</ele><time>2026-04-18T13:05:22.988Z</time></trkpt><trkpt lat="45.28288" lon="8.98182"><ele>106.0</ele><time>2026-04-18T13:05:23.988Z</time></trkpt><trkpt lat="45.282865" lon="8.9817133"><ele>106.0</ele><time>2026-04-18T13:05:24.988Z</time></trkpt><trkpt lat="45.2828433" lon="8.9815967"><ele>106.00000000000001</ele><time>2026-04-18T13:05:25.988Z</time></trkpt><trkpt lat="45.2828217" lon="8.981465"><ele>106.0</ele><time>2026-04-18T13:05:26.988Z</time></trkpt><trkpt lat="45.2828" lon="8.9813267"><ele>105.0</ele><time>2026-04-18T13:05:27.988Z</time></trkpt><trkpt lat="45.2827783" lon="8.9811883"><ele>104.0</ele><time>2026-04-18T13:05:28.988Z</time></trkpt><trkpt lat="45.2827617" lon="8.9810483"><ele>103.0</ele><time>2026-04-18T13:05:29.988Z</time></trkpt><trkpt lat="45.2827433" lon="8.9809"><ele>102.0</ele><time>2026-04-18T13:05:30.988Z</time></trkpt><trkpt lat="45.282725" lon="8.9807533"><ele>101.0</ele><time>2026-04-18T13:05:31.988Z</time></trkpt><trkpt lat="45.2827033" lon="8.9806067"><ele>100.6</ele><time>2026-04-18T13:05:32.988Z</time></trkpt><trkpt lat="45.282685" lon="8.98046"><ele>100.19999999999999</ele><time>2026-04-18T13:05:33.988Z</time></trkpt><trkpt lat="45.282665" lon="8.980325"><ele>99.80000000000001</ele><time>2026-04-18T13:05:34.988Z</time></trkpt><trkpt lat="45.2826417" lon="8.9802017"><ele>99.4</ele><time>2026-04-18T13:05:35.988Z</time></trkpt><trkpt lat="45.2826183" lon="8.9800817"><ele>99.0</ele><time>2026-04-18T13:05:36.988Z</time></trkpt><trkpt lat="45.282595" lon="8.9799633"><ele>99.0</ele><time>2026-04-18T13:05:37.988Z</time></trkpt><trkpt lat="45.2825817" lon="8.9798433"><ele>99.0</ele><time>2026-04-18T13:05:38.988Z</time></trkpt><trkpt lat="45.2825667" lon="8.9797317"><ele>99.0</ele><time>2026-04-18T13:05:39.988Z</time></trkpt><trkpt lat="45.28256" lon="8.9796283"><ele>99.0</ele><time>2026-04-18T13:05:40.988Z</time></trkpt><trkpt lat="45.282545" lon="8.97949"><ele>99.0</ele><time>2026-04-18T13:05:42.988Z</time></trkpt><trkpt lat="45.2825617" lon="8.9793933"><ele>99.0</ele><time>2026-04-18T13:05:51.988Z</time></trkpt><trkpt lat="45.2825933" lon="8.979265"><ele>99.33333333333333</ele><time>2026-04-18T13:05:53.989Z</time></trkpt><trkpt lat="45.2826017" lon="8.9791333"><ele>99.66666666666666</ele><time>2026-04-18T13:05:55.988Z</time></trkpt><trkpt lat="45.2826033" lon="8.978985"><ele>100.0</ele><time>2026-04-18T13:05:57.988Z</time></trkpt><trkpt lat="45.282595" lon="8.978885"><ele>100.33333333333333</ele><time>2026-04-18T13:05:58.988Z</time></trkpt><trkpt lat="45.2825983" lon="8.978775"><ele>100.66666666666666</ele><time>2026-04-18T13:05:59.988Z</time></trkpt><trkpt lat="45.2825983" lon="8.978655"><ele>101.0</ele><time>2026-04-18T13:06:00.988Z</time></trkpt><trkpt lat="45.2825933" lon="8.9785267"><ele>101.0</ele><time>2026-04-18T13:06:01.988Z</time></trkpt><trkpt lat="45.2825867" lon="8.978395"><ele>101.0</ele><time>2026-04-18T13:06:02.988Z</time></trkpt><trkpt lat="45.2825817" lon="8.978255"><ele>101.0</ele><time>2026-04-18T13:06:03.988Z</time></trkpt><trkpt lat="45.282575" lon="8.9781183"><ele>101.0</ele><time>2026-04-18T13:06:04.988Z</time></trkpt><trkpt lat="45.282575" lon="8.9779717"><ele>101.0</ele><time>2026-04-18T13:06:05.988Z</time></trkpt><trkpt lat="45.282575" lon="8.977835"><ele>100.99999999999999</ele><time>2026-04-18T13:06:06.989Z</time></trkpt><trkpt lat="45.282575" lon="8.977705"><ele>101.0</ele><time>2026-04-18T13:06:07.988Z</time></trkpt><trkpt lat="45.2825767" lon="8.9775933"><ele>101.0</ele><time>2026-04-18T13:06:08.988Z</time></trkpt><trkpt lat="45.2825683" lon="8.97747"><ele>101.0</ele><time>2026-04-18T13:06:09.988Z</time></trkpt><trkpt lat="45.282565" lon="8.9773517"><ele>100.99999999999999</ele><time>2026-04-18T13:06:10.988Z</time></trkpt><trkpt lat="45.282565" lon="8.9772317"><ele>101.0</ele><time>2026-04-18T13:06:11.988Z</time></trkpt><trkpt lat="45.2825667" lon="8.97711"><ele>101.0</ele><time>2026-04-18T13:06:12.989Z</time></trkpt><trkpt lat="45.2825683" lon="8.9769983"><ele>101.0</ele><time>2026-04-18T13:06:13.988Z</time></trkpt><trkpt lat="45.2825667" lon="8.976895"><ele>101.0</ele><time>2026-04-18T13:06:14.988Z</time></trkpt><trkpt lat="45.2825633" lon="8.9767933"><ele>101.0</ele><time>2026-04-18T13:06:15.988Z</time></trkpt><trkpt lat="45.28256" lon="8.9767017"><ele>101.0</ele><time>2026-04-18T13:06:16.988Z</time></trkpt><trkpt lat="45.2825583" lon="8.9766067"><ele>101.0</ele><time>2026-04-18T13:06:17.988Z</time></trkpt><trkpt lat="45.2825583" lon="8.97651"><ele>101.0</ele><time>2026-04-18T13:06:18.988Z</time></trkpt><trkpt lat="45.2825533" lon="8.9764083"><ele>100.83333333333333</ele><time>2026-04-18T13:06:19.988Z</time></trkpt><trkpt lat="45.2825533" lon="8.9763033"><ele>100.66666666666666</ele><time>2026-04-18T13:06:20.988Z</time></trkpt><trkpt lat="45.282555" lon="8.9761967"><ele>100.5</ele><time>2026-04-18T13:06:21.989Z</time></trkpt><trkpt lat="45.2825517" lon="8.9760867"><ele>100.33333333333334</ele><time>2026-04-18T13:06:22.988Z</time></trkpt><trkpt lat="45.2825533" lon="8.9759867"><ele>100.16666666666667</ele><time>2026-04-18T13:06:23.988Z</time></trkpt><trkpt lat="45.2825483" lon="8.9758267"><ele>100.0</ele><time>2026-04-18T13:06:25.988Z</time></trkpt><trkpt lat="45.2825467" lon="8.975705"><ele>99.6</ele><time>2026-04-18T13:06:27.988Z</time></trkpt><trkpt lat="45.2825817" lon="8.9756217"><ele>99.2</ele><time>2026-04-18T13:06:30.988Z</time></trkpt><trkpt lat="45.28268" lon="8.9756"><ele>98.80000000000001</ele><time>2026-04-18T13:06:33.988Z</time></trkpt><trkpt lat="45.282805" lon="8.9756067"><ele>98.4</ele><time>2026-04-18T13:06:35.989Z</time></trkpt><trkpt lat="45.2828883" lon="8.975605"><ele>98.0</ele><time>2026-04-18T13:06:36.988Z</time></trkpt><trkpt lat="45.2829733" lon="8.9755867"><ele>97.99999999999999</ele><time>2026-04-18T13:06:37.988Z</time></trkpt><trkpt lat="45.2830583" lon="8.9755767"><ele>98.0</ele><time>2026-04-18T13:06:38.988Z</time></trkpt><trkpt lat="45.28314" lon="8.9755633"><ele>98.0</ele><time>2026-04-18T13:06:39.988Z</time></trkpt><trkpt lat="45.2832183" lon="8.9755367"><ele>98.0</ele><time>2026-04-18T13:06:40.988Z</time></trkpt><trkpt lat="45.2833017" lon="8.9755"><ele>97.99999999999999</ele><time>2026-04-18T13:06:41.988Z</time></trkpt><trkpt lat="45.2833867" lon="8.97546"><ele>98.0</ele><time>2026-04-18T13:06:42.988Z</time></trkpt><trkpt lat="45.2834683" lon="8.97541"><ele>98.49999999999999</ele><time>2026-04-18T13:06:43.988Z</time></trkpt><trkpt lat="45.2835433" lon="8.9753533"><ele>99.0</ele><time>2026-04-18T13:06:44.988Z</time></trkpt><trkpt lat="45.28362" lon="8.9753"><ele>99.5</ele><time>2026-04-18T13:06:45.988Z</time></trkpt><trkpt lat="45.2836967" lon="8.975245"><ele>100.0</ele><time>2026-04-18T13:06:46.988Z</time></trkpt><trkpt lat="45.28377" lon="8.97519"><ele>100.49999999999999</ele><time>2026-04-18T13:06:47.988Z</time></trkpt><trkpt lat="45.2838567" lon="8.9751283"><ele>101.0</ele><time>2026-04-18T13:06:48.988Z</time></trkpt><trkpt lat="45.2839583" lon="8.9750617"><ele>101.5</ele><time>2026-04-18T13:06:49.988Z</time></trkpt><trkpt lat="45.2840667" lon="8.9749867"><ele>102.0</ele><time>2026-04-18T13:06:50.988Z</time></trkpt><trkpt lat="45.2841733" lon="8.97491"><ele>102.5</ele><time>2026-04-18T13:06:51.988Z</time></trkpt><trkpt lat="45.28428" lon="8.97484"><ele>103.0</ele><time>2026-04-18T13:06:52.988Z</time></trkpt><trkpt lat="45.2843883" lon="8.9747767"><ele>103.0</ele><time>2026-04-18T13:06:53.988Z</time></trkpt><trkpt lat="45.2844883" lon="8.974715"><ele>103.0</ele><time>2026-04-18T13:06:54.988Z</time></trkpt><trkpt lat="45.2845883" lon="8.9746567"><ele>103.0</ele><time>2026-04-18T13:06:55.988Z</time></trkpt><trkpt lat="45.284695" lon="8.9746"><ele>103.0</ele><time>2026-04-18T13:06:56.988Z</time></trkpt><trkpt lat="45.2847967" lon="8.97454"><ele>103.0</ele><time>2026-04-18T13:06:57.988Z</time></trkpt><trkpt lat="45.2849" lon="8.9744867"><ele>103.00000000000001</ele><time>2026-04-18T13:06:58.988Z</time></trkpt><trkpt lat="45.284995" lon="8.974445"><ele>103.0</ele><time>2026-04-18T13:06:59.988Z</time></trkpt><trkpt lat="45.2850717" lon="8.974405"><ele>103.0</ele><time>2026-04-18T13:07:00.988Z</time></trkpt><trkpt lat="45.285145" lon="8.9743733"><ele>103.0</ele><time>2026-04-18T13:07:01.988Z</time></trkpt><trkpt lat="45.2852483" lon="8.9742817"><ele>103.00000000000001</ele><time>2026-04-18T13:07:03.988Z</time></trkpt><trkpt lat="45.2852917" lon="8.9742083"><ele>103.0</ele><time>2026-04-18T13:07:04.988Z</time></trkpt><trkpt lat="45.2853467" lon="8.97415"><ele>103.0</ele><time>2026-04-18T13:07:05.988Z</time></trkpt><trkpt lat="45.2854083" lon="8.9741017"><ele>103.0</ele><time>2026-04-18T13:07:06.988Z</time></trkpt><trkpt lat="45.2854817" lon="8.9740567"><ele>103.0</ele><time>2026-04-18T13:07:07.988Z</time></trkpt><trkpt lat="45.28557" lon="8.9740033"><ele>103.0</ele><time>2026-04-18T13:07:08.988Z</time></trkpt><trkpt lat="45.2856767" lon="8.97395"><ele>103.0</ele><time>2026-04-18T13:07:09.988Z</time></trkpt><trkpt lat="45.2857933" lon="8.9739"><ele>102.75</ele><time>2026-04-18T13:07:10.988Z</time></trkpt><trkpt lat="45.28592" lon="8.9738467"><ele>102.5</ele><time>2026-04-18T13:07:11.988Z</time></trkpt><trkpt lat="45.2860483" lon="8.9737967"><ele>102.25</ele><time>2026-04-18T13:07:12.988Z</time></trkpt><trkpt lat="45.2861733" lon="8.973745"><ele>102.0</ele><time>2026-04-18T13:07:13.988Z</time></trkpt><trkpt lat="45.2862867" lon="8.9737067"><ele>102.0</ele><time>2026-04-18T13:07:14.988Z</time></trkpt><trkpt lat="45.2863933" lon="8.9736667"><ele>102.0</ele><time>2026-04-18T13:07:15.988Z</time></trkpt><trkpt lat="45.2864983" lon="8.973635"><ele>102.0</ele><time>2026-04-18T13:07:16.988Z</time></trkpt><trkpt lat="45.2865967" lon="8.97359"><ele>102.0</ele><time>2026-04-18T13:07:17.988Z</time></trkpt><trkpt lat="45.2866917" lon="8.97355"><ele>102.0</ele><time>2026-04-18T13:07:18.988Z</time></trkpt><trkpt lat="45.2867833" lon="8.9735033"><ele>102.0</ele><time>2026-04-18T13:07:19.988Z</time></trkpt><trkpt lat="45.2868767" lon="8.9734633"><ele>102.0</ele><time>2026-04-18T13:07:20.988Z</time></trkpt><trkpt lat="45.28696" lon="8.973425"><ele>102.0</ele><time>2026-04-18T13:07:21.988Z</time></trkpt><trkpt lat="45.2870383" lon="8.97338"><ele>102.0</ele><time>2026-04-18T13:07:22.988Z</time></trkpt><trkpt lat="45.2871167" lon="8.9733467"><ele>102.0</ele><time>2026-04-18T13:07:23.989Z</time></trkpt><trkpt lat="45.28721" lon="8.9733067"><ele>102.0</ele><time>2026-04-18T13:07:24.988Z</time></trkpt><trkpt lat="45.2872983" lon="8.9732783"><ele>102.0</ele><time>2026-04-18T13:07:25.988Z</time></trkpt><trkpt lat="45.287385" lon="8.9732567"><ele>102.0</ele><time>2026-04-18T13:07:26.988Z</time></trkpt><trkpt lat="45.2874617" lon="8.97325"><ele>102.0</ele><time>2026-04-18T13:07:27.988Z</time></trkpt><trkpt lat="45.287535" lon="8.9732383"><ele>102.0</ele><time>2026-04-18T13:07:28.988Z</time></trkpt><trkpt lat="45.2876117" lon="8.9732167"><ele>102.0</ele><time>2026-04-18T13:07:29.988Z</time></trkpt><trkpt lat="45.287695" lon="8.9732017"><ele>102.0</ele><time>2026-04-18T13:07:30.988Z</time></trkpt><trkpt lat="45.287775" lon="8.9731817"><ele>102.0</ele><time>2026-04-18T13:07:31.988Z</time></trkpt><trkpt lat="45.287855" lon="8.97316"><ele>102.0</ele><time>2026-04-18T13:07:32.988Z</time></trkpt><trkpt lat="45.2879433" lon="8.9731417"><ele>102.0</ele><time>2026-04-18T13:07:33.988Z</time></trkpt><trkpt lat="45.2880333" lon="8.973125"><ele>102.0</ele><time>2026-04-18T13:07:34.988Z</time></trkpt><trkpt lat="45.2881233" lon="8.97311"><ele>102.0</ele><time>2026-04-18T13:07:35.988Z</time></trkpt><trkpt lat="45.28821" lon="8.9730967"><ele>102.0</ele><time>2026-04-18T13:07:36.988Z</time></trkpt><trkpt lat="45.2882967" lon="8.973085"><ele>102.0</ele><time>2026-04-18T13:07:37.988Z</time></trkpt><trkpt lat="45.2883817" lon="8.9730717"><ele>102.0</ele><time>2026-04-18T13:07:38.988Z</time></trkpt><trkpt lat="45.2884717" lon="8.9730517"><ele>102.0</ele><time>2026-04-18T13:07:39.988Z</time></trkpt><trkpt lat="45.2885633" lon="8.973025"><ele>102.0</ele><time>2026-04-18T13:07:40.988Z</time></trkpt><trkpt lat="45.2886533" lon="8.973"><ele>102.0</ele><time>2026-04-18T13:07:41.989Z</time></trkpt><trkpt lat="45.2887333" lon="8.9729617"><ele>102.0</ele><time>2026-04-18T13:07:42.988Z</time></trkpt><trkpt lat="45.2888117" lon="8.9729367"><ele>102.0</ele><time>2026-04-18T13:07:43.988Z</time></trkpt><trkpt lat="45.28889" lon="8.9729033"><ele>102.0</ele><time>2026-04-18T13:07:44.988Z</time></trkpt><trkpt lat="45.2889817" lon="8.972865"><ele>102.0</ele><time>2026-04-18T13:07:45.988Z</time></trkpt><trkpt lat="45.2890717" lon="8.9728233"><ele>102.0</ele><time>2026-04-18T13:07:46.988Z</time></trkpt><trkpt lat="45.2891617" lon="8.97279"><ele>102.0</ele><time>2026-04-18T13:07:47.988Z</time></trkpt><trkpt lat="45.28926" lon="8.9727567"><ele>102.6</ele><time>2026-04-18T13:07:48.988Z</time></trkpt><trkpt lat="45.289355" lon="8.9727133"><ele>103.19999999999999</ele><time>2026-04-18T13:07:49.988Z</time></trkpt><trkpt lat="45.2894467" lon="8.972675"><ele>103.8</ele><time>2026-04-18T13:07:50.987Z</time></trkpt><trkpt lat="45.2895417" lon="8.9726333"><ele>104.4</ele><time>2026-04-18T13:07:51.987Z</time></trkpt><trkpt lat="45.2896417" lon="8.97259"><ele>105.0</ele><time>2026-04-18T13:07:52.987Z</time></trkpt><trkpt lat="45.289735" lon="8.9725533"><ele>104.8</ele><time>2026-04-18T13:07:53.987Z</time></trkpt><trkpt lat="45.2898317" lon="8.9725167"><ele>104.6</ele><time>2026-04-18T13:07:54.987Z</time></trkpt><trkpt lat="45.2899217" lon="8.972485"><ele>104.4</ele><time>2026-04-18T13:07:55.987Z</time></trkpt><trkpt lat="45.2900183" lon="8.9724483"><ele>104.2</ele><time>2026-04-18T13:07:56.987Z</time></trkpt><trkpt lat="45.2901133" lon="8.972415"><ele>104.0</ele><time>2026-04-18T13:07:57.987Z</time></trkpt><trkpt lat="45.2902167" lon="8.97239"><ele>103.99999999999999</ele><time>2026-04-18T13:07:58.987Z</time></trkpt><trkpt lat="45.2903067" lon="8.97237"><ele>104.0</ele><time>2026-04-18T13:07:59.987Z</time></trkpt><trkpt lat="45.290395" lon="8.972355"><ele>104.0</ele><time>2026-04-18T13:08:00.987Z</time></trkpt><trkpt lat="45.290475" lon="8.9723417"><ele>104.0</ele><time>2026-04-18T13:08:01.987Z</time></trkpt><trkpt lat="45.29056" lon="8.9723183"><ele>103.99999999999999</ele><time>2026-04-18T13:08:02.987Z</time></trkpt><trkpt lat="45.29064" lon="8.9722767"><ele>104.0</ele><time>2026-04-18T13:08:03.987Z</time></trkpt><trkpt lat="45.2907267" lon="8.972245"><ele>103.75</ele><time>2026-04-18T13:08:04.987Z</time></trkpt><trkpt lat="45.2908317" lon="8.9722183"><ele>103.5</ele><time>2026-04-18T13:08:05.987Z</time></trkpt><trkpt lat="45.2909567" lon="8.9722033"><ele>103.25</ele><time>2026-04-18T13:08:06.987Z</time></trkpt><trkpt lat="45.2910833" lon="8.9721867"><ele>103.0</ele><time>2026-04-18T13:08:07.987Z</time></trkpt><trkpt lat="45.2912033" lon="8.9721667"><ele>103.0</ele><time>2026-04-18T13:08:08.987Z</time></trkpt><trkpt lat="45.291315" lon="8.9721367"><ele>103.0</ele><time>2026-04-18T13:08:09.987Z</time></trkpt><trkpt lat="45.2914233" lon="8.9721017"><ele>103.0</ele><time>2026-04-18T13:08:10.987Z</time></trkpt><trkpt lat="45.291525" lon="8.9720683"><ele>103.0</ele><time>2026-04-18T13:08:11.987Z</time></trkpt><trkpt lat="45.2916167" lon="8.9720367"><ele>103.0</ele><time>2026-04-18T13:08:12.987Z</time></trkpt><trkpt lat="45.2917017" lon="8.97199"><ele>102.60000000000001</ele><time>2026-04-18T13:08:13.987Z</time></trkpt><trkpt lat="45.29177" lon="8.971925"><ele>102.2</ele><time>2026-04-18T13:08:14.988Z</time></trkpt><trkpt lat="45.291855" lon="8.9718583"><ele>101.8</ele><time>2026-04-18T13:08:15.987Z</time></trkpt><trkpt lat="45.2919433" lon="8.9717983"><ele>101.4</ele><time>2026-04-18T13:08:16.988Z</time></trkpt><trkpt lat="45.2920317" lon="8.971755"><ele>101.0</ele><time>2026-04-18T13:08:17.987Z</time></trkpt><trkpt lat="45.2921317" lon="8.97172"><ele>100.8</ele><time>2026-04-18T13:08:18.987Z</time></trkpt><trkpt lat="45.2922267" lon="8.971675"><ele>100.6</ele><time>2026-04-18T13:08:19.987Z</time></trkpt><trkpt lat="45.29233" lon="8.9716417"><ele>100.4</ele><time>2026-04-18T13:08:20.987Z</time></trkpt><trkpt lat="45.2924267" lon="8.9716117"><ele>100.2</ele><time>2026-04-18T13:08:21.987Z</time></trkpt><trkpt lat="45.29252" lon="8.971585"><ele>100.0</ele><time>2026-04-18T13:08:22.987Z</time></trkpt><trkpt lat="45.2926067" lon="8.971565"><ele>99.83333333333334</ele><time>2026-04-18T13:08:23.987Z</time></trkpt><trkpt lat="45.2926933" lon="8.9715433"><ele>99.66666666666667</ele><time>2026-04-18T13:08:24.987Z</time></trkpt><trkpt lat="45.2927717" lon="8.971515"><ele>99.5</ele><time>2026-04-18T13:08:25.987Z</time></trkpt><trkpt lat="45.29285" lon="8.9714867"><ele>99.33333333333334</ele><time>2026-04-18T13:08:26.987Z</time></trkpt><trkpt lat="45.292925" lon="8.9714617"><ele>99.16666666666667</ele><time>2026-04-18T13:08:27.987Z</time></trkpt><trkpt lat="45.293" lon="8.97143"><ele>99.0</ele><time>2026-04-18T13:08:28.987Z</time></trkpt><trkpt lat="45.2930767" lon="8.9713883"><ele>99.16666666666667</ele><time>2026-04-18T13:08:29.987Z</time></trkpt><trkpt lat="45.2931533" lon="8.97134"><ele>99.33333333333334</ele><time>2026-04-18T13:08:30.987Z</time></trkpt><trkpt lat="45.293225" lon="8.9712967"><ele>99.5</ele><time>2026-04-18T13:08:31.987Z</time></trkpt><trkpt lat="45.2932983" lon="8.9712467"><ele>99.66666666666667</ele><time>2026-04-18T13:08:32.987Z</time></trkpt><trkpt lat="45.293365" lon="8.9712"><ele>99.83333333333334</ele><time>2026-04-18T13:08:33.987Z</time></trkpt><trkpt lat="45.29344" lon="8.9711433"><ele>100.0</ele><time>2026-04-18T13:08:34.987Z</time></trkpt><trkpt lat="45.2935167" lon="8.9710867"><ele>100.00000000000001</ele><time>2026-04-18T13:08:35.987Z</time></trkpt><trkpt lat="45.2935917" lon="8.97103"><ele>100.0</ele><time>2026-04-18T13:08:36.988Z</time></trkpt><trkpt lat="45.2936617" lon="8.9709833"><ele>100.0</ele><time>2026-04-18T13:08:37.988Z</time></trkpt><trkpt lat="45.293735" lon="8.9709317"><ele>100.0</ele><time>2026-04-18T13:08:38.987Z</time></trkpt><trkpt lat="45.29381" lon="8.970905"><ele>100.00000000000001</ele><time>2026-04-18T13:08:39.987Z</time></trkpt><trkpt lat="45.2938883" lon="8.9708767"><ele>100.0</ele><time>2026-04-18T13:08:40.987Z</time></trkpt><trkpt lat="45.293965" lon="8.9708467"><ele>99.83333333333334</ele><time>2026-04-18T13:08:41.987Z</time></trkpt><trkpt lat="45.29404" lon="8.9708267"><ele>99.66666666666667</ele><time>2026-04-18T13:08:42.988Z</time></trkpt><trkpt lat="45.2941133" lon="8.9707983"><ele>99.5</ele><time>2026-04-18T13:08:43.987Z</time></trkpt><trkpt lat="45.2941933" lon="8.9707717"><ele>99.33333333333334</ele><time>2026-04-18T13:08:44.987Z</time></trkpt><trkpt lat="45.29429" lon="8.9707567"><ele>99.16666666666667</ele><time>2026-04-18T13:08:45.987Z</time></trkpt><trkpt lat="45.29439" lon="8.97074"><ele>99.0</ele><time>2026-04-18T13:08:46.987Z</time></trkpt><trkpt lat="45.2944983" lon="8.9707267"><ele>99.0</ele><time>2026-04-18T13:08:47.987Z</time></trkpt><trkpt lat="45.2946067" lon="8.9707117"><ele>99.0</ele><time>2026-04-18T13:08:48.987Z</time></trkpt><trkpt lat="45.2947133" lon="8.9707083"><ele>99.0</ele><time>2026-04-18T13:08:49.987Z</time></trkpt><trkpt lat="45.29482" lon="8.9706983"><ele>99.0</ele><time>2026-04-18T13:08:50.987Z</time></trkpt><trkpt lat="45.2949183" lon="8.9706867"><ele>99.0</ele><time>2026-04-18T13:08:51.987Z</time></trkpt><trkpt lat="45.2950133" lon="8.97067"><ele>98.83333333333333</ele><time>2026-04-18T13:08:52.987Z</time></trkpt><trkpt lat="45.2951033" lon="8.9706667"><ele>98.66666666666666</ele><time>2026-04-18T13:08:53.987Z</time></trkpt><trkpt lat="45.2951917" lon="8.97066"><ele>98.5</ele><time>2026-04-18T13:08:54.987Z</time></trkpt><trkpt lat="45.2952767" lon="8.970655"><ele>98.33333333333333</ele><time>2026-04-18T13:08:55.987Z</time></trkpt><trkpt lat="45.2953567" lon="8.9706467"><ele>98.16666666666666</ele><time>2026-04-18T13:08:56.987Z</time></trkpt><trkpt lat="45.2954333" lon="8.970645"><ele>98.0</ele><time>2026-04-18T13:08:57.988Z</time></trkpt><trkpt lat="45.2955083" lon="8.970645"><ele>97.99999999999999</ele><time>2026-04-18T13:08:58.987Z</time></trkpt><trkpt lat="45.2955817" lon="8.9706433"><ele>98.0</ele><time>2026-04-18T13:08:59.987Z</time></trkpt><trkpt lat="45.2956483" lon="8.9706417"><ele>98.0</ele><time>2026-04-18T13:09:00.987Z</time></trkpt><trkpt lat="45.29575" lon="8.970635"><ele>98.0</ele><time>2026-04-18T13:09:02.988Z</time></trkpt><trkpt lat="45.295825" lon="8.9705883"><ele>97.99999999999999</ele><time>2026-04-18T13:09:04.987Z</time></trkpt><trkpt lat="45.2958433" lon="8.9704583"><ele>98.0</ele><time>2026-04-18T13:09:06.987Z</time></trkpt><trkpt lat="45.295845" lon="8.9703633"><ele>97.80000000000001</ele><time>2026-04-18T13:09:07.988Z</time></trkpt><trkpt lat="45.2958433" lon="8.9702483"><ele>97.6</ele><time>2026-04-18T13:09:08.987Z</time></trkpt><trkpt lat="45.29584" lon="8.97013"><ele>97.4</ele><time>2026-04-18T13:09:09.987Z</time></trkpt><trkpt lat="45.2958333" lon="8.9700033"><ele>97.19999999999999</ele><time>2026-04-18T13:09:10.987Z</time></trkpt><trkpt lat="45.2958367" lon="8.969865"><ele>97.0</ele><time>2026-04-18T13:09:11.988Z</time></trkpt><trkpt lat="45.2958417" lon="8.9697117"><ele>97.0</ele><time>2026-04-18T13:09:12.987Z</time></trkpt><trkpt lat="45.2958417" lon="8.969545"><ele>97.0</ele><time>2026-04-18T13:09:13.987Z</time></trkpt><trkpt lat="45.29584" lon="8.9693817"><ele>97.0</ele><time>2026-04-18T13:09:14.987Z</time></trkpt><trkpt lat="45.29584" lon="8.9692367"><ele>97.0</ele><time>2026-04-18T13:09:15.987Z</time></trkpt><trkpt lat="45.295835" lon="8.96909"><ele>97.0</ele><time>2026-04-18T13:09:16.987Z</time></trkpt><trkpt lat="45.2958167" lon="8.9689433"><ele>97.0</ele><time>2026-04-18T13:09:17.987Z</time></trkpt><trkpt lat="45.2958" lon="8.9688033"><ele>97.0</ele><time>2026-04-18T13:09:18.987Z</time></trkpt><trkpt lat="45.29579" lon="8.9686633"><ele>97.0</ele><time>2026-04-18T13:09:19.987Z</time></trkpt><trkpt lat="45.2957767" lon="8.968545"><ele>97.0</ele><time>2026-04-18T13:09:20.987Z</time></trkpt><trkpt lat="45.2957683" lon="8.9684183"><ele>97.0</ele><time>2026-04-18T13:09:21.987Z</time></trkpt><trkpt lat="45.29576" lon="8.9682933"><ele>97.33333333333334</ele><time>2026-04-18T13:09:22.987Z</time></trkpt><trkpt lat="45.29576" lon="8.9681783"><ele>97.66666666666667</ele><time>2026-04-18T13:09:23.987Z</time></trkpt><trkpt lat="45.29576" lon="8.9680717"><ele>98.0</ele><time>2026-04-18T13:09:24.987Z</time></trkpt><trkpt lat="45.2957567" lon="8.96796"><ele>98.33333333333334</ele><time>2026-04-18T13:09:25.988Z</time></trkpt><trkpt lat="45.2957583" lon="8.9678483"><ele>98.66666666666667</ele><time>2026-04-18T13:09:26.987Z</time></trkpt><trkpt lat="45.2957617" lon="8.9677517"><ele>99.0</ele><time>2026-04-18T13:09:27.987Z</time></trkpt><trkpt lat="45.2957917" lon="8.9676"><ele>99.0</ele><time>2026-04-18T13:09:29.987Z</time></trkpt><trkpt lat="45.29587" lon="8.96752"><ele>99.0</ele><time>2026-04-18T13:09:31.987Z</time></trkpt><trkpt lat="45.29601" lon="8.967495"><ele>99.0</ele><time>2026-04-18T13:09:33.987Z</time></trkpt><trkpt lat="45.296105" lon="8.9675033"><ele>99.0</ele><time>2026-04-18T13:09:34.987Z</time></trkpt><trkpt lat="45.2962167" lon="8.9675217"><ele>99.0</ele><time>2026-04-18T13:09:35.987Z</time></trkpt><trkpt lat="45.29632" lon="8.96753"><ele>98.80000000000001</ele><time>2026-04-18T13:09:36.987Z</time></trkpt><trkpt lat="45.29642" lon="8.9675433"><ele>98.60000000000001</ele><time>2026-04-18T13:09:37.987Z</time></trkpt><trkpt lat="45.2965233" lon="8.9675583"><ele>98.4</ele><time>2026-04-18T13:09:38.987Z</time></trkpt><trkpt lat="45.2966183" lon="8.9675667"><ele>98.2</ele><time>2026-04-18T13:09:39.987Z</time></trkpt><trkpt lat="45.2967133" lon="8.9675783"><ele>98.0</ele><time>2026-04-18T13:09:40.987Z</time></trkpt><trkpt lat="45.29681" lon="8.9675867"><ele>98.0</ele><time>2026-04-18T13:09:41.987Z</time></trkpt><trkpt lat="45.2969117" lon="8.9676"><ele>98.0</ele><time>2026-04-18T13:09:42.987Z</time></trkpt><trkpt lat="45.2970117" lon="8.9676117"><ele>98.0</ele><time>2026-04-18T13:09:43.987Z</time></trkpt><trkpt lat="45.29711" lon="8.9676167"><ele>98.0</ele><time>2026-04-18T13:09:44.987Z</time></trkpt><trkpt lat="45.2972133" lon="8.96763"><ele>98.0</ele><time>2026-04-18T13:09:45.987Z</time></trkpt><trkpt lat="45.2973217" lon="8.96764"><ele>97.80000000000001</ele><time>2026-04-18T13:09:46.987Z</time></trkpt><trkpt lat="45.2974317" lon="8.9676517"><ele>97.6</ele><time>2026-04-18T13:09:47.987Z</time></trkpt><trkpt lat="45.2975383" lon="8.96766"><ele>97.4</ele><time>2026-04-18T13:09:48.987Z</time></trkpt><trkpt lat="45.2976433" lon="8.9676717"><ele>97.19999999999999</ele><time>2026-04-18T13:09:49.987Z</time></trkpt><trkpt lat="45.29774" lon="8.9676783"><ele>97.0</ele><time>2026-04-18T13:09:50.987Z</time></trkpt><trkpt lat="45.2978433" lon="8.9676933"><ele>97.0</ele><time>2026-04-18T13:09:51.987Z</time></trkpt><trkpt lat="45.2979567" lon="8.9677067"><ele>97.0</ele><time>2026-04-18T13:09:52.987Z</time></trkpt><trkpt lat="45.2980667" lon="8.9677117"><ele>97.0</ele><time>2026-04-18T13:09:53.987Z</time></trkpt><trkpt lat="45.29817" lon="8.9677283"><ele>97.0</ele><time>2026-04-18T13:09:54.987Z</time></trkpt><trkpt lat="45.2982667" lon="8.9677433"><ele>97.0</ele><time>2026-04-18T13:09:55.987Z</time></trkpt><trkpt lat="45.2983717" lon="8.9677583"><ele>97.19999999999999</ele><time>2026-04-18T13:09:56.988Z</time></trkpt><trkpt lat="45.2984767" lon="8.9677783"><ele>97.4</ele><time>2026-04-18T13:09:57.987Z</time></trkpt><trkpt lat="45.2985767" lon="8.967795"><ele>97.6</ele><time>2026-04-18T13:09:58.987Z</time></trkpt><trkpt lat="45.29868" lon="8.967815"><ele>97.80000000000001</ele><time>2026-04-18T13:09:59.987Z</time></trkpt><trkpt lat="45.2987867" lon="8.9678367"><ele>98.0</ele><time>2026-04-18T13:10:00.987Z</time></trkpt><trkpt lat="45.2988983" lon="8.9678617"><ele>98.5</ele><time>2026-04-18T13:10:01.987Z</time></trkpt><trkpt lat="45.299015" lon="8.9679"><ele>99.0</ele><time>2026-04-18T13:10:02.987Z</time></trkpt><trkpt lat="45.2991233" lon="8.967935"><ele>99.5</ele><time>2026-04-18T13:10:03.987Z</time></trkpt><trkpt lat="45.2992383" lon="8.9679867"><ele>100.0</ele><time>2026-04-18T13:10:04.987Z</time></trkpt><trkpt lat="45.2993383" lon="8.9680217"><ele>100.0</ele><time>2026-04-18T13:10:05.987Z</time></trkpt><trkpt lat="45.2994383" lon="8.9680617"><ele>100.0</ele><time>2026-04-18T13:10:06.987Z</time></trkpt><trkpt lat="45.2995383" lon="8.96811"><ele>100.0</ele><time>2026-04-18T13:10:07.987Z</time></trkpt><trkpt lat="45.2996433" lon="8.9681767"><ele>100.0</ele><time>2026-04-18T13:10:08.987Z</time></trkpt><trkpt lat="45.2997583" lon="8.968265"><ele>99.75</ele><time>2026-04-18T13:10:09.987Z</time></trkpt><trkpt lat="45.2998583" lon="8.9683633"><ele>99.5</ele><time>2026-04-18T13:10:10.987Z</time></trkpt><trkpt lat="45.2999617" lon="8.9684683"><ele>99.25</ele><time>2026-04-18T13:10:11.987Z</time></trkpt><trkpt lat="45.3000767" lon="8.9685583"><ele>99.0</ele><time>2026-04-18T13:10:12.987Z</time></trkpt><trkpt lat="45.300195" lon="8.9686517"><ele>99.0</ele><time>2026-04-18T13:10:13.987Z</time></trkpt><trkpt lat="45.300315" lon="8.9687167"><ele>99.0</ele><time>2026-04-18T13:10:14.987Z</time></trkpt><trkpt lat="45.300455" lon="8.9687617"><ele>99.0</ele><time>2026-04-18T13:10:15.987Z</time></trkpt><trkpt lat="45.3005983" lon="8.9687983"><ele>99.0</ele><time>2026-04-18T13:10:16.987Z</time></trkpt><trkpt lat="45.3007517" lon="8.9688267"><ele>99.0</ele><time>2026-04-18T13:10:17.987Z</time></trkpt><trkpt lat="45.300905" lon="8.9688467"><ele>99.0</ele><time>2026-04-18T13:10:18.987Z</time></trkpt><trkpt lat="45.301045" lon="8.9688667"><ele>99.0</ele><time>2026-04-18T13:10:19.988Z</time></trkpt><trkpt lat="45.3011733" lon="8.968885"><ele>99.0</ele><time>2026-04-18T13:10:20.987Z</time></trkpt><trkpt lat="45.3013" lon="8.9688967"><ele>99.0</ele><time>2026-04-18T13:10:21.988Z</time></trkpt><trkpt lat="45.3014267" lon="8.9689133"><ele>99.0</ele><time>2026-04-18T13:10:22.987Z</time></trkpt><trkpt lat="45.30155" lon="8.9689317"><ele>99.0</ele><time>2026-04-18T13:10:23.987Z</time></trkpt><trkpt lat="45.3016683" lon="8.9689533"><ele>99.0</ele><time>2026-04-18T13:10:24.987Z</time></trkpt><trkpt lat="45.3017883" lon="8.9689717"><ele>99.0</ele><time>2026-04-18T13:10:25.987Z</time></trkpt><trkpt lat="45.3019067" lon="8.9689883"><ele>99.0</ele><time>2026-04-18T13:10:26.987Z</time></trkpt><trkpt lat="45.3020283" lon="8.9690083"><ele>99.0</ele><time>2026-04-18T13:10:27.987Z</time></trkpt><trkpt lat="45.30215" lon="8.96903"><ele>99.0</ele><time>2026-04-18T13:10:28.987Z</time></trkpt><trkpt lat="45.3022783" lon="8.9690567"><ele>99.75</ele><time>2026-04-18T13:10:29.987Z</time></trkpt><trkpt lat="45.3024033" lon="8.969075"><ele>100.5</ele><time>2026-04-18T13:10:30.987Z</time></trkpt><trkpt lat="45.3025217" lon="8.9691017"><ele>101.25</ele><time>2026-04-18T13:10:31.987Z</time></trkpt><trkpt lat="45.3026417" lon="8.96912"><ele>102.0</ele><time>2026-04-18T13:10:32.987Z</time></trkpt><trkpt lat="45.30277" lon="8.9691083"><ele>102.0</ele><time>2026-04-18T13:10:33.987Z</time></trkpt><trkpt lat="45.3029117" lon="8.9691"><ele>102.0</ele><time>2026-04-18T13:10:34.987Z</time></trkpt><trkpt lat="45.3030567" lon="8.9691"><ele>102.0</ele><time>2026-04-18T13:10:35.987Z</time></trkpt><trkpt lat="45.303205" lon="8.96912"><ele>102.0</ele><time>2026-04-18T13:10:36.987Z</time></trkpt><trkpt lat="45.3033483" lon="8.9691367"><ele>102.25</ele><time>2026-04-18T13:10:37.988Z</time></trkpt><trkpt lat="45.3034817" lon="8.9691517"><ele>102.5</ele><time>2026-04-18T13:10:38.987Z</time></trkpt><trkpt lat="45.3036083" lon="8.96918"><ele>102.75</ele><time>2026-04-18T13:10:39.987Z</time></trkpt><trkpt lat="45.3037367" lon="8.9692083"><ele>103.0</ele><time>2026-04-18T13:10:40.987Z</time></trkpt><trkpt lat="45.3038483" lon="8.9692417"><ele>102.25</ele><time>2026-04-18T13:10:41.987Z</time></trkpt><trkpt lat="45.3039617" lon="8.9692783"><ele>101.5</ele><time>2026-04-18T13:10:42.987Z</time></trkpt><trkpt lat="45.304075" lon="8.9693167"><ele>100.75</ele><time>2026-04-18T13:10:43.987Z</time></trkpt><trkpt lat="45.3041967" lon="8.9693633"><ele>100.0</ele><time>2026-04-18T13:10:44.987Z</time></trkpt><trkpt lat="45.3043167" lon="8.9694083"><ele>100.0</ele><time>2026-04-18T13:10:45.987Z</time></trkpt><trkpt lat="45.3044267" lon="8.9694517"><ele>100.0</ele><time>2026-04-18T13:10:46.987Z</time></trkpt><trkpt lat="45.3045417" lon="8.9694983"><ele>100.0</ele><time>2026-04-18T13:10:47.987Z</time></trkpt><trkpt lat="45.3046617" lon="8.9695533"><ele>100.0</ele><time>2026-04-18T13:10:48.987Z</time></trkpt><trkpt lat="45.304775" lon="8.9695883"><ele>99.75</ele><time>2026-04-18T13:10:49.987Z</time></trkpt><trkpt lat="45.3048983" lon="8.9696283"><ele>99.5</ele><time>2026-04-18T13:10:50.987Z</time></trkpt><trkpt lat="45.305025" lon="8.96968"><ele>99.25</ele><time>2026-04-18T13:10:51.987Z</time></trkpt><trkpt lat="45.3051467" lon="8.969725"><ele>99.0</ele><time>2026-04-18T13:10:52.987Z</time></trkpt><trkpt lat="45.3052683" lon="8.9697533"><ele>99.0</ele><time>2026-04-18T13:10:53.987Z</time></trkpt><trkpt lat="45.3053833" lon="8.9697833"><ele>99.0</ele><time>2026-04-18T13:10:54.987Z</time></trkpt><trkpt lat="45.3055067" lon="8.9698117"><ele>99.0</ele><time>2026-04-18T13:10:55.987Z</time></trkpt><trkpt lat="45.3056317" lon="8.9698483"><ele>99.0</ele><time>2026-04-18T13:10:56.987Z</time></trkpt><trkpt lat="45.3057633" lon="8.96987"><ele>99.0</ele><time>2026-04-18T13:10:57.987Z</time></trkpt><trkpt lat="45.3059017" lon="8.9698983"><ele>99.0</ele><time>2026-04-18T13:10:58.987Z</time></trkpt><trkpt lat="45.3060467" lon="8.9699217"><ele>99.0</ele><time>2026-04-18T13:10:59.987Z</time></trkpt><trkpt lat="45.306205" lon="8.9699367"><ele>99.0</ele><time>2026-04-18T13:11:00.987Z</time></trkpt><trkpt lat="45.3063583" lon="8.9699483"><ele>99.75</ele><time>2026-04-18T13:11:01.987Z</time></trkpt><trkpt lat="45.3065067" lon="8.9699633"><ele>100.5</ele><time>2026-04-18T13:11:02.987Z</time></trkpt><trkpt lat="45.3066533" lon="8.9699817"><ele>101.25</ele><time>2026-04-18T13:11:03.987Z</time></trkpt><trkpt lat="45.3068" lon="8.9699967"><ele>102.0</ele><time>2026-04-18T13:11:04.988Z</time></trkpt><trkpt lat="45.306945" lon="8.9700117"><ele>101.75</ele><time>2026-04-18T13:11:05.987Z</time></trkpt><trkpt lat="45.3070967" lon="8.9700283"><ele>101.5</ele><time>2026-04-18T13:11:06.987Z</time></trkpt><trkpt lat="45.307235" lon="8.9700533"><ele>101.25</ele><time>2026-04-18T13:11:07.987Z</time></trkpt><trkpt lat="45.3073683" lon="8.9700667"><ele>101.0</ele><time>2026-04-18T13:11:08.987Z</time></trkpt><trkpt lat="45.3074817" lon="8.9700867"><ele>101.4</ele><time>2026-04-18T13:11:09.987Z</time></trkpt><trkpt lat="45.3075917" lon="8.970105"><ele>101.8</ele><time>2026-04-18T13:11:10.987Z</time></trkpt><trkpt lat="45.3076933" lon="8.9701167"><ele>102.2</ele><time>2026-04-18T13:11:11.987Z</time></trkpt><trkpt lat="45.3077867" lon="8.9701233"><ele>102.60000000000001</ele><time>2026-04-18T13:11:12.987Z</time></trkpt><trkpt lat="45.3078583" lon="8.970125"><ele>103.0</ele><time>2026-04-18T13:11:13.987Z</time></trkpt><trkpt lat="45.3079533" lon="8.970125"><ele>103.00000000000001</ele><time>2026-04-18T13:11:15.987Z</time></trkpt><trkpt lat="45.3080283" lon="8.9701283"><ele>103.0</ele><time>2026-04-18T13:11:17.987Z</time></trkpt><trkpt lat="45.308115" lon="8.9701683"><ele>103.0</ele><time>2026-04-18T13:11:19.988Z</time></trkpt><trkpt lat="45.3081933" lon="8.970205"><ele>103.0</ele><time>2026-04-18T13:11:21.987Z</time></trkpt><trkpt lat="45.30826" lon="8.9702133"><ele>103.00000000000001</ele><time>2026-04-18T13:11:23.987Z</time></trkpt><trkpt lat="45.3083517" lon="8.9701783"><ele>103.0</ele><time>2026-04-18T13:11:25.987Z</time></trkpt><trkpt lat="45.3084767" lon="8.9701183"><ele>102.83333333333334</ele><time>2026-04-18T13:11:27.987Z</time></trkpt><trkpt lat="45.3085567" lon="8.9700917"><ele>102.66666666666667</ele><time>2026-04-18T13:11:28.987Z</time></trkpt><trkpt lat="45.3086433" lon="8.9700767"><ele>102.5</ele><time>2026-04-18T13:11:29.988Z</time></trkpt><trkpt lat="45.30874" lon="8.9700683"><ele>102.33333333333334</ele><time>2026-04-18T13:11:30.987Z</time></trkpt><trkpt lat="45.3088333" lon="8.9700567"><ele>102.16666666666667</ele><time>2026-04-18T13:11:31.987Z</time></trkpt><trkpt lat="45.3089083" lon="8.970045"><ele>102.0</ele><time>2026-04-18T13:11:32.987Z</time></trkpt><trkpt lat="45.3089983" lon="8.9700333"><ele>101.8</ele><time>2026-04-18T13:11:34.987Z</time></trkpt><trkpt lat="45.3090617" lon="8.9700867"><ele>101.6</ele><time>2026-04-18T13:11:44.988Z</time></trkpt><trkpt lat="45.309155" lon="8.9701333"><ele>101.39999999999999</ele><time>2026-04-18T13:11:46.987Z</time></trkpt><trkpt lat="45.3092883" lon="8.970115"><ele>101.19999999999999</ele><time>2026-04-18T13:11:48.988Z</time></trkpt><trkpt lat="45.30937" lon="8.9701"><ele>101.0</ele><time>2026-04-18T13:11:49.987Z</time></trkpt><trkpt lat="45.3094633" lon="8.9700867"><ele>101.0</ele><time>2026-04-18T13:11:50.987Z</time></trkpt><trkpt lat="45.309565" lon="8.9700733"><ele>101.0</ele><time>2026-04-18T13:11:51.988Z</time></trkpt><trkpt lat="45.30967" lon="8.97006"><ele>101.0</ele><time>2026-04-18T13:11:52.987Z</time></trkpt><trkpt lat="45.3097717" lon="8.970045"><ele>101.0</ele><time>2026-04-18T13:11:53.987Z</time></trkpt><trkpt lat="45.309875" lon="8.970035"><ele>101.0</ele><time>2026-04-18T13:11:54.987Z</time></trkpt><trkpt lat="45.3099767" lon="8.9700133"><ele>101.19999999999999</ele><time>2026-04-18T13:11:55.987Z</time></trkpt><trkpt lat="45.3100833" lon="8.96997"><ele>101.39999999999999</ele><time>2026-04-18T13:11:56.987Z</time></trkpt><trkpt lat="45.310195" lon="8.9699333"><ele>101.6</ele><time>2026-04-18T13:11:57.987Z</time></trkpt><trkpt lat="45.3103067" lon="8.969885"><ele>101.8</ele><time>2026-04-18T13:11:58.987Z</time></trkpt><trkpt lat="45.3104017" lon="8.9698267"><ele>102.0</ele><time>2026-04-18T13:11:59.987Z</time></trkpt><trkpt lat="45.3105017" lon="8.9697717"><ele>102.0</ele><time>2026-04-18T13:12:00.987Z</time></trkpt><trkpt lat="45.3105917" lon="8.9697167"><ele>102.0</ele><time>2026-04-18T13:12:01.988Z</time></trkpt><trkpt lat="45.3106783" lon="8.9696717"><ele>102.0</ele><time>2026-04-18T13:12:02.987Z</time></trkpt><trkpt lat="45.31077" lon="8.96963"><ele>102.0</ele><time>2026-04-18T13:12:03.987Z</time></trkpt><trkpt lat="45.3108583" lon="8.9695867"><ele>102.0</ele><time>2026-04-18T13:12:04.987Z</time></trkpt><trkpt lat="45.310955" lon="8.9695533"><ele>102.0</ele><time>2026-04-18T13:12:05.987Z</time></trkpt><trkpt lat="45.3110567" lon="8.9695133"><ele>102.0</ele><time>2026-04-18T13:12:06.988Z</time></trkpt><trkpt lat="45.311145" lon="8.969455"><ele>102.0</ele><time>2026-04-18T13:12:07.987Z</time></trkpt><trkpt lat="45.31124" lon="8.9693917"><ele>102.0</ele><time>2026-04-18T13:12:08.987Z</time></trkpt><trkpt lat="45.31132" lon="8.969325"><ele>102.0</ele><time>2026-04-18T13:12:09.987Z</time></trkpt><trkpt lat="45.311385" lon="8.9692667"><ele>102.0</ele><time>2026-04-18T13:12:10.987Z</time></trkpt><trkpt lat="45.3114617" lon="8.9691933"><ele>102.0</ele><time>2026-04-18T13:12:12.987Z</time></trkpt><trkpt lat="45.31147" lon="8.96907"><ele>102.0</ele><time>2026-04-18T13:12:18.987Z</time></trkpt><trkpt lat="45.31142" lon="8.968905"><ele>102.0</ele><time>2026-04-18T13:12:20.988Z</time></trkpt><trkpt lat="45.311375" lon="8.968775"><ele>102.0</ele><time>2026-04-18T13:12:21.987Z</time></trkpt><trkpt lat="45.3113317" lon="8.9686467"><ele>102.16666666666667</ele><time>2026-04-18T13:12:22.987Z</time></trkpt><trkpt lat="45.3112967" lon="8.96852"><ele>102.33333333333334</ele><time>2026-04-18T13:12:23.987Z</time></trkpt><trkpt lat="45.311265" lon="8.968415"><ele>102.5</ele><time>2026-04-18T13:12:24.987Z</time></trkpt><trkpt lat="45.3112383" lon="8.9683033"><ele>102.66666666666667</ele><time>2026-04-18T13:12:25.987Z</time></trkpt><trkpt lat="45.311215" lon="8.9681883"><ele>102.83333333333334</ele><time>2026-04-18T13:12:26.987Z</time></trkpt><trkpt lat="45.3111933" lon="8.96808"><ele>103.0</ele><time>2026-04-18T13:12:27.987Z</time></trkpt><trkpt lat="45.3111717" lon="8.9679783"><ele>103.16666666666667</ele><time>2026-04-18T13:12:28.987Z</time></trkpt><trkpt lat="45.3111533" lon="8.9678917"><ele>103.33333333333334</ele><time>2026-04-18T13:12:29.987Z</time></trkpt><trkpt lat="45.3111617" lon="8.96776"><ele>103.5</ele><time>2026-04-18T13:12:31.987Z</time></trkpt><trkpt lat="45.31122" lon="8.9676817"><ele>103.66666666666666</ele><time>2026-04-18T13:12:35.987Z</time></trkpt><trkpt lat="45.311295" lon="8.9676733"><ele>103.83333333333333</ele><time>2026-04-18T13:12:37.987Z</time></trkpt><trkpt lat="45.311385" lon="8.96766"><ele>104.0</ele><time>2026-04-18T13:12:39.987Z</time></trkpt><trkpt lat="45.3114817" lon="8.9676267"><ele>103.49999999999999</ele><time>2026-04-18T13:12:41.987Z</time></trkpt><trkpt lat="45.3115483" lon="8.967605"><ele>103.0</ele><time>2026-04-18T13:12:42.987Z</time></trkpt><trkpt lat="45.3116133" lon="8.9675783"><ele>102.5</ele><time>2026-04-18T13:12:43.987Z</time></trkpt><trkpt lat="45.31172" lon="8.9675083"><ele>102.0</ele><time>2026-04-18T13:12:45.987Z</time></trkpt><trkpt lat="45.3117867" lon="8.96748"><ele>101.49999999999999</ele><time>2026-04-18T13:12:47.987Z</time></trkpt><trkpt lat="45.311805" lon="8.9673717"><ele>101.0</ele><time>2026-04-18T13:12:56.987Z</time></trkpt><trkpt lat="45.3118117" lon="8.9672017"><ele>100.83333333333333</ele><time>2026-04-18T13:12:58.987Z</time></trkpt><trkpt lat="45.3118183" lon="8.967015"><ele>100.66666666666666</ele><time>2026-04-18T13:13:00.987Z</time></trkpt><trkpt lat="45.311825" lon="8.9669033"><ele>100.5</ele><time>2026-04-18T13:13:01.987Z</time></trkpt><trkpt lat="45.311835" lon="8.9667817"><ele>100.33333333333334</ele><time>2026-04-18T13:13:02.987Z</time></trkpt><trkpt lat="45.3118467" lon="8.9666767"><ele>100.16666666666667</ele><time>2026-04-18T13:13:03.987Z</time></trkpt><trkpt lat="45.311845" lon="8.9665833"><ele>100.0</ele><time>2026-04-18T13:13:04.987Z</time></trkpt><trkpt lat="45.3118617" lon="8.9664033"><ele>99.66666666666667</ele><time>2026-04-18T13:13:06.987Z</time></trkpt><trkpt lat="45.3118983" lon="8.9663033"><ele>99.33333333333334</ele><time>2026-04-18T13:13:07.987Z</time></trkpt><trkpt lat="45.3119333" lon="8.9662133"><ele>99.0</ele><time>2026-04-18T13:13:08.987Z</time></trkpt><trkpt lat="45.31196" lon="8.9661233"><ele>98.66666666666666</ele><time>2026-04-18T13:13:09.987Z</time></trkpt><trkpt lat="45.312" lon="8.9660267"><ele>98.33333333333333</ele><time>2026-04-18T13:13:10.987Z</time></trkpt><trkpt lat="45.3120683" lon="8.965915"><ele>98.0</ele><time>2026-04-18T13:13:11.987Z</time></trkpt><trkpt lat="45.3121383" lon="8.9657933"><ele>97.75</ele><time>2026-04-18T13:13:12.987Z</time></trkpt><trkpt lat="45.3122283" lon="8.9656567"><ele>97.5</ele><time>2026-04-18T13:13:13.987Z</time></trkpt><trkpt lat="45.3122983" lon="8.9655333"><ele>97.25</ele><time>2026-04-18T13:13:14.987Z</time></trkpt><trkpt lat="45.31237" lon="8.9654133"><ele>97.0</ele><time>2026-04-18T13:13:15.987Z</time></trkpt><trkpt lat="45.31244" lon="8.9653"><ele>97.0</ele><time>2026-04-18T13:13:16.987Z</time></trkpt><trkpt lat="45.3125133" lon="8.9651817"><ele>97.0</ele><time>2026-04-18T13:13:17.988Z</time></trkpt><trkpt lat="45.3125833" lon="8.9650633"><ele>97.0</ele><time>2026-04-18T13:13:18.988Z</time></trkpt><trkpt lat="45.3126583" lon="8.9649467"><ele>97.0</ele><time>2026-04-18T13:13:19.987Z</time></trkpt><trkpt lat="45.31274" lon="8.96482"><ele>97.0</ele><time>2026-04-18T13:13:20.987Z</time></trkpt><trkpt lat="45.3128217" lon="8.9646933"><ele>97.0</ele><time>2026-04-18T13:13:21.987Z</time></trkpt><trkpt lat="45.3129067" lon="8.9645583"><ele>97.0</ele><time>2026-04-18T13:13:22.987Z</time></trkpt><trkpt lat="45.31299" lon="8.964415"><ele>97.0</ele><time>2026-04-18T13:13:23.987Z</time></trkpt><trkpt lat="45.3130767" lon="8.9642733"><ele>96.0</ele><time>2026-04-18T13:13:24.987Z</time></trkpt><trkpt lat="45.3131683" lon="8.96414"><ele>95.0</ele><time>2026-04-18T13:13:25.987Z</time></trkpt><trkpt lat="45.3132433" lon="8.9640033"><ele>94.0</ele><time>2026-04-18T13:13:26.987Z</time></trkpt><trkpt lat="45.31333" lon="8.9638667"><ele>93.0</ele><time>2026-04-18T13:13:27.987Z</time></trkpt><trkpt lat="45.3134183" lon="8.9637283"><ele>93.0</ele><time>2026-04-18T13:13:28.988Z</time></trkpt><trkpt lat="45.313505" lon="8.9635867"><ele>93.0</ele><time>2026-04-18T13:13:29.987Z</time></trkpt><trkpt lat="45.3135767" lon="8.96343"><ele>93.0</ele><time>2026-04-18T13:13:30.987Z</time></trkpt><trkpt lat="45.31364" lon="8.963255"><ele>93.0</ele><time>2026-04-18T13:13:31.987Z</time></trkpt><trkpt lat="45.3136983" lon="8.9630583"><ele>93.0</ele><time>2026-04-18T13:13:32.987Z</time></trkpt><trkpt lat="45.31375" lon="8.9628517"><ele>93.0</ele><time>2026-04-18T13:13:33.987Z</time></trkpt><trkpt lat="45.3137967" lon="8.9626333"><ele>93.0</ele><time>2026-04-18T13:13:34.987Z</time></trkpt><trkpt lat="45.313845" lon="8.9624133"><ele>94.0</ele><time>2026-04-18T13:13:35.987Z</time></trkpt><trkpt lat="45.3138817" lon="8.9621833"><ele>95.0</ele><time>2026-04-18T13:13:36.987Z</time></trkpt><trkpt lat="45.31393" lon="8.9619567"><ele>96.0</ele><time>2026-04-18T13:13:37.988Z</time></trkpt><trkpt lat="45.3139683" lon="8.96173"><ele>93.66666666666667</ele><time>2026-04-18T13:13:38.987Z</time></trkpt><trkpt lat="45.31399" lon="8.9614867"><ele>91.33333333333334</ele><time>2026-04-18T13:13:39.987Z</time></trkpt><trkpt lat="45.3139967" lon="8.9612417"><ele>89.0</ele><time>2026-04-18T13:13:40.987Z</time></trkpt><trkpt lat="45.314" lon="8.9609933"><ele>88.66666666666667</ele><time>2026-04-18T13:13:41.987Z</time></trkpt><trkpt lat="45.3139917" lon="8.9607433"><ele>88.33333333333333</ele><time>2026-04-18T13:13:42.987Z</time></trkpt><trkpt lat="45.3139683" lon="8.960495"><ele>88.0</ele><time>2026-04-18T13:13:43.987Z</time></trkpt><trkpt lat="45.31394" lon="8.9602483"><ele>88.0</ele><time>2026-04-18T13:13:44.987Z</time></trkpt><trkpt lat="45.3139117" lon="8.96001"><ele>88.0</ele><time>2026-04-18T13:13:45.987Z</time></trkpt><trkpt lat="45.31388" lon="8.9597867"><ele>88.0</ele><time>2026-04-18T13:13:46.987Z</time></trkpt><trkpt lat="45.313865" lon="8.9595517"><ele>87.66666666666666</ele><time>2026-04-18T13:13:47.987Z</time></trkpt><trkpt lat="45.31386" lon="8.9593167"><ele>87.33333333333333</ele><time>2026-04-18T13:13:48.987Z</time></trkpt><trkpt lat="45.3138683" lon="8.959095"><ele>87.0</ele><time>2026-04-18T13:13:49.987Z</time></trkpt><trkpt lat="45.31388" lon="8.9588733"><ele>86.75</ele><time>2026-04-18T13:13:50.987Z</time></trkpt><trkpt lat="45.3138883" lon="8.9586617"><ele>86.5</ele><time>2026-04-18T13:13:51.987Z</time></trkpt><trkpt lat="45.313895" lon="8.9584483"><ele>86.25</ele><time>2026-04-18T13:13:52.987Z</time></trkpt><trkpt lat="45.313905" lon="8.958245"><ele>86.0</ele><time>2026-04-18T13:13:53.987Z</time></trkpt><trkpt lat="45.3139183" lon="8.9580467"><ele>86.0</ele><time>2026-04-18T13:13:54.987Z</time></trkpt><trkpt lat="45.3139333" lon="8.9578667"><ele>86.0</ele><time>2026-04-18T13:13:55.987Z</time></trkpt><trkpt lat="45.3139517" lon="8.9577017"><ele>86.0</ele><time>2026-04-18T13:13:56.987Z</time></trkpt><trkpt lat="45.3139583" lon="8.9575383"><ele>86.0</ele><time>2026-04-18T13:13:57.987Z</time></trkpt><trkpt lat="45.3139683" lon="8.95739"><ele>86.0</ele><time>2026-04-18T13:13:58.988Z</time></trkpt><trkpt lat="45.31399" lon="8.95725"><ele>86.0</ele><time>2026-04-18T13:13:59.988Z</time></trkpt><trkpt lat="45.31404" lon="8.9571367"><ele>86.0</ele><time>2026-04-18T13:14:00.988Z</time></trkpt><trkpt lat="45.3141083" lon="8.9570383"><ele>86.0</ele><time>2026-04-18T13:14:01.987Z</time></trkpt><trkpt lat="45.3141867" lon="8.9569633"><ele>86.0</ele><time>2026-04-18T13:14:02.988Z</time></trkpt><trkpt lat="45.3142633" lon="8.9568917"><ele>86.0</ele><time>2026-04-18T13:14:03.987Z</time></trkpt><trkpt lat="45.314345" lon="8.95683"><ele>86.0</ele><time>2026-04-18T13:14:04.987Z</time></trkpt><trkpt lat="45.3144233" lon="8.9567633"><ele>86.0</ele><time>2026-04-18T13:14:05.987Z</time></trkpt><trkpt lat="45.3144967" lon="8.9566967"><ele>86.0</ele><time>2026-04-18T13:14:06.987Z</time></trkpt><trkpt lat="45.3145517" lon="8.9566083"><ele>86.0</ele><time>2026-04-18T13:14:07.987Z</time></trkpt><trkpt lat="45.31461" lon="8.9565133"><ele>86.0</ele><time>2026-04-18T13:14:08.987Z</time></trkpt><trkpt lat="45.3146633" lon="8.95641"><ele>86.19999999999999</ele><time>2026-04-18T13:14:09.987Z</time></trkpt><trkpt lat="45.31471" lon="8.9562933"><ele>86.39999999999999</ele><time>2026-04-18T13:14:10.987Z</time></trkpt><trkpt lat="45.3147617" lon="8.9561817"><ele>86.6</ele><time>2026-04-18T13:14:11.987Z</time></trkpt><trkpt lat="45.3148183" lon="8.9560617"><ele>86.8</ele><time>2026-04-18T13:14:12.987Z</time></trkpt><trkpt lat="45.31487" lon="8.9559333"><ele>87.0</ele><time>2026-04-18T13:14:13.988Z</time></trkpt><trkpt lat="45.3149267" lon="8.955805"><ele>87.0</ele><time>2026-04-18T13:14:14.987Z</time></trkpt><trkpt lat="45.3149783" lon="8.9556733"><ele>87.0</ele><time>2026-04-18T13:14:15.987Z</time></trkpt><trkpt lat="45.315035" lon="8.9555467"><ele>87.0</ele><time>2026-04-18T13:14:16.987Z</time></trkpt><trkpt lat="45.3150917" lon="8.955415"><ele>87.0</ele><time>2026-04-18T13:14:17.987Z</time></trkpt><trkpt lat="45.3151383" lon="8.9552767"><ele>87.0</ele><time>2026-04-18T13:14:18.987Z</time></trkpt><trkpt lat="45.3151933" lon="8.9551333"><ele>87.0</ele><time>2026-04-18T13:14:19.987Z</time></trkpt><trkpt lat="45.31524" lon="8.9549883"><ele>87.0</ele><time>2026-04-18T13:14:20.987Z</time></trkpt><trkpt lat="45.31529" lon="8.9548383"><ele>87.0</ele><time>2026-04-18T13:14:21.988Z</time></trkpt><trkpt lat="45.3153417" lon="8.9546833"><ele>87.0</ele><time>2026-04-18T13:14:22.987Z</time></trkpt><trkpt lat="45.3153883" lon="8.9545283"><ele>87.0</ele><time>2026-04-18T13:14:23.987Z</time></trkpt><trkpt lat="45.31543" lon="8.9543833"><ele>87.0</ele><time>2026-04-18T13:14:24.987Z</time></trkpt><trkpt lat="45.315455" lon="8.9542217"><ele>87.0</ele><time>2026-04-18T13:14:25.987Z</time></trkpt><trkpt lat="45.315475" lon="8.9540667"><ele>87.0</ele><time>2026-04-18T13:14:26.988Z</time></trkpt><trkpt lat="45.315495" lon="8.9539083"><ele>87.0</ele><time>2026-04-18T13:14:27.987Z</time></trkpt><trkpt lat="45.315525" lon="8.9537533"><ele>87.0</ele><time>2026-04-18T13:14:28.987Z</time></trkpt><trkpt lat="45.3155583" lon="8.9536017"><ele>87.0</ele><time>2026-04-18T13:14:29.987Z</time></trkpt><trkpt lat="45.3155833" lon="8.95344"><ele>87.0</ele><time>2026-04-18T13:14:30.987Z</time></trkpt><trkpt lat="45.3156033" lon="8.9532717"><ele>87.0</ele><time>2026-04-18T13:14:31.988Z</time></trkpt><trkpt lat="45.3156033" lon="8.9530867"><ele>87.0</ele><time>2026-04-18T13:14:32.987Z</time></trkpt><trkpt lat="45.3156067" lon="8.9529083"><ele>87.0</ele><time>2026-04-18T13:14:33.987Z</time></trkpt><trkpt lat="45.3156133" lon="8.9527217"><ele>87.0</ele><time>2026-04-18T13:14:34.987Z</time></trkpt><trkpt lat="45.3156133" lon="8.9525333"><ele>87.25</ele><time>2026-04-18T13:14:35.987Z</time></trkpt><trkpt lat="45.31562" lon="8.9523617"><ele>87.5</ele><time>2026-04-18T13:14:36.987Z</time></trkpt><trkpt lat="45.3156333" lon="8.9522"><ele>87.75</ele><time>2026-04-18T13:14:37.987Z</time></trkpt><trkpt lat="45.3156367" lon="8.9520433"><ele>88.0</ele><time>2026-04-18T13:14:38.987Z</time></trkpt><trkpt lat="45.31563" lon="8.9518767"><ele>88.0</ele><time>2026-04-18T13:14:39.987Z</time></trkpt><trkpt lat="45.3156317" lon="8.9517183"><ele>88.0</ele><time>2026-04-18T13:14:40.987Z</time></trkpt><trkpt lat="45.3156233" lon="8.9515617"><ele>88.0</ele><time>2026-04-18T13:14:41.987Z</time></trkpt><trkpt lat="45.315625" lon="8.9514183"><ele>88.0</ele><time>2026-04-18T13:14:42.987Z</time></trkpt><trkpt lat="45.3156283" lon="8.9512767"><ele>88.0</ele><time>2026-04-18T13:14:43.987Z</time></trkpt><trkpt lat="45.3156367" lon="8.9511533"><ele>87.80000000000001</ele><time>2026-04-18T13:14:44.987Z</time></trkpt><trkpt lat="45.315655" lon="8.9510367"><ele>87.6</ele><time>2026-04-18T13:14:45.987Z</time></trkpt><trkpt lat="45.3156867" lon="8.9509233"><ele>87.4</ele><time>2026-04-18T13:14:46.987Z</time></trkpt><trkpt lat="45.31574" lon="8.9508217"><ele>87.19999999999999</ele><time>2026-04-18T13:14:47.987Z</time></trkpt><trkpt lat="45.3158067" lon="8.95072"><ele>87.0</ele><time>2026-04-18T13:14:48.987Z</time></trkpt><trkpt lat="45.3158717" lon="8.9506217"><ele>86.8</ele><time>2026-04-18T13:14:49.987Z</time></trkpt><trkpt lat="45.315915" lon="8.9505083"><ele>86.6</ele><time>2026-04-18T13:14:50.987Z</time></trkpt><trkpt lat="45.3159617" lon="8.9503983"><ele>86.39999999999999</ele><time>2026-04-18T13:14:51.987Z</time></trkpt><trkpt lat="45.3160033" lon="8.9502683"><ele>86.19999999999999</ele><time>2026-04-18T13:14:52.987Z</time></trkpt><trkpt lat="45.3160567" lon="8.9501433"><ele>86.0</ele><time>2026-04-18T13:14:53.987Z</time></trkpt><trkpt lat="45.3161167" lon="8.950015"><ele>86.0</ele><time>2026-04-18T13:14:54.988Z</time></trkpt><trkpt lat="45.3161867" lon="8.9498867"><ele>86.0</ele><time>2026-04-18T13:14:55.987Z</time></trkpt><trkpt lat="45.31624" lon="8.9497567"><ele>86.0</ele><time>2026-04-18T13:14:56.987Z</time></trkpt><trkpt lat="45.3163" lon="8.94963"><ele>86.0</ele><time>2026-04-18T13:14:57.987Z</time></trkpt><trkpt lat="45.3163533" lon="8.9495067"><ele>86.0</ele><time>2026-04-18T13:14:58.987Z</time></trkpt><trkpt lat="45.3163883" lon="8.949395"><ele>86.5</ele><time>2026-04-18T13:14:59.987Z</time></trkpt><trkpt lat="45.31643" lon="8.949285"><ele>87.0</ele><time>2026-04-18T13:15:00.987Z</time></trkpt><trkpt lat="45.316475" lon="8.9491833"><ele>87.5</ele><time>2026-04-18T13:15:01.987Z</time></trkpt><trkpt lat="45.316525" lon="8.9490867"><ele>88.0</ele><time>2026-04-18T13:15:02.987Z</time></trkpt><trkpt lat="45.3165717" lon="8.9490067"><ele>88.5</ele><time>2026-04-18T13:15:03.987Z</time></trkpt><trkpt lat="45.3166233" lon="8.9489217"><ele>89.0</ele><time>2026-04-18T13:15:04.988Z</time></trkpt><trkpt lat="45.3166717" lon="8.9488483"><ele>89.0</ele><time>2026-04-18T13:15:05.988Z</time></trkpt><trkpt lat="45.31672" lon="8.94878"><ele>89.0</ele><time>2026-04-18T13:15:06.987Z</time></trkpt><trkpt lat="45.3168167" lon="8.94867"><ele>89.0</ele><time>2026-04-18T13:15:08.987Z</time></trkpt><trkpt lat="45.3168717" lon="8.9486067"><ele>89.0</ele><time>2026-04-18T13:15:09.987Z</time></trkpt><trkpt lat="45.3169383" lon="8.9485417"><ele>89.0</ele><time>2026-04-18T13:15:10.987Z</time></trkpt><trkpt lat="45.3170067" lon="8.9484783"><ele>89.0</ele><time>2026-04-18T13:15:11.987Z</time></trkpt><trkpt lat="45.3170817" lon="8.94841"><ele>89.0</ele><time>2026-04-18T13:15:12.986Z</time></trkpt><trkpt lat="45.3171417" lon="8.948345"><ele>89.0</ele><time>2026-04-18T13:15:13.986Z</time></trkpt><trkpt lat="45.31724" lon="8.94826"><ele>89.0</ele><time>2026-04-18T13:15:15.986Z</time></trkpt><trkpt lat="45.3173133" lon="8.94818"><ele>89.0</ele><time>2026-04-18T13:15:17.986Z</time></trkpt><trkpt lat="45.31739" lon="8.94808"><ele>89.0</ele><time>2026-04-18T13:15:19.987Z</time></trkpt><trkpt lat="45.3174717" lon="8.9479717"><ele>89.0</ele><time>2026-04-18T13:15:21.987Z</time></trkpt><trkpt lat="45.317525" lon="8.9478967"><ele>89.0</ele><time>2026-04-18T13:15:23.986Z</time></trkpt><trkpt lat="45.3175717" lon="8.9478233"><ele>89.0</ele><time>2026-04-18T13:16:10.986Z</time></trkpt><trkpt lat="45.3176433" lon="8.94775"><ele>89.0</ele><time>2026-04-18T13:16:12.986Z</time></trkpt><trkpt lat="45.31773" lon="8.947645"><ele>89.0</ele><time>2026-04-18T13:16:14.986Z</time></trkpt><trkpt lat="45.31779" lon="8.94759"><ele>89.0</ele><time>2026-04-18T13:16:15.986Z</time></trkpt><trkpt lat="45.31785" lon="8.9475233"><ele>88.83333333333334</ele><time>2026-04-18T13:16:16.987Z</time></trkpt><trkpt lat="45.3179133" lon="8.9474617"><ele>88.66666666666667</ele><time>2026-04-18T13:16:17.986Z</time></trkpt><trkpt lat="45.3179683" lon="8.947395"><ele>88.5</ele><time>2026-04-18T13:16:18.986Z</time></trkpt><trkpt lat="45.3180317" lon="8.9473267"><ele>88.33333333333333</ele><time>2026-04-18T13:16:19.986Z</time></trkpt><trkpt lat="45.3180917" lon="8.9472517"><ele>88.16666666666666</ele><time>2026-04-18T13:16:20.986Z</time></trkpt><trkpt lat="45.3181567" lon="8.947175"><ele>88.0</ele><time>2026-04-18T13:16:21.986Z</time></trkpt><trkpt lat="45.3182233" lon="8.9470983"><ele>88.0</ele><time>2026-04-18T13:16:22.986Z</time></trkpt><trkpt lat="45.3182867" lon="8.9470217"><ele>88.0</ele><time>2026-04-18T13:16:23.986Z</time></trkpt><trkpt lat="45.3183517" lon="8.9469483"><ele>88.0</ele><time>2026-04-18T13:16:24.986Z</time></trkpt><trkpt lat="45.3184133" lon="8.9468833"><ele>88.0</ele><time>2026-04-18T13:16:25.986Z</time></trkpt><trkpt lat="45.3184683" lon="8.9468133"><ele>88.0</ele><time>2026-04-18T13:16:26.986Z</time></trkpt><trkpt lat="45.3185317" lon="8.9467433"><ele>88.0</ele><time>2026-04-18T13:16:27.986Z</time></trkpt><trkpt lat="45.318605" lon="8.94668"><ele>88.0</ele><time>2026-04-18T13:16:28.986Z</time></trkpt><trkpt lat="45.3186683" lon="8.9466117"><ele>88.0</ele><time>2026-04-18T13:16:29.986Z</time></trkpt><trkpt lat="45.31875" lon="8.9465567"><ele>88.0</ele><time>2026-04-18T13:16:30.986Z</time></trkpt><trkpt lat="45.3188433" lon="8.9465033"><ele>88.0</ele><time>2026-04-18T13:16:31.986Z</time></trkpt><trkpt lat="45.3189417" lon="8.9464517"><ele>88.0</ele><time>2026-04-18T13:16:32.986Z</time></trkpt><trkpt lat="45.319035" lon="8.9464"><ele>87.4</ele><time>2026-04-18T13:16:33.986Z</time></trkpt><trkpt lat="45.3191283" lon="8.9463417"><ele>86.80000000000001</ele><time>2026-04-18T13:16:34.986Z</time></trkpt><trkpt lat="45.3192233" lon="8.9462883"><ele>86.2</ele><time>2026-04-18T13:16:35.986Z</time></trkpt><trkpt lat="45.3193167" lon="8.94623"><ele>85.6</ele><time>2026-04-18T13:16:36.987Z</time></trkpt><trkpt lat="45.3194117" lon="8.9461817"><ele>85.0</ele><time>2026-04-18T13:16:37.986Z</time></trkpt><trkpt lat="45.3195" lon="8.946125"><ele>85.0</ele><time>2026-04-18T13:16:38.986Z</time></trkpt><trkpt lat="45.3195917" lon="8.9460733"><ele>85.0</ele><time>2026-04-18T13:16:39.986Z</time></trkpt><trkpt lat="45.319685" lon="8.94603"><ele>85.0</ele><time>2026-04-18T13:16:40.986Z</time></trkpt><trkpt lat="45.319775" lon="8.94599"><ele>85.0</ele><time>2026-04-18T13:16:41.986Z</time></trkpt><trkpt lat="45.31987" lon="8.945945"><ele>85.0</ele><time>2026-04-18T13:16:42.986Z</time></trkpt><trkpt lat="45.3199567" lon="8.9459"><ele>85.33333333333333</ele><time>2026-04-18T13:16:43.986Z</time></trkpt><trkpt lat="45.32004" lon="8.945855"><ele>85.66666666666666</ele><time>2026-04-18T13:16:44.986Z</time></trkpt><trkpt lat="45.320125" lon="8.9458067"><ele>86.0</ele><time>2026-04-18T13:16:45.986Z</time></trkpt><trkpt lat="45.320205" lon="8.9457567"><ele>86.33333333333333</ele><time>2026-04-18T13:16:46.986Z</time></trkpt><trkpt lat="45.320285" lon="8.9457083"><ele>86.66666666666667</ele><time>2026-04-18T13:16:47.986Z</time></trkpt><trkpt lat="45.3203533" lon="8.9456583"><ele>87.0</ele><time>2026-04-18T13:16:48.986Z</time></trkpt><trkpt lat="45.3204133" lon="8.9456083"><ele>87.0</ele><time>2026-04-18T13:16:49.987Z</time></trkpt><trkpt lat="45.3205217" lon="8.9455517"><ele>87.0</ele><time>2026-04-18T13:16:51.986Z</time></trkpt><trkpt lat="45.3206383" lon="8.9455983"><ele>87.0</ele><time>2026-04-18T13:16:53.986Z</time></trkpt><trkpt lat="45.3207417" lon="8.94569"><ele>87.0</ele><time>2026-04-18T13:16:55.986Z</time></trkpt><trkpt lat="45.320855" lon="8.94578"><ele>87.28571428571428</ele><time>2026-04-18T13:16:57.986Z</time></trkpt><trkpt lat="45.32092" lon="8.9458233"><ele>87.57142857142857</ele><time>2026-04-18T13:16:58.986Z</time></trkpt><trkpt lat="45.320985" lon="8.94586"><ele>87.85714285714286</ele><time>2026-04-18T13:16:59.987Z</time></trkpt><trkpt lat="45.3210483" lon="8.945905"><ele>88.14285714285714</ele><time>2026-04-18T13:17:00.986Z</time></trkpt><trkpt lat="45.3211117" lon="8.94594"><ele>88.42857142857143</ele><time>2026-04-18T13:17:01.986Z</time></trkpt><trkpt lat="45.321175" lon="8.9459917"><ele>88.71428571428571</ele><time>2026-04-18T13:17:02.986Z</time></trkpt><trkpt lat="45.3212417" lon="8.9460433"><ele>89.0</ele><time>2026-04-18T13:17:03.986Z</time></trkpt><trkpt lat="45.3213033" lon="8.9460833"><ele>89.0</ele><time>2026-04-18T13:17:04.986Z</time></trkpt><trkpt lat="45.3214167" lon="8.9461033"><ele>89.0</ele><time>2026-04-18T13:17:06.987Z</time></trkpt><trkpt lat="45.321515" lon="8.9460417"><ele>89.0</ele><time>2026-04-18T13:17:08.986Z</time></trkpt><trkpt lat="45.32161" lon="8.9459233"><ele>89.0</ele><time>2026-04-18T13:17:10.986Z</time></trkpt><trkpt lat="45.321665" lon="8.94586"><ele>89.0</ele><time>2026-04-18T13:17:11.986Z</time></trkpt><trkpt lat="45.3217217" lon="8.94579"><ele>89.16666666666667</ele><time>2026-04-18T13:17:12.986Z</time></trkpt><trkpt lat="45.321785" lon="8.9457183"><ele>89.33333333333334</ele><time>2026-04-18T13:17:13.986Z</time></trkpt><trkpt lat="45.3218483" lon="8.9456467"><ele>89.5</ele><time>2026-04-18T13:17:14.986Z</time></trkpt><trkpt lat="45.3219133" lon="8.9455617"><ele>89.66666666666667</ele><time>2026-04-18T13:17:15.987Z</time></trkpt><trkpt lat="45.3219883" lon="8.9454733"><ele>89.83333333333333</ele><time>2026-04-18T13:17:16.986Z</time></trkpt><trkpt lat="45.3220633" lon="8.945385"><ele>90.0</ele><time>2026-04-18T13:17:17.986Z</time></trkpt><trkpt lat="45.322145" lon="8.9452983"><ele>90.0</ele><time>2026-04-18T13:17:18.986Z</time></trkpt><trkpt lat="45.322225" lon="8.9452067"><ele>90.0</ele><time>2026-04-18T13:17:19.986Z</time></trkpt><trkpt lat="45.3223133" lon="8.945105"><ele>90.0</ele><time>2026-04-18T13:17:20.986Z</time></trkpt><trkpt lat="45.3224033" lon="8.9449983"><ele>90.0</ele><time>2026-04-18T13:17:21.986Z</time></trkpt><trkpt lat="45.322495" lon="8.9448867"><ele>89.75</ele><time>2026-04-18T13:17:22.986Z</time></trkpt><trkpt lat="45.3225883" lon="8.9447783"><ele>89.5</ele><time>2026-04-18T13:17:23.986Z</time></trkpt><trkpt lat="45.3226767" lon="8.944665"><ele>89.25</ele><time>2026-04-18T13:17:24.986Z</time></trkpt><trkpt lat="45.322775" lon="8.9445533"><ele>89.0</ele><time>2026-04-18T13:17:25.986Z</time></trkpt><trkpt lat="45.3228667" lon="8.9444583"><ele>89.0</ele><time>2026-04-18T13:17:26.987Z</time></trkpt><trkpt lat="45.3229617" lon="8.9443867"><ele>89.0</ele><time>2026-04-18T13:17:27.986Z</time></trkpt><trkpt lat="45.323065" lon="8.9443283"><ele>89.0</ele><time>2026-04-18T13:17:28.986Z</time></trkpt><trkpt lat="45.3231767" lon="8.9442767"><ele>89.0</ele><time>2026-04-18T13:17:29.986Z</time></trkpt><trkpt lat="45.3232867" lon="8.9442233"><ele>88.25</ele><time>2026-04-18T13:17:30.986Z</time></trkpt><trkpt lat="45.3234017" lon="8.9441683"><ele>87.5</ele><time>2026-04-18T13:17:31.986Z</time></trkpt><trkpt lat="45.3235167" lon="8.944105"><ele>86.75</ele><time>2026-04-18T13:17:32.986Z</time></trkpt><trkpt lat="45.3236333" lon="8.94404"><ele>86.0</ele><time>2026-04-18T13:17:33.986Z</time></trkpt><trkpt lat="45.3237417" lon="8.94397"><ele>86.0</ele><time>2026-04-18T13:17:34.986Z</time></trkpt><trkpt lat="45.3238483" lon="8.9438833"><ele>86.0</ele><time>2026-04-18T13:17:35.986Z</time></trkpt><trkpt lat="45.3239533" lon="8.9438067"><ele>86.0</ele><time>2026-04-18T13:17:36.986Z</time></trkpt><trkpt lat="45.32406" lon="8.9437433"><ele>86.0</ele><time>2026-04-18T13:17:37.986Z</time></trkpt><trkpt lat="45.324175" lon="8.9436833"><ele>86.0</ele><time>2026-04-18T13:17:38.987Z</time></trkpt><trkpt lat="45.3242983" lon="8.9436167"><ele>86.0</ele><time>2026-04-18T13:17:39.986Z</time></trkpt><trkpt lat="45.324425" lon="8.9435517"><ele>86.0</ele><time>2026-04-18T13:17:40.986Z</time></trkpt><trkpt lat="45.324555" lon="8.9434883"><ele>86.0</ele><time>2026-04-18T13:17:41.986Z</time></trkpt><trkpt lat="45.3246867" lon="8.94343"><ele>86.25</ele><time>2026-04-18T13:17:42.986Z</time></trkpt><trkpt lat="45.32481" lon="8.943375"><ele>86.5</ele><time>2026-04-18T13:17:43.986Z</time></trkpt><trkpt lat="45.3249367" lon="8.943335"><ele>86.75</ele><time>2026-04-18T13:17:44.987Z</time></trkpt><trkpt lat="45.32506" lon="8.943315"><ele>87.0</ele><time>2026-04-18T13:17:45.986Z</time></trkpt><trkpt lat="45.32519" lon="8.9433017"><ele>87.0</ele><time>2026-04-18T13:17:46.986Z</time></trkpt><trkpt lat="45.3253267" lon="8.943285"><ele>87.0</ele><time>2026-04-18T13:17:47.986Z</time></trkpt><trkpt lat="45.3254667" lon="8.9432467"><ele>87.0</ele><time>2026-04-18T13:17:48.986Z</time></trkpt><trkpt lat="45.3256017" lon="8.9431917"><ele>87.0</ele><time>2026-04-18T13:17:49.986Z</time></trkpt><trkpt lat="45.3257367" lon="8.9431333"><ele>87.5</ele><time>2026-04-18T13:17:50.986Z</time></trkpt><trkpt lat="45.3258683" lon="8.94308"><ele>88.0</ele><time>2026-04-18T13:17:51.986Z</time></trkpt><trkpt lat="45.32599" lon="8.9430333"><ele>88.5</ele><time>2026-04-18T13:17:52.986Z</time></trkpt><trkpt lat="45.3261017" lon="8.9429917"><ele>89.0</ele><time>2026-04-18T13:17:53.986Z</time></trkpt><trkpt lat="45.3262017" lon="8.9429533"><ele>89.0</ele><time>2026-04-18T13:17:54.986Z</time></trkpt><trkpt lat="45.3262867" lon="8.9429083"><ele>89.0</ele><time>2026-04-18T13:17:55.986Z</time></trkpt><trkpt lat="45.3263683" lon="8.942875"><ele>89.0</ele><time>2026-04-18T13:17:56.986Z</time></trkpt><trkpt lat="45.3264433" lon="8.9428417"><ele>89.0</ele><time>2026-04-18T13:17:57.986Z</time></trkpt><trkpt lat="45.3265117" lon="8.9428117"><ele>89.0</ele><time>2026-04-18T13:17:58.986Z</time></trkpt><trkpt lat="45.32657" lon="8.94277"><ele>89.0</ele><time>2026-04-18T13:17:59.986Z</time></trkpt><trkpt lat="45.326625" lon="8.9427067"><ele>89.0</ele><time>2026-04-18T13:18:00.986Z</time></trkpt><trkpt lat="45.3266667" lon="8.9426183"><ele>89.0</ele><time>2026-04-18T13:18:01.987Z</time></trkpt><trkpt lat="45.3266967" lon="8.9425033"><ele>89.0</ele><time>2026-04-18T13:18:02.986Z</time></trkpt><trkpt lat="45.3267167" lon="8.942365"><ele>89.0</ele><time>2026-04-18T13:18:03.986Z</time></trkpt><trkpt lat="45.326735" lon="8.9422033"><ele>89.0</ele><time>2026-04-18T13:18:04.987Z</time></trkpt><trkpt lat="45.3267617" lon="8.9420317"><ele>89.25</ele><time>2026-04-18T13:18:05.986Z</time></trkpt><trkpt lat="45.3267883" lon="8.9418467"><ele>89.5</ele><time>2026-04-18T13:18:06.986Z</time></trkpt><trkpt lat="45.3268267" lon="8.9416817"><ele>89.75</ele><time>2026-04-18T13:18:07.986Z</time></trkpt><trkpt lat="45.3268617" lon="8.9415117"><ele>90.0</ele><time>2026-04-18T13:18:08.986Z</time></trkpt><trkpt lat="45.326895" lon="8.9413167"><ele>90.25</ele><time>2026-04-18T13:18:09.986Z</time></trkpt><trkpt lat="45.3269233" lon="8.9411233"><ele>90.5</ele><time>2026-04-18T13:18:10.986Z</time></trkpt><trkpt lat="45.326955" lon="8.9409317"><ele>90.75</ele><time>2026-04-18T13:18:11.986Z</time></trkpt><trkpt lat="45.3269717" lon="8.9407317"><ele>91.0</ele><time>2026-04-18T13:18:12.986Z</time></trkpt><trkpt lat="45.3270017" lon="8.94054"><ele>92.0</ele><time>2026-04-18T13:18:13.986Z</time></trkpt><trkpt lat="45.327035" lon="8.9403533"><ele>93.0</ele><time>2026-04-18T13:18:14.986Z</time></trkpt><trkpt lat="45.32705" lon="8.9401617"><ele>94.0</ele><time>2026-04-18T13:18:15.986Z</time></trkpt><trkpt lat="45.3270783" lon="8.9399733"><ele>95.0</ele><time>2026-04-18T13:18:16.986Z</time></trkpt><trkpt lat="45.3271367" lon="8.9398"><ele>95.0</ele><time>2026-04-18T13:18:17.986Z</time></trkpt><trkpt lat="45.3271933" lon="8.9396383"><ele>95.0</ele><time>2026-04-18T13:18:18.986Z</time></trkpt><trkpt lat="45.3272633" lon="8.9394817"><ele>95.0</ele><time>2026-04-18T13:18:19.986Z</time></trkpt><trkpt lat="45.32735" lon="8.939325"><ele>95.0</ele><time>2026-04-18T13:18:20.986Z</time></trkpt><trkpt lat="45.3274367" lon="8.9391833"><ele>95.0</ele><time>2026-04-18T13:18:21.986Z</time></trkpt><trkpt lat="45.3275267" lon="8.9390467"><ele>95.0</ele><time>2026-04-18T13:18:22.986Z</time></trkpt><trkpt lat="45.327625" lon="8.9389183"><ele>95.0</ele><time>2026-04-18T13:18:23.986Z</time></trkpt><trkpt lat="45.3277217" lon="8.9387917"><ele>95.0</ele><time>2026-04-18T13:18:24.986Z</time></trkpt><trkpt lat="45.32782" lon="8.938675"><ele>95.0</ele><time>2026-04-18T13:18:25.986Z</time></trkpt><trkpt lat="45.3279233" lon="8.9385767"><ele>95.0</ele><time>2026-04-18T13:18:26.986Z</time></trkpt><trkpt lat="45.3280317" lon="8.9384833"><ele>95.0</ele><time>2026-04-18T13:18:27.986Z</time></trkpt><trkpt lat="45.3281333" lon="8.9384083"><ele>95.0</ele><time>2026-04-18T13:18:28.986Z</time></trkpt><trkpt lat="45.328255" lon="8.938355"><ele>93.75</ele><time>2026-04-18T13:18:29.986Z</time></trkpt><trkpt lat="45.3283733" lon="8.9383033"><ele>92.5</ele><time>2026-04-18T13:18:30.986Z</time></trkpt><trkpt lat="45.3285" lon="8.9382683"><ele>91.25</ele><time>2026-04-18T13:18:31.986Z</time></trkpt><trkpt lat="45.3286367" lon="8.9382333"><ele>90.0</ele><time>2026-04-18T13:18:32.986Z</time></trkpt><trkpt lat="45.3287817" lon="8.9381817"><ele>89.33333333333333</ele><time>2026-04-18T13:18:33.986Z</time></trkpt><trkpt lat="45.3289333" lon="8.9381283"><ele>88.66666666666666</ele><time>2026-04-18T13:18:34.986Z</time></trkpt><trkpt lat="45.3290917" lon="8.93807"><ele>88.0</ele><time>2026-04-18T13:18:35.986Z</time></trkpt><trkpt lat="45.3292667" lon="8.9379983"><ele>88.0</ele><time>2026-04-18T13:18:36.986Z</time></trkpt><trkpt lat="45.3294233" lon="8.9379017"><ele>88.0</ele><time>2026-04-18T13:18:37.987Z</time></trkpt><trkpt lat="45.32958" lon="8.9378033"><ele>88.0</ele><time>2026-04-18T13:18:38.986Z</time></trkpt><trkpt lat="45.32973" lon="8.9376967"><ele>88.33333333333333</ele><time>2026-04-18T13:18:39.986Z</time></trkpt><trkpt lat="45.3298767" lon="8.9375883"><ele>88.66666666666667</ele><time>2026-04-18T13:18:40.987Z</time></trkpt><trkpt lat="45.3300183" lon="8.93746"><ele>89.0</ele><time>2026-04-18T13:18:41.986Z</time></trkpt><trkpt lat="45.3301467" lon="8.9373317"><ele>89.0</ele><time>2026-04-18T13:18:42.986Z</time></trkpt><trkpt lat="45.3302583" lon="8.9372067"><ele>89.0</ele><time>2026-04-18T13:18:43.986Z</time></trkpt><trkpt lat="45.330365" lon="8.9370783"><ele>89.0</ele><time>2026-04-18T13:18:44.986Z</time></trkpt><trkpt lat="45.330465" lon="8.93697"><ele>89.0</ele><time>2026-04-18T13:18:45.986Z</time></trkpt><trkpt lat="45.33056" lon="8.9368683"><ele>89.0</ele><time>2026-04-18T13:18:46.986Z</time></trkpt><trkpt lat="45.3306483" lon="8.9367767"><ele>89.0</ele><time>2026-04-18T13:18:47.986Z</time></trkpt><trkpt lat="45.3307233" lon="8.936705"><ele>89.0</ele><time>2026-04-18T13:18:48.987Z</time></trkpt><trkpt lat="45.3307783" lon="8.93666"><ele>89.0</ele><time>2026-04-18T13:18:49.986Z</time></trkpt><trkpt lat="45.3308633" lon="8.9366217"><ele>89.0</ele><time>2026-04-18T13:18:51.986Z</time></trkpt><trkpt lat="45.3309417" lon="8.9365483"><ele>89.0</ele><time>2026-04-18T13:18:53.986Z</time></trkpt><trkpt lat="45.3310433" lon="8.936415"><ele>89.0</ele><time>2026-04-18T13:18:55.986Z</time></trkpt><trkpt lat="45.331115" lon="8.936325"><ele>89.0</ele><time>2026-04-18T13:18:56.986Z</time></trkpt><trkpt lat="45.331185" lon="8.9362333"><ele>89.0</ele><time>2026-04-18T13:18:57.986Z</time></trkpt><trkpt lat="45.3312633" lon="8.936135"><ele>89.0</ele><time>2026-04-18T13:18:58.986Z</time></trkpt><trkpt lat="45.3313467" lon="8.9360467"><ele>89.0</ele><time>2026-04-18T13:18:59.986Z</time></trkpt><trkpt lat="45.3314333" lon="8.9359617"><ele>89.2</ele><time>2026-04-18T13:19:00.986Z</time></trkpt><trkpt lat="45.3315267" lon="8.9358833"><ele>89.4</ele><time>2026-04-18T13:19:01.986Z</time></trkpt><trkpt lat="45.33163" lon="8.935815"><ele>89.6</ele><time>2026-04-18T13:19:02.986Z</time></trkpt><trkpt lat="45.3317267" lon="8.9357417"><ele>89.8</ele><time>2026-04-18T13:19:03.986Z</time></trkpt><trkpt lat="45.33182" lon="8.9356733"><ele>90.0</ele><time>2026-04-18T13:19:04.986Z</time></trkpt><trkpt lat="45.3319083" lon="8.935595"><ele>90.0</ele><time>2026-04-18T13:19:05.986Z</time></trkpt><trkpt lat="45.331995" lon="8.9355217"><ele>90.0</ele><time>2026-04-18T13:19:06.986Z</time></trkpt><trkpt lat="45.332075" lon="8.9354383"><ele>90.0</ele><time>2026-04-18T13:19:07.986Z</time></trkpt><trkpt lat="45.3321567" lon="8.9353517"><ele>90.0</ele><time>2026-04-18T13:19:08.986Z</time></trkpt><trkpt lat="45.33224" lon="8.93526"><ele>90.0</ele><time>2026-04-18T13:19:09.986Z</time></trkpt><trkpt lat="45.332325" lon="8.9351667"><ele>90.0</ele><time>2026-04-18T13:19:10.986Z</time></trkpt><trkpt lat="45.3324183" lon="8.9350867"><ele>90.0</ele><time>2026-04-18T13:19:11.986Z</time></trkpt><trkpt lat="45.332515" lon="8.9350183"><ele>90.0</ele><time>2026-04-18T13:19:12.986Z</time></trkpt><trkpt lat="45.3326083" lon="8.9349517"><ele>90.0</ele><time>2026-04-18T13:19:13.986Z</time></trkpt><trkpt lat="45.3327" lon="8.934885"><ele>90.0</ele><time>2026-04-18T13:19:14.986Z</time></trkpt><trkpt lat="45.332795" lon="8.93483"><ele>90.33333333333333</ele><time>2026-04-18T13:19:15.987Z</time></trkpt><trkpt lat="45.3328833" lon="8.9347867"><ele>90.66666666666667</ele><time>2026-04-18T13:19:16.986Z</time></trkpt><trkpt lat="45.3329767" lon="8.934755"><ele>91.0</ele><time>2026-04-18T13:19:17.986Z</time></trkpt><trkpt lat="45.333065" lon="8.93474"><ele>91.33333333333334</ele><time>2026-04-18T13:19:18.986Z</time></trkpt><trkpt lat="45.33314" lon="8.9347317"><ele>91.66666666666667</ele><time>2026-04-18T13:19:19.986Z</time></trkpt><trkpt lat="45.3332017" lon="8.934705"><ele>92.0</ele><time>2026-04-18T13:19:20.986Z</time></trkpt><trkpt lat="45.333255" lon="8.9346483"><ele>92.0</ele><time>2026-04-18T13:19:21.986Z</time></trkpt><trkpt lat="45.3333017" lon="8.93457"><ele>92.0</ele><time>2026-04-18T13:19:22.987Z</time></trkpt><trkpt lat="45.3333433" lon="8.93449"><ele>92.0</ele><time>2026-04-18T13:19:23.986Z</time></trkpt><trkpt lat="45.3333833" lon="8.9344167"><ele>92.0</ele><time>2026-04-18T13:19:24.986Z</time></trkpt><trkpt lat="45.3334" lon="8.934265"><ele>92.0</ele><time>2026-04-18T13:19:26.986Z</time></trkpt><trkpt lat="45.3333517" lon="8.9340983"><ele>92.0</ele><time>2026-04-18T13:19:28.986Z</time></trkpt><trkpt lat="45.3333167" lon="8.9340117"><ele>92.16666666666667</ele><time>2026-04-18T13:19:29.986Z</time></trkpt><trkpt lat="45.33329" lon="8.93392"><ele>92.33333333333334</ele><time>2026-04-18T13:19:30.987Z</time></trkpt><trkpt lat="45.33326" lon="8.933825"><ele>92.5</ele><time>2026-04-18T13:19:31.986Z</time></trkpt><trkpt lat="45.333225" lon="8.9337283"><ele>92.66666666666667</ele><time>2026-04-18T13:19:32.986Z</time></trkpt><trkpt lat="45.3332" lon="8.9336367"><ele>92.83333333333333</ele><time>2026-04-18T13:19:33.987Z</time></trkpt><trkpt lat="45.33318" lon="8.9335483"><ele>93.0</ele><time>2026-04-18T13:19:34.986Z</time></trkpt><trkpt lat="45.333145" lon="8.93339"><ele>92.5</ele><time>2026-04-18T13:19:36.986Z</time></trkpt><trkpt lat="45.3331017" lon="8.9332317"><ele>92.0</ele><time>2026-04-18T13:19:38.986Z</time></trkpt><trkpt lat="45.33306" lon="8.9330733"><ele>91.5</ele><time>2026-04-18T13:19:40.986Z</time></trkpt><trkpt lat="45.3330333" lon="8.9329817"><ele>91.0</ele><time>2026-04-18T13:19:41.986Z</time></trkpt><trkpt lat="45.3330133" lon="8.9328917"><ele>90.5</ele><time>2026-04-18T13:19:42.986Z</time></trkpt><trkpt lat="45.3329817" lon="8.9327983"><ele>90.0</ele><time>2026-04-18T13:19:43.986Z</time></trkpt><trkpt lat="45.33293" lon="8.932695"><ele>89.25</ele><time>2026-04-18T13:19:44.986Z</time></trkpt><trkpt lat="45.3328717" lon="8.93257"><ele>88.5</ele><time>2026-04-18T13:19:45.986Z</time></trkpt><trkpt lat="45.3327983" lon="8.93242"><ele>87.75</ele><time>2026-04-18T13:19:46.986Z</time></trkpt><trkpt lat="45.33272" lon="8.9322617"><ele>87.0</ele><time>2026-04-18T13:19:47.986Z</time></trkpt><trkpt lat="45.3326283" lon="8.932095"><ele>85.75</ele><time>2026-04-18T13:19:48.986Z</time></trkpt><trkpt lat="45.3325267" lon="8.9319167"><ele>84.5</ele><time>2026-04-18T13:19:49.986Z</time></trkpt><trkpt lat="45.3324317" lon="8.9317467"><ele>83.25</ele><time>2026-04-18T13:19:50.986Z</time></trkpt><trkpt lat="45.3323517" lon="8.9315917"><ele>82.0</ele><time>2026-04-18T13:19:51.986Z</time></trkpt><trkpt lat="45.3322717" lon="8.9314433"><ele>81.75</ele><time>2026-04-18T13:19:52.986Z</time></trkpt><trkpt lat="45.3321883" lon="8.9312933"><ele>81.5</ele><time>2026-04-18T13:19:53.986Z</time></trkpt><trkpt lat="45.3321067" lon="8.9311333"><ele>81.25</ele><time>2026-04-18T13:19:54.986Z</time></trkpt><trkpt lat="45.3320217" lon="8.9309733"><ele>81.0</ele><time>2026-04-18T13:19:55.986Z</time></trkpt><trkpt lat="45.33194" lon="8.930815"><ele>80.75</ele><time>2026-04-18T13:19:56.986Z</time></trkpt><trkpt lat="45.3318567" lon="8.93066"><ele>80.5</ele><time>2026-04-18T13:19:57.986Z</time></trkpt><trkpt lat="45.3317817" lon="8.93052"><ele>80.25</ele><time>2026-04-18T13:19:58.986Z</time></trkpt><trkpt lat="45.33171" lon="8.93038"><ele>80.0</ele><time>2026-04-18T13:19:59.986Z</time></trkpt><trkpt lat="45.331645" lon="8.9302567"><ele>80.0</ele><time>2026-04-18T13:20:00.986Z</time></trkpt><trkpt lat="45.3315817" lon="8.9301333"><ele>80.0</ele><time>2026-04-18T13:20:01.986Z</time></trkpt><trkpt lat="45.3315233" lon="8.930015"><ele>80.0</ele><time>2026-04-18T13:20:02.986Z</time></trkpt><trkpt lat="45.3314617" lon="8.9298867"><ele>80.0</ele><time>2026-04-18T13:20:03.986Z</time></trkpt><trkpt lat="45.3313983" lon="8.9297633"><ele>80.0</ele><time>2026-04-18T13:20:04.986Z</time></trkpt><trkpt lat="45.33133" lon="8.9296367"><ele>80.2</ele><time>2026-04-18T13:20:05.986Z</time></trkpt><trkpt lat="45.3312667" lon="8.9295083"><ele>80.4</ele><time>2026-04-18T13:20:06.986Z</time></trkpt><trkpt lat="45.3311983" lon="8.9293833"><ele>80.6</ele><time>2026-04-18T13:20:07.986Z</time></trkpt><trkpt lat="45.3311333" lon="8.9292517"><ele>80.8</ele><time>2026-04-18T13:20:08.986Z</time></trkpt><trkpt lat="45.3310667" lon="8.9291283"><ele>81.0</ele><time>2026-04-18T13:20:09.986Z</time></trkpt><trkpt lat="45.331" lon="8.9290017"><ele>81.0</ele><time>2026-04-18T13:20:10.986Z</time></trkpt><trkpt lat="45.3309333" lon="8.9288833"><ele>81.0</ele><time>2026-04-18T13:20:11.986Z</time></trkpt><trkpt lat="45.3308617" lon="8.9287567"><ele>81.0</ele><time>2026-04-18T13:20:12.986Z</time></trkpt><trkpt lat="45.330795" lon="8.9286333"><ele>81.0</ele><time>2026-04-18T13:20:13.986Z</time></trkpt><trkpt lat="45.3307333" lon="8.9285167"><ele>81.0</ele><time>2026-04-18T13:20:14.986Z</time></trkpt><trkpt lat="45.3306767" lon="8.9284033"><ele>81.0</ele><time>2026-04-18T13:20:15.986Z</time></trkpt><trkpt lat="45.33062" lon="8.9282933"><ele>81.0</ele><time>2026-04-18T13:20:16.987Z</time></trkpt><trkpt lat="45.3305633" lon="8.9281917"><ele>81.0</ele><time>2026-04-18T13:20:17.987Z</time></trkpt><trkpt lat="45.33051" lon="8.92809"><ele>81.0</ele><time>2026-04-18T13:20:18.986Z</time></trkpt><trkpt lat="45.3304633" lon="8.928"><ele>81.0</ele><time>2026-04-18T13:20:19.986Z</time></trkpt><trkpt lat="45.3304267" lon="8.9279233"><ele>81.0</ele><time>2026-04-18T13:20:20.986Z</time></trkpt><trkpt lat="45.33037" lon="8.927795"><ele>81.0</ele><time>2026-04-18T13:20:22.986Z</time></trkpt><trkpt lat="45.3303883" lon="8.92766"><ele>81.0</ele><time>2026-04-18T13:20:24.986Z</time></trkpt><trkpt lat="45.330435" lon="8.9275933"><ele>81.0</ele><time>2026-04-18T13:20:25.986Z</time></trkpt><trkpt lat="45.3304867" lon="8.92751"><ele>81.0</ele><time>2026-04-18T13:20:26.986Z</time></trkpt><trkpt lat="45.3305217" lon="8.9274083"><ele>81.0</ele><time>2026-04-18T13:20:27.986Z</time></trkpt><trkpt lat="45.3305467" lon="8.927295"><ele>81.0</ele><time>2026-04-18T13:20:28.986Z</time></trkpt><trkpt lat="45.3305617" lon="8.927175"><ele>81.16666666666667</ele><time>2026-04-18T13:20:29.986Z</time></trkpt><trkpt lat="45.33056" lon="8.927045"><ele>81.33333333333333</ele><time>2026-04-18T13:20:30.986Z</time></trkpt><trkpt lat="45.3305533" lon="8.92692"><ele>81.5</ele><time>2026-04-18T13:20:31.986Z</time></trkpt><trkpt lat="45.3305383" lon="8.9268117"><ele>81.66666666666666</ele><time>2026-04-18T13:20:32.986Z</time></trkpt><trkpt lat="45.3305267" lon="8.926715"><ele>81.83333333333333</ele><time>2026-04-18T13:20:33.986Z</time></trkpt><trkpt lat="45.33049" lon="8.9265733"><ele>82.0</ele><time>2026-04-18T13:20:35.986Z</time></trkpt><trkpt lat="45.3304833" lon="8.9264633"><ele>82.16666666666666</ele><time>2026-04-18T13:20:37.986Z</time></trkpt><trkpt lat="45.3304683" lon="8.92636"><ele>82.33333333333333</ele><time>2026-04-18T13:20:40.986Z</time></trkpt><trkpt lat="45.3304367" lon="8.92625"><ele>82.5</ele><time>2026-04-18T13:20:43.986Z</time></trkpt><trkpt lat="45.3304017" lon="8.926155"><ele>82.66666666666667</ele><time>2026-04-18T13:20:45.986Z</time></trkpt><trkpt lat="45.33036" lon="8.92602"><ele>82.83333333333334</ele><time>2026-04-18T13:20:47.986Z</time></trkpt><trkpt lat="45.33031" lon="8.9259417"><ele>83.0</ele><time>2026-04-18T13:20:49.986Z</time></trkpt><trkpt lat="45.33021" lon="8.9259383"><ele>83.0</ele><time>2026-04-18T13:20:52.987Z</time></trkpt><trkpt lat="45.3300867" lon="8.9259917"><ele>83.0</ele><time>2026-04-18T13:20:54.986Z</time></trkpt><trkpt lat="45.3300183" lon="8.9260183"><ele>83.0</ele><time>2026-04-18T13:20:55.986Z</time></trkpt><trkpt lat="45.3299517" lon="8.9260483"><ele>83.0</ele><time>2026-04-18T13:20:56.987Z</time></trkpt><trkpt lat="45.3298833" lon="8.9260817"><ele>83.0</ele><time>2026-04-18T13:20:57.986Z</time></trkpt><trkpt lat="45.329815" lon="8.92611"><ele>83.0</ele><time>2026-04-18T13:20:58.986Z</time></trkpt><trkpt lat="45.3297417" lon="8.9261433"><ele>82.83333333333334</ele><time>2026-04-18T13:20:59.986Z</time></trkpt><trkpt lat="45.3296683" lon="8.9261767"><ele>82.66666666666667</ele><time>2026-04-18T13:21:00.986Z</time></trkpt><trkpt lat="45.3296067" lon="8.9262017"><ele>82.5</ele><time>2026-04-18T13:21:01.986Z</time></trkpt><trkpt lat="45.3294917" lon="8.9262117"><ele>82.33333333333333</ele><time>2026-04-18T13:21:03.986Z</time></trkpt><trkpt lat="45.3294233" lon="8.9261267"><ele>82.16666666666666</ele><time>2026-04-18T13:21:05.986Z</time></trkpt><trkpt lat="45.329395" lon="8.9260467"><ele>82.0</ele><time>2026-04-18T13:21:06.986Z</time></trkpt><trkpt lat="45.3293683" lon="8.9259433"><ele>81.66666666666666</ele><time>2026-04-18T13:21:07.986Z</time></trkpt><trkpt lat="45.3293467" lon="8.9258367"><ele>81.33333333333333</ele><time>2026-04-18T13:21:08.987Z</time></trkpt><trkpt lat="45.3293117" lon="8.92573"><ele>81.0</ele><time>2026-04-18T13:21:09.986Z</time></trkpt><trkpt lat="45.32928" lon="8.9256133"><ele>80.66666666666667</ele><time>2026-04-18T13:21:10.986Z</time></trkpt><trkpt lat="45.3292483" lon="8.9254983"><ele>80.33333333333334</ele><time>2026-04-18T13:21:11.986Z</time></trkpt><trkpt lat="45.32924" lon="8.9253917"><ele>80.0</ele><time>2026-04-18T13:21:12.986Z</time></trkpt><trkpt lat="45.32926" lon="8.925305"><ele>80.0</ele><time>2026-04-18T13:21:13.986Z</time></trkpt><trkpt lat="45.3293067" lon="8.9252183"><ele>80.0</ele><time>2026-04-18T13:21:14.986Z</time></trkpt><trkpt lat="45.3293683" lon="8.925135"><ele>80.0</ele><time>2026-04-18T13:21:15.987Z</time></trkpt><trkpt lat="45.3294967" lon="8.92498"><ele>80.0</ele><time>2026-04-18T13:21:17.986Z</time></trkpt><trkpt lat="45.329545" lon="8.9249067"><ele>80.0</ele><time>2026-04-18T13:21:18.987Z</time></trkpt><trkpt lat="45.32957" lon="8.9248117"><ele>80.14285714285714</ele><time>2026-04-18T13:21:19.986Z</time></trkpt><trkpt lat="45.3295817" lon="8.9246967"><ele>80.28571428571429</ele><time>2026-04-18T13:21:20.987Z</time></trkpt><trkpt lat="45.3295817" lon="8.92458"><ele>80.42857142857143</ele><time>2026-04-18T13:21:21.986Z</time></trkpt><trkpt lat="45.3295783" lon="8.9244733"><ele>80.57142857142857</ele><time>2026-04-18T13:21:22.987Z</time></trkpt><trkpt lat="45.3295633" lon="8.9243783"><ele>80.71428571428571</ele><time>2026-04-18T13:21:23.987Z</time></trkpt><trkpt lat="45.329525" lon="8.9243033"><ele>80.85714285714286</ele><time>2026-04-18T13:21:24.986Z</time></trkpt><trkpt lat="45.3294683" lon="8.9242467"><ele>81.0</ele><time>2026-04-18T13:21:25.986Z</time></trkpt><trkpt lat="45.3294" lon="8.9242117"><ele>81.0</ele><time>2026-04-18T13:21:26.986Z</time></trkpt><trkpt lat="45.329325" lon="8.9241883"><ele>81.0</ele><time>2026-04-18T13:21:27.986Z</time></trkpt><trkpt lat="45.3292417" lon="8.9241817"><ele>81.0</ele><time>2026-04-18T13:21:28.986Z</time></trkpt><trkpt lat="45.3291517" lon="8.92418"><ele>81.0</ele><time>2026-04-18T13:21:29.986Z</time></trkpt><trkpt lat="45.329065" lon="8.92419"><ele>81.0</ele><time>2026-04-18T13:21:30.986Z</time></trkpt><trkpt lat="45.3289867" lon="8.924205"><ele>81.0</ele><time>2026-04-18T13:21:31.986Z</time></trkpt><trkpt lat="45.3289167" lon="8.924225"><ele>81.19999999999999</ele><time>2026-04-18T13:21:32.986Z</time></trkpt><trkpt lat="45.3288067" lon="8.9242917"><ele>81.39999999999999</ele><time>2026-04-18T13:21:34.986Z</time></trkpt><trkpt lat="45.32872" lon="8.924365"><ele>81.6</ele><time>2026-04-18T13:21:36.986Z</time></trkpt><trkpt lat="45.32864" lon="8.9244"><ele>81.8</ele><time>2026-04-18T13:21:38.986Z</time></trkpt><trkpt lat="45.328575" lon="8.9244183"><ele>82.0</ele><time>2026-04-18T13:21:40.986Z</time></trkpt><trkpt lat="45.3284817" lon="8.9244133"><ele>82.0</ele><time>2026-04-18T13:22:04.986Z</time></trkpt><trkpt lat="45.328395" lon="8.92439"><ele>82.0</ele><time>2026-04-18T13:22:06.986Z</time></trkpt><trkpt lat="45.3283133" lon="8.9243517"><ele>82.0</ele><time>2026-04-18T13:22:08.986Z</time></trkpt><trkpt lat="45.32825" lon="8.9243117"><ele>82.0</ele><time>2026-04-18T13:22:10.986Z</time></trkpt><trkpt lat="45.3281783" lon="8.92426"><ele>82.0</ele><time>2026-04-18T13:22:13.986Z</time></trkpt><trkpt lat="45.3280833" lon="8.9242067"><ele>82.0</ele><time>2026-04-18T13:22:16.986Z</time></trkpt><trkpt lat="45.3279867" lon="8.9241433"><ele>82.83333333333333</ele><time>2026-04-18T13:22:18.986Z</time></trkpt><trkpt lat="45.3279283" lon="8.9241083"><ele>83.66666666666666</ele><time>2026-04-18T13:22:19.986Z</time></trkpt><trkpt lat="45.3278617" lon="8.924075"><ele>84.5</ele><time>2026-04-18T13:22:20.986Z</time></trkpt><trkpt lat="45.3278" lon="8.924055"><ele>85.33333333333333</ele><time>2026-04-18T13:22:21.986Z</time></trkpt><trkpt lat="45.3276817" lon="8.924"><ele>86.16666666666667</ele><time>2026-04-18T13:22:23.986Z</time></trkpt><trkpt lat="45.3276183" lon="8.9239767"><ele>87.0</ele><time>2026-04-18T13:22:24.986Z</time></trkpt><trkpt lat="45.3275483" lon="8.9239517"><ele>87.0</ele><time>2026-04-18T13:22:25.986Z</time></trkpt><trkpt lat="45.3274833" lon="8.9239233"><ele>87.0</ele><time>2026-04-18T13:22:26.986Z</time></trkpt><trkpt lat="45.3274183" lon="8.9238983"><ele>87.0</ele><time>2026-04-18T13:22:27.986Z</time></trkpt><trkpt lat="45.32735" lon="8.9238717"><ele>87.0</ele><time>2026-04-18T13:22:28.986Z</time></trkpt><trkpt lat="45.327285" lon="8.9238367"><ele>87.0</ele><time>2026-04-18T13:22:29.986Z</time></trkpt><trkpt lat="45.327215" lon="8.9237883"><ele>87.0</ele><time>2026-04-18T13:22:30.986Z</time></trkpt><trkpt lat="45.3271367" lon="8.9237433"><ele>87.0</ele><time>2026-04-18T13:22:31.986Z</time></trkpt><trkpt lat="45.3270617" lon="8.9237033"><ele>87.16666666666667</ele><time>2026-04-18T13:22:32.986Z</time></trkpt><trkpt lat="45.3269867" lon="8.923665"><ele>87.33333333333333</ele><time>2026-04-18T13:22:33.986Z</time></trkpt><trkpt lat="45.3269167" lon="8.9236233"><ele>87.5</ele><time>2026-04-18T13:22:34.986Z</time></trkpt><trkpt lat="45.3268567" lon="8.9235883"><ele>87.66666666666666</ele><time>2026-04-18T13:22:35.987Z</time></trkpt><trkpt lat="45.326785" lon="8.9235533"><ele>87.83333333333333</ele><time>2026-04-18T13:22:36.986Z</time></trkpt><trkpt lat="45.3266683" lon="8.9235067"><ele>88.0</ele><time>2026-04-18T13:22:38.986Z</time></trkpt><trkpt lat="45.326555" lon="8.9234667"><ele>88.0</ele><time>2026-04-18T13:22:40.986Z</time></trkpt><trkpt lat="45.3264883" lon="8.9234417"><ele>88.0</ele><time>2026-04-18T13:22:42.987Z</time></trkpt><trkpt lat="45.3264433" lon="8.9233783"><ele>88.0</ele><time>2026-04-18T13:22:44.986Z</time></trkpt><trkpt lat="45.32642" lon="8.92329"><ele>88.0</ele><time>2026-04-18T13:22:46.986Z</time></trkpt><trkpt lat="45.32641" lon="8.92316"><ele>88.0</ele><time>2026-04-18T13:22:48.986Z</time></trkpt><trkpt lat="45.3264233" lon="8.923015"><ele>88.0</ele><time>2026-04-18T13:22:50.987Z</time></trkpt><trkpt lat="45.3263817" lon="8.9229267"><ele>88.0</ele><time>2026-04-18T13:39:44.983Z</time></trkpt><trkpt lat="45.326355" lon="8.9230517"><ele>88.0</ele><time>2026-04-18T13:39:47.983Z</time></trkpt><trkpt lat="45.326335" lon="8.9231733"><ele>88.0</ele><time>2026-04-18T13:39:49.983Z</time></trkpt><trkpt lat="45.3263183" lon="8.923285"><ele>88.0</ele><time>2026-04-18T13:39:51.983Z</time></trkpt><trkpt lat="45.3263533" lon="8.92336"><ele>88.0</ele><time>2026-04-18T13:39:54.984Z</time></trkpt><trkpt lat="45.326455" lon="8.9234217"><ele>88.0</ele><time>2026-04-18T13:39:57.983Z</time></trkpt><trkpt lat="45.3265183" lon="8.923445"><ele>88.0</ele><time>2026-04-18T13:39:58.983Z</time></trkpt><trkpt lat="45.3265917" lon="8.9234767"><ele>88.0</ele><time>2026-04-18T13:39:59.983Z</time></trkpt><trkpt lat="45.326685" lon="8.92352"><ele>88.0</ele><time>2026-04-18T13:40:00.983Z</time></trkpt><trkpt lat="45.326785" lon="8.923565"><ele>88.0</ele><time>2026-04-18T13:40:01.983Z</time></trkpt><trkpt lat="45.3268867" lon="8.9236183"><ele>88.0</ele><time>2026-04-18T13:40:02.983Z</time></trkpt><trkpt lat="45.3269817" lon="8.9236617"><ele>88.0</ele><time>2026-04-18T13:40:03.984Z</time></trkpt><trkpt lat="45.32708" lon="8.9237133"><ele>88.0</ele><time>2026-04-18T13:40:04.983Z</time></trkpt><trkpt lat="45.3271667" lon="8.9237667"><ele>88.0</ele><time>2026-04-18T13:40:05.983Z</time></trkpt><trkpt lat="45.3272367" lon="8.9238083"><ele>88.0</ele><time>2026-04-18T13:40:06.983Z</time></trkpt><trkpt lat="45.3273033" lon="8.9238383"><ele>88.0</ele><time>2026-04-18T13:40:07.983Z</time></trkpt><trkpt lat="45.327375" lon="8.9238767"><ele>88.0</ele><time>2026-04-18T13:40:08.983Z</time></trkpt><trkpt lat="45.3274367" lon="8.9239067"><ele>87.85714285714286</ele><time>2026-04-18T13:40:09.983Z</time></trkpt><trkpt lat="45.327505" lon="8.9239267"><ele>87.71428571428571</ele><time>2026-04-18T13:40:10.983Z</time></trkpt><trkpt lat="45.3275683" lon="8.92395"><ele>87.57142857142857</ele><time>2026-04-18T13:40:11.983Z</time></trkpt><trkpt lat="45.327635" lon="8.9239767"><ele>87.42857142857143</ele><time>2026-04-18T13:40:12.983Z</time></trkpt><trkpt lat="45.327705" lon="8.9240167"><ele>87.28571428571429</ele><time>2026-04-18T13:40:13.983Z</time></trkpt><trkpt lat="45.3277817" lon="8.9240567"><ele>87.14285714285714</ele><time>2026-04-18T13:40:14.983Z</time></trkpt><trkpt lat="45.3278533" lon="8.92409"><ele>87.0</ele><time>2026-04-18T13:40:15.984Z</time></trkpt><trkpt lat="45.3279317" lon="8.92413"><ele>87.0</ele><time>2026-04-18T13:40:16.983Z</time></trkpt><trkpt lat="45.3280033" lon="8.9241783"><ele>87.0</ele><time>2026-04-18T13:40:17.983Z</time></trkpt><trkpt lat="45.3280667" lon="8.9242183"><ele>87.0</ele><time>2026-04-18T13:40:18.983Z</time></trkpt><trkpt lat="45.3281333" lon="8.9242583"><ele>87.0</ele><time>2026-04-18T13:40:19.983Z</time></trkpt><trkpt lat="45.3282" lon="8.9242917"><ele>87.0</ele><time>2026-04-18T13:40:20.983Z</time></trkpt><trkpt lat="45.32826" lon="8.92433"><ele>87.0</ele><time>2026-04-18T13:40:21.983Z</time></trkpt><trkpt lat="45.3283717" lon="8.9243917"><ele>86.16666666666667</ele><time>2026-04-18T13:40:23.983Z</time></trkpt><trkpt lat="45.3284983" lon="8.924425"><ele>85.33333333333333</ele><time>2026-04-18T13:40:25.983Z</time></trkpt><trkpt lat="45.328565" lon="8.9244217"><ele>84.5</ele><time>2026-04-18T13:40:26.983Z</time></trkpt><trkpt lat="45.3286333" lon="8.924415"><ele>83.66666666666666</ele><time>2026-04-18T13:40:27.983Z</time></trkpt><trkpt lat="45.3287033" lon="8.9243933"><ele>82.83333333333333</ele><time>2026-04-18T13:40:28.983Z</time></trkpt><trkpt lat="45.3287633" lon="8.9243533"><ele>82.0</ele><time>2026-04-18T13:40:29.983Z</time></trkpt><trkpt lat="45.3288667" lon="8.9242817"><ele>81.8</ele><time>2026-04-18T13:40:31.983Z</time></trkpt><trkpt lat="45.328975" lon="8.9242467"><ele>81.6</ele><time>2026-04-18T13:40:33.983Z</time></trkpt><trkpt lat="45.329095" lon="8.924225"><ele>81.39999999999999</ele><time>2026-04-18T13:40:35.983Z</time></trkpt><trkpt lat="45.3291733" lon="8.924215"><ele>81.19999999999999</ele><time>2026-04-18T13:40:36.983Z</time></trkpt><trkpt lat="45.32925" lon="8.92422"><ele>81.0</ele><time>2026-04-18T13:40:37.983Z</time></trkpt><trkpt lat="45.3293217" lon="8.9242317"><ele>81.0</ele><time>2026-04-18T13:40:38.983Z</time></trkpt><trkpt lat="45.32939" lon="8.92426"><ele>81.0</ele><time>2026-04-18T13:40:39.983Z</time></trkpt><trkpt lat="45.3294583" lon="8.924295"><ele>81.0</ele><time>2026-04-18T13:40:40.983Z</time></trkpt><trkpt lat="45.3295133" lon="8.9243533"><ele>81.0</ele><time>2026-04-18T13:40:41.983Z</time></trkpt><trkpt lat="45.3295467" lon="8.92443"><ele>81.0</ele><time>2026-04-18T13:40:42.983Z</time></trkpt><trkpt lat="45.3295667" lon="8.92452"><ele>81.0</ele><time>2026-04-18T13:40:43.983Z</time></trkpt><trkpt lat="45.3295733" lon="8.92462"><ele>81.0</ele><time>2026-04-18T13:40:44.983Z</time></trkpt><trkpt lat="45.3295567" lon="8.9247217"><ele>81.0</ele><time>2026-04-18T13:40:45.983Z</time></trkpt><trkpt lat="45.3295283" lon="8.9248833"><ele>81.0</ele><time>2026-04-18T13:40:47.983Z</time></trkpt><trkpt lat="45.3294467" lon="8.925025"><ele>81.0</ele><time>2026-04-18T13:40:49.983Z</time></trkpt><trkpt lat="45.329375" lon="8.9251017"><ele>81.0</ele><time>2026-04-18T13:40:50.983Z</time></trkpt><trkpt lat="45.3293067" lon="8.9251717"><ele>81.0</ele><time>2026-04-18T13:40:51.982Z</time></trkpt><trkpt lat="45.329255" lon="8.9252533"><ele>80.83333333333333</ele><time>2026-04-18T13:40:52.982Z</time></trkpt><trkpt lat="45.3292217" lon="8.92535"><ele>80.66666666666667</ele><time>2026-04-18T13:40:53.982Z</time></trkpt><trkpt lat="45.3292133" lon="8.9254567"><ele>80.5</ele><time>2026-04-18T13:40:54.982Z</time></trkpt><trkpt lat="45.3292317" lon="8.9255833"><ele>80.33333333333334</ele><time>2026-04-18T13:40:55.982Z</time></trkpt><trkpt lat="45.32927" lon="8.9257133"><ele>80.16666666666667</ele><time>2026-04-18T13:40:56.982Z</time></trkpt><trkpt lat="45.329315" lon="8.9258433"><ele>80.0</ele><time>2026-04-18T13:40:57.982Z</time></trkpt><trkpt lat="45.3293467" lon="8.92596"><ele>80.33333333333334</ele><time>2026-04-18T13:40:58.982Z</time></trkpt><trkpt lat="45.3293783" lon="8.926065"><ele>80.66666666666667</ele><time>2026-04-18T13:40:59.982Z</time></trkpt><trkpt lat="45.32941" lon="8.9261483"><ele>81.0</ele><time>2026-04-18T13:41:00.982Z</time></trkpt><trkpt lat="45.3294917" lon="8.9262367"><ele>81.33333333333333</ele><time>2026-04-18T13:41:02.983Z</time></trkpt><trkpt lat="45.3296017" lon="8.9262217"><ele>81.66666666666666</ele><time>2026-04-18T13:41:04.982Z</time></trkpt><trkpt lat="45.3296683" lon="8.9261867"><ele>82.0</ele><time>2026-04-18T13:41:05.982Z</time></trkpt><trkpt lat="45.32974" lon="8.9261467"><ele>82.16666666666666</ele><time>2026-04-18T13:41:06.982Z</time></trkpt><trkpt lat="45.3298133" lon="8.92611"><ele>82.33333333333333</ele><time>2026-04-18T13:41:07.982Z</time></trkpt><trkpt lat="45.3298933" lon="8.9260833"><ele>82.5</ele><time>2026-04-18T13:41:08.982Z</time></trkpt><trkpt lat="45.32997" lon="8.926055"><ele>82.66666666666667</ele><time>2026-04-18T13:41:09.983Z</time></trkpt><trkpt lat="45.3300467" lon="8.92602"><ele>82.83333333333334</ele><time>2026-04-18T13:41:10.982Z</time></trkpt><trkpt lat="45.330115" lon="8.92599"><ele>83.0</ele><time>2026-04-18T13:41:11.982Z</time></trkpt><trkpt lat="45.330225" lon="8.9259433"><ele>83.0</ele><time>2026-04-18T13:41:13.983Z</time></trkpt><trkpt lat="45.330305" lon="8.9259433"><ele>83.0</ele><time>2026-04-18T13:41:15.982Z</time></trkpt><trkpt lat="45.3303517" lon="8.9260117"><ele>83.0</ele><time>2026-04-18T13:41:17.982Z</time></trkpt><trkpt lat="45.3303717" lon="8.926145"><ele>83.0</ele><time>2026-04-18T13:41:19.982Z</time></trkpt><trkpt lat="45.3304083" lon="8.9262733"><ele>83.0</ele><time>2026-04-18T13:41:21.982Z</time></trkpt><trkpt lat="45.3304483" lon="8.9263683"><ele>83.0</ele><time>2026-04-18T13:41:24.982Z</time></trkpt><trkpt lat="45.33054" lon="8.9263617"><ele>82.66666666666667</ele><time>2026-04-18T13:42:00.983Z</time></trkpt><trkpt lat="45.33062" lon="8.9262883"><ele>82.33333333333334</ele><time>2026-04-18T13:42:02.982Z</time></trkpt><trkpt lat="45.33073" lon="8.9262433"><ele>82.0</ele><time>2026-04-18T13:42:04.982Z</time></trkpt><trkpt lat="45.330795" lon="8.9262267"><ele>81.66666666666667</ele><time>2026-04-18T13:42:05.982Z</time></trkpt><trkpt lat="45.3308733" lon="8.9262033"><ele>81.33333333333333</ele><time>2026-04-18T13:42:06.982Z</time></trkpt><trkpt lat="45.330955" lon="8.9261817"><ele>81.0</ele><time>2026-04-18T13:42:07.982Z</time></trkpt><trkpt lat="45.331045" lon="8.926155"><ele>81.0</ele><time>2026-04-18T13:42:08.982Z</time></trkpt><trkpt lat="45.3311383" lon="8.926125"><ele>81.0</ele><time>2026-04-18T13:42:09.982Z</time></trkpt><trkpt lat="45.3312367" lon="8.926095"><ele>81.0</ele><time>2026-04-18T13:42:10.982Z</time></trkpt><trkpt lat="45.3313333" lon="8.9260667"><ele>81.0</ele><time>2026-04-18T13:42:11.982Z</time></trkpt><trkpt lat="45.3314217" lon="8.9260433"><ele>81.0</ele><time>2026-04-18T13:42:12.982Z</time></trkpt><trkpt lat="45.3314983" lon="8.92603"><ele>81.0</ele><time>2026-04-18T13:42:13.982Z</time></trkpt><trkpt lat="45.3315767" lon="8.92601"><ele>81.0</ele><time>2026-04-18T13:42:14.982Z</time></trkpt><trkpt lat="45.331655" lon="8.9259883"><ele>81.0</ele><time>2026-04-18T13:42:15.983Z</time></trkpt><trkpt lat="45.331735" lon="8.9259633"><ele>81.0</ele><time>2026-04-18T13:42:16.982Z</time></trkpt><trkpt lat="45.3318133" lon="8.9259433"><ele>81.0</ele><time>2026-04-18T13:42:17.982Z</time></trkpt><trkpt lat="45.331905" lon="8.9259217"><ele>81.0</ele><time>2026-04-18T13:42:18.982Z</time></trkpt><trkpt lat="45.332" lon="8.9258917"><ele>81.0</ele><time>2026-04-18T13:42:19.982Z</time></trkpt><trkpt lat="45.3321083" lon="8.9258667"><ele>81.0</ele><time>2026-04-18T13:42:20.982Z</time></trkpt><trkpt lat="45.3322183" lon="8.92584"><ele>81.0</ele><time>2026-04-18T13:42:21.982Z</time></trkpt><trkpt lat="45.33233" lon="8.9258083"><ele>81.0</ele><time>2026-04-18T13:42:22.982Z</time></trkpt><trkpt lat="45.3324433" lon="8.9257783"><ele>81.25</ele><time>2026-04-18T13:42:23.982Z</time></trkpt><trkpt lat="45.3325617" lon="8.9257383"><ele>81.5</ele><time>2026-04-18T13:42:24.982Z</time></trkpt><trkpt lat="45.33269" lon="8.9256933"><ele>81.75</ele><time>2026-04-18T13:42:25.982Z</time></trkpt><trkpt lat="45.3328133" lon="8.9256367"><ele>82.0</ele><time>2026-04-18T13:42:26.982Z</time></trkpt><trkpt lat="45.33294" lon="8.9255883"><ele>81.75</ele><time>2026-04-18T13:42:27.982Z</time></trkpt><trkpt lat="45.3330667" lon="8.9255333"><ele>81.5</ele><time>2026-04-18T13:42:28.982Z</time></trkpt><trkpt lat="45.3331983" lon="8.925475"><ele>81.25</ele><time>2026-04-18T13:42:29.982Z</time></trkpt><trkpt lat="45.3333317" lon="8.9254117"><ele>81.0</ele><time>2026-04-18T13:42:30.982Z</time></trkpt><trkpt lat="45.33346" lon="8.92535"><ele>81.0</ele><time>2026-04-18T13:42:31.982Z</time></trkpt><trkpt lat="45.3335783" lon="8.9252783"><ele>81.0</ele><time>2026-04-18T13:42:32.983Z</time></trkpt><trkpt lat="45.3336983" lon="8.9252117"><ele>81.0</ele><time>2026-04-18T13:42:33.982Z</time></trkpt><trkpt lat="45.33381" lon="8.9251483"><ele>81.0</ele><time>2026-04-18T13:42:34.982Z</time></trkpt><trkpt lat="45.333915" lon="8.9250883"><ele>81.8</ele><time>2026-04-18T13:42:35.982Z</time></trkpt><trkpt lat="45.3340083" lon="8.9250333"><ele>82.6</ele><time>2026-04-18T13:42:36.982Z</time></trkpt><trkpt lat="45.334095" lon="8.9249883"><ele>83.4</ele><time>2026-04-18T13:42:37.982Z</time></trkpt><trkpt lat="45.3341783" lon="8.9249483"><ele>84.2</ele><time>2026-04-18T13:42:38.982Z</time></trkpt><trkpt lat="45.3342483" lon="8.9249167"><ele>85.0</ele><time>2026-04-18T13:42:39.982Z</time></trkpt><trkpt lat="45.3343617" lon="8.92486"><ele>85.0</ele><time>2026-04-18T13:42:41.982Z</time></trkpt><trkpt lat="45.3344317" lon="8.9247633"><ele>85.0</ele><time>2026-04-18T13:42:43.982Z</time></trkpt><trkpt lat="45.3344383" lon="8.9245683"><ele>85.0</ele><time>2026-04-18T13:42:45.982Z</time></trkpt><trkpt lat="45.3344217" lon="8.9244433"><ele>85.0</ele><time>2026-04-18T13:42:46.982Z</time></trkpt><trkpt lat="45.334395" lon="8.9243117"><ele>85.0</ele><time>2026-04-18T13:42:47.982Z</time></trkpt><trkpt lat="45.3343733" lon="8.92418"><ele>85.0</ele><time>2026-04-18T13:42:48.982Z</time></trkpt><trkpt lat="45.334355" lon="8.924035"><ele>85.0</ele><time>2026-04-18T13:42:49.982Z</time></trkpt><trkpt lat="45.3343383" lon="8.9238933"><ele>85.0</ele><time>2026-04-18T13:42:50.982Z</time></trkpt><trkpt lat="45.334325" lon="8.9237633"><ele>85.0</ele><time>2026-04-18T13:42:51.982Z</time></trkpt><trkpt lat="45.33432" lon="8.92365"><ele>85.0</ele><time>2026-04-18T13:42:52.982Z</time></trkpt><trkpt lat="45.3343183" lon="8.92355"><ele>85.0</ele><time>2026-04-18T13:42:53.982Z</time></trkpt><trkpt lat="45.3343233" lon="8.9234567"><ele>84.8</ele><time>2026-04-18T13:42:54.982Z</time></trkpt><trkpt lat="45.3343767" lon="8.9233017"><ele>84.6</ele><time>2026-04-18T13:42:56.982Z</time></trkpt><trkpt lat="45.3344883" lon="8.9231833"><ele>84.4</ele><time>2026-04-18T13:42:58.982Z</time></trkpt><trkpt lat="45.3345583" lon="8.9231183"><ele>84.2</ele><time>2026-04-18T13:42:59.982Z</time></trkpt><trkpt lat="45.3346367" lon="8.9230533"><ele>84.0</ele><time>2026-04-18T13:43:00.982Z</time></trkpt><trkpt lat="45.3347267" lon="8.922985"><ele>84.0</ele><time>2026-04-18T13:43:01.982Z</time></trkpt><trkpt lat="45.334815" lon="8.92291"><ele>84.0</ele><time>2026-04-18T13:43:02.982Z</time></trkpt><trkpt lat="45.33491" lon="8.9228367"><ele>84.0</ele><time>2026-04-18T13:43:03.982Z</time></trkpt><trkpt lat="45.3350133" lon="8.9227667"><ele>84.0</ele><time>2026-04-18T13:43:04.982Z</time></trkpt><trkpt lat="45.3351217" lon="8.922685"><ele>84.0</ele><time>2026-04-18T13:43:05.982Z</time></trkpt><trkpt lat="45.3352283" lon="8.9226033"><ele>84.0</ele><time>2026-04-18T13:43:06.982Z</time></trkpt><trkpt lat="45.3353367" lon="8.9225267"><ele>84.0</ele><time>2026-04-18T13:43:07.982Z</time></trkpt><trkpt lat="45.3354433" lon="8.92245"><ele>84.0</ele><time>2026-04-18T13:43:08.982Z</time></trkpt><trkpt lat="45.33554" lon="8.9223733"><ele>84.0</ele><time>2026-04-18T13:43:09.982Z</time></trkpt><trkpt lat="45.3356317" lon="8.9223117"><ele>84.0</ele><time>2026-04-18T13:43:10.982Z</time></trkpt><trkpt lat="45.33571" lon="8.922255"><ele>84.0</ele><time>2026-04-18T13:43:11.982Z</time></trkpt><trkpt lat="45.33578" lon="8.9222083"><ele>84.0</ele><time>2026-04-18T13:43:12.982Z</time></trkpt><trkpt lat="45.3358367" lon="8.9221667"><ele>84.0</ele><time>2026-04-18T13:43:13.982Z</time></trkpt><trkpt lat="45.3359" lon="8.9220883"><ele>84.0</ele><time>2026-04-18T13:43:15.982Z</time></trkpt><trkpt lat="45.3358833" lon="8.9219583"><ele>84.0</ele><time>2026-04-18T13:43:17.982Z</time></trkpt><trkpt lat="45.3358567" lon="8.921875"><ele>84.0</ele><time>2026-04-18T13:43:18.982Z</time></trkpt><trkpt lat="45.3358167" lon="8.9217833"><ele>84.0</ele><time>2026-04-18T13:43:19.982Z</time></trkpt><trkpt lat="45.3357817" lon="8.9216667"><ele>84.0</ele><time>2026-04-18T13:43:20.982Z</time></trkpt><trkpt lat="45.3357533" lon="8.9215267"><ele>84.0</ele><time>2026-04-18T13:43:21.982Z</time></trkpt><trkpt lat="45.3357333" lon="8.9213767"><ele>84.0</ele><time>2026-04-18T13:43:22.982Z</time></trkpt><trkpt lat="45.335725" lon="8.9212183"><ele>84.0</ele><time>2026-04-18T13:43:23.982Z</time></trkpt><trkpt lat="45.335725" lon="8.9210533"><ele>84.0</ele><time>2026-04-18T13:43:24.982Z</time></trkpt><trkpt lat="45.33573" lon="8.9208967"><ele>84.0</ele><time>2026-04-18T13:43:25.982Z</time></trkpt><trkpt lat="45.3357417" lon="8.920735"><ele>84.0</ele><time>2026-04-18T13:43:26.982Z</time></trkpt><trkpt lat="45.33576" lon="8.9205767"><ele>83.75</ele><time>2026-04-18T13:43:27.982Z</time></trkpt><trkpt lat="45.335775" lon="8.9203967"><ele>83.5</ele><time>2026-04-18T13:43:28.982Z</time></trkpt><trkpt lat="45.33578" lon="8.92022"><ele>83.25</ele><time>2026-04-18T13:43:29.982Z</time></trkpt><trkpt lat="45.3357817" lon="8.9200567"><ele>83.0</ele><time>2026-04-18T13:43:30.982Z</time></trkpt><trkpt lat="45.33578" lon="8.9198917"><ele>82.60000000000001</ele><time>2026-04-18T13:43:31.982Z</time></trkpt><trkpt lat="45.3357767" lon="8.91974"><ele>82.2</ele><time>2026-04-18T13:43:32.983Z</time></trkpt><trkpt lat="45.335775" lon="8.9195967"><ele>81.8</ele><time>2026-04-18T13:43:33.982Z</time></trkpt><trkpt lat="45.33578" lon="8.9194483"><ele>81.4</ele><time>2026-04-18T13:43:34.982Z</time></trkpt><trkpt lat="45.33579" lon="8.9192967"><ele>81.0</ele><time>2026-04-18T13:43:35.982Z</time></trkpt><trkpt lat="45.3358133" lon="8.9191533"><ele>81.0</ele><time>2026-04-18T13:43:36.982Z</time></trkpt><trkpt lat="45.3358317" lon="8.919005"><ele>81.0</ele><time>2026-04-18T13:43:37.982Z</time></trkpt><trkpt lat="45.3358683" lon="8.91886"><ele>81.0</ele><time>2026-04-18T13:43:38.982Z</time></trkpt><trkpt lat="45.335925" lon="8.918715"><ele>81.0</ele><time>2026-04-18T13:43:39.982Z</time></trkpt><trkpt lat="45.336" lon="8.9185667"><ele>81.0</ele><time>2026-04-18T13:43:40.982Z</time></trkpt><trkpt lat="45.3360917" lon="8.9184117"><ele>81.0</ele><time>2026-04-18T13:43:41.982Z</time></trkpt><trkpt lat="45.3361817" lon="8.918265"><ele>81.0</ele><time>2026-04-18T13:43:42.982Z</time></trkpt><trkpt lat="45.3362717" lon="8.918125"><ele>81.0</ele><time>2026-04-18T13:43:43.982Z</time></trkpt><trkpt lat="45.3363583" lon="8.9179783"><ele>81.0</ele><time>2026-04-18T13:43:44.982Z</time></trkpt><trkpt lat="45.3364433" lon="8.9178317"><ele>81.0</ele><time>2026-04-18T13:43:45.982Z</time></trkpt><trkpt lat="45.336525" lon="8.9177"><ele>81.0</ele><time>2026-04-18T13:43:46.982Z</time></trkpt><trkpt lat="45.3366017" lon="8.9175833"><ele>81.0</ele><time>2026-04-18T13:43:47.982Z</time></trkpt><trkpt lat="45.336675" lon="8.9174817"><ele>80.8</ele><time>2026-04-18T13:43:48.982Z</time></trkpt><trkpt lat="45.3367483" lon="8.9173933"><ele>80.6</ele><time>2026-04-18T13:43:49.982Z</time></trkpt><trkpt lat="45.3368333" lon="8.9173267"><ele>80.4</ele><time>2026-04-18T13:43:50.982Z</time></trkpt><trkpt lat="45.33693" lon="8.917295"><ele>80.2</ele><time>2026-04-18T13:43:51.982Z</time></trkpt><trkpt lat="45.33703" lon="8.9172933"><ele>80.0</ele><time>2026-04-18T13:43:52.982Z</time></trkpt><trkpt lat="45.3371333" lon="8.9172817"><ele>80.6</ele><time>2026-04-18T13:43:53.982Z</time></trkpt><trkpt lat="45.3372267" lon="8.917235"><ele>81.2</ele><time>2026-04-18T13:43:54.982Z</time></trkpt><trkpt lat="45.33731" lon="8.917155"><ele>81.80000000000001</ele><time>2026-04-18T13:43:55.982Z</time></trkpt><trkpt lat="45.3373833" lon="8.9170433"><ele>82.4</ele><time>2026-04-18T13:43:56.982Z</time></trkpt><trkpt lat="45.337455" lon="8.91691"><ele>83.0</ele><time>2026-04-18T13:43:57.982Z</time></trkpt><trkpt lat="45.33753" lon="8.916765"><ele>82.80000000000001</ele><time>2026-04-18T13:43:58.982Z</time></trkpt><trkpt lat="45.3375983" lon="8.9166233"><ele>82.6</ele><time>2026-04-18T13:43:59.982Z</time></trkpt><trkpt lat="45.3376617" lon="8.9164867"><ele>82.4</ele><time>2026-04-18T13:44:00.982Z</time></trkpt><trkpt lat="45.3377283" lon="8.916365"><ele>82.19999999999999</ele><time>2026-04-18T13:44:01.982Z</time></trkpt><trkpt lat="45.3377967" lon="8.9162517"><ele>82.0</ele><time>2026-04-18T13:44:02.983Z</time></trkpt><trkpt lat="45.3378617" lon="8.9161267"><ele>82.0</ele><time>2026-04-18T13:44:03.982Z</time></trkpt><trkpt lat="45.337925" lon="8.916005"><ele>82.0</ele><time>2026-04-18T13:44:04.982Z</time></trkpt><trkpt lat="45.3379817" lon="8.9158783"><ele>82.0</ele><time>2026-04-18T13:44:05.982Z</time></trkpt><trkpt lat="45.3380483" lon="8.9157483"><ele>82.0</ele><time>2026-04-18T13:44:06.982Z</time></trkpt><trkpt lat="45.338115" lon="8.9156283"><ele>82.0</ele><time>2026-04-18T13:44:07.982Z</time></trkpt><trkpt lat="45.3381767" lon="8.9155"><ele>82.0</ele><time>2026-04-18T13:44:08.982Z</time></trkpt><trkpt lat="45.3382433" lon="8.9153717"><ele>82.0</ele><time>2026-04-18T13:44:09.982Z</time></trkpt><trkpt lat="45.3383183" lon="8.91526"><ele>82.0</ele><time>2026-04-18T13:44:10.982Z</time></trkpt><trkpt lat="45.338395" lon="8.91515"><ele>82.0</ele><time>2026-04-18T13:44:11.982Z</time></trkpt><trkpt lat="45.3384833" lon="8.9150467"><ele>82.0</ele><time>2026-04-18T13:44:12.982Z</time></trkpt><trkpt lat="45.3385817" lon="8.9149517"><ele>82.19999999999999</ele><time>2026-04-18T13:44:13.982Z</time></trkpt><trkpt lat="45.3386783" lon="8.9148733"><ele>82.4</ele><time>2026-04-18T13:44:14.982Z</time></trkpt><trkpt lat="45.338775" lon="8.91479"><ele>82.6</ele><time>2026-04-18T13:44:15.982Z</time></trkpt><trkpt lat="45.33887" lon="8.9147117"><ele>82.80000000000001</ele><time>2026-04-18T13:44:16.983Z</time></trkpt><trkpt lat="45.3389633" lon="8.9146317"><ele>83.0</ele><time>2026-04-18T13:44:17.982Z</time></trkpt><trkpt lat="45.3390567" lon="8.914555"><ele>82.60000000000001</ele><time>2026-04-18T13:44:18.982Z</time></trkpt><trkpt lat="45.33915" lon="8.914475"><ele>82.2</ele><time>2026-04-18T13:44:19.982Z</time></trkpt><trkpt lat="45.339245" lon="8.914395"><ele>81.8</ele><time>2026-04-18T13:44:20.982Z</time></trkpt><trkpt lat="45.33934" lon="8.914315"><ele>81.4</ele><time>2026-04-18T13:44:21.982Z</time></trkpt><trkpt lat="45.339435" lon="8.9142417"><ele>81.0</ele><time>2026-04-18T13:44:22.983Z</time></trkpt><trkpt lat="45.3395383" lon="8.9141667"><ele>80.8</ele><time>2026-04-18T13:44:23.983Z</time></trkpt><trkpt lat="45.339635" lon="8.914085"><ele>80.6</ele><time>2026-04-18T13:44:24.982Z</time></trkpt><trkpt lat="45.3397333" lon="8.9140067"><ele>80.4</ele><time>2026-04-18T13:44:25.982Z</time></trkpt><trkpt lat="45.33983" lon="8.9139233"><ele>80.2</ele><time>2026-04-18T13:44:26.982Z</time></trkpt><trkpt lat="45.3399133" lon="8.9138267"><ele>80.0</ele><time>2026-04-18T13:44:27.982Z</time></trkpt><trkpt lat="45.3400083" lon="8.91374"><ele>80.25</ele><time>2026-04-18T13:44:28.982Z</time></trkpt><trkpt lat="45.3401017" lon="8.9136383"><ele>80.5</ele><time>2026-04-18T13:44:29.982Z</time></trkpt><trkpt lat="45.3401883" lon="8.91352"><ele>80.75</ele><time>2026-04-18T13:44:30.982Z</time></trkpt><trkpt lat="45.340275" lon="8.9133917"><ele>81.0</ele><time>2026-04-18T13:44:31.982Z</time></trkpt><trkpt lat="45.340355" lon="8.9132667"><ele>81.0</ele><time>2026-04-18T13:44:32.982Z</time></trkpt><trkpt lat="45.3404317" lon="8.9131433"><ele>81.0</ele><time>2026-04-18T13:44:33.982Z</time></trkpt><trkpt lat="45.3405083" lon="8.91302"><ele>81.0</ele><time>2026-04-18T13:44:34.982Z</time></trkpt><trkpt lat="45.3405783" lon="8.91289"><ele>81.0</ele><time>2026-04-18T13:44:35.982Z</time></trkpt><trkpt lat="45.3406517" lon="8.91276"><ele>81.0</ele><time>2026-04-18T13:44:36.982Z</time></trkpt><trkpt lat="45.3407283" lon="8.9126283"><ele>81.0</ele><time>2026-04-18T13:44:37.983Z</time></trkpt><trkpt lat="45.3407983" lon="8.912505"><ele>81.0</ele><time>2026-04-18T13:44:38.982Z</time></trkpt><trkpt lat="45.3408683" lon="8.9123767"><ele>81.0</ele><time>2026-04-18T13:44:39.982Z</time></trkpt><trkpt lat="45.3409383" lon="8.9122433"><ele>81.0</ele><time>2026-04-18T13:44:40.982Z</time></trkpt><trkpt lat="45.3410067" lon="8.912105"><ele>81.0</ele><time>2026-04-18T13:44:41.982Z</time></trkpt><trkpt lat="45.3410733" lon="8.9119667"><ele>81.0</ele><time>2026-04-18T13:44:42.982Z</time></trkpt><trkpt lat="45.34113" lon="8.9118117"><ele>81.0</ele><time>2026-04-18T13:44:43.983Z</time></trkpt><trkpt lat="45.3411817" lon="8.9116617"><ele>80.75</ele><time>2026-04-18T13:44:44.982Z</time></trkpt><trkpt lat="45.3412217" lon="8.911505"><ele>80.5</ele><time>2026-04-18T13:44:45.982Z</time></trkpt><trkpt lat="45.3412633" lon="8.911345"><ele>80.25</ele><time>2026-04-18T13:44:46.982Z</time></trkpt><trkpt lat="45.34129" lon="8.9111867"><ele>80.0</ele><time>2026-04-18T13:44:47.982Z</time></trkpt><trkpt lat="45.34132" lon="8.9110217"><ele>80.0</ele><time>2026-04-18T13:44:48.982Z</time></trkpt><trkpt lat="45.3413417" lon="8.9108483"><ele>80.0</ele><time>2026-04-18T13:44:49.982Z</time></trkpt><trkpt lat="45.3413633" lon="8.910675"><ele>80.0</ele><time>2026-04-18T13:44:50.982Z</time></trkpt><trkpt lat="45.3413867" lon="8.9104883"><ele>80.0</ele><time>2026-04-18T13:44:51.982Z</time></trkpt><trkpt lat="45.3414133" lon="8.9102967"><ele>80.0</ele><time>2026-04-18T13:44:52.982Z</time></trkpt><trkpt lat="45.34143" lon="8.9101167"><ele>80.0</ele><time>2026-04-18T13:44:53.982Z</time></trkpt><trkpt lat="45.3414517" lon="8.90993"><ele>80.0</ele><time>2026-04-18T13:44:54.982Z</time></trkpt><trkpt lat="45.34148" lon="8.9097433"><ele>80.0</ele><time>2026-04-18T13:44:55.982Z</time></trkpt><trkpt lat="45.3415067" lon="8.909565"><ele>80.5</ele><time>2026-04-18T13:44:56.982Z</time></trkpt><trkpt lat="45.3415283" lon="8.9093867"><ele>81.0</ele><time>2026-04-18T13:44:57.982Z</time></trkpt><trkpt lat="45.3415533" lon="8.909215"><ele>81.5</ele><time>2026-04-18T13:44:58.982Z</time></trkpt><trkpt lat="45.3415867" lon="8.9090483"><ele>82.0</ele><time>2026-04-18T13:44:59.982Z</time></trkpt><trkpt lat="45.3416233" lon="8.90888"><ele>82.0</ele><time>2026-04-18T13:45:00.982Z</time></trkpt><trkpt lat="45.3416517" lon="8.9087033"><ele>82.0</ele><time>2026-04-18T13:45:01.982Z</time></trkpt><trkpt lat="45.3416617" lon="8.9085317"><ele>82.0</ele><time>2026-04-18T13:45:02.982Z</time></trkpt><trkpt lat="45.34167" lon="8.908355"><ele>82.0</ele><time>2026-04-18T13:45:03.982Z</time></trkpt><trkpt lat="45.3416967" lon="8.9081867"><ele>82.19999999999999</ele><time>2026-04-18T13:45:04.982Z</time></trkpt><trkpt lat="45.3417267" lon="8.9080367"><ele>82.4</ele><time>2026-04-18T13:45:05.982Z</time></trkpt><trkpt lat="45.3417817" lon="8.907915"><ele>82.6</ele><time>2026-04-18T13:45:06.982Z</time></trkpt><trkpt lat="45.34184" lon="8.90781"><ele>82.80000000000001</ele><time>2026-04-18T13:45:07.982Z</time></trkpt><trkpt lat="45.34191" lon="8.907715"><ele>83.0</ele><time>2026-04-18T13:45:08.982Z</time></trkpt><trkpt lat="45.342" lon="8.9076333"><ele>83.0</ele><time>2026-04-18T13:45:09.982Z</time></trkpt><trkpt lat="45.3420933" lon="8.9075617"><ele>83.0</ele><time>2026-04-18T13:45:10.982Z</time></trkpt><trkpt lat="45.34219" lon="8.907505"><ele>83.0</ele><time>2026-04-18T13:45:11.982Z</time></trkpt><trkpt lat="45.3422917" lon="8.907465"><ele>83.0</ele><time>2026-04-18T13:45:12.982Z</time></trkpt><trkpt lat="45.3424083" lon="8.9074567"><ele>83.0</ele><time>2026-04-18T13:45:13.982Z</time></trkpt><trkpt lat="45.34253" lon="8.907455"><ele>83.0</ele><time>2026-04-18T13:45:14.982Z</time></trkpt><trkpt lat="45.34265" lon="8.907465"><ele>83.0</ele><time>2026-04-18T13:45:15.983Z</time></trkpt><trkpt lat="45.3427683" lon="8.907475"><ele>83.0</ele><time>2026-04-18T13:45:16.983Z</time></trkpt><trkpt lat="45.34289" lon="8.9074867"><ele>83.0</ele><time>2026-04-18T13:45:17.982Z</time></trkpt><trkpt lat="45.3430117" lon="8.9074933"><ele>83.5</ele><time>2026-04-18T13:45:18.982Z</time></trkpt><trkpt lat="45.3431383" lon="8.907495"><ele>84.0</ele><time>2026-04-18T13:45:19.982Z</time></trkpt><trkpt lat="45.3432717" lon="8.9074933"><ele>84.5</ele><time>2026-04-18T13:45:20.982Z</time></trkpt><trkpt lat="45.3434067" lon="8.9074933"><ele>85.0</ele><time>2026-04-18T13:45:21.982Z</time></trkpt><trkpt lat="45.3435317" lon="8.9075017"><ele>85.0</ele><time>2026-04-18T13:45:22.982Z</time></trkpt><trkpt lat="45.3436517" lon="8.907505"><ele>85.0</ele><time>2026-04-18T13:45:23.982Z</time></trkpt><trkpt lat="45.3437567" lon="8.9075033"><ele>85.0</ele><time>2026-04-18T13:45:24.982Z</time></trkpt><trkpt lat="45.3438583" lon="8.9075117"><ele>85.0</ele><time>2026-04-18T13:45:25.982Z</time></trkpt><trkpt lat="45.3439533" lon="8.9075083"><ele>85.0</ele><time>2026-04-18T13:45:26.982Z</time></trkpt><trkpt lat="45.344045" lon="8.90751"><ele>84.8</ele><time>2026-04-18T13:45:27.982Z</time></trkpt><trkpt lat="45.3441333" lon="8.907515"><ele>84.6</ele><time>2026-04-18T13:45:28.982Z</time></trkpt><trkpt lat="45.3442283" lon="8.9075233"><ele>84.4</ele><time>2026-04-18T13:45:29.983Z</time></trkpt><trkpt lat="45.34432" lon="8.9075283"><ele>84.2</ele><time>2026-04-18T13:45:30.982Z</time></trkpt><trkpt lat="45.344415" lon="8.9075317"><ele>84.0</ele><time>2026-04-18T13:45:31.982Z</time></trkpt><trkpt lat="45.344505" lon="8.9075483"><ele>84.0</ele><time>2026-04-18T13:45:32.982Z</time></trkpt><trkpt lat="45.3446" lon="8.90755"><ele>84.0</ele><time>2026-04-18T13:45:33.982Z</time></trkpt><trkpt lat="45.34471" lon="8.9075517"><ele>84.0</ele><time>2026-04-18T13:45:34.982Z</time></trkpt><trkpt lat="45.3448233" lon="8.9075467"><ele>84.0</ele><time>2026-04-18T13:45:35.982Z</time></trkpt><trkpt lat="45.344935" lon="8.90754"><ele>84.0</ele><time>2026-04-18T13:45:36.982Z</time></trkpt><trkpt lat="45.3450433" lon="8.90754"><ele>84.0</ele><time>2026-04-18T13:45:37.982Z</time></trkpt><trkpt lat="45.345165" lon="8.9075517"><ele>84.0</ele><time>2026-04-18T13:45:38.982Z</time></trkpt><trkpt lat="45.3452917" lon="8.9075667"><ele>84.0</ele><time>2026-04-18T13:45:39.982Z</time></trkpt><trkpt lat="45.3454233" lon="8.9075733"><ele>84.0</ele><time>2026-04-18T13:45:40.982Z</time></trkpt><trkpt lat="45.345555" lon="8.9075767"><ele>84.0</ele><time>2026-04-18T13:45:41.982Z</time></trkpt><trkpt lat="45.3456883" lon="8.9075733"><ele>84.0</ele><time>2026-04-18T13:45:42.983Z</time></trkpt><trkpt lat="45.3458183" lon="8.9075767"><ele>84.0</ele><time>2026-04-18T13:45:43.982Z</time></trkpt><trkpt lat="45.34595" lon="8.9075917"><ele>84.0</ele><time>2026-04-18T13:45:44.982Z</time></trkpt><trkpt lat="45.346075" lon="8.9075833"><ele>84.25</ele><time>2026-04-18T13:45:45.982Z</time></trkpt><trkpt lat="45.3462017" lon="8.9075917"><ele>84.5</ele><time>2026-04-18T13:45:46.982Z</time></trkpt><trkpt lat="45.3463367" lon="8.9075967"><ele>84.75</ele><time>2026-04-18T13:45:47.982Z</time></trkpt><trkpt lat="45.346475" lon="8.9075983"><ele>85.0</ele><time>2026-04-18T13:45:48.982Z</time></trkpt><trkpt lat="45.3466083" lon="8.9075933"><ele>85.0</ele><time>2026-04-18T13:45:49.982Z</time></trkpt><trkpt lat="45.34674" lon="8.9075917"><ele>85.0</ele><time>2026-04-18T13:45:50.982Z</time></trkpt><trkpt lat="45.34687" lon="8.907595"><ele>85.0</ele><time>2026-04-18T13:45:51.982Z</time></trkpt><trkpt lat="45.3470017" lon="8.9076017"><ele>85.0</ele><time>2026-04-18T13:45:52.982Z</time></trkpt><trkpt lat="45.3471267" lon="8.9076033"><ele>84.75</ele><time>2026-04-18T13:45:53.982Z</time></trkpt><trkpt lat="45.347245" lon="8.907605"><ele>84.5</ele><time>2026-04-18T13:45:54.983Z</time></trkpt><trkpt lat="45.3473667" lon="8.9076017"><ele>84.25</ele><time>2026-04-18T13:45:55.982Z</time></trkpt><trkpt lat="45.34749" lon="8.9076033"><ele>84.0</ele><time>2026-04-18T13:45:56.983Z</time></trkpt><trkpt lat="45.3476217" lon="8.9076083"><ele>84.0</ele><time>2026-04-18T13:45:57.982Z</time></trkpt><trkpt lat="45.3477467" lon="8.90761"><ele>84.0</ele><time>2026-04-18T13:45:58.982Z</time></trkpt><trkpt lat="45.347865" lon="8.907605"><ele>84.0</ele><time>2026-04-18T13:45:59.982Z</time></trkpt><trkpt lat="45.3479767" lon="8.9076017"><ele>84.0</ele><time>2026-04-18T13:46:00.982Z</time></trkpt><trkpt lat="45.3480833" lon="8.9075967"><ele>84.0</ele><time>2026-04-18T13:46:01.982Z</time></trkpt><trkpt lat="45.34819" lon="8.90759"><ele>84.0</ele><time>2026-04-18T13:46:02.982Z</time></trkpt><trkpt lat="45.3482983" lon="8.9075983"><ele>84.0</ele><time>2026-04-18T13:46:03.982Z</time></trkpt><trkpt lat="45.34841" lon="8.9075983"><ele>84.0</ele><time>2026-04-18T13:46:04.982Z</time></trkpt><trkpt lat="45.348525" lon="8.9075933"><ele>84.0</ele><time>2026-04-18T13:46:05.982Z</time></trkpt><trkpt lat="45.3486367" lon="8.9075933"><ele>84.0</ele><time>2026-04-18T13:46:06.982Z</time></trkpt><trkpt lat="45.3487467" lon="8.9075783"><ele>84.0</ele><time>2026-04-18T13:46:07.982Z</time></trkpt><trkpt lat="45.348855" lon="8.9075733"><ele>84.0</ele><time>2026-04-18T13:46:08.982Z</time></trkpt><trkpt lat="45.348965" lon="8.9075633"><ele>84.0</ele><time>2026-04-18T13:46:09.982Z</time></trkpt><trkpt lat="45.3490767" lon="8.9075483"><ele>84.0</ele><time>2026-04-18T13:46:10.982Z</time></trkpt><trkpt lat="45.3491867" lon="8.9075367"><ele>84.0</ele><time>2026-04-18T13:46:11.983Z</time></trkpt><trkpt lat="45.3492983" lon="8.907535"><ele>84.0</ele><time>2026-04-18T13:46:12.982Z</time></trkpt><trkpt lat="45.3494117" lon="8.9075317"><ele>84.0</ele><time>2026-04-18T13:46:13.982Z</time></trkpt><trkpt lat="45.349525" lon="8.90754"><ele>84.0</ele><time>2026-04-18T13:46:14.983Z</time></trkpt><trkpt lat="45.3496317" lon="8.9075517"><ele>84.0</ele><time>2026-04-18T13:46:15.982Z</time></trkpt><trkpt lat="45.34974" lon="8.9075717"><ele>83.80000000000001</ele><time>2026-04-18T13:46:16.982Z</time></trkpt><trkpt lat="45.3498483" lon="8.90759"><ele>83.60000000000001</ele><time>2026-04-18T13:46:17.982Z</time></trkpt><trkpt lat="45.3499517" lon="8.907605"><ele>83.4</ele><time>2026-04-18T13:46:18.983Z</time></trkpt><trkpt lat="45.35006" lon="8.907625"><ele>83.2</ele><time>2026-04-18T13:46:19.982Z</time></trkpt><trkpt lat="45.35017" lon="8.9076383"><ele>83.0</ele><time>2026-04-18T13:46:20.982Z</time></trkpt><trkpt lat="45.3502833" lon="8.9076467"><ele>83.0</ele><time>2026-04-18T13:46:21.982Z</time></trkpt><trkpt lat="45.3504" lon="8.9076583"><ele>83.0</ele><time>2026-04-18T13:46:22.982Z</time></trkpt><trkpt lat="45.35052" lon="8.9076783"><ele>83.0</ele><time>2026-04-18T13:46:23.982Z</time></trkpt><trkpt lat="45.3506483" lon="8.90769"><ele>83.0</ele><time>2026-04-18T13:46:24.982Z</time></trkpt><trkpt lat="45.3507667" lon="8.907705"><ele>83.5</ele><time>2026-04-18T13:46:25.982Z</time></trkpt><trkpt lat="45.3508867" lon="8.9077233"><ele>84.0</ele><time>2026-04-18T13:46:26.982Z</time></trkpt><trkpt lat="45.351005" lon="8.9077367"><ele>84.5</ele><time>2026-04-18T13:46:27.982Z</time></trkpt><trkpt lat="45.3511267" lon="8.90775"><ele>85.0</ele><time>2026-04-18T13:46:28.982Z</time></trkpt><trkpt lat="45.3512433" lon="8.9077667"><ele>85.0</ele><time>2026-04-18T13:46:29.982Z</time></trkpt><trkpt lat="45.3513617" lon="8.9077867"><ele>85.0</ele><time>2026-04-18T13:46:30.982Z</time></trkpt><trkpt lat="45.3514817" lon="8.9078133"><ele>85.0</ele><time>2026-04-18T13:46:31.982Z</time></trkpt><trkpt lat="45.3516033" lon="8.9078317"><ele>85.0</ele><time>2026-04-18T13:46:32.982Z</time></trkpt><trkpt lat="45.3517233" lon="8.90785"><ele>85.0</ele><time>2026-04-18T13:46:33.982Z</time></trkpt><trkpt lat="45.3518467" lon="8.9078683"><ele>85.0</ele><time>2026-04-18T13:46:34.982Z</time></trkpt><trkpt lat="45.35197" lon="8.9078883"><ele>85.0</ele><time>2026-04-18T13:46:35.982Z</time></trkpt><trkpt lat="45.3520867" lon="8.9079067"><ele>85.0</ele><time>2026-04-18T13:46:36.982Z</time></trkpt><trkpt lat="45.3522067" lon="8.9079217"><ele>85.4</ele><time>2026-04-18T13:46:37.982Z</time></trkpt><trkpt lat="45.3523333" lon="8.9079483"><ele>85.8</ele><time>2026-04-18T13:46:38.982Z</time></trkpt><trkpt lat="45.3524467" lon="8.9079683"><ele>86.19999999999999</ele><time>2026-04-18T13:46:39.982Z</time></trkpt><trkpt lat="45.35255" lon="8.9079817"><ele>86.6</ele><time>2026-04-18T13:46:40.982Z</time></trkpt><trkpt lat="45.3526383" lon="8.9079867"><ele>87.0</ele><time>2026-04-18T13:46:41.982Z</time></trkpt><trkpt lat="45.35273" lon="8.908"><ele>87.0</ele><time>2026-04-18T13:46:42.982Z</time></trkpt><trkpt lat="45.3528117" lon="8.9080133"><ele>87.0</ele><time>2026-04-18T13:46:43.982Z</time></trkpt><trkpt lat="45.35289" lon="8.9080183"><ele>87.0</ele><time>2026-04-18T13:46:44.982Z</time></trkpt><trkpt lat="45.35297" lon="8.90802"><ele>87.0</ele><time>2026-04-18T13:46:45.982Z</time></trkpt><trkpt lat="45.35305" lon="8.9080267"><ele>87.0</ele><time>2026-04-18T13:46:46.983Z</time></trkpt><trkpt lat="45.3531133" lon="8.90803"><ele>87.0</ele><time>2026-04-18T13:46:47.982Z</time></trkpt><trkpt lat="45.3532117" lon="8.9080433"><ele>87.16666666666667</ele><time>2026-04-18T13:46:49.981Z</time></trkpt><trkpt lat="45.353285" lon="8.9080483"><ele>87.33333333333333</ele><time>2026-04-18T13:46:51.981Z</time></trkpt><trkpt lat="45.3533633" lon="8.908045"><ele>87.5</ele><time>2026-04-18T13:47:05.981Z</time></trkpt><trkpt lat="45.3534367" lon="8.9080633"><ele>87.66666666666666</ele><time>2026-04-18T13:47:06.981Z</time></trkpt><trkpt lat="45.3535183" lon="8.9080933"><ele>87.83333333333333</ele><time>2026-04-18T13:47:07.981Z</time></trkpt><trkpt lat="45.3536083" lon="8.908125"><ele>88.0</ele><time>2026-04-18T13:47:08.981Z</time></trkpt><trkpt lat="45.3537083" lon="8.9081567"><ele>88.0</ele><time>2026-04-18T13:47:09.981Z</time></trkpt><trkpt lat="45.35383" lon="8.9081833"><ele>88.0</ele><time>2026-04-18T13:47:10.981Z</time></trkpt><trkpt lat="45.3539633" lon="8.90821"><ele>88.0</ele><time>2026-04-18T13:47:11.981Z</time></trkpt><trkpt lat="45.3540983" lon="8.9082317"><ele>88.0</ele><time>2026-04-18T13:47:12.981Z</time></trkpt><trkpt lat="45.3542433" lon="8.9082533"><ele>87.66666666666666</ele><time>2026-04-18T13:47:13.981Z</time></trkpt><trkpt lat="45.3544" lon="8.9082767"><ele>87.33333333333333</ele><time>2026-04-18T13:47:14.981Z</time></trkpt><trkpt lat="45.3545567" lon="8.9083033"><ele>87.0</ele><time>2026-04-18T13:47:15.981Z</time></trkpt><trkpt lat="45.3547083" lon="8.9083233"><ele>87.0</ele><time>2026-04-18T13:47:16.981Z</time></trkpt><trkpt lat="45.35487" lon="8.9083467"><ele>87.0</ele><time>2026-04-18T13:47:17.981Z</time></trkpt><trkpt lat="45.35503" lon="8.9083617"><ele>87.0</ele><time>2026-04-18T13:47:18.981Z</time></trkpt><trkpt lat="45.3551833" lon="8.9083867"><ele>87.0</ele><time>2026-04-18T13:47:19.981Z</time></trkpt><trkpt lat="45.3553233" lon="8.9084117"><ele>87.0</ele><time>2026-04-18T13:47:20.981Z</time></trkpt><trkpt lat="45.3554533" lon="8.9084317"><ele>87.0</ele><time>2026-04-18T13:47:21.981Z</time></trkpt><trkpt lat="45.3555783" lon="8.9084567"><ele>87.0</ele><time>2026-04-18T13:47:22.981Z</time></trkpt><trkpt lat="45.3556933" lon="8.90847"><ele>87.0</ele><time>2026-04-18T13:47:23.981Z</time></trkpt><trkpt lat="45.35579" lon="8.908485"><ele>87.0</ele><time>2026-04-18T13:47:24.981Z</time></trkpt><trkpt lat="45.3558733" lon="8.9084983"><ele>87.0</ele><time>2026-04-18T13:47:25.981Z</time></trkpt><trkpt lat="45.3559433" lon="8.9084983"><ele>87.0</ele><time>2026-04-18T13:47:26.981Z</time></trkpt><trkpt lat="45.35602" lon="8.9085"><ele>87.0</ele><time>2026-04-18T13:47:27.981Z</time></trkpt><trkpt lat="45.356105" lon="8.908515"><ele>87.0</ele><time>2026-04-18T13:47:28.981Z</time></trkpt><trkpt lat="45.3561883" lon="8.9085217"><ele>87.0</ele><time>2026-04-18T13:47:29.981Z</time></trkpt><trkpt lat="45.3562733" lon="8.9085333"><ele>87.0</ele><time>2026-04-18T13:47:30.981Z</time></trkpt><trkpt lat="45.3563533" lon="8.9085417"><ele>87.0</ele><time>2026-04-18T13:47:31.981Z</time></trkpt><trkpt lat="45.3564417" lon="8.908555"><ele>87.0</ele><time>2026-04-18T13:47:32.981Z</time></trkpt><trkpt lat="45.3565233" lon="8.908565"><ele>87.0</ele><time>2026-04-18T13:47:33.981Z</time></trkpt><trkpt lat="45.3566" lon="8.9085783"><ele>87.0</ele><time>2026-04-18T13:47:34.981Z</time></trkpt><trkpt lat="45.3567083" lon="8.9086017"><ele>87.0</ele><time>2026-04-18T13:47:36.981Z</time></trkpt><trkpt lat="45.3568" lon="8.9086417"><ele>87.0</ele><time>2026-04-18T13:47:52.981Z</time></trkpt><trkpt lat="45.356925" lon="8.9087283"><ele>87.0</ele><time>2026-04-18T13:47:54.981Z</time></trkpt><trkpt lat="45.35699" lon="8.9087983"><ele>87.0</ele><time>2026-04-18T13:47:55.981Z</time></trkpt><trkpt lat="45.35703" lon="8.9089083"><ele>87.0</ele><time>2026-04-18T13:47:56.981Z</time></trkpt><trkpt lat="45.3570667" lon="8.9090517"><ele>87.0</ele><time>2026-04-18T13:47:57.981Z</time></trkpt><trkpt lat="45.3570917" lon="8.9092433"><ele>87.0</ele><time>2026-04-18T13:47:58.981Z</time></trkpt><trkpt lat="45.3571033" lon="8.9094383"><ele>87.0</ele><time>2026-04-18T13:47:59.981Z</time></trkpt><trkpt lat="45.3571033" lon="8.9096233"><ele>87.0</ele><time>2026-04-18T13:48:00.982Z</time></trkpt><trkpt lat="45.3570883" lon="8.9098183"><ele>87.0</ele><time>2026-04-18T13:48:01.981Z</time></trkpt><trkpt lat="45.3570667" lon="8.910015"><ele>87.0</ele><time>2026-04-18T13:48:02.981Z</time></trkpt><trkpt lat="45.3570333" lon="8.9102067"><ele>87.0</ele><time>2026-04-18T13:48:03.981Z</time></trkpt><trkpt lat="45.3570033" lon="8.9104067"><ele>87.0</ele><time>2026-04-18T13:48:04.981Z</time></trkpt><trkpt lat="45.3569717" lon="8.9106133"><ele>86.75</ele><time>2026-04-18T13:48:05.981Z</time></trkpt><trkpt lat="45.3569483" lon="8.91082"><ele>86.5</ele><time>2026-04-18T13:48:06.981Z</time></trkpt><trkpt lat="45.35693" lon="8.9110317"><ele>86.25</ele><time>2026-04-18T13:48:07.981Z</time></trkpt><trkpt lat="45.356915" lon="8.9112467"><ele>86.0</ele><time>2026-04-18T13:48:08.981Z</time></trkpt><trkpt lat="45.3569067" lon="8.9114667"><ele>85.75</ele><time>2026-04-18T13:48:09.981Z</time></trkpt><trkpt lat="45.356895" lon="8.9116767"><ele>85.5</ele><time>2026-04-18T13:48:10.981Z</time></trkpt><trkpt lat="45.3568883" lon="8.9118717"><ele>85.25</ele><time>2026-04-18T13:48:11.981Z</time></trkpt><trkpt lat="45.356885" lon="8.9120533"><ele>85.0</ele><time>2026-04-18T13:48:12.981Z</time></trkpt><trkpt lat="45.3568767" lon="8.91222"><ele>85.5</ele><time>2026-04-18T13:48:13.981Z</time></trkpt><trkpt lat="45.3568567" lon="8.9123817"><ele>86.0</ele><time>2026-04-18T13:48:14.981Z</time></trkpt><trkpt lat="45.3568317" lon="8.9125467"><ele>86.5</ele><time>2026-04-18T13:48:15.981Z</time></trkpt><trkpt lat="45.356795" lon="8.9127217"><ele>87.0</ele><time>2026-04-18T13:48:16.981Z</time></trkpt><trkpt lat="45.3567617" lon="8.9129033"><ele>87.25</ele><time>2026-04-18T13:48:17.981Z</time></trkpt><trkpt lat="45.356725" lon="8.9130883"><ele>87.5</ele><time>2026-04-18T13:48:18.981Z</time></trkpt><trkpt lat="45.3567033" lon="8.9132917"><ele>87.75</ele><time>2026-04-18T13:48:19.981Z</time></trkpt><trkpt lat="45.35669" lon="8.9135067"><ele>88.0</ele><time>2026-04-18T13:48:20.981Z</time></trkpt><trkpt lat="45.3567" lon="8.91374"><ele>88.33333333333333</ele><time>2026-04-18T13:48:21.981Z</time></trkpt><trkpt lat="45.3567267" lon="8.9139783"><ele>88.66666666666667</ele><time>2026-04-18T13:48:22.981Z</time></trkpt><trkpt lat="45.3567583" lon="8.914215"><ele>89.0</ele><time>2026-04-18T13:48:23.981Z</time></trkpt><trkpt lat="45.3567917" lon="8.9144417"><ele>89.0</ele><time>2026-04-18T13:48:24.981Z</time></trkpt><trkpt lat="45.3568317" lon="8.9146667"><ele>89.0</ele><time>2026-04-18T13:48:25.981Z</time></trkpt><trkpt lat="45.35686" lon="8.9148867"><ele>89.0</ele><time>2026-04-18T13:48:26.981Z</time></trkpt><trkpt lat="45.3568933" lon="8.9150983"><ele>89.5</ele><time>2026-04-18T13:48:27.981Z</time></trkpt><trkpt lat="45.356925" lon="8.915305"><ele>90.0</ele><time>2026-04-18T13:48:28.981Z</time></trkpt><trkpt lat="45.3569517" lon="8.9154983"><ele>90.5</ele><time>2026-04-18T13:48:29.981Z</time></trkpt><trkpt lat="45.3569817" lon="8.915695"><ele>91.0</ele><time>2026-04-18T13:48:30.981Z</time></trkpt><trkpt lat="45.3570133" lon="8.9158983"><ele>90.75</ele><time>2026-04-18T13:48:31.981Z</time></trkpt><trkpt lat="45.3570433" lon="8.9161117"><ele>90.5</ele><time>2026-04-18T13:48:32.981Z</time></trkpt><trkpt lat="45.3570717" lon="8.9163233"><ele>90.25</ele><time>2026-04-18T13:48:33.981Z</time></trkpt><trkpt lat="45.357095" lon="8.9165217"><ele>90.0</ele><time>2026-04-18T13:48:34.981Z</time></trkpt><trkpt lat="45.357115" lon="8.9167217"><ele>90.25</ele><time>2026-04-18T13:48:35.981Z</time></trkpt><trkpt lat="45.3571383" lon="8.9169217"><ele>90.5</ele><time>2026-04-18T13:48:36.981Z</time></trkpt><trkpt lat="45.35716" lon="8.917125"><ele>90.75</ele><time>2026-04-18T13:48:37.981Z</time></trkpt><trkpt lat="45.3571833" lon="8.9173317"><ele>91.0</ele><time>2026-04-18T13:48:38.981Z</time></trkpt><trkpt lat="45.3572183" lon="8.917525"><ele>91.5</ele><time>2026-04-18T13:48:39.981Z</time></trkpt><trkpt lat="45.3572567" lon="8.917715"><ele>92.0</ele><time>2026-04-18T13:48:40.981Z</time></trkpt><trkpt lat="45.3573133" lon="8.9179183"><ele>92.5</ele><time>2026-04-18T13:48:41.981Z</time></trkpt><trkpt lat="45.3573717" lon="8.9181083"><ele>93.0</ele><time>2026-04-18T13:48:42.981Z</time></trkpt><trkpt lat="45.3574383" lon="8.9182983"><ele>93.5</ele><time>2026-04-18T13:48:43.981Z</time></trkpt><trkpt lat="45.35752" lon="8.91847"><ele>94.0</ele><time>2026-04-18T13:48:44.981Z</time></trkpt><trkpt lat="45.3576067" lon="8.9186417"><ele>94.5</ele><time>2026-04-18T13:48:45.981Z</time></trkpt><trkpt lat="45.3577" lon="8.9188117"><ele>95.0</ele><time>2026-04-18T13:48:46.981Z</time></trkpt><trkpt lat="45.3578067" lon="8.91897"><ele>95.0</ele><time>2026-04-18T13:48:47.981Z</time></trkpt><trkpt lat="45.357925" lon="8.9191133"><ele>95.0</ele><time>2026-04-18T13:48:48.981Z</time></trkpt><trkpt lat="45.358045" lon="8.9192467"><ele>95.0</ele><time>2026-04-18T13:48:49.981Z</time></trkpt><trkpt lat="45.3581683" lon="8.9193767"><ele>94.66666666666667</ele><time>2026-04-18T13:48:50.981Z</time></trkpt><trkpt lat="45.3582933" lon="8.9194933"><ele>94.33333333333333</ele><time>2026-04-18T13:48:51.981Z</time></trkpt><trkpt lat="45.3584167" lon="8.9196133"><ele>94.0</ele><time>2026-04-18T13:48:52.981Z</time></trkpt><trkpt lat="45.3585467" lon="8.9197333"><ele>94.0</ele><time>2026-04-18T13:48:53.981Z</time></trkpt><trkpt lat="45.3586783" lon="8.919855"><ele>94.0</ele><time>2026-04-18T13:48:54.981Z</time></trkpt><trkpt lat="45.3588083" lon="8.9199783"><ele>94.0</ele><time>2026-04-18T13:48:55.981Z</time></trkpt><trkpt lat="45.35894" lon="8.9201017"><ele>94.0</ele><time>2026-04-18T13:48:56.981Z</time></trkpt><trkpt lat="45.35907" lon="8.9202233"><ele>94.0</ele><time>2026-04-18T13:48:57.982Z</time></trkpt><trkpt lat="45.3592033" lon="8.9203467"><ele>94.0</ele><time>2026-04-18T13:48:58.981Z</time></trkpt><trkpt lat="45.3593383" lon="8.9204733"><ele>94.0</ele><time>2026-04-18T13:48:59.981Z</time></trkpt><trkpt lat="45.3594733" lon="8.9205967"><ele>94.0</ele><time>2026-04-18T13:49:00.981Z</time></trkpt><trkpt lat="45.3596067" lon="8.9207233"><ele>94.0</ele><time>2026-04-18T13:49:01.981Z</time></trkpt><trkpt lat="45.3597433" lon="8.92085"><ele>94.0</ele><time>2026-04-18T13:49:02.981Z</time></trkpt><trkpt lat="45.3598783" lon="8.9209783"><ele>94.0</ele><time>2026-04-18T13:49:03.981Z</time></trkpt><trkpt lat="45.360025" lon="8.9210867"><ele>94.0</ele><time>2026-04-18T13:49:04.981Z</time></trkpt><trkpt lat="45.360175" lon="8.9211767"><ele>94.0</ele><time>2026-04-18T13:49:05.981Z</time></trkpt><trkpt lat="45.36033" lon="8.9212567"><ele>94.0</ele><time>2026-04-18T13:49:06.981Z</time></trkpt><trkpt lat="45.3604833" lon="8.9213233"><ele>94.0</ele><time>2026-04-18T13:49:07.981Z</time></trkpt><trkpt lat="45.3606383" lon="8.921395"><ele>94.0</ele><time>2026-04-18T13:49:08.981Z</time></trkpt><trkpt lat="45.3607933" lon="8.9214633"><ele>94.0</ele><time>2026-04-18T13:49:09.981Z</time></trkpt><trkpt lat="45.3609483" lon="8.9215317"><ele>94.0</ele><time>2026-04-18T13:49:10.981Z</time></trkpt><trkpt lat="45.361105" lon="8.9216"><ele>94.0</ele><time>2026-04-18T13:49:11.982Z</time></trkpt><trkpt lat="45.3612533" lon="8.921665"><ele>94.0</ele><time>2026-04-18T13:49:12.981Z</time></trkpt><trkpt lat="45.3613867" lon="8.9217183"><ele>94.0</ele><time>2026-04-18T13:49:13.981Z</time></trkpt><trkpt lat="45.361515" lon="8.9217733"><ele>94.0</ele><time>2026-04-18T13:49:14.981Z</time></trkpt><trkpt lat="45.3616267" lon="8.92181"><ele>94.0</ele><time>2026-04-18T13:49:15.981Z</time></trkpt><trkpt lat="45.361715" lon="8.92184"><ele>94.0</ele><time>2026-04-18T13:49:16.981Z</time></trkpt><trkpt lat="45.3617933" lon="8.9218717"><ele>94.0</ele><time>2026-04-18T13:49:17.981Z</time></trkpt><trkpt lat="45.3618617" lon="8.9218967"><ele>94.0</ele><time>2026-04-18T13:49:18.981Z</time></trkpt><trkpt lat="45.3619733" lon="8.9219333"><ele>94.0</ele><time>2026-04-18T13:49:20.981Z</time></trkpt><trkpt lat="45.36204" lon="8.9219517"><ele>94.0</ele><time>2026-04-18T13:49:22.981Z</time></trkpt><trkpt lat="45.3621083" lon="8.9219867"><ele>94.0</ele><time>2026-04-18T13:49:26.982Z</time></trkpt><trkpt lat="45.3621817" lon="8.922025"><ele>94.0</ele><time>2026-04-18T13:49:30.981Z</time></trkpt><trkpt lat="45.3622717" lon="8.92206"><ele>94.0</ele><time>2026-04-18T13:49:32.982Z</time></trkpt><trkpt lat="45.3623383" lon="8.92208"><ele>94.0</ele><time>2026-04-18T13:49:33.982Z</time></trkpt><trkpt lat="45.3624183" lon="8.9221133"><ele>94.0</ele><time>2026-04-18T13:49:34.981Z</time></trkpt><trkpt lat="45.3625067" lon="8.9221467"><ele>94.0</ele><time>2026-04-18T13:49:35.981Z</time></trkpt><trkpt lat="45.36261" lon="8.9221983"><ele>94.25</ele><time>2026-04-18T13:49:36.981Z</time></trkpt><trkpt lat="45.3627233" lon="8.922235"><ele>94.5</ele><time>2026-04-18T13:49:37.981Z</time></trkpt><trkpt lat="45.36284" lon="8.9222667"><ele>94.75</ele><time>2026-04-18T13:49:38.981Z</time></trkpt><trkpt lat="45.3629733" lon="8.9223033"><ele>95.0</ele><time>2026-04-18T13:49:39.981Z</time></trkpt><trkpt lat="45.3631033" lon="8.9223383"><ele>95.0</ele><time>2026-04-18T13:49:40.981Z</time></trkpt><trkpt lat="45.36323" lon="8.9223767"><ele>95.0</ele><time>2026-04-18T13:49:41.981Z</time></trkpt><trkpt lat="45.36335" lon="8.922415"><ele>95.0</ele><time>2026-04-18T13:49:42.981Z</time></trkpt><trkpt lat="45.3634617" lon="8.9224467"><ele>95.0</ele><time>2026-04-18T13:49:43.981Z</time></trkpt><trkpt lat="45.3635733" lon="8.922485"><ele>95.0</ele><time>2026-04-18T13:49:44.981Z</time></trkpt><trkpt lat="45.3636817" lon="8.9225233"><ele>95.0</ele><time>2026-04-18T13:49:45.981Z</time></trkpt><trkpt lat="45.3637833" lon="8.9225567"><ele>95.0</ele><time>2026-04-18T13:49:46.982Z</time></trkpt><trkpt lat="45.36388" lon="8.9225967"><ele>95.0</ele><time>2026-04-18T13:49:47.981Z</time></trkpt><trkpt lat="45.3639733" lon="8.9226667"><ele>95.0</ele><time>2026-04-18T13:49:48.981Z</time></trkpt><trkpt lat="45.36403" lon="8.9227667"><ele>95.4</ele><time>2026-04-18T13:49:49.981Z</time></trkpt><trkpt lat="45.364065" lon="8.9228917"><ele>95.8</ele><time>2026-04-18T13:49:50.981Z</time></trkpt><trkpt lat="45.364075" lon="8.923035"><ele>96.19999999999999</ele><time>2026-04-18T13:49:51.981Z</time></trkpt><trkpt lat="45.3640533" lon="8.9231867"><ele>96.6</ele><time>2026-04-18T13:49:52.981Z</time></trkpt><trkpt lat="45.3640367" lon="8.9233233"><ele>97.0</ele><time>2026-04-18T13:49:53.981Z</time></trkpt><trkpt lat="45.3640183" lon="8.9234517"><ele>97.28571428571428</ele><time>2026-04-18T13:49:54.981Z</time></trkpt><trkpt lat="45.364" lon="8.923565"><ele>97.57142857142858</ele><time>2026-04-18T13:49:55.981Z</time></trkpt><trkpt lat="45.3639883" lon="8.923665"><ele>97.85714285714286</ele><time>2026-04-18T13:49:56.981Z</time></trkpt><trkpt lat="45.3639767" lon="8.9237533"><ele>98.14285714285714</ele><time>2026-04-18T13:49:57.981Z</time></trkpt><trkpt lat="45.363965" lon="8.923875"><ele>98.42857142857142</ele><time>2026-04-18T13:49:59.982Z</time></trkpt><trkpt lat="45.363965" lon="8.9239883"><ele>98.71428571428572</ele><time>2026-04-18T13:52:30.981Z</time></trkpt><trkpt lat="45.3639633" lon="8.9240783"><ele>99.0</ele><time>2026-04-18T13:52:31.981Z</time></trkpt><trkpt lat="45.36395" lon="8.92417"><ele>99.0</ele><time>2026-04-18T13:52:32.981Z</time></trkpt><trkpt lat="45.363945" lon="8.92428"><ele>99.0</ele><time>2026-04-18T13:52:33.981Z</time></trkpt><trkpt lat="45.363935" lon="8.9243983"><ele>99.0</ele><time>2026-04-18T13:52:34.981Z</time></trkpt><trkpt lat="45.3639217" lon="8.924525"><ele>99.0</ele><time>2026-04-18T13:52:35.981Z</time></trkpt><trkpt lat="45.363915" lon="8.9246633"><ele>99.0</ele><time>2026-04-18T13:52:36.981Z</time></trkpt><trkpt lat="45.3639133" lon="8.9248233"><ele>99.0</ele><time>2026-04-18T13:52:37.981Z</time></trkpt><trkpt lat="45.3639083" lon="8.925"><ele>99.0</ele><time>2026-04-18T13:52:38.981Z</time></trkpt><trkpt lat="45.363895" lon="8.9251783"><ele>99.0</ele><time>2026-04-18T13:52:39.981Z</time></trkpt><trkpt lat="45.36388" lon="8.9253633"><ele>99.0</ele><time>2026-04-18T13:52:40.982Z</time></trkpt><trkpt lat="45.3638633" lon="8.9255617"><ele>98.0</ele><time>2026-04-18T13:52:41.981Z</time></trkpt><trkpt lat="45.3638533" lon="8.925765"><ele>97.0</ele><time>2026-04-18T13:52:42.981Z</time></trkpt><trkpt lat="45.36384" lon="8.9259817"><ele>96.0</ele><time>2026-04-18T13:52:43.981Z</time></trkpt><trkpt lat="45.363825" lon="8.9261983"><ele>95.0</ele><time>2026-04-18T13:52:44.981Z</time></trkpt><trkpt lat="45.36381" lon="8.926415"><ele>95.0</ele><time>2026-04-18T13:52:45.981Z</time></trkpt><trkpt lat="45.3637967" lon="8.92664"><ele>95.0</ele><time>2026-04-18T13:52:46.981Z</time></trkpt><trkpt lat="45.36379" lon="8.9268683"><ele>95.0</ele><time>2026-04-18T13:52:47.981Z</time></trkpt><trkpt lat="45.3637883" lon="8.9271017"><ele>95.0</ele><time>2026-04-18T13:52:48.981Z</time></trkpt><trkpt lat="45.3637867" lon="8.9273433"><ele>95.0</ele><time>2026-04-18T13:52:49.981Z</time></trkpt><trkpt lat="45.3637933" lon="8.9275933"><ele>95.0</ele><time>2026-04-18T13:52:50.981Z</time></trkpt><trkpt lat="45.3638083" lon="8.9278417"><ele>95.0</ele><time>2026-04-18T13:52:51.982Z</time></trkpt><trkpt lat="45.3638283" lon="8.9280917"><ele>95.0</ele><time>2026-04-18T13:52:52.981Z</time></trkpt><trkpt lat="45.3638533" lon="8.9283433"><ele>95.0</ele><time>2026-04-18T13:52:53.981Z</time></trkpt><trkpt lat="45.3638883" lon="8.9285933"><ele>96.66666666666667</ele><time>2026-04-18T13:52:54.982Z</time></trkpt><trkpt lat="45.3639317" lon="8.928845"><ele>98.33333333333334</ele><time>2026-04-18T13:52:55.981Z</time></trkpt><trkpt lat="45.3639817" lon="8.9290983"><ele>100.0</ele><time>2026-04-18T13:52:56.981Z</time></trkpt><trkpt lat="45.364045" lon="8.929345"><ele>100.66666666666667</ele><time>2026-04-18T13:52:57.981Z</time></trkpt><trkpt lat="45.3641133" lon="8.92958"><ele>101.33333333333334</ele><time>2026-04-18T13:52:58.98Z</time></trkpt><trkpt lat="45.364185" lon="8.9298117"><ele>102.0</ele><time>2026-04-18T13:52:59.98Z</time></trkpt><trkpt lat="45.364255" lon="8.9300417"><ele>102.33333333333334</ele><time>2026-04-18T13:53:00.98Z</time></trkpt><trkpt lat="45.36433" lon="8.93027"><ele>102.66666666666667</ele><time>2026-04-18T13:53:01.98Z</time></trkpt><trkpt lat="45.3644033" lon="8.9304833"><ele>103.0</ele><time>2026-04-18T13:53:02.98Z</time></trkpt><trkpt lat="45.3644783" lon="8.9307067"><ele>103.33333333333334</ele><time>2026-04-18T13:53:03.98Z</time></trkpt><trkpt lat="45.36456" lon="8.9309217"><ele>103.66666666666666</ele><time>2026-04-18T13:53:04.98Z</time></trkpt><trkpt lat="45.3646383" lon="8.9311417"><ele>104.0</ele><time>2026-04-18T13:53:05.98Z</time></trkpt><trkpt lat="45.364715" lon="8.9313717"><ele>104.66666666666666</ele><time>2026-04-18T13:53:06.98Z</time></trkpt><trkpt lat="45.364795" lon="8.9315967"><ele>105.33333333333334</ele><time>2026-04-18T13:53:07.98Z</time></trkpt><trkpt lat="45.3648683" lon="8.931835"><ele>106.0</ele><time>2026-04-18T13:53:08.98Z</time></trkpt><trkpt lat="45.36494" lon="8.9320667"><ele>106.33333333333334</ele><time>2026-04-18T13:53:09.98Z</time></trkpt><trkpt lat="45.3650117" lon="8.9323033"><ele>106.66666666666666</ele><time>2026-04-18T13:53:10.98Z</time></trkpt><trkpt lat="45.3650883" lon="8.9325417"><ele>107.0</ele><time>2026-04-18T13:53:11.98Z</time></trkpt><trkpt lat="45.3651483" lon="8.93276"><ele>107.0</ele><time>2026-04-18T13:53:12.981Z</time></trkpt><trkpt lat="45.3652433" lon="8.9330117"><ele>107.0</ele><time>2026-04-18T13:53:13.98Z</time></trkpt><trkpt lat="45.3653283" lon="8.9332483"><ele>107.0</ele><time>2026-04-18T13:53:14.98Z</time></trkpt><trkpt lat="45.36541" lon="8.933475"><ele>106.66666666666666</ele><time>2026-04-18T13:53:15.98Z</time></trkpt><trkpt lat="45.3654883" lon="8.9337017"><ele>106.33333333333334</ele><time>2026-04-18T13:53:16.981Z</time></trkpt><trkpt lat="45.3655683" lon="8.9339217"><ele>106.0</ele><time>2026-04-18T13:53:17.98Z</time></trkpt><trkpt lat="45.365645" lon="8.934145"><ele>107.66666666666667</ele><time>2026-04-18T13:53:18.98Z</time></trkpt><trkpt lat="45.3657233" lon="8.9343667"><ele>109.33333333333334</ele><time>2026-04-18T13:53:19.98Z</time></trkpt><trkpt lat="45.3658" lon="8.9345917"><ele>111.0</ele><time>2026-04-18T13:53:20.98Z</time></trkpt><trkpt lat="45.3658767" lon="8.9348117"><ele>111.0</ele><time>2026-04-18T13:53:21.98Z</time></trkpt><trkpt lat="45.3659517" lon="8.9350317"><ele>111.0</ele><time>2026-04-18T13:53:22.98Z</time></trkpt><trkpt lat="45.3660317" lon="8.93524"><ele>111.0</ele><time>2026-04-18T13:53:23.98Z</time></trkpt><trkpt lat="45.3661017" lon="8.9354467"><ele>111.0</ele><time>2026-04-18T13:53:24.98Z</time></trkpt><trkpt lat="45.3661767" lon="8.9356633"><ele>111.0</ele><time>2026-04-18T13:53:25.98Z</time></trkpt><trkpt lat="45.36625" lon="8.9358667"><ele>111.0</ele><time>2026-04-18T13:53:26.98Z</time></trkpt><trkpt lat="45.3663233" lon="8.936055"><ele>110.66666666666666</ele><time>2026-04-18T13:53:27.981Z</time></trkpt><trkpt lat="45.36639" lon="8.9362517"><ele>110.33333333333333</ele><time>2026-04-18T13:53:28.98Z</time></trkpt><trkpt lat="45.3664533" lon="8.936445"><ele>110.0</ele><time>2026-04-18T13:53:29.98Z</time></trkpt><trkpt lat="45.366515" lon="8.9366367"><ele>109.66666666666666</ele><time>2026-04-18T13:53:30.98Z</time></trkpt><trkpt lat="45.3665833" lon="8.9368283"><ele>109.33333333333334</ele><time>2026-04-18T13:53:31.98Z</time></trkpt><trkpt lat="45.3666517" lon="8.937025"><ele>109.0</ele><time>2026-04-18T13:53:32.98Z</time></trkpt><trkpt lat="45.3667183" lon="8.9372167"><ele>109.0</ele><time>2026-04-18T13:53:33.98Z</time></trkpt><trkpt lat="45.3667867" lon="8.93742"><ele>109.0</ele><time>2026-04-18T13:53:34.98Z</time></trkpt><trkpt lat="45.36686" lon="8.9376267"><ele>109.0</ele><time>2026-04-18T13:53:35.98Z</time></trkpt><trkpt lat="45.3669317" lon="8.9378367"><ele>108.66666666666667</ele><time>2026-04-18T13:53:36.98Z</time></trkpt><trkpt lat="45.367005" lon="8.9380433"><ele>108.33333333333334</ele><time>2026-04-18T13:53:37.98Z</time></trkpt><trkpt lat="45.3670767" lon="8.9382583"><ele>108.0</ele><time>2026-04-18T13:53:38.98Z</time></trkpt><trkpt lat="45.3671517" lon="8.93847"><ele>108.33333333333334</ele><time>2026-04-18T13:53:39.98Z</time></trkpt><trkpt lat="45.3672233" lon="8.9386783"><ele>108.66666666666667</ele><time>2026-04-18T13:53:40.98Z</time></trkpt><trkpt lat="45.3672867" lon="8.938885"><ele>109.0</ele><time>2026-04-18T13:53:41.98Z</time></trkpt><trkpt lat="45.3673517" lon="8.9390817"><ele>109.0</ele><time>2026-04-18T13:53:42.98Z</time></trkpt><trkpt lat="45.36741" lon="8.9392833"><ele>109.0</ele><time>2026-04-18T13:53:43.98Z</time></trkpt><trkpt lat="45.3674783" lon="8.939475"><ele>109.0</ele><time>2026-04-18T13:53:44.98Z</time></trkpt><trkpt lat="45.3675467" lon="8.9396783"><ele>109.0</ele><time>2026-04-18T13:53:45.98Z</time></trkpt><trkpt lat="45.367615" lon="8.9398883"><ele>109.0</ele><time>2026-04-18T13:53:46.98Z</time></trkpt><trkpt lat="45.3676867" lon="8.94009"><ele>109.0</ele><time>2026-04-18T13:53:47.98Z</time></trkpt><trkpt lat="45.367755" lon="8.940285"><ele>109.0</ele><time>2026-04-18T13:53:48.98Z</time></trkpt><trkpt lat="45.3678183" lon="8.9404833"><ele>109.0</ele><time>2026-04-18T13:53:49.98Z</time></trkpt><trkpt lat="45.3678817" lon="8.9406867"><ele>109.0</ele><time>2026-04-18T13:53:50.98Z</time></trkpt><trkpt lat="45.36794" lon="8.94089"><ele>109.0</ele><time>2026-04-18T13:53:51.98Z</time></trkpt><trkpt lat="45.3680017" lon="8.94109"><ele>109.0</ele><time>2026-04-18T13:53:52.98Z</time></trkpt><trkpt lat="45.3680583" lon="8.9412967"><ele>109.0</ele><time>2026-04-18T13:53:53.98Z</time></trkpt><trkpt lat="45.36811" lon="8.941495"><ele>109.0</ele><time>2026-04-18T13:53:54.98Z</time></trkpt><trkpt lat="45.36816" lon="8.941695"><ele>109.0</ele><time>2026-04-18T13:53:55.981Z</time></trkpt><trkpt lat="45.3682117" lon="8.9418933"><ele>109.0</ele><time>2026-04-18T13:53:56.98Z</time></trkpt><trkpt lat="45.368265" lon="8.942085"><ele>109.0</ele><time>2026-04-18T13:53:57.98Z</time></trkpt><trkpt lat="45.3683167" lon="8.9422717"><ele>109.0</ele><time>2026-04-18T13:53:58.98Z</time></trkpt><trkpt lat="45.3683617" lon="8.9424433"><ele>109.0</ele><time>2026-04-18T13:53:59.98Z</time></trkpt><trkpt lat="45.3684033" lon="8.9425917"><ele>109.0</ele><time>2026-04-18T13:54:00.98Z</time></trkpt><trkpt lat="45.36844" lon="8.942735"><ele>109.0</ele><time>2026-04-18T13:54:01.98Z</time></trkpt><trkpt lat="45.3684783" lon="8.942865"><ele>109.0</ele><time>2026-04-18T13:54:02.98Z</time></trkpt><trkpt lat="45.3685117" lon="8.942995"><ele>109.00000000000001</ele><time>2026-04-18T13:54:03.98Z</time></trkpt><trkpt lat="45.3685417" lon="8.9431217"><ele>109.0</ele><time>2026-04-18T13:54:04.98Z</time></trkpt><trkpt lat="45.3685683" lon="8.943235"><ele>109.0</ele><time>2026-04-18T13:54:05.98Z</time></trkpt><trkpt lat="45.3685933" lon="8.9433367"><ele>109.0</ele><time>2026-04-18T13:54:06.98Z</time></trkpt><trkpt lat="45.3686117" lon="8.9434283"><ele>109.00000000000001</ele><time>2026-04-18T13:54:07.98Z</time></trkpt><trkpt lat="45.368625" lon="8.9435183"><ele>109.0</ele><time>2026-04-18T13:54:08.98Z</time></trkpt><trkpt lat="45.3686383" lon="8.94361"><ele>109.16666666666667</ele><time>2026-04-18T13:54:09.98Z</time></trkpt><trkpt lat="45.3686767" lon="8.9437367"><ele>109.33333333333334</ele><time>2026-04-18T13:54:11.98Z</time></trkpt><trkpt lat="45.368675" lon="8.9438633"><ele>109.5</ele><time>2026-04-18T13:54:22.98Z</time></trkpt><trkpt lat="45.368625" lon="8.9439183"><ele>109.66666666666666</ele><time>2026-04-18T13:54:23.98Z</time></trkpt><trkpt lat="45.3685533" lon="8.9439767"><ele>109.83333333333333</ele><time>2026-04-18T13:54:24.98Z</time></trkpt><trkpt lat="45.3684667" lon="8.9440367"><ele>110.0</ele><time>2026-04-18T13:54:25.98Z</time></trkpt><trkpt lat="45.3683667" lon="8.9441067"><ele>110.0</ele><time>2026-04-18T13:54:26.981Z</time></trkpt><trkpt lat="45.36826" lon="8.9441967"><ele>110.0</ele><time>2026-04-18T13:54:27.98Z</time></trkpt><trkpt lat="45.3681483" lon="8.944285"><ele>110.0</ele><time>2026-04-18T13:54:28.98Z</time></trkpt><trkpt lat="45.368035" lon="8.944385"><ele>110.0</ele><time>2026-04-18T13:54:29.98Z</time></trkpt><trkpt lat="45.367915" lon="8.9444783"><ele>109.75</ele><time>2026-04-18T13:54:30.98Z</time></trkpt><trkpt lat="45.3678" lon="8.9445733"><ele>109.5</ele><time>2026-04-18T13:54:31.98Z</time></trkpt><trkpt lat="45.36769" lon="8.944665"><ele>109.25</ele><time>2026-04-18T13:54:32.98Z</time></trkpt><trkpt lat="45.367595" lon="8.9447433"><ele>109.0</ele><time>2026-04-18T13:54:33.98Z</time></trkpt><trkpt lat="45.36751" lon="8.9448133"><ele>109.00000000000001</ele><time>2026-04-18T13:54:34.981Z</time></trkpt><trkpt lat="45.36743" lon="8.9448833"><ele>109.0</ele><time>2026-04-18T13:54:35.98Z</time></trkpt><trkpt lat="45.367355" lon="8.94496"><ele>109.0</ele><time>2026-04-18T13:54:36.98Z</time></trkpt><trkpt lat="45.3673" lon="8.9450483"><ele>109.0</ele><time>2026-04-18T13:54:37.98Z</time></trkpt><trkpt lat="45.3672683" lon="8.94516"><ele>109.00000000000001</ele><time>2026-04-18T13:54:38.98Z</time></trkpt><trkpt lat="45.3672633" lon="8.9452767"><ele>109.0</ele><time>2026-04-18T13:54:39.98Z</time></trkpt><trkpt lat="45.3672917" lon="8.9453883"><ele>109.5</ele><time>2026-04-18T13:54:40.98Z</time></trkpt><trkpt lat="45.36734" lon="8.94551"><ele>110.0</ele><time>2026-04-18T13:54:41.98Z</time></trkpt><trkpt lat="45.3674067" lon="8.9456483"><ele>110.5</ele><time>2026-04-18T13:54:42.98Z</time></trkpt><trkpt lat="45.3674667" lon="8.94581"><ele>111.0</ele><time>2026-04-18T13:54:43.98Z</time></trkpt><trkpt lat="45.36752" lon="8.9459883"><ele>111.25</ele><time>2026-04-18T13:54:44.98Z</time></trkpt><trkpt lat="45.3675733" lon="8.946165"><ele>111.5</ele><time>2026-04-18T13:54:45.98Z</time></trkpt><trkpt lat="45.3676317" lon="8.9463383"><ele>111.75</ele><time>2026-04-18T13:54:46.98Z</time></trkpt><trkpt lat="45.3676833" lon="8.94651"><ele>112.0</ele><time>2026-04-18T13:54:47.98Z</time></trkpt><trkpt lat="45.36774" lon="8.94669"><ele>112.0</ele><time>2026-04-18T13:54:48.98Z</time></trkpt><trkpt lat="45.3677983" lon="8.9468717"><ele>112.0</ele><time>2026-04-18T13:54:49.98Z</time></trkpt><trkpt lat="45.3678533" lon="8.9470567"><ele>112.0</ele><time>2026-04-18T13:54:50.98Z</time></trkpt><trkpt lat="45.36791" lon="8.9472433"><ele>112.0</ele><time>2026-04-18T13:54:51.98Z</time></trkpt><trkpt lat="45.3679683" lon="8.9474333"><ele>112.25</ele><time>2026-04-18T13:54:52.98Z</time></trkpt><trkpt lat="45.3680267" lon="8.9476233"><ele>112.5</ele><time>2026-04-18T13:54:53.98Z</time></trkpt><trkpt lat="45.3680867" lon="8.9478117"><ele>112.75</ele><time>2026-04-18T13:54:54.98Z</time></trkpt><trkpt lat="45.3681417" lon="8.9480017"><ele>113.0</ele><time>2026-04-18T13:54:55.98Z</time></trkpt><trkpt lat="45.3682017" lon="8.9481967"><ele>113.0</ele><time>2026-04-18T13:54:56.98Z</time></trkpt><trkpt lat="45.3682633" lon="8.9483917"><ele>113.0</ele><time>2026-04-18T13:54:57.98Z</time></trkpt><trkpt lat="45.3683267" lon="8.948585"><ele>113.0</ele><time>2026-04-18T13:54:58.98Z</time></trkpt><trkpt lat="45.3683883" lon="8.9487783"><ele>113.0</ele><time>2026-04-18T13:54:59.98Z</time></trkpt><trkpt lat="45.36845" lon="8.9489717"><ele>113.0</ele><time>2026-04-18T13:55:00.98Z</time></trkpt><trkpt lat="45.36851" lon="8.9491683"><ele>113.0</ele><time>2026-04-18T13:55:01.98Z</time></trkpt><trkpt lat="45.3685633" lon="8.94936"><ele>113.0</ele><time>2026-04-18T13:55:02.98Z</time></trkpt><trkpt lat="45.3686167" lon="8.949545"><ele>113.0</ele><time>2026-04-18T13:55:03.98Z</time></trkpt><trkpt lat="45.3686783" lon="8.9497267"><ele>113.0</ele><time>2026-04-18T13:55:04.98Z</time></trkpt><trkpt lat="45.3687333" lon="8.9499117"><ele>113.0</ele><time>2026-04-18T13:55:05.98Z</time></trkpt><trkpt lat="45.3687917" lon="8.9500967"><ele>113.0</ele><time>2026-04-18T13:55:06.98Z</time></trkpt><trkpt lat="45.3688533" lon="8.9502817"><ele>113.0</ele><time>2026-04-18T13:55:07.98Z</time></trkpt><trkpt lat="45.3689167" lon="8.9504717"><ele>112.5</ele><time>2026-04-18T13:55:08.98Z</time></trkpt><trkpt lat="45.3689783" lon="8.9506617"><ele>112.0</ele><time>2026-04-18T13:55:09.98Z</time></trkpt><trkpt lat="45.3690417" lon="8.9508517"><ele>111.5</ele><time>2026-04-18T13:55:10.98Z</time></trkpt><trkpt lat="45.3691017" lon="8.9510467"><ele>111.0</ele><time>2026-04-18T13:55:11.981Z</time></trkpt><trkpt lat="45.3691583" lon="8.9512417"><ele>110.75</ele><time>2026-04-18T13:55:12.98Z</time></trkpt><trkpt lat="45.3692067" lon="8.9514417"><ele>110.5</ele><time>2026-04-18T13:55:13.98Z</time></trkpt><trkpt lat="45.36925" lon="8.9516433"><ele>110.25</ele><time>2026-04-18T13:55:14.98Z</time></trkpt><trkpt lat="45.3692817" lon="8.9518417"><ele>110.0</ele><time>2026-04-18T13:55:15.98Z</time></trkpt><trkpt lat="45.369305" lon="8.9520317"><ele>110.0</ele><time>2026-04-18T13:55:16.98Z</time></trkpt><trkpt lat="45.3693233" lon="8.9522167"><ele>110.0</ele><time>2026-04-18T13:55:17.98Z</time></trkpt><trkpt lat="45.3693433" lon="8.9524033"><ele>110.0</ele><time>2026-04-18T13:55:18.981Z</time></trkpt><trkpt lat="45.3693583" lon="8.9525883"><ele>110.0</ele><time>2026-04-18T13:55:19.98Z</time></trkpt><trkpt lat="45.3693733" lon="8.9527683"><ele>110.25</ele><time>2026-04-18T13:55:20.98Z</time></trkpt><trkpt lat="45.3693917" lon="8.9529433"><ele>110.5</ele><time>2026-04-18T13:55:21.98Z</time></trkpt><trkpt lat="45.3694117" lon="8.9531283"><ele>110.75</ele><time>2026-04-18T13:55:22.98Z</time></trkpt><trkpt lat="45.36943" lon="8.953315"><ele>111.0</ele><time>2026-04-18T13:55:23.98Z</time></trkpt><trkpt lat="45.3694517" lon="8.9534967"><ele>111.0</ele><time>2026-04-18T13:55:24.98Z</time></trkpt><trkpt lat="45.36948" lon="8.9536867"><ele>111.0</ele><time>2026-04-18T13:55:25.98Z</time></trkpt><trkpt lat="45.3695067" lon="8.9538733"><ele>111.0</ele><time>2026-04-18T13:55:26.98Z</time></trkpt><trkpt lat="45.369555" lon="8.9542533"><ele>111.0</ele><time>2026-04-18T13:55:28.98Z</time></trkpt><trkpt lat="45.3695833" lon="8.95444"><ele>111.0</ele><time>2026-04-18T13:55:29.981Z</time></trkpt><trkpt lat="45.3696233" lon="8.95463"><ele>111.0</ele><time>2026-04-18T13:55:30.98Z</time></trkpt><trkpt lat="45.369665" lon="8.9548117"><ele>111.0</ele><time>2026-04-18T13:55:31.98Z</time></trkpt><trkpt lat="45.369715" lon="8.9550083"><ele>110.75</ele><time>2026-04-18T13:55:32.98Z</time></trkpt><trkpt lat="45.3697667" lon="8.9552"><ele>110.5</ele><time>2026-04-18T13:55:33.98Z</time></trkpt><trkpt lat="45.3698133" lon="8.9553983"><ele>110.25</ele><time>2026-04-18T13:55:34.981Z</time></trkpt><trkpt lat="45.369865" lon="8.9555933"><ele>110.0</ele><time>2026-04-18T13:55:35.98Z</time></trkpt><trkpt lat="45.3699067" lon="8.955795"><ele>110.25</ele><time>2026-04-18T13:55:36.98Z</time></trkpt><trkpt lat="45.3699533" lon="8.9559817"><ele>110.5</ele><time>2026-04-18T13:55:37.98Z</time></trkpt><trkpt lat="45.36999" lon="8.9561717"><ele>110.75</ele><time>2026-04-18T13:55:38.98Z</time></trkpt><trkpt lat="45.3700117" lon="8.9563717"><ele>111.0</ele><time>2026-04-18T13:55:39.98Z</time></trkpt><trkpt lat="45.370015" lon="8.95657"><ele>111.0</ele><time>2026-04-18T13:55:40.98Z</time></trkpt><trkpt lat="45.3700033" lon="8.95677"><ele>111.0</ele><time>2026-04-18T13:55:41.98Z</time></trkpt><trkpt lat="45.36998" lon="8.95697"><ele>111.0</ele><time>2026-04-18T13:55:42.98Z</time></trkpt><trkpt lat="45.369965" lon="8.9571617"><ele>111.0</ele><time>2026-04-18T13:55:43.98Z</time></trkpt><trkpt lat="45.3699217" lon="8.95735"><ele>110.5</ele><time>2026-04-18T13:55:44.98Z</time></trkpt><trkpt lat="45.369865" lon="8.9575383"><ele>110.0</ele><time>2026-04-18T13:55:45.98Z</time></trkpt><trkpt lat="45.3698117" lon="8.9577283"><ele>109.5</ele><time>2026-04-18T13:55:46.98Z</time></trkpt><trkpt lat="45.36976" lon="8.9579083"><ele>109.0</ele><time>2026-04-18T13:55:47.981Z</time></trkpt><trkpt lat="45.369715" lon="8.9580983"><ele>109.25</ele><time>2026-04-18T13:55:48.98Z</time></trkpt><trkpt lat="45.3696683" lon="8.95829"><ele>109.5</ele><time>2026-04-18T13:55:49.98Z</time></trkpt><trkpt lat="45.3696233" lon="8.958485"><ele>109.75</ele><time>2026-04-18T13:55:50.98Z</time></trkpt><trkpt lat="45.369585" lon="8.9586883"><ele>110.0</ele><time>2026-04-18T13:55:51.98Z</time></trkpt><trkpt lat="45.3695633" lon="8.9588967"><ele>110.0</ele><time>2026-04-18T13:55:52.98Z</time></trkpt><trkpt lat="45.36956" lon="8.9591"><ele>110.0</ele><time>2026-04-18T13:55:53.98Z</time></trkpt><trkpt lat="45.3695733" lon="8.959315"><ele>110.0</ele><time>2026-04-18T13:55:54.98Z</time></trkpt><trkpt lat="45.3695983" lon="8.9595217"><ele>110.0</ele><time>2026-04-18T13:55:55.98Z</time></trkpt><trkpt lat="45.3696383" lon="8.959735"><ele>110.0</ele><time>2026-04-18T13:55:56.98Z</time></trkpt><trkpt lat="45.3696917" lon="8.9599317"><ele>110.0</ele><time>2026-04-18T13:55:57.98Z</time></trkpt><trkpt lat="45.369765" lon="8.9601333"><ele>110.0</ele><time>2026-04-18T13:55:58.98Z</time></trkpt><trkpt lat="45.36985" lon="8.9603183"><ele>110.0</ele><time>2026-04-18T13:55:59.98Z</time></trkpt><trkpt lat="45.3699367" lon="8.9605033"><ele>110.0</ele><time>2026-04-18T13:56:00.98Z</time></trkpt><trkpt lat="45.3700217" lon="8.9606817"><ele>110.0</ele><time>2026-04-18T13:56:01.98Z</time></trkpt><trkpt lat="45.3701067" lon="8.9608667"><ele>110.0</ele><time>2026-04-18T13:56:02.98Z</time></trkpt><trkpt lat="45.3701933" lon="8.961045"><ele>110.0</ele><time>2026-04-18T13:56:03.98Z</time></trkpt><trkpt lat="45.37028" lon="8.9612333"><ele>110.0</ele><time>2026-04-18T13:56:04.98Z</time></trkpt><trkpt lat="45.3703633" lon="8.9614217"><ele>110.0</ele><time>2026-04-18T13:56:05.98Z</time></trkpt><trkpt lat="45.3704483" lon="8.9616133"><ele>110.0</ele><time>2026-04-18T13:56:06.98Z</time></trkpt><trkpt lat="45.3705317" lon="8.9618017"><ele>110.0</ele><time>2026-04-18T13:56:07.981Z</time></trkpt><trkpt lat="45.3706183" lon="8.9619967"><ele>109.66666666666666</ele><time>2026-04-18T13:56:08.98Z</time></trkpt><trkpt lat="45.3707" lon="8.9621817"><ele>109.33333333333334</ele><time>2026-04-18T13:56:09.98Z</time></trkpt><trkpt lat="45.3707817" lon="8.9623667"><ele>109.0</ele><time>2026-04-18T13:56:10.98Z</time></trkpt><trkpt lat="45.370855" lon="8.9625467"><ele>109.0</ele><time>2026-04-18T13:56:11.98Z</time></trkpt><trkpt lat="45.3709183" lon="8.9627233"><ele>109.0</ele><time>2026-04-18T13:56:12.98Z</time></trkpt><trkpt lat="45.3709817" lon="8.9629067"><ele>109.0</ele><time>2026-04-18T13:56:13.98Z</time></trkpt><trkpt lat="45.3710367" lon="8.9631"><ele>109.0</ele><time>2026-04-18T13:56:14.98Z</time></trkpt><trkpt lat="45.371095" lon="8.9632967"><ele>108.66666666666667</ele><time>2026-04-18T13:56:15.98Z</time></trkpt><trkpt lat="45.3711517" lon="8.963495"><ele>108.33333333333334</ele><time>2026-04-18T13:56:16.98Z</time></trkpt><trkpt lat="45.3712083" lon="8.96369"><ele>108.0</ele><time>2026-04-18T13:56:17.98Z</time></trkpt><trkpt lat="45.3712683" lon="8.9638967"><ele>108.0</ele><time>2026-04-18T13:56:18.98Z</time></trkpt><trkpt lat="45.3713267" lon="8.964095"><ele>108.0</ele><time>2026-04-18T13:56:19.98Z</time></trkpt><trkpt lat="45.3713817" lon="8.964285"><ele>108.0</ele><time>2026-04-18T13:56:20.98Z</time></trkpt><trkpt lat="45.3714433" lon="8.9644783"><ele>108.0</ele><time>2026-04-18T13:56:21.98Z</time></trkpt><trkpt lat="45.3715" lon="8.9646767"><ele>108.5</ele><time>2026-04-18T13:56:22.98Z</time></trkpt><trkpt lat="45.3715467" lon="8.964875"><ele>109.0</ele><time>2026-04-18T13:56:23.98Z</time></trkpt><trkpt lat="45.371565" lon="8.9650833"><ele>109.5</ele><time>2026-04-18T13:56:24.98Z</time></trkpt><trkpt lat="45.3715717" lon="8.9652883"><ele>110.0</ele><time>2026-04-18T13:56:25.981Z</time></trkpt><trkpt lat="45.3715583" lon="8.9654983"><ele>110.0</ele><time>2026-04-18T13:56:26.98Z</time></trkpt><trkpt lat="45.37153" lon="8.96571"><ele>110.0</ele><time>2026-04-18T13:56:27.98Z</time></trkpt><trkpt lat="45.3714917" lon="8.9659067"><ele>110.0</ele><time>2026-04-18T13:56:28.98Z</time></trkpt><trkpt lat="45.3714367" lon="8.96611"><ele>110.0</ele><time>2026-04-18T13:56:29.98Z</time></trkpt><trkpt lat="45.3713633" lon="8.9662933"><ele>109.66666666666666</ele><time>2026-04-18T13:56:30.98Z</time></trkpt><trkpt lat="45.3712817" lon="8.9664717"><ele>109.33333333333334</ele><time>2026-04-18T13:56:31.98Z</time></trkpt><trkpt lat="45.3711833" lon="8.9666367"><ele>109.0</ele><time>2026-04-18T13:56:32.98Z</time></trkpt><trkpt lat="45.371075" lon="8.9667867"><ele>108.75</ele><time>2026-04-18T13:56:33.98Z</time></trkpt><trkpt lat="45.3709617" lon="8.96693"><ele>108.5</ele><time>2026-04-18T13:56:34.98Z</time></trkpt><trkpt lat="45.3708533" lon="8.9670683"><ele>108.25</ele><time>2026-04-18T13:56:35.98Z</time></trkpt><trkpt lat="45.3707433" lon="8.9672033"><ele>108.0</ele><time>2026-04-18T13:56:36.98Z</time></trkpt><trkpt lat="45.37063" lon="8.9673367"><ele>108.0</ele><time>2026-04-18T13:56:37.98Z</time></trkpt><trkpt lat="45.3705217" lon="8.96748"><ele>108.0</ele><time>2026-04-18T13:56:38.98Z</time></trkpt><trkpt lat="45.37041" lon="8.9676217"><ele>108.0</ele><time>2026-04-18T13:56:39.98Z</time></trkpt><trkpt lat="45.370295" lon="8.9677617"><ele>108.0</ele><time>2026-04-18T13:56:40.98Z</time></trkpt><trkpt lat="45.3701767" lon="8.967905"><ele>107.66666666666666</ele><time>2026-04-18T13:56:41.98Z</time></trkpt><trkpt lat="45.3700517" lon="8.9680467"><ele>107.33333333333333</ele><time>2026-04-18T13:56:42.98Z</time></trkpt><trkpt lat="45.3699317" lon="8.9681917"><ele>107.0</ele><time>2026-04-18T13:56:43.98Z</time></trkpt><trkpt lat="45.369815" lon="8.9683317"><ele>107.0</ele><time>2026-04-18T13:56:44.98Z</time></trkpt><trkpt lat="45.3696933" lon="8.96846"><ele>107.0</ele><time>2026-04-18T13:56:45.98Z</time></trkpt><trkpt lat="45.3695633" lon="8.9685767"><ele>107.0</ele><time>2026-04-18T13:56:46.98Z</time></trkpt><trkpt lat="45.3694367" lon="8.968685"><ele>107.0</ele><time>2026-04-18T13:56:47.98Z</time></trkpt><trkpt lat="45.369305" lon="8.9687883"><ele>107.0</ele><time>2026-04-18T13:56:48.981Z</time></trkpt><trkpt lat="45.3691783" lon="8.9688917"><ele>107.0</ele><time>2026-04-18T13:56:49.98Z</time></trkpt><trkpt lat="45.36906" lon="8.9690117"><ele>107.0</ele><time>2026-04-18T13:56:50.981Z</time></trkpt><trkpt lat="45.3689517" lon="8.9691467"><ele>107.0</ele><time>2026-04-18T13:56:51.98Z</time></trkpt><trkpt lat="45.368865" lon="8.969305"><ele>107.0</ele><time>2026-04-18T13:56:52.98Z</time></trkpt><trkpt lat="45.3688" lon="8.9694967"><ele>107.0</ele><time>2026-04-18T13:56:53.98Z</time></trkpt><trkpt lat="45.368765" lon="8.969705"><ele>107.0</ele><time>2026-04-18T13:56:54.98Z</time></trkpt><trkpt lat="45.368765" lon="8.9699267"><ele>108.0</ele><time>2026-04-18T13:56:55.98Z</time></trkpt><trkpt lat="45.36878" lon="8.9701533"><ele>109.0</ele><time>2026-04-18T13:56:56.98Z</time></trkpt><trkpt lat="45.36881" lon="8.9703817"><ele>110.0</ele><time>2026-04-18T13:56:57.98Z</time></trkpt><trkpt lat="45.3688433" lon="8.9706183"><ele>110.0</ele><time>2026-04-18T13:56:58.98Z</time></trkpt><trkpt lat="45.36888" lon="8.9708533"><ele>110.0</ele><time>2026-04-18T13:56:59.98Z</time></trkpt><trkpt lat="45.368915" lon="8.9710783"><ele>110.0</ele><time>2026-04-18T13:57:00.98Z</time></trkpt><trkpt lat="45.3689433" lon="8.97129"><ele>110.0</ele><time>2026-04-18T13:57:01.98Z</time></trkpt><trkpt lat="45.368975" lon="8.9715067"><ele>110.0</ele><time>2026-04-18T13:57:02.98Z</time></trkpt><trkpt lat="45.3690233" lon="8.9717183"><ele>110.0</ele><time>2026-04-18T13:57:03.98Z</time></trkpt><trkpt lat="45.3690683" lon="8.97193"><ele>110.0</ele><time>2026-04-18T13:57:04.98Z</time></trkpt><trkpt lat="45.3691033" lon="8.9721433"><ele>110.0</ele><time>2026-04-18T13:57:05.98Z</time></trkpt><trkpt lat="45.36914" lon="8.9723667"><ele>110.0</ele><time>2026-04-18T13:57:06.981Z</time></trkpt><trkpt lat="45.3691783" lon="8.972585"><ele>110.0</ele><time>2026-04-18T13:57:07.98Z</time></trkpt><trkpt lat="45.3692267" lon="8.9728017"><ele>110.0</ele><time>2026-04-18T13:57:08.98Z</time></trkpt><trkpt lat="45.36926" lon="8.9730133"><ele>110.0</ele><time>2026-04-18T13:57:09.98Z</time></trkpt><trkpt lat="45.369305" lon="8.97323"><ele>110.0</ele><time>2026-04-18T13:57:10.98Z</time></trkpt><trkpt lat="45.3693367" lon="8.97345"><ele>110.0</ele><time>2026-04-18T13:57:11.98Z</time></trkpt><trkpt lat="45.3693683" lon="8.9736617"><ele>110.0</ele><time>2026-04-18T13:57:12.98Z</time></trkpt><trkpt lat="45.3694067" lon="8.9738667"><ele>110.0</ele><time>2026-04-18T13:57:13.98Z</time></trkpt><trkpt lat="45.36946" lon="8.9740733"><ele>110.0</ele><time>2026-04-18T13:57:14.98Z</time></trkpt><trkpt lat="45.3695" lon="8.9742833"><ele>110.0</ele><time>2026-04-18T13:57:15.98Z</time></trkpt><trkpt lat="45.3695217" lon="8.974485"><ele>109.75</ele><time>2026-04-18T13:57:16.98Z</time></trkpt><trkpt lat="45.3695267" lon="8.97467"><ele>109.5</ele><time>2026-04-18T13:57:17.98Z</time></trkpt><trkpt lat="45.3695133" lon="8.97488"><ele>109.25</ele><time>2026-04-18T13:57:18.98Z</time></trkpt><trkpt lat="45.3694767" lon="8.9750867"><ele>109.0</ele><time>2026-04-18T13:57:19.98Z</time></trkpt><trkpt lat="45.3694217" lon="8.97529"><ele>109.0</ele><time>2026-04-18T13:57:20.98Z</time></trkpt><trkpt lat="45.36936" lon="8.9754767"><ele>109.0</ele><time>2026-04-18T13:57:21.98Z</time></trkpt><trkpt lat="45.3692867" lon="8.97565"><ele>109.0</ele><time>2026-04-18T13:57:22.981Z</time></trkpt><trkpt lat="45.3692083" lon="8.975815"><ele>109.0</ele><time>2026-04-18T13:57:23.98Z</time></trkpt><trkpt lat="45.3691167" lon="8.97598"><ele>109.0</ele><time>2026-04-18T13:57:24.98Z</time></trkpt><trkpt lat="45.3690283" lon="8.976155"><ele>109.0</ele><time>2026-04-18T13:57:25.98Z</time></trkpt><trkpt lat="45.36895" lon="8.9763383"><ele>109.0</ele><time>2026-04-18T13:57:26.98Z</time></trkpt><trkpt lat="45.3688933" lon="8.9765267"><ele>109.0</ele><time>2026-04-18T13:57:27.98Z</time></trkpt><trkpt lat="45.368845" lon="8.9767217"><ele>108.75</ele><time>2026-04-18T13:57:28.98Z</time></trkpt><trkpt lat="45.3688117" lon="8.97692"><ele>108.5</ele><time>2026-04-18T13:57:29.98Z</time></trkpt><trkpt lat="45.368795" lon="8.977125"><ele>108.25</ele><time>2026-04-18T13:57:30.98Z</time></trkpt><trkpt lat="45.36879" lon="8.9773433"><ele>108.0</ele><time>2026-04-18T13:57:31.98Z</time></trkpt><trkpt lat="45.3688083" lon="8.97756"><ele>108.0</ele><time>2026-04-18T13:57:32.98Z</time></trkpt><trkpt lat="45.3688483" lon="8.9777833"><ele>108.0</ele><time>2026-04-18T13:57:33.98Z</time></trkpt><trkpt lat="45.3689033" lon="8.9780083"><ele>108.0</ele><time>2026-04-18T13:57:34.98Z</time></trkpt><trkpt lat="45.36897" lon="8.9782333"><ele>108.0</ele><time>2026-04-18T13:57:35.98Z</time></trkpt><trkpt lat="45.3690383" lon="8.978435"><ele>108.0</ele><time>2026-04-18T13:57:36.98Z</time></trkpt><trkpt lat="45.3691033" lon="8.978645"><ele>108.0</ele><time>2026-04-18T13:57:37.98Z</time></trkpt><trkpt lat="45.3691633" lon="8.97885"><ele>108.0</ele><time>2026-04-18T13:57:38.98Z</time></trkpt><trkpt lat="45.3692233" lon="8.97906"><ele>108.0</ele><time>2026-04-18T13:57:39.98Z</time></trkpt><trkpt lat="45.369285" lon="8.97927"><ele>108.0</ele><time>2026-04-18T13:57:40.98Z</time></trkpt><trkpt lat="45.3693483" lon="8.979475"><ele>108.0</ele><time>2026-04-18T13:57:41.98Z</time></trkpt><trkpt lat="45.3694133" lon="8.9796817"><ele>108.0</ele><time>2026-04-18T13:57:42.98Z</time></trkpt><trkpt lat="45.369475" lon="8.9798883"><ele>108.0</ele><time>2026-04-18T13:57:43.98Z</time></trkpt><trkpt lat="45.3695267" lon="8.9800967"><ele>108.0</ele><time>2026-04-18T13:57:44.98Z</time></trkpt><trkpt lat="45.3695817" lon="8.9803"><ele>108.0</ele><time>2026-04-18T13:57:45.98Z</time></trkpt><trkpt lat="45.369635" lon="8.9804967"><ele>108.0</ele><time>2026-04-18T13:57:46.98Z</time></trkpt><trkpt lat="45.369685" lon="8.9807033"><ele>108.33333333333334</ele><time>2026-04-18T13:57:47.98Z</time></trkpt><trkpt lat="45.3697233" lon="8.9809133"><ele>108.66666666666667</ele><time>2026-04-18T13:57:48.98Z</time></trkpt><trkpt lat="45.3697533" lon="8.981125"><ele>109.0</ele><time>2026-04-18T13:57:49.98Z</time></trkpt><trkpt lat="45.3697867" lon="8.9813483"><ele>109.0</ele><time>2026-04-18T13:57:50.98Z</time></trkpt><trkpt lat="45.3698183" lon="8.9815717"><ele>109.0</ele><time>2026-04-18T13:57:51.98Z</time></trkpt><trkpt lat="45.3698567" lon="8.9818017"><ele>109.0</ele><time>2026-04-18T13:57:52.98Z</time></trkpt><trkpt lat="45.3698967" lon="8.982035"><ele>109.0</ele><time>2026-04-18T13:57:53.98Z</time></trkpt><trkpt lat="45.3699317" lon="8.9822717"><ele>109.0</ele><time>2026-04-18T13:57:54.98Z</time></trkpt><trkpt lat="45.36997" lon="8.9825117"><ele>109.0</ele><time>2026-04-18T13:57:55.981Z</time></trkpt><trkpt lat="45.370015" lon="8.982745"><ele>109.0</ele><time>2026-04-18T13:57:56.981Z</time></trkpt><trkpt lat="45.3700667" lon="8.9829783"><ele>109.0</ele><time>2026-04-18T13:57:57.98Z</time></trkpt><trkpt lat="45.3701167" lon="8.9832083"><ele>109.0</ele><time>2026-04-18T13:57:58.98Z</time></trkpt><trkpt lat="45.37017" lon="8.98344"><ele>109.0</ele><time>2026-04-18T13:57:59.98Z</time></trkpt><trkpt lat="45.3702217" lon="8.9836683"><ele>109.0</ele><time>2026-04-18T13:58:00.98Z</time></trkpt><trkpt lat="45.3702767" lon="8.983885"><ele>109.0</ele><time>2026-04-18T13:58:01.98Z</time></trkpt><trkpt lat="45.3703267" lon="8.9841017"><ele>108.33333333333334</ele><time>2026-04-18T13:58:02.98Z</time></trkpt><trkpt lat="45.3703833" lon="8.9843217"><ele>107.66666666666666</ele><time>2026-04-18T13:58:03.98Z</time></trkpt><trkpt lat="45.3704467" lon="8.9845433"><ele>107.0</ele><time>2026-04-18T13:58:04.98Z</time></trkpt><trkpt lat="45.3705017" lon="8.9847667"><ele>107.33333333333333</ele><time>2026-04-18T13:58:05.98Z</time></trkpt><trkpt lat="45.3705583" lon="8.9849883"><ele>107.66666666666666</ele><time>2026-04-18T13:58:06.98Z</time></trkpt><trkpt lat="45.3706183" lon="8.9852"><ele>108.0</ele><time>2026-04-18T13:58:07.981Z</time></trkpt><trkpt lat="45.3706633" lon="8.9854217"><ele>108.0</ele><time>2026-04-18T13:58:08.98Z</time></trkpt><trkpt lat="45.3707083" lon="8.9856483"><ele>108.0</ele><time>2026-04-18T13:58:09.98Z</time></trkpt><trkpt lat="45.3707467" lon="8.9858833"><ele>108.0</ele><time>2026-04-18T13:58:10.98Z</time></trkpt><trkpt lat="45.3707883" lon="8.98612"><ele>108.0</ele><time>2026-04-18T13:58:11.98Z</time></trkpt><trkpt lat="45.370835" lon="8.986345"><ele>108.0</ele><time>2026-04-18T13:58:12.98Z</time></trkpt><trkpt lat="45.3708817" lon="8.986575"><ele>108.0</ele><time>2026-04-18T13:58:13.98Z</time></trkpt><trkpt lat="45.3709333" lon="8.9868033"><ele>108.33333333333334</ele><time>2026-04-18T13:58:14.98Z</time></trkpt><trkpt lat="45.3709767" lon="8.9870333"><ele>108.66666666666667</ele><time>2026-04-18T13:58:15.98Z</time></trkpt><trkpt lat="45.371025" lon="8.987265"><ele>109.0</ele><time>2026-04-18T13:58:16.981Z</time></trkpt><trkpt lat="45.37107" lon="8.9875"><ele>109.0</ele><time>2026-04-18T13:58:17.98Z</time></trkpt><trkpt lat="45.37112" lon="8.9877333"><ele>109.0</ele><time>2026-04-18T13:58:18.981Z</time></trkpt><trkpt lat="45.37117" lon="8.9879583"><ele>109.0</ele><time>2026-04-18T13:58:19.98Z</time></trkpt><trkpt lat="45.3712217" lon="8.98818"><ele>109.0</ele><time>2026-04-18T13:58:20.98Z</time></trkpt><trkpt lat="45.3712717" lon="8.9884117"><ele>109.0</ele><time>2026-04-18T13:58:21.98Z</time></trkpt><trkpt lat="45.3713233" lon="8.9886433"><ele>109.0</ele><time>2026-04-18T13:58:22.98Z</time></trkpt><trkpt lat="45.3713767" lon="8.988875"><ele>109.0</ele><time>2026-04-18T13:58:23.98Z</time></trkpt><trkpt lat="45.3714233" lon="8.98911"><ele>109.0</ele><time>2026-04-18T13:58:24.98Z</time></trkpt><trkpt lat="45.3714767" lon="8.9893333"><ele>109.0</ele><time>2026-04-18T13:58:25.98Z</time></trkpt><trkpt lat="45.37153" lon="8.9895583"><ele>109.0</ele><time>2026-04-18T13:58:26.981Z</time></trkpt><trkpt lat="45.371575" lon="8.98978"><ele>109.0</ele><time>2026-04-18T13:58:27.98Z</time></trkpt><trkpt lat="45.3716267" lon="8.9900083"><ele>109.0</ele><time>2026-04-18T13:58:28.98Z</time></trkpt><trkpt lat="45.3716817" lon="8.9902383"><ele>109.0</ele><time>2026-04-18T13:58:29.98Z</time></trkpt><trkpt lat="45.3717283" lon="8.9904617"><ele>109.0</ele><time>2026-04-18T13:58:30.98Z</time></trkpt><trkpt lat="45.3717783" lon="8.990675"><ele>109.0</ele><time>2026-04-18T13:58:31.98Z</time></trkpt><trkpt lat="45.37182" lon="8.9908917"><ele>109.0</ele><time>2026-04-18T13:58:32.98Z</time></trkpt><trkpt lat="45.37187" lon="8.991105"><ele>109.0</ele><time>2026-04-18T13:58:33.98Z</time></trkpt><trkpt lat="45.3719183" lon="8.9913133"><ele>109.0</ele><time>2026-04-18T13:58:34.98Z</time></trkpt><trkpt lat="45.3719567" lon="8.9915183"><ele>109.0</ele><time>2026-04-18T13:58:35.981Z</time></trkpt><trkpt lat="45.372005" lon="8.9917317"><ele>109.0</ele><time>2026-04-18T13:58:36.98Z</time></trkpt><trkpt lat="45.372055" lon="8.9919317"><ele>109.0</ele><time>2026-04-18T13:58:37.98Z</time></trkpt><trkpt lat="45.3721017" lon="8.9921333"><ele>109.0</ele><time>2026-04-18T13:58:38.98Z</time></trkpt><trkpt lat="45.3721367" lon="8.9923367"><ele>109.0</ele><time>2026-04-18T13:58:39.98Z</time></trkpt><trkpt lat="45.3721733" lon="8.99253"><ele>109.0</ele><time>2026-04-18T13:58:40.98Z</time></trkpt><trkpt lat="45.3722033" lon="8.992715"><ele>109.0</ele><time>2026-04-18T13:58:41.98Z</time></trkpt><trkpt lat="45.372235" lon="8.9928983"><ele>109.25</ele><time>2026-04-18T13:58:42.98Z</time></trkpt><trkpt lat="45.3722617" lon="8.9930817"><ele>109.5</ele><time>2026-04-18T13:58:43.98Z</time></trkpt><trkpt lat="45.3722967" lon="8.9932483"><ele>109.75</ele><time>2026-04-18T13:58:44.98Z</time></trkpt><trkpt lat="45.3723233" lon="8.9934083"><ele>110.0</ele><time>2026-04-18T13:58:45.98Z</time></trkpt><trkpt lat="45.3723467" lon="8.9935583"><ele>110.16666666666666</ele><time>2026-04-18T13:58:46.98Z</time></trkpt><trkpt lat="45.3723683" lon="8.9936933"><ele>110.33333333333333</ele><time>2026-04-18T13:58:47.98Z</time></trkpt><trkpt lat="45.3723833" lon="8.9938133"><ele>110.5</ele><time>2026-04-18T13:58:48.98Z</time></trkpt><trkpt lat="45.37239" lon="8.993925"><ele>110.66666666666666</ele><time>2026-04-18T13:58:49.98Z</time></trkpt><trkpt lat="45.372395" lon="8.994015"><ele>110.83333333333333</ele><time>2026-04-18T13:58:50.981Z</time></trkpt><trkpt lat="45.372395" lon="8.994155"><ele>111.0</ele><time>2026-04-18T13:58:52.98Z</time></trkpt><trkpt lat="45.372355" lon="8.99433"><ele>111.0</ele><time>2026-04-18T13:58:54.98Z</time></trkpt><trkpt lat="45.3723367" lon="8.9944483"><ele>111.0</ele><time>2026-04-18T13:58:55.98Z</time></trkpt><trkpt lat="45.3723417" lon="8.9945633"><ele>111.0</ele><time>2026-04-18T13:58:56.98Z</time></trkpt><trkpt lat="45.3723833" lon="8.9946633"><ele>111.0</ele><time>2026-04-18T13:58:57.98Z</time></trkpt><trkpt lat="45.3724467" lon="8.99476"><ele>111.0</ele><time>2026-04-18T13:58:58.98Z</time></trkpt><trkpt lat="45.3725117" lon="8.99487"><ele>111.0</ele><time>2026-04-18T13:58:59.98Z</time></trkpt><trkpt lat="45.3725617" lon="8.9949833"><ele>111.0</ele><time>2026-04-18T13:59:00.98Z</time></trkpt><trkpt lat="45.372585" lon="8.995085"><ele>111.0</ele><time>2026-04-18T13:59:01.98Z</time></trkpt><trkpt lat="45.3726083" lon="8.9951767"><ele>111.0</ele><time>2026-04-18T13:59:02.98Z</time></trkpt><trkpt lat="45.37268" lon="8.9952617"><ele>111.0</ele><time>2026-04-18T13:59:04.98Z</time></trkpt><trkpt lat="45.3727433" lon="8.9952583"><ele>111.0</ele><time>2026-04-18T13:59:05.98Z</time></trkpt><trkpt lat="45.372825" lon="8.99523"><ele>111.0</ele><time>2026-04-18T13:59:06.979Z</time></trkpt><trkpt lat="45.3729333" lon="8.9951983"><ele>110.75</ele><time>2026-04-18T13:59:07.979Z</time></trkpt><trkpt lat="45.3730517" lon="8.9951783"><ele>110.5</ele><time>2026-04-18T13:59:08.979Z</time></trkpt><trkpt lat="45.3731633" lon="8.995165"><ele>110.25</ele><time>2026-04-18T13:59:09.979Z</time></trkpt><trkpt lat="45.3732783" lon="8.9951483"><ele>110.0</ele><time>2026-04-18T13:59:10.979Z</time></trkpt><trkpt lat="45.3733967" lon="8.99513"><ele>110.0</ele><time>2026-04-18T13:59:11.979Z</time></trkpt><trkpt lat="45.3735133" lon="8.9951217"><ele>110.0</ele><time>2026-04-18T13:59:12.979Z</time></trkpt><trkpt lat="45.3736167" lon="8.9951017"><ele>110.0</ele><time>2026-04-18T13:59:13.98Z</time></trkpt><trkpt lat="45.3737117" lon="8.99509"><ele>110.0</ele><time>2026-04-18T13:59:14.979Z</time></trkpt><trkpt lat="45.3738117" lon="8.9951033"><ele>110.0</ele><time>2026-04-18T13:59:15.979Z</time></trkpt><trkpt lat="45.3739033" lon="8.9951383"><ele>110.2</ele><time>2026-04-18T13:59:16.979Z</time></trkpt><trkpt lat="45.373985" lon="8.9951883"><ele>110.4</ele><time>2026-04-18T13:59:17.979Z</time></trkpt><trkpt lat="45.37405" lon="8.9952833"><ele>110.6</ele><time>2026-04-18T13:59:18.979Z</time></trkpt><trkpt lat="45.3740883" lon="8.9954217"><ele>110.8</ele><time>2026-04-18T13:59:19.979Z</time></trkpt><trkpt lat="45.37411" lon="8.9955617"><ele>111.0</ele><time>2026-04-18T13:59:20.979Z</time></trkpt><trkpt lat="45.3741217" lon="8.9956933"><ele>111.0</ele><time>2026-04-18T13:59:21.979Z</time></trkpt><trkpt lat="45.374135" lon="8.9958017"><ele>111.0</ele><time>2026-04-18T13:59:22.979Z</time></trkpt><trkpt lat="45.3741483" lon="8.9958967"><ele>111.0</ele><time>2026-04-18T13:59:23.979Z</time></trkpt><trkpt lat="45.3741583" lon="8.9960517"><ele>111.0</ele><time>2026-04-18T13:59:25.979Z</time></trkpt><trkpt lat="45.3741767" lon="8.99621"><ele>111.0</ele><time>2026-04-18T13:59:27.979Z</time></trkpt><trkpt lat="45.3741967" lon="8.996395"><ele>110.83333333333333</ele><time>2026-04-18T13:59:29.979Z</time></trkpt><trkpt lat="45.3742033" lon="8.9964883"><ele>110.66666666666666</ele><time>2026-04-18T13:59:30.979Z</time></trkpt><trkpt lat="45.3742133" lon="8.9965817"><ele>110.5</ele><time>2026-04-18T13:59:31.979Z</time></trkpt><trkpt lat="45.3742283" lon="8.99673"><ele>110.33333333333333</ele><time>2026-04-18T13:59:33.979Z</time></trkpt><trkpt lat="45.3742517" lon="8.9968783"><ele>110.16666666666666</ele><time>2026-04-18T13:59:35.979Z</time></trkpt><trkpt lat="45.374265" lon="8.99701"><ele>110.0</ele><time>2026-04-18T13:59:37.979Z</time></trkpt><trkpt lat="45.3742817" lon="8.997145"><ele>109.8</ele><time>2026-04-18T13:59:39.979Z</time></trkpt><trkpt lat="45.3742883" lon="8.9972767"><ele>109.6</ele><time>2026-04-18T13:59:41.979Z</time></trkpt><trkpt lat="45.374305" lon="8.9974233"><ele>109.4</ele><time>2026-04-18T13:59:43.979Z</time></trkpt><trkpt lat="45.3743183" lon="8.997595"><ele>109.2</ele><time>2026-04-18T13:59:45.979Z</time></trkpt><trkpt lat="45.374335" lon="8.997745"><ele>109.0</ele><time>2026-04-18T13:59:47.98Z</time></trkpt><trkpt lat="45.3743533" lon="8.997865"><ele>109.00000000000001</ele><time>2026-04-18T13:59:49.98Z</time></trkpt><trkpt lat="45.3743733" lon="8.99798"><ele>109.0</ele><time>2026-04-18T13:59:51.979Z</time></trkpt><trkpt lat="45.3743967" lon="8.9981233"><ele>109.0</ele><time>2026-04-18T13:59:53.979Z</time></trkpt><trkpt lat="45.3744117" lon="8.998225"><ele>109.0</ele><time>2026-04-18T13:59:54.979Z</time></trkpt><trkpt lat="45.37443" lon="8.9983433"><ele>109.00000000000001</ele><time>2026-04-18T13:59:55.979Z</time></trkpt><trkpt lat="45.3744483" lon="8.9984667"><ele>109.0</ele><time>2026-04-18T13:59:56.98Z</time></trkpt><trkpt lat="45.3744717" lon="8.9985867"><ele>109.4</ele><time>2026-04-18T13:59:57.979Z</time></trkpt><trkpt lat="45.3744983" lon="8.9987083"><ele>109.80000000000001</ele><time>2026-04-18T13:59:58.979Z</time></trkpt><trkpt lat="45.3745133" lon="8.998845"><ele>110.19999999999999</ele><time>2026-04-18T13:59:59.979Z</time></trkpt><trkpt lat="45.3745383" lon="8.9989917"><ele>110.6</ele><time>2026-04-18T14:00:00.98Z</time></trkpt><trkpt lat="45.3745633" lon="8.9991267"><ele>111.0</ele><time>2026-04-18T14:00:01.979Z</time></trkpt><trkpt lat="45.3745867" lon="8.999245"><ele>111.0</ele><time>2026-04-18T14:00:02.979Z</time></trkpt><trkpt lat="45.3746017" lon="8.999365"><ele>111.0</ele><time>2026-04-18T14:00:03.979Z</time></trkpt><trkpt lat="45.3746233" lon="8.99947"><ele>111.0</ele><time>2026-04-18T14:00:04.979Z</time></trkpt><trkpt lat="45.374645" lon="8.9995633"><ele>111.0</ele><time>2026-04-18T14:00:05.979Z</time></trkpt><trkpt lat="45.37466" lon="8.9996617"><ele>111.0</ele><time>2026-04-18T14:00:06.979Z</time></trkpt><trkpt lat="45.3746733" lon="8.999755"><ele>111.0</ele><time>2026-04-18T14:00:07.979Z</time></trkpt><trkpt lat="45.3746883" lon="8.9998567"><ele>111.0</ele><time>2026-04-18T14:00:08.98Z</time></trkpt><trkpt lat="45.3747067" lon="8.9999683"><ele>110.6</ele><time>2026-04-18T14:00:09.98Z</time></trkpt><trkpt lat="45.3747333" lon="9.0000917"><ele>110.19999999999999</ele><time>2026-04-18T14:00:10.979Z</time></trkpt><trkpt lat="45.3747567" lon="9.0002233"><ele>109.80000000000001</ele><time>2026-04-18T14:00:11.979Z</time></trkpt><trkpt lat="45.3747783" lon="9.000365"><ele>109.4</ele><time>2026-04-18T14:00:12.979Z</time></trkpt><trkpt lat="45.3748017" lon="9.0005117"><ele>109.0</ele><time>2026-04-18T14:00:13.979Z</time></trkpt><trkpt lat="45.3748267" lon="9.0006617"><ele>109.0</ele><time>2026-04-18T14:00:14.979Z</time></trkpt><trkpt lat="45.3748533" lon="9.00079"><ele>109.0</ele><time>2026-04-18T14:00:15.979Z</time></trkpt><trkpt lat="45.3748883" lon="9.0009183"><ele>109.0</ele><time>2026-04-18T14:00:16.98Z</time></trkpt><trkpt lat="45.374925" lon="9.0010333"><ele>109.0</ele><time>2026-04-18T14:00:17.979Z</time></trkpt><trkpt lat="45.374965" lon="9.00115"><ele>109.0</ele><time>2026-04-18T14:00:18.979Z</time></trkpt><trkpt lat="45.3750167" lon="9.0012633"><ele>109.0</ele><time>2026-04-18T14:00:19.979Z</time></trkpt><trkpt lat="45.3750633" lon="9.0013833"><ele>109.0</ele><time>2026-04-18T14:00:20.979Z</time></trkpt><trkpt lat="45.3751183" lon="9.001505"><ele>109.0</ele><time>2026-04-18T14:00:21.979Z</time></trkpt><trkpt lat="45.3751733" lon="9.00163"><ele>109.0</ele><time>2026-04-18T14:00:22.979Z</time></trkpt><trkpt lat="45.375225" lon="9.0017533"><ele>109.0</ele><time>2026-04-18T14:00:23.979Z</time></trkpt><trkpt lat="45.3752767" lon="9.0018933"><ele>109.0</ele><time>2026-04-18T14:00:24.979Z</time></trkpt><trkpt lat="45.37533" lon="9.0020317"><ele>109.0</ele><time>2026-04-18T14:00:25.979Z</time></trkpt><trkpt lat="45.375385" lon="9.0021817"><ele>109.0</ele><time>2026-04-18T14:00:26.979Z</time></trkpt><trkpt lat="45.375445" lon="9.0023117"><ele>109.0</ele><time>2026-04-18T14:00:27.979Z</time></trkpt><trkpt lat="45.3755017" lon="9.0024417"><ele>109.0</ele><time>2026-04-18T14:00:28.979Z</time></trkpt><trkpt lat="45.3755517" lon="9.0025517"><ele>109.2</ele><time>2026-04-18T14:00:29.979Z</time></trkpt><trkpt lat="45.3755983" lon="9.0026617"><ele>109.4</ele><time>2026-04-18T14:00:30.979Z</time></trkpt><trkpt lat="45.3756483" lon="9.002765"><ele>109.6</ele><time>2026-04-18T14:00:31.979Z</time></trkpt><trkpt lat="45.3757" lon="9.00287"><ele>109.8</ele><time>2026-04-18T14:00:32.98Z</time></trkpt><trkpt lat="45.37575" lon="9.002975"><ele>110.0</ele><time>2026-04-18T14:00:33.979Z</time></trkpt><trkpt lat="45.3758083" lon="9.0030867"><ele>110.0</ele><time>2026-04-18T14:00:34.979Z</time></trkpt><trkpt lat="45.3758683" lon="9.0032133"><ele>110.0</ele><time>2026-04-18T14:00:35.98Z</time></trkpt><trkpt lat="45.3759367" lon="9.0033367"><ele>110.0</ele><time>2026-04-18T14:00:36.979Z</time></trkpt><trkpt lat="45.37601" lon="9.0034633"><ele>110.0</ele><time>2026-04-18T14:00:37.979Z</time></trkpt><trkpt lat="45.3760817" lon="9.0035917"><ele>110.0</ele><time>2026-04-18T14:00:38.979Z</time></trkpt><trkpt lat="45.3761433" lon="9.0037233"><ele>110.0</ele><time>2026-04-18T14:00:39.979Z</time></trkpt><trkpt lat="45.3762033" lon="9.0038483"><ele>110.0</ele><time>2026-04-18T14:00:40.979Z</time></trkpt><trkpt lat="45.376265" lon="9.0039617"><ele>110.0</ele><time>2026-04-18T14:00:41.979Z</time></trkpt><trkpt lat="45.3763367" lon="9.0040767"><ele>110.0</ele><time>2026-04-18T14:00:42.979Z</time></trkpt><trkpt lat="45.3763983" lon="9.0041883"><ele>110.0</ele><time>2026-04-18T14:00:43.979Z</time></trkpt><trkpt lat="45.3764567" lon="9.0042983"><ele>110.0</ele><time>2026-04-18T14:00:44.979Z</time></trkpt><trkpt lat="45.3765217" lon="9.004415"><ele>110.0</ele><time>2026-04-18T14:00:45.979Z</time></trkpt><trkpt lat="45.3765733" lon="9.00453"><ele>110.0</ele><time>2026-04-18T14:00:46.979Z</time></trkpt><trkpt lat="45.3766233" lon="9.0046433"><ele>110.0</ele><time>2026-04-18T14:00:47.979Z</time></trkpt><trkpt lat="45.37667" lon="9.0047567"><ele>110.0</ele><time>2026-04-18T14:00:48.979Z</time></trkpt><trkpt lat="45.3767233" lon="9.0048583"><ele>109.99999999999999</ele><time>2026-04-18T14:00:49.979Z</time></trkpt><trkpt lat="45.376765" lon="9.0049617"><ele>110.0</ele><time>2026-04-18T14:00:50.979Z</time></trkpt><trkpt lat="45.3767917" lon="9.0050667"><ele>110.0</ele><time>2026-04-18T14:00:51.979Z</time></trkpt><trkpt lat="45.3768083" lon="9.0051583"><ele>110.0</ele><time>2026-04-18T14:00:52.979Z</time></trkpt><trkpt lat="45.3768233" lon="9.005265"><ele>109.99999999999999</ele><time>2026-04-18T14:00:53.979Z</time></trkpt><trkpt lat="45.3768483" lon="9.0053683"><ele>110.0</ele><time>2026-04-18T14:00:54.979Z</time></trkpt><trkpt lat="45.3768883" lon="9.0054633"><ele>109.8</ele><time>2026-04-18T14:00:55.979Z</time></trkpt><trkpt lat="45.376955" lon="9.005535"><ele>109.6</ele><time>2026-04-18T14:00:56.979Z</time></trkpt><trkpt lat="45.3770383" lon="9.0056033"><ele>109.4</ele><time>2026-04-18T14:00:57.979Z</time></trkpt><trkpt lat="45.3771183" lon="9.005685"><ele>109.2</ele><time>2026-04-18T14:00:58.979Z</time></trkpt><trkpt lat="45.3771867" lon="9.0058067"><ele>109.0</ele><time>2026-04-18T14:00:59.979Z</time></trkpt><trkpt lat="45.377245" lon="9.0059583"><ele>109.5</ele><time>2026-04-18T14:01:00.979Z</time></trkpt><trkpt lat="45.3772833" lon="9.0061333"><ele>110.0</ele><time>2026-04-18T14:01:01.979Z</time></trkpt><trkpt lat="45.3773067" lon="9.0063317"><ele>110.5</ele><time>2026-04-18T14:01:02.979Z</time></trkpt><trkpt lat="45.3773083" lon="9.0065417"><ele>111.0</ele><time>2026-04-18T14:01:03.979Z</time></trkpt><trkpt lat="45.3773033" lon="9.0067533"><ele>111.0</ele><time>2026-04-18T14:01:04.979Z</time></trkpt><trkpt lat="45.3772767" lon="9.0069733"><ele>111.0</ele><time>2026-04-18T14:01:05.979Z</time></trkpt><trkpt lat="45.3772367" lon="9.007195"><ele>111.0</ele><time>2026-04-18T14:01:06.979Z</time></trkpt><trkpt lat="45.3771917" lon="9.007415"><ele>109.66666666666666</ele><time>2026-04-18T14:01:07.979Z</time></trkpt><trkpt lat="45.377145" lon="9.0076433"><ele>108.33333333333333</ele><time>2026-04-18T14:01:08.979Z</time></trkpt><trkpt lat="45.3771" lon="9.0078683"><ele>107.0</ele><time>2026-04-18T14:01:09.979Z</time></trkpt><trkpt lat="45.377055" lon="9.0080983"><ele>107.0</ele><time>2026-04-18T14:01:10.979Z</time></trkpt><trkpt lat="45.3770067" lon="9.008325"><ele>107.0</ele><time>2026-04-18T14:01:11.979Z</time></trkpt><trkpt lat="45.3769683" lon="9.0085417"><ele>107.0</ele><time>2026-04-18T14:01:12.979Z</time></trkpt><trkpt lat="45.3769267" lon="9.008755"><ele>107.33333333333333</ele><time>2026-04-18T14:01:13.979Z</time></trkpt><trkpt lat="45.3768833" lon="9.0089683"><ele>107.66666666666666</ele><time>2026-04-18T14:01:14.979Z</time></trkpt><trkpt lat="45.3768433" lon="9.0091867"><ele>108.0</ele><time>2026-04-18T14:01:15.979Z</time></trkpt><trkpt lat="45.3767983" lon="9.0094033"><ele>108.0</ele><time>2026-04-18T14:01:16.979Z</time></trkpt><trkpt lat="45.37676" lon="9.0096267"><ele>108.0</ele><time>2026-04-18T14:01:17.979Z</time></trkpt><trkpt lat="45.3767367" lon="9.0098483"><ele>108.0</ele><time>2026-04-18T14:01:18.979Z</time></trkpt><trkpt lat="45.3767267" lon="9.010075"><ele>108.33333333333334</ele><time>2026-04-18T14:01:19.979Z</time></trkpt><trkpt lat="45.3767167" lon="9.0103033"><ele>108.66666666666667</ele><time>2026-04-18T14:01:20.979Z</time></trkpt><trkpt lat="45.37672" lon="9.0105283"><ele>109.0</ele><time>2026-04-18T14:01:21.979Z</time></trkpt><trkpt lat="45.37674" lon="9.0107633"><ele>109.0</ele><time>2026-04-18T14:01:22.979Z</time></trkpt><trkpt lat="45.376765" lon="9.0109933"><ele>109.0</ele><time>2026-04-18T14:01:23.979Z</time></trkpt><trkpt lat="45.3768033" lon="9.0112117"><ele>109.0</ele><time>2026-04-18T14:01:24.979Z</time></trkpt><trkpt lat="45.3768433" lon="9.011435"><ele>109.0</ele><time>2026-04-18T14:01:25.979Z</time></trkpt><trkpt lat="45.3768967" lon="9.0116483"><ele>109.0</ele><time>2026-04-18T14:01:26.98Z</time></trkpt><trkpt lat="45.3769667" lon="9.0118683"><ele>109.0</ele><time>2026-04-18T14:01:27.979Z</time></trkpt><trkpt lat="45.3770483" lon="9.0120983"><ele>109.33333333333334</ele><time>2026-04-18T14:01:28.979Z</time></trkpt><trkpt lat="45.37713" lon="9.0123233"><ele>109.66666666666666</ele><time>2026-04-18T14:01:29.979Z</time></trkpt><trkpt lat="45.37722" lon="9.0125483"><ele>110.0</ele><time>2026-04-18T14:01:30.979Z</time></trkpt><trkpt lat="45.3773067" lon="9.0127733"><ele>109.66666666666666</ele><time>2026-04-18T14:01:31.979Z</time></trkpt><trkpt lat="45.377385" lon="9.0130033"><ele>109.33333333333334</ele><time>2026-04-18T14:01:32.979Z</time></trkpt><trkpt lat="45.3774667" lon="9.0132167"><ele>109.0</ele><time>2026-04-18T14:01:33.979Z</time></trkpt><trkpt lat="45.37754" lon="9.0134283"><ele>109.0</ele><time>2026-04-18T14:01:34.979Z</time></trkpt><trkpt lat="45.3776083" lon="9.013625"><ele>109.0</ele><time>2026-04-18T14:01:35.979Z</time></trkpt><trkpt lat="45.37768" lon="9.013815"><ele>109.0</ele><time>2026-04-18T14:01:36.979Z</time></trkpt><trkpt lat="45.3777517" lon="9.0140183"><ele>109.0</ele><time>2026-04-18T14:01:37.979Z</time></trkpt><trkpt lat="45.377825" lon="9.0142133"><ele>109.0</ele><time>2026-04-18T14:01:38.979Z</time></trkpt><trkpt lat="45.3778933" lon="9.0144017"><ele>109.0</ele><time>2026-04-18T14:01:39.979Z</time></trkpt><trkpt lat="45.3779483" lon="9.014585"><ele>109.0</ele><time>2026-04-18T14:01:40.979Z</time></trkpt><trkpt lat="45.3779883" lon="9.0147833"><ele>108.33333333333334</ele><time>2026-04-18T14:01:41.979Z</time></trkpt><trkpt lat="45.3780217" lon="9.01499"><ele>107.66666666666666</ele><time>2026-04-18T14:01:42.979Z</time></trkpt><trkpt lat="45.3780367" lon="9.0152167"><ele>107.0</ele><time>2026-04-18T14:01:43.979Z</time></trkpt><trkpt lat="45.3780467" lon="9.015445"><ele>107.0</ele><time>2026-04-18T14:01:44.979Z</time></trkpt><trkpt lat="45.378045" lon="9.0156683"><ele>107.0</ele><time>2026-04-18T14:01:45.979Z</time></trkpt><trkpt lat="45.37805" lon="9.0159017"><ele>107.0</ele><time>2026-04-18T14:01:46.98Z</time></trkpt><trkpt lat="45.378055" lon="9.0161333"><ele>107.66666666666666</ele><time>2026-04-18T14:01:47.979Z</time></trkpt><trkpt lat="45.37806" lon="9.01635"><ele>108.33333333333334</ele><time>2026-04-18T14:01:48.979Z</time></trkpt><trkpt lat="45.3780783" lon="9.01657"><ele>109.0</ele><time>2026-04-18T14:01:49.979Z</time></trkpt><trkpt lat="45.3781017" lon="9.0167983"><ele>109.0</ele><time>2026-04-18T14:01:50.979Z</time></trkpt><trkpt lat="45.3781367" lon="9.0170333"><ele>109.0</ele><time>2026-04-18T14:01:51.979Z</time></trkpt><trkpt lat="45.3781783" lon="9.0172667"><ele>109.0</ele><time>2026-04-18T14:01:52.979Z</time></trkpt><trkpt lat="45.3782233" lon="9.0175"><ele>109.33333333333334</ele><time>2026-04-18T14:01:53.979Z</time></trkpt><trkpt lat="45.378265" lon="9.017735"><ele>109.66666666666666</ele><time>2026-04-18T14:01:54.98Z</time></trkpt><trkpt lat="45.3783083" lon="9.0179617"><ele>110.0</ele><time>2026-04-18T14:01:55.979Z</time></trkpt><trkpt lat="45.3783567" lon="9.0181833"><ele>109.0</ele><time>2026-04-18T14:01:56.979Z</time></trkpt><trkpt lat="45.3784" lon="9.018405"><ele>108.0</ele><time>2026-04-18T14:01:57.979Z</time></trkpt><trkpt lat="45.3784367" lon="9.0186333"><ele>107.0</ele><time>2026-04-18T14:01:58.979Z</time></trkpt><trkpt lat="45.3784817" lon="9.0188683"><ele>107.0</ele><time>2026-04-18T14:01:59.979Z</time></trkpt><trkpt lat="45.3785283" lon="9.0190967"><ele>107.0</ele><time>2026-04-18T14:02:00.979Z</time></trkpt><trkpt lat="45.3785767" lon="9.0193217"><ele>107.0</ele><time>2026-04-18T14:02:01.979Z</time></trkpt><trkpt lat="45.3786133" lon="9.0195483"><ele>107.0</ele><time>2026-04-18T14:02:02.979Z</time></trkpt><trkpt lat="45.3786483" lon="9.0197667"><ele>107.0</ele><time>2026-04-18T14:02:03.979Z</time></trkpt><trkpt lat="45.37869" lon="9.0199883"><ele>107.0</ele><time>2026-04-18T14:02:04.979Z</time></trkpt><trkpt lat="45.3787283" lon="9.020205"><ele>107.0</ele><time>2026-04-18T14:02:05.979Z</time></trkpt><trkpt lat="45.3787683" lon="9.0204183"><ele>107.0</ele><time>2026-04-18T14:02:06.979Z</time></trkpt><trkpt lat="45.3788083" lon="9.02063"><ele>107.0</ele><time>2026-04-18T14:02:07.979Z</time></trkpt><trkpt lat="45.3788467" lon="9.020845"><ele>107.33333333333333</ele><time>2026-04-18T14:02:08.979Z</time></trkpt><trkpt lat="45.378885" lon="9.0210567"><ele>107.66666666666666</ele><time>2026-04-18T14:02:09.98Z</time></trkpt><trkpt lat="45.3789217" lon="9.0212717"><ele>108.0</ele><time>2026-04-18T14:02:10.979Z</time></trkpt><trkpt lat="45.378955" lon="9.0214933"><ele>108.66666666666666</ele><time>2026-04-18T14:02:11.979Z</time></trkpt><trkpt lat="45.3789883" lon="9.021705"><ele>109.33333333333333</ele><time>2026-04-18T14:02:12.979Z</time></trkpt><trkpt lat="45.3790133" lon="9.02192"><ele>110.0</ele><time>2026-04-18T14:02:13.979Z</time></trkpt><trkpt lat="45.379035" lon="9.0221383"><ele>110.0</ele><time>2026-04-18T14:02:14.979Z</time></trkpt><trkpt lat="45.3790567" lon="9.0223633"><ele>110.0</ele><time>2026-04-18T14:02:15.979Z</time></trkpt><trkpt lat="45.3790817" lon="9.02257"><ele>110.0</ele><time>2026-04-18T14:02:16.979Z</time></trkpt><trkpt lat="45.3791083" lon="9.0227633"><ele>110.0</ele><time>2026-04-18T14:02:17.979Z</time></trkpt><trkpt lat="45.379125" lon="9.0229317"><ele>110.0</ele><time>2026-04-18T14:02:18.979Z</time></trkpt><trkpt lat="45.3791383" lon="9.0230817"><ele>110.0</ele><time>2026-04-18T14:02:19.979Z</time></trkpt><trkpt lat="45.37915" lon="9.023225"><ele>110.0</ele><time>2026-04-18T14:02:20.979Z</time></trkpt><trkpt lat="45.37916" lon="9.0233517"><ele>110.0</ele><time>2026-04-18T14:02:21.979Z</time></trkpt><trkpt lat="45.3791733" lon="9.02347"><ele>110.0</ele><time>2026-04-18T14:02:22.979Z</time></trkpt><trkpt lat="45.3791817" lon="9.0235767"><ele>109.6</ele><time>2026-04-18T14:02:23.979Z</time></trkpt><trkpt lat="45.37918" lon="9.0236667"><ele>109.2</ele><time>2026-04-18T14:02:24.98Z</time></trkpt><trkpt lat="45.37918" lon="9.0237583"><ele>108.80000000000001</ele><time>2026-04-18T14:02:26.98Z</time></trkpt><trkpt lat="45.3792383" lon="9.0238417"><ele>108.4</ele><time>2026-04-18T14:02:29.979Z</time></trkpt><trkpt lat="45.3793817" lon="9.0238917"><ele>108.0</ele><time>2026-04-18T14:02:31.979Z</time></trkpt><trkpt lat="45.3794767" lon="9.023925"><ele>108.0</ele><time>2026-04-18T14:02:32.979Z</time></trkpt><trkpt lat="45.37957" lon="9.0239683"><ele>108.00000000000001</ele><time>2026-04-18T14:02:33.979Z</time></trkpt><trkpt lat="45.3796583" lon="9.0240233"><ele>108.00000000000001</ele><time>2026-04-18T14:02:34.979Z</time></trkpt><trkpt lat="45.37973" lon="9.02408"><ele>108.0</ele><time>2026-04-18T14:02:35.98Z</time></trkpt><trkpt lat="45.37983" lon="9.02415"><ele>108.0</ele><time>2026-04-18T14:02:37.979Z</time></trkpt><trkpt lat="45.3799467" lon="9.0242433"><ele>108.4</ele><time>2026-04-18T14:02:39.979Z</time></trkpt><trkpt lat="45.38002" lon="9.0243117"><ele>108.80000000000001</ele><time>2026-04-18T14:02:40.979Z</time></trkpt><trkpt lat="45.3801083" lon="9.02439"><ele>109.2</ele><time>2026-04-18T14:02:41.979Z</time></trkpt><trkpt lat="45.380205" lon="9.0244633"><ele>109.6</ele><time>2026-04-18T14:02:42.979Z</time></trkpt><trkpt lat="45.3802933" lon="9.0245367"><ele>110.0</ele><time>2026-04-18T14:02:43.979Z</time></trkpt><trkpt lat="45.3803867" lon="9.0246183"><ele>110.0</ele><time>2026-04-18T14:02:44.979Z</time></trkpt><trkpt lat="45.3804767" lon="9.0247083"><ele>110.0</ele><time>2026-04-18T14:02:45.979Z</time></trkpt><trkpt lat="45.3805817" lon="9.0247933"><ele>110.0</ele><time>2026-04-18T14:02:46.979Z</time></trkpt><trkpt lat="45.3806917" lon="9.0248783"><ele>110.0</ele><time>2026-04-18T14:02:47.979Z</time></trkpt><trkpt lat="45.3808067" lon="9.024965"><ele>109.75</ele><time>2026-04-18T14:02:48.979Z</time></trkpt><trkpt lat="45.3809133" lon="9.0250667"><ele>109.5</ele><time>2026-04-18T14:02:49.979Z</time></trkpt><trkpt lat="45.3810233" lon="9.0251533"><ele>109.25</ele><time>2026-04-18T14:02:50.979Z</time></trkpt><trkpt lat="45.381135" lon="9.0252467"><ele>109.0</ele><time>2026-04-18T14:02:51.979Z</time></trkpt><trkpt lat="45.381245" lon="9.0253383"><ele>109.0</ele><time>2026-04-18T14:02:52.979Z</time></trkpt><trkpt lat="45.3813617" lon="9.02544"><ele>109.0</ele><time>2026-04-18T14:02:53.979Z</time></trkpt><trkpt lat="45.3814783" lon="9.025535"><ele>109.0</ele><time>2026-04-18T14:02:54.979Z</time></trkpt><trkpt lat="45.3815917" lon="9.0256367"><ele>109.0</ele><time>2026-04-18T14:02:55.979Z</time></trkpt><trkpt lat="45.3817183" lon="9.0257333"><ele>109.0</ele><time>2026-04-18T14:02:56.979Z</time></trkpt><trkpt lat="45.3818567" lon="9.0257933"><ele>109.0</ele><time>2026-04-18T14:02:57.979Z</time></trkpt><trkpt lat="45.381995" lon="9.0258467"><ele>109.0</ele><time>2026-04-18T14:02:58.979Z</time></trkpt><trkpt lat="45.38213" lon="9.0258867"><ele>109.0</ele><time>2026-04-18T14:02:59.979Z</time></trkpt><trkpt lat="45.3822717" lon="9.0259283"><ele>108.75</ele><time>2026-04-18T14:03:00.98Z</time></trkpt><trkpt lat="45.3824083" lon="9.0259633"><ele>108.5</ele><time>2026-04-18T14:03:01.979Z</time></trkpt><trkpt lat="45.382545" lon="9.0260117"><ele>108.25</ele><time>2026-04-18T14:03:02.979Z</time></trkpt><trkpt lat="45.3826833" lon="9.0260633"><ele>108.0</ele><time>2026-04-18T14:03:03.979Z</time></trkpt><trkpt lat="45.3828267" lon="9.0261033"><ele>108.0</ele><time>2026-04-18T14:03:04.979Z</time></trkpt><trkpt lat="45.38297" lon="9.026145"><ele>108.0</ele><time>2026-04-18T14:03:05.979Z</time></trkpt><trkpt lat="45.3831067" lon="9.0261917"><ele>108.0</ele><time>2026-04-18T14:03:06.979Z</time></trkpt><trkpt lat="45.3832483" lon="9.0262283"><ele>108.0</ele><time>2026-04-18T14:03:07.979Z</time></trkpt><trkpt lat="45.38338" lon="9.0262667"><ele>108.0</ele><time>2026-04-18T14:03:08.979Z</time></trkpt><trkpt lat="45.383515" lon="9.026305"><ele>108.0</ele><time>2026-04-18T14:03:09.979Z</time></trkpt><trkpt lat="45.383655" lon="9.0263417"><ele>108.0</ele><time>2026-04-18T14:03:10.979Z</time></trkpt><trkpt lat="45.3837867" lon="9.0263783"><ele>108.0</ele><time>2026-04-18T14:03:11.979Z</time></trkpt><trkpt lat="45.3839133" lon="9.0264167"><ele>108.0</ele><time>2026-04-18T14:03:12.979Z</time></trkpt><trkpt lat="45.384035" lon="9.0264483"><ele>108.0</ele><time>2026-04-18T14:03:13.979Z</time></trkpt><trkpt lat="45.3841517" lon="9.0264867"><ele>108.0</ele><time>2026-04-18T14:03:14.979Z</time></trkpt><trkpt lat="45.3842783" lon="9.02653"><ele>108.0</ele><time>2026-04-18T14:03:15.979Z</time></trkpt><trkpt lat="45.38441" lon="9.0265783"><ele>108.0</ele><time>2026-04-18T14:03:16.979Z</time></trkpt><trkpt lat="45.3845417" lon="9.026625"><ele>108.0</ele><time>2026-04-18T14:03:17.979Z</time></trkpt><trkpt lat="45.38469" lon="9.02667"><ele>108.0</ele><time>2026-04-18T14:03:18.979Z</time></trkpt><trkpt lat="45.38484" lon="9.0267083"><ele>108.0</ele><time>2026-04-18T14:03:19.979Z</time></trkpt><trkpt lat="45.3849983" lon="9.0267433"><ele>108.66666666666666</ele><time>2026-04-18T14:03:20.979Z</time></trkpt><trkpt lat="45.3851567" lon="9.02679"><ele>109.33333333333333</ele><time>2026-04-18T14:03:21.979Z</time></trkpt><trkpt lat="45.3852983" lon="9.0268333"><ele>110.0</ele><time>2026-04-18T14:03:22.979Z</time></trkpt><trkpt lat="45.3854467" lon="9.0268767"><ele>109.5</ele><time>2026-04-18T14:03:23.979Z</time></trkpt><trkpt lat="45.385585" lon="9.0269233"><ele>109.0</ele><time>2026-04-18T14:03:24.979Z</time></trkpt><trkpt lat="45.3857233" lon="9.0269617"><ele>108.5</ele><time>2026-04-18T14:03:25.979Z</time></trkpt><trkpt lat="45.3858617" lon="9.026995"><ele>108.0</ele><time>2026-04-18T14:03:26.979Z</time></trkpt><trkpt lat="45.3859883" lon="9.0270367"><ele>108.0</ele><time>2026-04-18T14:03:27.979Z</time></trkpt><trkpt lat="45.3861233" lon="9.02707"><ele>108.0</ele><time>2026-04-18T14:03:28.979Z</time></trkpt><trkpt lat="45.3862483" lon="9.0271017"><ele>108.0</ele><time>2026-04-18T14:03:29.979Z</time></trkpt><trkpt lat="45.386355" lon="9.0271383"><ele>108.0</ele><time>2026-04-18T14:03:30.979Z</time></trkpt><trkpt lat="45.3864583" lon="9.02717"><ele>108.33333333333333</ele><time>2026-04-18T14:03:31.979Z</time></trkpt><trkpt lat="45.3865417" lon="9.02721"><ele>108.66666666666666</ele><time>2026-04-18T14:03:32.979Z</time></trkpt><trkpt lat="45.3866167" lon="9.027255"><ele>109.0</ele><time>2026-04-18T14:03:33.979Z</time></trkpt><trkpt lat="45.3866833" lon="9.02731"><ele>109.33333333333333</ele><time>2026-04-18T14:03:34.979Z</time></trkpt><trkpt lat="45.3867283" lon="9.0273767"><ele>109.66666666666666</ele><time>2026-04-18T14:03:35.979Z</time></trkpt><trkpt lat="45.3867367" lon="9.0275133"><ele>110.0</ele><time>2026-04-18T14:03:37.979Z</time></trkpt><trkpt lat="45.3867467" lon="9.0276483"><ele>110.0</ele><time>2026-04-18T14:03:51.979Z</time></trkpt><trkpt lat="45.38687" lon="9.027695"><ele>110.0</ele><time>2026-04-18T14:03:53.979Z</time></trkpt><trkpt lat="45.3869583" lon="9.02769"><ele>110.0</ele><time>2026-04-18T14:03:54.979Z</time></trkpt><trkpt lat="45.3870633" lon="9.02768"><ele>110.0</ele><time>2026-04-18T14:03:55.979Z</time></trkpt><trkpt lat="45.3871733" lon="9.0276667"><ele>110.0</ele><time>2026-04-18T14:03:56.979Z</time></trkpt><trkpt lat="45.387295" lon="9.0276633"><ele>109.75</ele><time>2026-04-18T14:03:57.979Z</time></trkpt><trkpt lat="45.3874117" lon="9.0276783"><ele>109.5</ele><time>2026-04-18T14:03:58.979Z</time></trkpt><trkpt lat="45.387535" lon="9.027695"><ele>109.25</ele><time>2026-04-18T14:03:59.979Z</time></trkpt><trkpt lat="45.3876433" lon="9.0277217"><ele>109.0</ele><time>2026-04-18T14:04:00.98Z</time></trkpt><trkpt lat="45.3877567" lon="9.02775"><ele>109.0</ele><time>2026-04-18T14:04:01.979Z</time></trkpt><trkpt lat="45.387865" lon="9.027785"><ele>109.0</ele><time>2026-04-18T14:04:02.979Z</time></trkpt><trkpt lat="45.3879783" lon="9.027825"><ele>109.0</ele><time>2026-04-18T14:04:03.979Z</time></trkpt><trkpt lat="45.3880867" lon="9.0278517"><ele>109.0</ele><time>2026-04-18T14:04:04.98Z</time></trkpt><trkpt lat="45.38819" lon="9.0278783"><ele>109.0</ele><time>2026-04-18T14:04:05.979Z</time></trkpt><trkpt lat="45.3883" lon="9.02791"><ele>109.25</ele><time>2026-04-18T14:04:06.979Z</time></trkpt><trkpt lat="45.3884067" lon="9.02795"><ele>109.5</ele><time>2026-04-18T14:04:07.979Z</time></trkpt><trkpt lat="45.3885167" lon="9.0279933"><ele>109.75</ele><time>2026-04-18T14:04:08.979Z</time></trkpt><trkpt lat="45.3886333" lon="9.0280383"><ele>110.0</ele><time>2026-04-18T14:04:09.979Z</time></trkpt><trkpt lat="45.388755" lon="9.02809"><ele>109.75</ele><time>2026-04-18T14:04:10.979Z</time></trkpt><trkpt lat="45.388875" lon="9.0281467"><ele>109.5</ele><time>2026-04-18T14:04:11.979Z</time></trkpt><trkpt lat="45.389" lon="9.0282083"><ele>109.25</ele><time>2026-04-18T14:04:12.979Z</time></trkpt><trkpt lat="45.3891333" lon="9.0282667"><ele>109.0</ele><time>2026-04-18T14:04:13.979Z</time></trkpt><trkpt lat="45.3892617" lon="9.02835"><ele>109.0</ele><time>2026-04-18T14:04:14.979Z</time></trkpt><trkpt lat="45.3893867" lon="9.0284383"><ele>109.0</ele><time>2026-04-18T14:04:15.979Z</time></trkpt><trkpt lat="45.3895117" lon="9.0285433"><ele>109.0</ele><time>2026-04-18T14:04:16.979Z</time></trkpt><trkpt lat="45.38964" lon="9.0286517"><ele>109.0</ele><time>2026-04-18T14:04:17.979Z</time></trkpt><trkpt lat="45.38976" lon="9.0287667"><ele>109.0</ele><time>2026-04-18T14:04:18.98Z</time></trkpt><trkpt lat="45.38988" lon="9.0288933"><ele>109.0</ele><time>2026-04-18T14:04:19.979Z</time></trkpt><trkpt lat="45.3900017" lon="9.0290317"><ele>109.0</ele><time>2026-04-18T14:04:20.98Z</time></trkpt><trkpt lat="45.3901233" lon="9.0291767"><ele>109.0</ele><time>2026-04-18T14:04:21.979Z</time></trkpt><trkpt lat="45.39024" lon="9.0293467"><ele>109.0</ele><time>2026-04-18T14:04:22.979Z</time></trkpt><trkpt lat="45.3903517" lon="9.02951"><ele>109.0</ele><time>2026-04-18T14:04:23.979Z</time></trkpt><trkpt lat="45.390465" lon="9.0296767"><ele>109.66666666666667</ele><time>2026-04-18T14:04:24.979Z</time></trkpt><trkpt lat="45.390575" lon="9.0298533"><ele>110.33333333333334</ele><time>2026-04-18T14:04:25.979Z</time></trkpt><trkpt lat="45.390685" lon="9.0300283"><ele>111.0</ele><time>2026-04-18T14:04:26.979Z</time></trkpt><trkpt lat="45.3907867" lon="9.0302217"><ele>111.0</ele><time>2026-04-18T14:04:27.979Z</time></trkpt><trkpt lat="45.39088" lon="9.0304167"><ele>111.0</ele><time>2026-04-18T14:04:28.979Z</time></trkpt><trkpt lat="45.3909833" lon="9.0306067"><ele>111.0</ele><time>2026-04-18T14:04:29.979Z</time></trkpt><trkpt lat="45.3910833" lon="9.030795"><ele>110.66666666666666</ele><time>2026-04-18T14:04:30.98Z</time></trkpt><trkpt lat="45.3911817" lon="9.03099"><ele>110.33333333333333</ele><time>2026-04-18T14:04:31.979Z</time></trkpt><trkpt lat="45.3912817" lon="9.031175"><ele>110.0</ele><time>2026-04-18T14:04:32.979Z</time></trkpt><trkpt lat="45.3913767" lon="9.0313667"><ele>110.0</ele><time>2026-04-18T14:04:33.979Z</time></trkpt><trkpt lat="45.391475" lon="9.0315583"><ele>110.0</ele><time>2026-04-18T14:04:34.979Z</time></trkpt><trkpt lat="45.3915783" lon="9.0317417"><ele>110.0</ele><time>2026-04-18T14:04:35.979Z</time></trkpt><trkpt lat="45.3916783" lon="9.031925"><ele>109.66666666666666</ele><time>2026-04-18T14:04:36.979Z</time></trkpt><trkpt lat="45.391775" lon="9.0321167"><ele>109.33333333333334</ele><time>2026-04-18T14:04:37.979Z</time></trkpt><trkpt lat="45.3918667" lon="9.03231"><ele>109.0</ele><time>2026-04-18T14:04:38.979Z</time></trkpt><trkpt lat="45.3919617" lon="9.0324967"><ele>109.0</ele><time>2026-04-18T14:04:39.979Z</time></trkpt><trkpt lat="45.39206" lon="9.0326883"><ele>109.0</ele><time>2026-04-18T14:04:40.979Z</time></trkpt><trkpt lat="45.39216" lon="9.03288"><ele>109.0</ele><time>2026-04-18T14:04:41.979Z</time></trkpt><trkpt lat="45.3922567" lon="9.0330633"><ele>109.33333333333334</ele><time>2026-04-18T14:04:42.979Z</time></trkpt><trkpt lat="45.392355" lon="9.0332517"><ele>109.66666666666666</ele><time>2026-04-18T14:04:43.979Z</time></trkpt><trkpt lat="45.3924583" lon="9.0334333"><ele>110.0</ele><time>2026-04-18T14:04:44.979Z</time></trkpt><trkpt lat="45.3925617" lon="9.0336317"><ele>110.0</ele><time>2026-04-18T14:04:45.979Z</time></trkpt><trkpt lat="45.39266" lon="9.0338133"><ele>110.0</ele><time>2026-04-18T14:04:46.979Z</time></trkpt><trkpt lat="45.392765" lon="9.0340033"><ele>110.0</ele><time>2026-04-18T14:04:47.98Z</time></trkpt><trkpt lat="45.3928683" lon="9.0341867"><ele>109.66666666666666</ele><time>2026-04-18T14:04:48.979Z</time></trkpt><trkpt lat="45.3929717" lon="9.0343633"><ele>109.33333333333334</ele><time>2026-04-18T14:04:49.979Z</time></trkpt><trkpt lat="45.39308" lon="9.0345283"><ele>109.0</ele><time>2026-04-18T14:04:50.979Z</time></trkpt><trkpt lat="45.3931933" lon="9.0346883"><ele>109.0</ele><time>2026-04-18T14:04:51.98Z</time></trkpt><trkpt lat="45.3933083" lon="9.034855"><ele>109.0</ele><time>2026-04-18T14:04:52.979Z</time></trkpt><trkpt lat="45.3934283" lon="9.0349917"><ele>109.0</ele><time>2026-04-18T14:04:53.979Z</time></trkpt><trkpt lat="45.3935483" lon="9.0351133"><ele>109.0</ele><time>2026-04-18T14:04:54.979Z</time></trkpt><trkpt lat="45.3936783" lon="9.03522"><ele>109.0</ele><time>2026-04-18T14:04:55.979Z</time></trkpt><trkpt lat="45.3938217" lon="9.0353133"><ele>109.0</ele><time>2026-04-18T14:04:56.98Z</time></trkpt><trkpt lat="45.393975" lon="9.0353933"><ele>109.0</ele><time>2026-04-18T14:04:57.979Z</time></trkpt><trkpt lat="45.3941383" lon="9.0354567"><ele>109.0</ele><time>2026-04-18T14:04:58.979Z</time></trkpt><trkpt lat="45.394305" lon="9.0355133"><ele>109.0</ele><time>2026-04-18T14:04:59.979Z</time></trkpt><trkpt lat="45.3944683" lon="9.035575"><ele>109.0</ele><time>2026-04-18T14:05:00.979Z</time></trkpt><trkpt lat="45.394635" lon="9.0356167"><ele>109.0</ele><time>2026-04-18T14:05:01.979Z</time></trkpt><trkpt lat="45.3948" lon="9.0356567"><ele>109.0</ele><time>2026-04-18T14:05:02.979Z</time></trkpt><trkpt lat="45.3949667" lon="9.0356967"><ele>109.0</ele><time>2026-04-18T14:05:03.979Z</time></trkpt><trkpt lat="45.395135" lon="9.0357333"><ele>109.0</ele><time>2026-04-18T14:05:04.979Z</time></trkpt><trkpt lat="45.3953083" lon="9.0357817"><ele>109.0</ele><time>2026-04-18T14:05:05.98Z</time></trkpt><trkpt lat="45.395475" lon="9.0358233"><ele>109.0</ele><time>2026-04-18T14:05:06.979Z</time></trkpt><trkpt lat="45.3956483" lon="9.0358617"><ele>109.0</ele><time>2026-04-18T14:05:07.979Z</time></trkpt><trkpt lat="45.395815" lon="9.0359083"><ele>109.0</ele><time>2026-04-18T14:05:08.979Z</time></trkpt><trkpt lat="45.39598" lon="9.0359483"><ele>109.0</ele><time>2026-04-18T14:05:09.979Z</time></trkpt><trkpt lat="45.396145" lon="9.0359967"><ele>109.0</ele><time>2026-04-18T14:05:10.979Z</time></trkpt><trkpt lat="45.3963133" lon="9.0360383"><ele>109.0</ele><time>2026-04-18T14:05:11.979Z</time></trkpt><trkpt lat="45.3964867" lon="9.0360817"><ele>110.0</ele><time>2026-04-18T14:05:12.979Z</time></trkpt><trkpt lat="45.39666" lon="9.03612"><ele>111.0</ele><time>2026-04-18T14:05:13.979Z</time></trkpt><trkpt lat="45.3968283" lon="9.0361683"><ele>112.0</ele><time>2026-04-18T14:05:14.979Z</time></trkpt><trkpt lat="45.3969983" lon="9.03622"><ele>111.33333333333334</ele><time>2026-04-18T14:05:15.979Z</time></trkpt><trkpt lat="45.39717" lon="9.0362683"><ele>110.66666666666666</ele><time>2026-04-18T14:05:16.979Z</time></trkpt><trkpt lat="45.3973533" lon="9.0363033"><ele>110.0</ele><time>2026-04-18T14:05:17.979Z</time></trkpt><trkpt lat="45.3975383" lon="9.0363467"><ele>110.0</ele><time>2026-04-18T14:05:18.979Z</time></trkpt><trkpt lat="45.39772" lon="9.0363933"><ele>110.0</ele><time>2026-04-18T14:05:19.979Z</time></trkpt><trkpt lat="45.397915" lon="9.0364417"><ele>110.0</ele><time>2026-04-18T14:05:20.979Z</time></trkpt><trkpt lat="45.3981067" lon="9.0365033"><ele>110.33333333333333</ele><time>2026-04-18T14:05:21.98Z</time></trkpt><trkpt lat="45.39831" lon="9.0365617"><ele>110.66666666666666</ele><time>2026-04-18T14:05:22.979Z</time></trkpt><trkpt lat="45.3985083" lon="9.036605"><ele>111.0</ele><time>2026-04-18T14:05:23.98Z</time></trkpt><trkpt lat="45.39871" lon="9.03665"><ele>111.0</ele><time>2026-04-18T14:05:24.979Z</time></trkpt><trkpt lat="45.3989017" lon="9.036695"><ele>111.0</ele><time>2026-04-18T14:05:25.979Z</time></trkpt><trkpt lat="45.3990867" lon="9.03674"><ele>111.0</ele><time>2026-04-18T14:05:26.979Z</time></trkpt><trkpt lat="45.3992783" lon="9.0367817"><ele>111.0</ele><time>2026-04-18T14:05:27.979Z</time></trkpt><trkpt lat="45.39946" lon="9.0368317"><ele>111.0</ele><time>2026-04-18T14:05:28.979Z</time></trkpt><trkpt lat="45.3996367" lon="9.03688"><ele>111.0</ele><time>2026-04-18T14:05:29.979Z</time></trkpt><trkpt lat="45.3998167" lon="9.036945"><ele>111.0</ele><time>2026-04-18T14:05:30.979Z</time></trkpt><trkpt lat="45.3999817" lon="9.0370133"><ele>111.0</ele><time>2026-04-18T14:05:31.979Z</time></trkpt><trkpt lat="45.4001483" lon="9.03709"><ele>111.0</ele><time>2026-04-18T14:05:32.979Z</time></trkpt><trkpt lat="45.4003133" lon="9.0371817"><ele>111.0</ele><time>2026-04-18T14:05:33.979Z</time></trkpt><trkpt lat="45.40047" lon="9.0372733"><ele>111.0</ele><time>2026-04-18T14:05:34.98Z</time></trkpt><trkpt lat="45.400625" lon="9.0373733"><ele>111.0</ele><time>2026-04-18T14:05:35.979Z</time></trkpt><trkpt lat="45.4007767" lon="9.037485"><ele>111.33333333333334</ele><time>2026-04-18T14:05:36.979Z</time></trkpt><trkpt lat="45.4009267" lon="9.0376033"><ele>111.66666666666667</ele><time>2026-04-18T14:05:37.979Z</time></trkpt><trkpt lat="45.4010817" lon="9.0377333"><ele>112.0</ele><time>2026-04-18T14:05:38.979Z</time></trkpt><trkpt lat="45.4012383" lon="9.0378717"><ele>112.0</ele><time>2026-04-18T14:05:39.979Z</time></trkpt><trkpt lat="45.4013817" lon="9.0380233"><ele>112.0</ele><time>2026-04-18T14:05:40.979Z</time></trkpt><trkpt lat="45.4015283" lon="9.0381867"><ele>112.0</ele><time>2026-04-18T14:05:41.979Z</time></trkpt><trkpt lat="45.4016683" lon="9.03835"><ele>112.33333333333334</ele><time>2026-04-18T14:05:42.979Z</time></trkpt><trkpt lat="45.4018033" lon="9.03852"><ele>112.66666666666666</ele><time>2026-04-18T14:05:43.979Z</time></trkpt><trkpt lat="45.401925" lon="9.03871"><ele>113.0</ele><time>2026-04-18T14:05:44.979Z</time></trkpt><trkpt lat="45.40204" lon="9.0389133"><ele>113.0</ele><time>2026-04-18T14:05:45.979Z</time></trkpt><trkpt lat="45.402155" lon="9.0391233"><ele>113.0</ele><time>2026-04-18T14:05:46.979Z</time></trkpt><trkpt lat="45.402265" lon="9.03934"><ele>113.0</ele><time>2026-04-18T14:05:47.979Z</time></trkpt><trkpt lat="45.4023683" lon="9.0395633"><ele>112.66666666666666</ele><time>2026-04-18T14:05:48.979Z</time></trkpt><trkpt lat="45.4024667" lon="9.0397867"><ele>112.33333333333334</ele><time>2026-04-18T14:05:49.979Z</time></trkpt><trkpt lat="45.402555" lon="9.0400167"><ele>112.0</ele><time>2026-04-18T14:05:50.98Z</time></trkpt><trkpt lat="45.40264" lon="9.040265"><ele>112.0</ele><time>2026-04-18T14:05:51.979Z</time></trkpt><trkpt lat="45.4027233" lon="9.0405117"><ele>112.0</ele><time>2026-04-18T14:05:52.979Z</time></trkpt><trkpt lat="45.4028067" lon="9.0407533"><ele>112.0</ele><time>2026-04-18T14:05:53.979Z</time></trkpt><trkpt lat="45.402885" lon="9.0409917"><ele>112.0</ele><time>2026-04-18T14:05:54.979Z</time></trkpt><trkpt lat="45.4029633" lon="9.0412367"><ele>112.0</ele><time>2026-04-18T14:05:55.979Z</time></trkpt><trkpt lat="45.40304" lon="9.0414817"><ele>112.0</ele><time>2026-04-18T14:05:56.979Z</time></trkpt><trkpt lat="45.4031067" lon="9.0417317"><ele>112.0</ele><time>2026-04-18T14:05:57.979Z</time></trkpt><trkpt lat="45.40318" lon="9.0419717"><ele>112.0</ele><time>2026-04-18T14:05:58.979Z</time></trkpt><trkpt lat="45.4032517" lon="9.04219"><ele>112.0</ele><time>2026-04-18T14:05:59.979Z</time></trkpt><trkpt lat="45.40333" lon="9.0424183"><ele>112.66666666666667</ele><time>2026-04-18T14:06:00.979Z</time></trkpt><trkpt lat="45.4034083" lon="9.042645"><ele>113.33333333333334</ele><time>2026-04-18T14:06:01.979Z</time></trkpt><trkpt lat="45.4034833" lon="9.0428633"><ele>114.0</ele><time>2026-04-18T14:06:02.979Z</time></trkpt><trkpt lat="45.4035567" lon="9.0430917"><ele>113.33333333333334</ele><time>2026-04-18T14:06:03.979Z</time></trkpt><trkpt lat="45.4036283" lon="9.043325"><ele>112.66666666666667</ele><time>2026-04-18T14:06:04.979Z</time></trkpt><trkpt lat="45.4037" lon="9.0435617"><ele>112.0</ele><time>2026-04-18T14:06:05.978Z</time></trkpt><trkpt lat="45.4037733" lon="9.0437867"><ele>112.33333333333334</ele><time>2026-04-18T14:06:06.978Z</time></trkpt><trkpt lat="45.40385" lon="9.0440183"><ele>112.66666666666666</ele><time>2026-04-18T14:06:07.978Z</time></trkpt><trkpt lat="45.40392" lon="9.044235"><ele>113.0</ele><time>2026-04-18T14:06:08.978Z</time></trkpt><trkpt lat="45.4039933" lon="9.0444567"><ele>113.33333333333333</ele><time>2026-04-18T14:06:09.978Z</time></trkpt><trkpt lat="45.4040667" lon="9.0446683"><ele>113.66666666666666</ele><time>2026-04-18T14:06:10.978Z</time></trkpt><trkpt lat="45.4041383" lon="9.044895"><ele>114.0</ele><time>2026-04-18T14:06:11.978Z</time></trkpt><trkpt lat="45.404205" lon="9.0451217"><ele>114.33333333333334</ele><time>2026-04-18T14:06:12.978Z</time></trkpt><trkpt lat="45.40428" lon="9.0453317"><ele>114.66666666666667</ele><time>2026-04-18T14:06:13.978Z</time></trkpt><trkpt lat="45.4043567" lon="9.0455433"><ele>115.0</ele><time>2026-04-18T14:06:14.979Z</time></trkpt><trkpt lat="45.4044283" lon="9.0457567"><ele>115.66666666666667</ele><time>2026-04-18T14:06:15.978Z</time></trkpt><trkpt lat="45.4044983" lon="9.0459683"><ele>116.33333333333334</ele><time>2026-04-18T14:06:16.978Z</time></trkpt><trkpt lat="45.4045783" lon="9.046165"><ele>117.0</ele><time>2026-04-18T14:06:17.978Z</time></trkpt><trkpt lat="45.4046667" lon="9.046355"><ele>116.66666666666666</ele><time>2026-04-18T14:06:18.978Z</time></trkpt><trkpt lat="45.404765" lon="9.0465333"><ele>116.33333333333333</ele><time>2026-04-18T14:06:19.978Z</time></trkpt><trkpt lat="45.4048783" lon="9.04669"><ele>116.0</ele><time>2026-04-18T14:06:20.978Z</time></trkpt><trkpt lat="45.40501" lon="9.0468117"><ele>116.0</ele><time>2026-04-18T14:06:21.978Z</time></trkpt><trkpt lat="45.4051517" lon="9.04691"><ele>116.0</ele><time>2026-04-18T14:06:22.978Z</time></trkpt><trkpt lat="45.405295" lon="9.0469867"><ele>116.0</ele><time>2026-04-18T14:06:23.978Z</time></trkpt><trkpt lat="45.4054517" lon="9.0470317"><ele>114.66666666666666</ele><time>2026-04-18T14:06:24.978Z</time></trkpt><trkpt lat="45.4056117" lon="9.0470383"><ele>113.33333333333334</ele><time>2026-04-18T14:06:25.978Z</time></trkpt><trkpt lat="45.40577" lon="9.04702"><ele>112.0</ele><time>2026-04-18T14:06:26.978Z</time></trkpt><trkpt lat="45.4059233" lon="9.046965"><ele>112.0</ele><time>2026-04-18T14:06:27.978Z</time></trkpt><trkpt lat="45.4060733" lon="9.0468867"><ele>112.0</ele><time>2026-04-18T14:06:28.978Z</time></trkpt><trkpt lat="45.406215" lon="9.0468067"><ele>112.0</ele><time>2026-04-18T14:06:29.978Z</time></trkpt><trkpt lat="45.4063567" lon="9.04672"><ele>112.5</ele><time>2026-04-18T14:06:30.978Z</time></trkpt><trkpt lat="45.406495" lon="9.0466333"><ele>113.0</ele><time>2026-04-18T14:06:31.979Z</time></trkpt><trkpt lat="45.4066317" lon="9.0465483"><ele>113.5</ele><time>2026-04-18T14:06:32.978Z</time></trkpt><trkpt lat="45.4067633" lon="9.0464633"><ele>114.0</ele><time>2026-04-18T14:06:33.978Z</time></trkpt><trkpt lat="45.40689" lon="9.0463917"><ele>114.0</ele><time>2026-04-18T14:06:34.978Z</time></trkpt><trkpt lat="45.4070017" lon="9.0463167"><ele>114.0</ele><time>2026-04-18T14:06:35.978Z</time></trkpt><trkpt lat="45.40711" lon="9.0462467"><ele>114.0</ele><time>2026-04-18T14:06:36.978Z</time></trkpt><trkpt lat="45.4072183" lon="9.046185"><ele>114.0</ele><time>2026-04-18T14:06:37.978Z</time></trkpt><trkpt lat="45.4073233" lon="9.0461183"><ele>113.80000000000001</ele><time>2026-04-18T14:06:38.978Z</time></trkpt><trkpt lat="45.4074117" lon="9.0460517"><ele>113.60000000000001</ele><time>2026-04-18T14:06:39.978Z</time></trkpt><trkpt lat="45.4074883" lon="9.0459917"><ele>113.4</ele><time>2026-04-18T14:06:40.978Z</time></trkpt><trkpt lat="45.4075667" lon="9.0459383"><ele>113.2</ele><time>2026-04-18T14:06:41.978Z</time></trkpt><trkpt lat="45.40766" lon="9.04588"><ele>113.0</ele><time>2026-04-18T14:06:42.978Z</time></trkpt><trkpt lat="45.4077567" lon="9.0458217"><ele>113.0</ele><time>2026-04-18T14:06:43.978Z</time></trkpt><trkpt lat="45.40786" lon="9.0457617"><ele>113.00000000000001</ele><time>2026-04-18T14:06:44.979Z</time></trkpt><trkpt lat="45.4079617" lon="9.045705"><ele>113.00000000000001</ele><time>2026-04-18T14:06:45.978Z</time></trkpt><trkpt lat="45.408055" lon="9.0456617"><ele>113.0</ele><time>2026-04-18T14:06:46.979Z</time></trkpt><trkpt lat="45.40815" lon="9.045605"><ele>113.0</ele><time>2026-04-18T14:06:47.978Z</time></trkpt><trkpt lat="45.408245" lon="9.045555"><ele>113.2</ele><time>2026-04-18T14:06:48.979Z</time></trkpt><trkpt lat="45.4083383" lon="9.0455083"><ele>113.4</ele><time>2026-04-18T14:06:49.978Z</time></trkpt><trkpt lat="45.408425" lon="9.045455"><ele>113.60000000000001</ele><time>2026-04-18T14:06:50.979Z</time></trkpt><trkpt lat="45.4085083" lon="9.0454033"><ele>113.80000000000001</ele><time>2026-04-18T14:06:51.978Z</time></trkpt><trkpt lat="45.40859" lon="9.0453517"><ele>114.0</ele><time>2026-04-18T14:06:52.978Z</time></trkpt><trkpt lat="45.4086733" lon="9.04529"><ele>114.0</ele><time>2026-04-18T14:06:53.979Z</time></trkpt><trkpt lat="45.4087567" lon="9.045235"><ele>114.0</ele><time>2026-04-18T14:06:54.978Z</time></trkpt><trkpt lat="45.408845" lon="9.0451767"><ele>114.0</ele><time>2026-04-18T14:06:55.978Z</time></trkpt><trkpt lat="45.408935" lon="9.0451183"><ele>114.0</ele><time>2026-04-18T14:06:56.978Z</time></trkpt><trkpt lat="45.4090283" lon="9.0450583"><ele>114.0</ele><time>2026-04-18T14:06:57.978Z</time></trkpt><trkpt lat="45.4091217" lon="9.045005"><ele>113.83333333333333</ele><time>2026-04-18T14:06:58.978Z</time></trkpt><trkpt lat="45.4092117" lon="9.0449467"><ele>113.66666666666666</ele><time>2026-04-18T14:06:59.978Z</time></trkpt><trkpt lat="45.4092917" lon="9.0449033"><ele>113.5</ele><time>2026-04-18T14:07:00.978Z</time></trkpt><trkpt lat="45.4093617" lon="9.044865"><ele>113.33333333333333</ele><time>2026-04-18T14:07:01.978Z</time></trkpt><trkpt lat="45.40943" lon="9.0448283"><ele>113.16666666666666</ele><time>2026-04-18T14:07:02.978Z</time></trkpt><trkpt lat="45.4095033" lon="9.0447917"><ele>113.0</ele><time>2026-04-18T14:07:03.978Z</time></trkpt><trkpt lat="45.4096033" lon="9.044705"><ele>112.80000000000001</ele><time>2026-04-18T14:07:05.978Z</time></trkpt><trkpt lat="45.4097033" lon="9.0446533"><ele>112.60000000000001</ele><time>2026-04-18T14:07:07.978Z</time></trkpt><trkpt lat="45.4097917" lon="9.0446717"><ele>112.39999999999999</ele><time>2026-04-18T14:07:09.978Z</time></trkpt><trkpt lat="45.4098683" lon="9.0447983"><ele>112.19999999999999</ele><time>2026-04-18T14:07:11.978Z</time></trkpt><trkpt lat="45.4099033" lon="9.0449"><ele>112.0</ele><time>2026-04-18T14:07:12.978Z</time></trkpt><trkpt lat="45.4099367" lon="9.0450217"><ele>112.0</ele><time>2026-04-18T14:07:13.978Z</time></trkpt><trkpt lat="45.409975" lon="9.045145"><ele>111.99999999999999</ele><time>2026-04-18T14:07:14.978Z</time></trkpt><trkpt lat="45.4100133" lon="9.04528"><ele>111.99999999999999</ele><time>2026-04-18T14:07:15.978Z</time></trkpt><trkpt lat="45.4100583" lon="9.0454217"><ele>112.0</ele><time>2026-04-18T14:07:16.978Z</time></trkpt><trkpt lat="45.4101083" lon="9.0455533"><ele>112.0</ele><time>2026-04-18T14:07:17.979Z</time></trkpt><trkpt lat="45.410155" lon="9.0456983"><ele>112.0</ele><time>2026-04-18T14:07:18.978Z</time></trkpt><trkpt lat="45.4102083" lon="9.045845"><ele>112.0</ele><time>2026-04-18T14:07:19.978Z</time></trkpt><trkpt lat="45.4102617" lon="9.045995"><ele>112.0</ele><time>2026-04-18T14:07:20.978Z</time></trkpt><trkpt lat="45.410315" lon="9.0461567"><ele>112.0</ele><time>2026-04-18T14:07:21.978Z</time></trkpt><trkpt lat="45.41037" lon="9.0463167"><ele>112.0</ele><time>2026-04-18T14:07:22.978Z</time></trkpt><trkpt lat="45.4104233" lon="9.0464767"><ele>112.0</ele><time>2026-04-18T14:07:23.978Z</time></trkpt><trkpt lat="45.4104717" lon="9.0466433"><ele>112.0</ele><time>2026-04-18T14:07:24.978Z</time></trkpt><trkpt lat="45.4105167" lon="9.0468117"><ele>112.0</ele><time>2026-04-18T14:07:25.978Z</time></trkpt><trkpt lat="45.410565" lon="9.046965"><ele>112.25</ele><time>2026-04-18T14:07:26.978Z</time></trkpt><trkpt lat="45.410615" lon="9.047115"><ele>112.5</ele><time>2026-04-18T14:07:27.978Z</time></trkpt><trkpt lat="45.410665" lon="9.0472717"><ele>112.75</ele><time>2026-04-18T14:07:28.978Z</time></trkpt><trkpt lat="45.4107217" lon="9.0474283"><ele>113.0</ele><time>2026-04-18T14:07:29.978Z</time></trkpt><trkpt lat="45.4107733" lon="9.0475833"><ele>113.0</ele><time>2026-04-18T14:07:30.978Z</time></trkpt><trkpt lat="45.4108233" lon="9.0477417"><ele>113.0</ele><time>2026-04-18T14:07:31.978Z</time></trkpt><trkpt lat="45.4108717" lon="9.0479083"><ele>113.0</ele><time>2026-04-18T14:07:32.978Z</time></trkpt><trkpt lat="45.41092" lon="9.0480783"><ele>113.0</ele><time>2026-04-18T14:07:33.978Z</time></trkpt><trkpt lat="45.4109733" lon="9.0482417"><ele>112.75</ele><time>2026-04-18T14:07:34.978Z</time></trkpt><trkpt lat="45.4110233" lon="9.0484067"><ele>112.5</ele><time>2026-04-18T14:07:35.978Z</time></trkpt><trkpt lat="45.4110733" lon="9.0485633"><ele>112.25</ele><time>2026-04-18T14:07:36.978Z</time></trkpt><trkpt lat="45.41112" lon="9.0487167"><ele>112.0</ele><time>2026-04-18T14:07:37.978Z</time></trkpt><trkpt lat="45.4111667" lon="9.0488733"><ele>112.0</ele><time>2026-04-18T14:07:38.978Z</time></trkpt><trkpt lat="45.411215" lon="9.0490317"><ele>112.0</ele><time>2026-04-18T14:07:39.978Z</time></trkpt><trkpt lat="45.4112667" lon="9.0491833"><ele>112.0</ele><time>2026-04-18T14:07:40.978Z</time></trkpt><trkpt lat="45.4113167" lon="9.049335"><ele>112.0</ele><time>2026-04-18T14:07:41.979Z</time></trkpt><trkpt lat="45.4113683" lon="9.04949"><ele>111.75</ele><time>2026-04-18T14:07:42.978Z</time></trkpt><trkpt lat="45.4114183" lon="9.04964"><ele>111.5</ele><time>2026-04-18T14:07:43.978Z</time></trkpt><trkpt lat="45.411465" lon="9.0497917"><ele>111.25</ele><time>2026-04-18T14:07:44.978Z</time></trkpt><trkpt lat="45.4115133" lon="9.0499517"><ele>111.0</ele><time>2026-04-18T14:07:45.978Z</time></trkpt><trkpt lat="45.4115633" lon="9.0501167"><ele>111.0</ele><time>2026-04-18T14:07:46.978Z</time></trkpt><trkpt lat="45.4116133" lon="9.05028"><ele>111.0</ele><time>2026-04-18T14:07:47.978Z</time></trkpt><trkpt lat="45.4116667" lon="9.0504467"><ele>111.0</ele><time>2026-04-18T14:07:48.978Z</time></trkpt><trkpt lat="45.4117183" lon="9.05061"><ele>111.0</ele><time>2026-04-18T14:07:49.978Z</time></trkpt><trkpt lat="45.4117717" lon="9.0507717"><ele>111.5</ele><time>2026-04-18T14:07:50.978Z</time></trkpt><trkpt lat="45.411825" lon="9.05094"><ele>112.0</ele><time>2026-04-18T14:07:51.978Z</time></trkpt><trkpt lat="45.41187" lon="9.0511167"><ele>112.5</ele><time>2026-04-18T14:07:52.978Z</time></trkpt><trkpt lat="45.411915" lon="9.0512833"><ele>113.0</ele><time>2026-04-18T14:07:53.978Z</time></trkpt><trkpt lat="45.4119633" lon="9.051455"><ele>113.0</ele><time>2026-04-18T14:07:54.978Z</time></trkpt><trkpt lat="45.4120133" lon="9.05163"><ele>113.0</ele><time>2026-04-18T14:07:55.978Z</time></trkpt><trkpt lat="45.41207" lon="9.0518"><ele>113.0</ele><time>2026-04-18T14:07:56.978Z</time></trkpt><trkpt lat="45.4121267" lon="9.051975"><ele>113.0</ele><time>2026-04-18T14:07:57.978Z</time></trkpt><trkpt lat="45.4121783" lon="9.0521483"><ele>113.0</ele><time>2026-04-18T14:07:58.979Z</time></trkpt><trkpt lat="45.4122233" lon="9.0523083"><ele>113.00000000000001</ele><time>2026-04-18T14:07:59.978Z</time></trkpt><trkpt lat="45.412265" lon="9.0524467"><ele>113.00000000000001</ele><time>2026-04-18T14:08:00.978Z</time></trkpt><trkpt lat="45.4123067" lon="9.0525783"><ele>113.0</ele><time>2026-04-18T14:08:01.978Z</time></trkpt><trkpt lat="45.4123433" lon="9.0526817"><ele>113.0</ele><time>2026-04-18T14:08:02.978Z</time></trkpt><trkpt lat="45.4123733" lon="9.0527617"><ele>113.33333333333333</ele><time>2026-04-18T14:08:03.978Z</time></trkpt><trkpt lat="45.412405" lon="9.05288"><ele>113.66666666666666</ele><time>2026-04-18T14:08:05.978Z</time></trkpt><trkpt lat="45.4124317" lon="9.0529967"><ele>114.0</ele><time>2026-04-18T14:08:08.978Z</time></trkpt><trkpt lat="45.4124717" lon="9.0530933"><ele>114.33333333333334</ele><time>2026-04-18T14:08:10.978Z</time></trkpt><trkpt lat="45.4125117" lon="9.0532283"><ele>114.66666666666667</ele><time>2026-04-18T14:08:12.978Z</time></trkpt><trkpt lat="45.4125317" lon="9.0533283"><ele>115.0</ele><time>2026-04-18T14:08:13.978Z</time></trkpt><trkpt lat="45.412565" lon="9.0534283"><ele>115.0</ele><time>2026-04-18T14:08:14.978Z</time></trkpt><trkpt lat="45.4125917" lon="9.0535367"><ele>115.0</ele><time>2026-04-18T14:08:15.978Z</time></trkpt><trkpt lat="45.412625" lon="9.053655"><ele>115.0</ele><time>2026-04-18T14:08:16.978Z</time></trkpt><trkpt lat="45.4126667" lon="9.0537867"><ele>115.0</ele><time>2026-04-18T14:08:17.978Z</time></trkpt><trkpt lat="45.4127083" lon="9.0539267"><ele>115.0</ele><time>2026-04-18T14:08:18.978Z</time></trkpt><trkpt lat="45.41275" lon="9.0540617"><ele>114.5</ele><time>2026-04-18T14:08:19.978Z</time></trkpt><trkpt lat="45.4128017" lon="9.0542017"><ele>114.0</ele><time>2026-04-18T14:08:20.978Z</time></trkpt><trkpt lat="45.412865" lon="9.0543417"><ele>113.5</ele><time>2026-04-18T14:08:21.978Z</time></trkpt><trkpt lat="45.4129233" lon="9.0545017"><ele>113.0</ele><time>2026-04-18T14:08:22.978Z</time></trkpt><trkpt lat="45.41298" lon="9.0546633"><ele>112.75</ele><time>2026-04-18T14:08:23.978Z</time></trkpt><trkpt lat="45.413035" lon="9.0548367"><ele>112.5</ele><time>2026-04-18T14:08:24.978Z</time></trkpt><trkpt lat="45.41309" lon="9.0550183"><ele>112.25</ele><time>2026-04-18T14:08:25.978Z</time></trkpt><trkpt lat="45.4131417" lon="9.0552"><ele>112.0</ele><time>2026-04-18T14:08:26.978Z</time></trkpt><trkpt lat="45.4131917" lon="9.05537"><ele>112.5</ele><time>2026-04-18T14:08:27.978Z</time></trkpt><trkpt lat="45.413255" lon="9.0555417"><ele>113.0</ele><time>2026-04-18T14:08:28.978Z</time></trkpt><trkpt lat="45.4133167" lon="9.055725"><ele>113.5</ele><time>2026-04-18T14:08:29.978Z</time></trkpt><trkpt lat="45.413375" lon="9.05591"><ele>114.0</ele><time>2026-04-18T14:08:30.978Z</time></trkpt><trkpt lat="45.4134317" lon="9.0560933"><ele>114.0</ele><time>2026-04-18T14:08:31.978Z</time></trkpt><trkpt lat="45.4134933" lon="9.0562783"><ele>114.0</ele><time>2026-04-18T14:08:32.978Z</time></trkpt><trkpt lat="45.413555" lon="9.05645"><ele>114.0</ele><time>2026-04-18T14:08:33.978Z</time></trkpt><trkpt lat="45.413615" lon="9.056635"><ele>114.0</ele><time>2026-04-18T14:08:34.978Z</time></trkpt><trkpt lat="45.413675" lon="9.0568183"><ele>114.0</ele><time>2026-04-18T14:08:35.978Z</time></trkpt><trkpt lat="45.41373" lon="9.0570083"><ele>114.0</ele><time>2026-04-18T14:08:36.978Z</time></trkpt><trkpt lat="45.4137833" lon="9.0572017"><ele>114.0</ele><time>2026-04-18T14:08:37.978Z</time></trkpt><trkpt lat="45.4138483" lon="9.05739"><ele>114.0</ele><time>2026-04-18T14:08:38.978Z</time></trkpt><trkpt lat="45.4139083" lon="9.0575817"><ele>113.75</ele><time>2026-04-18T14:08:39.978Z</time></trkpt><trkpt lat="45.41396" lon="9.0577783"><ele>113.5</ele><time>2026-04-18T14:08:40.978Z</time></trkpt><trkpt lat="45.4140217" lon="9.0579683"><ele>113.25</ele><time>2026-04-18T14:08:41.978Z</time></trkpt><trkpt lat="45.4140833" lon="9.05816"><ele>113.0</ele><time>2026-04-18T14:08:42.978Z</time></trkpt><trkpt lat="45.4141433" lon="9.05835"><ele>113.0</ele><time>2026-04-18T14:08:43.978Z</time></trkpt><trkpt lat="45.4142033" lon="9.0585517"><ele>113.0</ele><time>2026-04-18T14:08:44.978Z</time></trkpt><trkpt lat="45.414265" lon="9.05875"><ele>113.0</ele><time>2026-04-18T14:08:45.978Z</time></trkpt><trkpt lat="45.4143283" lon="9.05895"><ele>112.33333333333333</ele><time>2026-04-18T14:08:46.978Z</time></trkpt><trkpt lat="45.41439" lon="9.0591467"><ele>111.66666666666666</ele><time>2026-04-18T14:08:47.978Z</time></trkpt><trkpt lat="45.4144533" lon="9.05935"><ele>111.0</ele><time>2026-04-18T14:08:48.979Z</time></trkpt><trkpt lat="45.4145133" lon="9.0595517"><ele>111.0</ele><time>2026-04-18T14:08:49.978Z</time></trkpt><trkpt lat="45.4145767" lon="9.0597467"><ele>111.0</ele><time>2026-04-18T14:08:50.978Z</time></trkpt><trkpt lat="45.4146383" lon="9.0599417"><ele>111.0</ele><time>2026-04-18T14:08:51.978Z</time></trkpt><trkpt lat="45.414695" lon="9.06013"><ele>111.0</ele><time>2026-04-18T14:08:52.978Z</time></trkpt><trkpt lat="45.41476" lon="9.060325"><ele>112.25</ele><time>2026-04-18T14:08:53.978Z</time></trkpt><trkpt lat="45.414825" lon="9.0605183"><ele>113.5</ele><time>2026-04-18T14:08:54.978Z</time></trkpt><trkpt lat="45.4148817" lon="9.0607167"><ele>114.75</ele><time>2026-04-18T14:08:55.978Z</time></trkpt><trkpt lat="45.414945" lon="9.0609067"><ele>116.0</ele><time>2026-04-18T14:08:56.978Z</time></trkpt><trkpt lat="45.4150117" lon="9.0610983"><ele>116.0</ele><time>2026-04-18T14:08:57.978Z</time></trkpt><trkpt lat="45.415075" lon="9.0613033"><ele>116.0</ele><time>2026-04-18T14:08:58.978Z</time></trkpt><trkpt lat="45.4151367" lon="9.0615033"><ele>116.0</ele><time>2026-04-18T14:08:59.978Z</time></trkpt><trkpt lat="45.41519" lon="9.0617117"><ele>116.0</ele><time>2026-04-18T14:09:00.978Z</time></trkpt><trkpt lat="45.41526" lon="9.0619117"><ele>116.0</ele><time>2026-04-18T14:09:01.978Z</time></trkpt><trkpt lat="45.4153283" lon="9.0621183"><ele>116.0</ele><time>2026-04-18T14:09:02.978Z</time></trkpt><trkpt lat="45.415395" lon="9.0623233"><ele>116.0</ele><time>2026-04-18T14:09:03.978Z</time></trkpt><trkpt lat="45.4154583" lon="9.0625333"><ele>116.0</ele><time>2026-04-18T14:09:04.978Z</time></trkpt><trkpt lat="45.4155233" lon="9.06274"><ele>116.0</ele><time>2026-04-18T14:09:05.978Z</time></trkpt><trkpt lat="45.4155883" lon="9.06295"><ele>116.0</ele><time>2026-04-18T14:09:06.978Z</time></trkpt><trkpt lat="45.4156533" lon="9.06315"><ele>116.0</ele><time>2026-04-18T14:09:07.978Z</time></trkpt><trkpt lat="45.4157217" lon="9.063345"><ele>116.0</ele><time>2026-04-18T14:09:08.978Z</time></trkpt><trkpt lat="45.41578" lon="9.063545"><ele>115.5</ele><time>2026-04-18T14:09:09.978Z</time></trkpt><trkpt lat="45.415845" lon="9.0637417"><ele>115.0</ele><time>2026-04-18T14:09:10.978Z</time></trkpt><trkpt lat="45.4159067" lon="9.0639383"><ele>114.5</ele><time>2026-04-18T14:09:11.978Z</time></trkpt><trkpt lat="45.4159717" lon="9.0641233"><ele>114.0</ele><time>2026-04-18T14:09:12.978Z</time></trkpt><trkpt lat="45.4160283" lon="9.064295"><ele>113.25</ele><time>2026-04-18T14:09:13.978Z</time></trkpt><trkpt lat="45.4160833" lon="9.064445"><ele>112.5</ele><time>2026-04-18T14:09:14.978Z</time></trkpt><trkpt lat="45.4161333" lon="9.0645967"><ele>111.75</ele><time>2026-04-18T14:09:15.978Z</time></trkpt><trkpt lat="45.4161767" lon="9.064765"><ele>111.0</ele><time>2026-04-18T14:09:16.978Z</time></trkpt><trkpt lat="45.4162283" lon="9.0649217"><ele>110.75</ele><time>2026-04-18T14:09:17.978Z</time></trkpt><trkpt lat="45.4162717" lon="9.0650833"><ele>110.5</ele><time>2026-04-18T14:09:18.978Z</time></trkpt><trkpt lat="45.41632" lon="9.06524"><ele>110.25</ele><time>2026-04-18T14:09:19.978Z</time></trkpt><trkpt lat="45.4163683" lon="9.0654"><ele>110.0</ele><time>2026-04-18T14:09:20.978Z</time></trkpt><trkpt lat="45.41642" lon="9.0655583"><ele>111.2</ele><time>2026-04-18T14:09:21.978Z</time></trkpt><trkpt lat="45.41646" lon="9.0657067"><ele>112.4</ele><time>2026-04-18T14:09:22.978Z</time></trkpt><trkpt lat="45.416505" lon="9.0658433"><ele>113.6</ele><time>2026-04-18T14:09:23.978Z</time></trkpt><trkpt lat="45.4165483" lon="9.065965"><ele>114.8</ele><time>2026-04-18T14:09:24.978Z</time></trkpt><trkpt lat="45.41658" lon="9.066065"><ele>116.0</ele><time>2026-04-18T14:09:25.978Z</time></trkpt><trkpt lat="45.4166333" lon="9.0662283"><ele>116.16666666666666</ele><time>2026-04-18T14:09:27.978Z</time></trkpt><trkpt lat="45.416665" lon="9.0663183"><ele>116.33333333333333</ele><time>2026-04-18T14:09:28.978Z</time></trkpt><trkpt lat="45.4167017" lon="9.0664233"><ele>116.5</ele><time>2026-04-18T14:09:29.978Z</time></trkpt><trkpt lat="45.41674" lon="9.0665367"><ele>116.66666666666666</ele><time>2026-04-18T14:09:30.978Z</time></trkpt><trkpt lat="45.4167833" lon="9.0666567"><ele>116.83333333333333</ele><time>2026-04-18T14:09:31.979Z</time></trkpt><trkpt lat="45.416825" lon="9.06678"><ele>117.0</ele><time>2026-04-18T14:09:32.978Z</time></trkpt><trkpt lat="45.4168633" lon="9.0669083"><ele>116.39999999999999</ele><time>2026-04-18T14:09:33.978Z</time></trkpt><trkpt lat="45.4168983" lon="9.0670367"><ele>115.79999999999998</ele><time>2026-04-18T14:09:34.978Z</time></trkpt><trkpt lat="45.416925" lon="9.067175"><ele>115.2</ele><time>2026-04-18T14:09:35.978Z</time></trkpt><trkpt lat="45.4169467" lon="9.067325"><ele>114.6</ele><time>2026-04-18T14:09:36.978Z</time></trkpt><trkpt lat="45.4169617" lon="9.0674817"><ele>114.0</ele><time>2026-04-18T14:09:37.978Z</time></trkpt><trkpt lat="45.4169683" lon="9.067625"><ele>113.80000000000001</ele><time>2026-04-18T14:09:38.978Z</time></trkpt><trkpt lat="45.4169733" lon="9.0677617"><ele>113.60000000000001</ele><time>2026-04-18T14:09:39.978Z</time></trkpt><trkpt lat="45.41699" lon="9.0679033"><ele>113.4</ele><time>2026-04-18T14:09:40.978Z</time></trkpt><trkpt lat="45.4169917" lon="9.0680667"><ele>113.2</ele><time>2026-04-18T14:09:41.978Z</time></trkpt><trkpt lat="45.4170067" lon="9.0682517"><ele>113.0</ele><time>2026-04-18T14:09:42.978Z</time></trkpt><trkpt lat="45.4170183" lon="9.068455"><ele>113.0</ele><time>2026-04-18T14:09:43.978Z</time></trkpt><trkpt lat="45.417035" lon="9.068665"><ele>113.0</ele><time>2026-04-18T14:09:44.978Z</time></trkpt><trkpt lat="45.4170433" lon="9.0688833"><ele>113.0</ele><time>2026-04-18T14:09:45.978Z</time></trkpt><trkpt lat="45.4170517" lon="9.069095"><ele>112.5</ele><time>2026-04-18T14:09:46.978Z</time></trkpt><trkpt lat="45.4170583" lon="9.0692817"><ele>112.0</ele><time>2026-04-18T14:09:47.978Z</time></trkpt><trkpt lat="45.4170717" lon="9.06946"><ele>111.5</ele><time>2026-04-18T14:09:48.978Z</time></trkpt><trkpt lat="45.4170767" lon="9.06963"><ele>111.0</ele><time>2026-04-18T14:09:49.978Z</time></trkpt><trkpt lat="45.4170933" lon="9.0698033"><ele>111.5</ele><time>2026-04-18T14:09:50.978Z</time></trkpt><trkpt lat="45.4171183" lon="9.0699833"><ele>112.0</ele><time>2026-04-18T14:09:51.978Z</time></trkpt><trkpt lat="45.4171533" lon="9.070165"><ele>112.5</ele><time>2026-04-18T14:09:52.979Z</time></trkpt><trkpt lat="45.4171933" lon="9.0703483"><ele>113.0</ele><time>2026-04-18T14:09:53.978Z</time></trkpt><trkpt lat="45.4172467" lon="9.0705333"><ele>114.0</ele><time>2026-04-18T14:09:54.978Z</time></trkpt><trkpt lat="45.4173033" lon="9.0707217"><ele>115.0</ele><time>2026-04-18T14:09:55.979Z</time></trkpt><trkpt lat="45.41736" lon="9.0709167"><ele>116.0</ele><time>2026-04-18T14:09:56.978Z</time></trkpt><trkpt lat="45.4174183" lon="9.0711117"><ele>117.0</ele><time>2026-04-18T14:09:57.978Z</time></trkpt><trkpt lat="45.41747" lon="9.071305"><ele>116.75</ele><time>2026-04-18T14:09:58.978Z</time></trkpt><trkpt lat="45.4175333" lon="9.0714983"><ele>116.5</ele><time>2026-04-18T14:09:59.978Z</time></trkpt><trkpt lat="45.4175967" lon="9.0716967"><ele>116.25</ele><time>2026-04-18T14:10:00.978Z</time></trkpt><trkpt lat="45.4176667" lon="9.0718733"><ele>116.0</ele><time>2026-04-18T14:10:01.978Z</time></trkpt><trkpt lat="45.4177433" lon="9.0720467"><ele>116.0</ele><time>2026-04-18T14:10:02.978Z</time></trkpt><trkpt lat="45.4178183" lon="9.0722217"><ele>116.0</ele><time>2026-04-18T14:10:03.978Z</time></trkpt><trkpt lat="45.4179033" lon="9.072365"><ele>116.0</ele><time>2026-04-18T14:10:04.978Z</time></trkpt><trkpt lat="45.4179933" lon="9.0724783"><ele>116.0</ele><time>2026-04-18T14:10:05.978Z</time></trkpt><trkpt lat="45.4180817" lon="9.0725817"><ele>115.8</ele><time>2026-04-18T14:10:06.979Z</time></trkpt><trkpt lat="45.4181633" lon="9.07267"><ele>115.6</ele><time>2026-04-18T14:10:07.978Z</time></trkpt><trkpt lat="45.41824" lon="9.072755"><ele>115.4</ele><time>2026-04-18T14:10:08.978Z</time></trkpt><trkpt lat="45.4183133" lon="9.0728267"><ele>115.2</ele><time>2026-04-18T14:10:09.978Z</time></trkpt><trkpt lat="45.4184017" lon="9.072895"><ele>115.0</ele><time>2026-04-18T14:10:10.978Z</time></trkpt><trkpt lat="45.41849" lon="9.0729567"><ele>115.00000000000001</ele><time>2026-04-18T14:10:11.978Z</time></trkpt><trkpt lat="45.41857" lon="9.0730117"><ele>115.0</ele><time>2026-04-18T14:10:12.979Z</time></trkpt><trkpt lat="45.41864" lon="9.0730633"><ele>115.0</ele><time>2026-04-18T14:10:13.979Z</time></trkpt><trkpt lat="45.4187" lon="9.0731067"><ele>115.0</ele><time>2026-04-18T14:10:14.978Z</time></trkpt><trkpt lat="45.41881" lon="9.0731867"><ele>115.00000000000001</ele><time>2026-04-18T14:10:16.978Z</time></trkpt><trkpt lat="45.418875" lon="9.0732217"><ele>115.0</ele><time>2026-04-18T14:10:17.978Z</time></trkpt><trkpt lat="45.41896" lon="9.073245"><ele>114.6</ele><time>2026-04-18T14:10:18.978Z</time></trkpt><trkpt lat="45.4190583" lon="9.0732733"><ele>114.2</ele><time>2026-04-18T14:10:19.978Z</time></trkpt><trkpt lat="45.4191467" lon="9.073315"><ele>113.80000000000001</ele><time>2026-04-18T14:10:20.978Z</time></trkpt><trkpt lat="45.419225" lon="9.0733667"><ele>113.4</ele><time>2026-04-18T14:10:21.978Z</time></trkpt><trkpt lat="45.4193067" lon="9.0734317"><ele>113.0</ele><time>2026-04-18T14:10:22.978Z</time></trkpt><trkpt lat="45.4193917" lon="9.0735033"><ele>113.0</ele><time>2026-04-18T14:10:23.978Z</time></trkpt><trkpt lat="45.4194767" lon="9.073585"><ele>113.00000000000001</ele><time>2026-04-18T14:10:24.978Z</time></trkpt><trkpt lat="45.4195633" lon="9.0736767"><ele>113.00000000000001</ele><time>2026-04-18T14:10:25.978Z</time></trkpt><trkpt lat="45.419645" lon="9.0737833"><ele>113.0</ele><time>2026-04-18T14:10:26.978Z</time></trkpt><trkpt lat="45.4197333" lon="9.0738817"><ele>113.0</ele><time>2026-04-18T14:10:27.978Z</time></trkpt><trkpt lat="45.4198183" lon="9.074"><ele>113.25</ele><time>2026-04-18T14:10:28.978Z</time></trkpt><trkpt lat="45.4199033" lon="9.0741217"><ele>113.5</ele><time>2026-04-18T14:10:29.978Z</time></trkpt><trkpt lat="45.4199917" lon="9.074245"><ele>113.75</ele><time>2026-04-18T14:10:30.978Z</time></trkpt><trkpt lat="45.420065" lon="9.0743783"><ele>114.0</ele><time>2026-04-18T14:10:31.979Z</time></trkpt><trkpt lat="45.4201283" lon="9.0745233"><ele>114.0</ele><time>2026-04-18T14:10:32.979Z</time></trkpt><trkpt lat="45.4201917" lon="9.0746683"><ele>114.0</ele><time>2026-04-18T14:10:33.978Z</time></trkpt><trkpt lat="45.4202617" lon="9.0748033"><ele>114.0</ele><time>2026-04-18T14:10:34.978Z</time></trkpt><trkpt lat="45.4203283" lon="9.0749383"><ele>114.0</ele><time>2026-04-18T14:10:35.978Z</time></trkpt><trkpt lat="45.4203933" lon="9.0750767"><ele>114.25</ele><time>2026-04-18T14:10:36.978Z</time></trkpt><trkpt lat="45.4204617" lon="9.075215"><ele>114.5</ele><time>2026-04-18T14:10:37.978Z</time></trkpt><trkpt lat="45.4205333" lon="9.0753567"><ele>114.75</ele><time>2026-04-18T14:10:38.978Z</time></trkpt><trkpt lat="45.4206067" lon="9.0754967"><ele>115.0</ele><time>2026-04-18T14:10:39.978Z</time></trkpt><trkpt lat="45.420675" lon="9.0756433"><ele>114.5</ele><time>2026-04-18T14:10:40.978Z</time></trkpt><trkpt lat="45.42075" lon="9.075795"><ele>114.0</ele><time>2026-04-18T14:10:41.978Z</time></trkpt><trkpt lat="45.4208233" lon="9.07594"><ele>113.5</ele><time>2026-04-18T14:10:42.978Z</time></trkpt><trkpt lat="45.4208933" lon="9.0760867"><ele>113.0</ele><time>2026-04-18T14:10:43.978Z</time></trkpt><trkpt lat="45.420965" lon="9.0762317"><ele>113.0</ele><time>2026-04-18T14:10:44.978Z</time></trkpt><trkpt lat="45.42104" lon="9.076375"><ele>113.0</ele><time>2026-04-18T14:10:45.978Z</time></trkpt><trkpt lat="45.4211117" lon="9.0765133"><ele>113.0</ele><time>2026-04-18T14:10:46.978Z</time></trkpt><trkpt lat="45.4211817" lon="9.07665"><ele>113.0</ele><time>2026-04-18T14:10:47.979Z</time></trkpt><trkpt lat="45.4212483" lon="9.0767817"><ele>113.25</ele><time>2026-04-18T14:10:48.978Z</time></trkpt><trkpt lat="45.4213167" lon="9.0769117"><ele>113.5</ele><time>2026-04-18T14:10:49.978Z</time></trkpt><trkpt lat="45.421395" lon="9.0770383"><ele>113.75</ele><time>2026-04-18T14:10:50.979Z</time></trkpt><trkpt lat="45.4214617" lon="9.0771717"><ele>114.0</ele><time>2026-04-18T14:10:51.979Z</time></trkpt><trkpt lat="45.421525" lon="9.0773167"><ele>114.25</ele><time>2026-04-18T14:10:52.978Z</time></trkpt><trkpt lat="45.4215867" lon="9.077465"><ele>114.5</ele><time>2026-04-18T14:10:53.978Z</time></trkpt><trkpt lat="45.42166" lon="9.0776117"><ele>114.75</ele><time>2026-04-18T14:10:54.978Z</time></trkpt><trkpt lat="45.4217383" lon="9.0777583"><ele>115.0</ele><time>2026-04-18T14:10:55.978Z</time></trkpt><trkpt lat="45.42181" lon="9.0779033"><ele>115.0</ele><time>2026-04-18T14:10:56.978Z</time></trkpt><trkpt lat="45.4218817" lon="9.0780417"><ele>115.0</ele><time>2026-04-18T14:10:57.978Z</time></trkpt><trkpt lat="45.4219467" lon="9.07818"><ele>115.0</ele><time>2026-04-18T14:10:58.978Z</time></trkpt><trkpt lat="45.4220133" lon="9.078315"><ele>115.0</ele><time>2026-04-18T14:10:59.978Z</time></trkpt><trkpt lat="45.4220833" lon="9.0784533"><ele>114.75</ele><time>2026-04-18T14:11:00.978Z</time></trkpt><trkpt lat="45.4221517" lon="9.0785933"><ele>114.5</ele><time>2026-04-18T14:11:01.979Z</time></trkpt><trkpt lat="45.42222" lon="9.0787383"><ele>114.25</ele><time>2026-04-18T14:11:02.978Z</time></trkpt><trkpt lat="45.4222833" lon="9.0788817"><ele>114.0</ele><time>2026-04-18T14:11:03.978Z</time></trkpt><trkpt lat="45.422345" lon="9.0790267"><ele>114.4</ele><time>2026-04-18T14:11:04.978Z</time></trkpt><trkpt lat="45.4224133" lon="9.0791633"><ele>114.80000000000001</ele><time>2026-04-18T14:11:05.978Z</time></trkpt><trkpt lat="45.4224783" lon="9.0792983"><ele>115.19999999999999</ele><time>2026-04-18T14:11:06.978Z</time></trkpt><trkpt lat="45.4225367" lon="9.0794333"><ele>115.6</ele><time>2026-04-18T14:11:07.978Z</time></trkpt><trkpt lat="45.4225967" lon="9.0795533"><ele>116.0</ele><time>2026-04-18T14:11:08.978Z</time></trkpt><trkpt lat="45.4226533" lon="9.0796583"><ele>115.99999999999999</ele><time>2026-04-18T14:11:09.978Z</time></trkpt><trkpt lat="45.42271" lon="9.079755"><ele>116.0</ele><time>2026-04-18T14:11:10.978Z</time></trkpt><trkpt lat="45.42276" lon="9.0798567"><ele>116.0</ele><time>2026-04-18T14:11:11.978Z</time></trkpt><trkpt lat="45.42281" lon="9.0799517"><ele>116.0</ele><time>2026-04-18T14:11:12.979Z</time></trkpt><trkpt lat="45.4228583" lon="9.0800467"><ele>115.99999999999999</ele><time>2026-04-18T14:11:13.978Z</time></trkpt><trkpt lat="45.42289" lon="9.0801583"><ele>116.0</ele><time>2026-04-18T14:11:14.978Z</time></trkpt><trkpt lat="45.422905" lon="9.0802733"><ele>115.99999999999999</ele><time>2026-04-18T14:11:15.978Z</time></trkpt><trkpt lat="45.4228783" lon="9.0803917"><ele>116.0</ele><time>2026-04-18T14:11:16.978Z</time></trkpt><trkpt lat="45.42284" lon="9.0804667"><ele>116.0</ele><time>2026-04-18T14:11:17.978Z</time></trkpt><trkpt lat="45.4227633" lon="9.0805183"><ele>116.0</ele><time>2026-04-18T14:11:18.978Z</time></trkpt><trkpt lat="45.42267" lon="9.0805683"><ele>115.99999999999999</ele><time>2026-04-18T14:11:19.978Z</time></trkpt><trkpt lat="45.42256" lon="9.0806017"><ele>116.0</ele><time>2026-04-18T14:11:20.978Z</time></trkpt><trkpt lat="45.4224483" lon="9.0806333"><ele>116.0</ele><time>2026-04-18T14:11:21.978Z</time></trkpt><trkpt lat="45.4223383" lon="9.080675"><ele>116.0</ele><time>2026-04-18T14:11:22.978Z</time></trkpt><trkpt lat="45.42223" lon="9.0807267"><ele>116.0</ele><time>2026-04-18T14:11:23.978Z</time></trkpt><trkpt lat="45.4221233" lon="9.0807783"><ele>116.0</ele><time>2026-04-18T14:11:24.978Z</time></trkpt><trkpt lat="45.4220183" lon="9.0808383"><ele>116.25</ele><time>2026-04-18T14:11:25.978Z</time></trkpt><trkpt lat="45.4219117" lon="9.080895"><ele>116.5</ele><time>2026-04-18T14:11:26.978Z</time></trkpt><trkpt lat="45.4218" lon="9.0809567"><ele>116.75</ele><time>2026-04-18T14:11:27.978Z</time></trkpt><trkpt lat="45.42169" lon="9.0810133"><ele>117.0</ele><time>2026-04-18T14:11:28.978Z</time></trkpt><trkpt lat="45.421585" lon="9.081065"><ele>117.0</ele><time>2026-04-18T14:11:29.978Z</time></trkpt><trkpt lat="45.4214717" lon="9.0811383"><ele>117.0</ele><time>2026-04-18T14:11:30.978Z</time></trkpt><trkpt lat="45.4213533" lon="9.0812067"><ele>117.0</ele><time>2026-04-18T14:11:31.978Z</time></trkpt><trkpt lat="45.421235" lon="9.0812783"><ele>117.0</ele><time>2026-04-18T14:11:32.978Z</time></trkpt><trkpt lat="45.4211183" lon="9.08135"><ele>116.75</ele><time>2026-04-18T14:11:33.978Z</time></trkpt><trkpt lat="45.4210017" lon="9.0814233"><ele>116.5</ele><time>2026-04-18T14:11:34.978Z</time></trkpt><trkpt lat="45.4208917" lon="9.0815017"><ele>116.25</ele><time>2026-04-18T14:11:35.978Z</time></trkpt><trkpt lat="45.4208017" lon="9.081595"><ele>116.0</ele><time>2026-04-18T14:11:36.978Z</time></trkpt><trkpt lat="45.4207133" lon="9.0816933"><ele>116.0</ele><time>2026-04-18T14:11:37.978Z</time></trkpt><trkpt lat="45.420625" lon="9.0818133"><ele>116.0</ele><time>2026-04-18T14:11:38.978Z</time></trkpt><trkpt lat="45.4205433" lon="9.0819433"><ele>116.0</ele><time>2026-04-18T14:11:39.978Z</time></trkpt><trkpt lat="45.4204767" lon="9.0820733"><ele>116.0</ele><time>2026-04-18T14:11:40.978Z</time></trkpt><trkpt lat="45.4204133" lon="9.0821983"><ele>115.6</ele><time>2026-04-18T14:11:41.978Z</time></trkpt><trkpt lat="45.4203467" lon="9.0823133"><ele>115.19999999999999</ele><time>2026-04-18T14:11:42.978Z</time></trkpt><trkpt lat="45.42028" lon="9.0824167"><ele>114.80000000000001</ele><time>2026-04-18T14:11:43.978Z</time></trkpt><trkpt lat="45.4202117" lon="9.0825117"><ele>114.4</ele><time>2026-04-18T14:11:44.978Z</time></trkpt><trkpt lat="45.42014" lon="9.08259"><ele>114.0</ele><time>2026-04-18T14:11:45.978Z</time></trkpt><trkpt lat="45.4200767" lon="9.0826483"><ele>114.0</ele><time>2026-04-18T14:11:46.978Z</time></trkpt><trkpt lat="45.4200117" lon="9.0826833"><ele>114.0</ele><time>2026-04-18T14:11:47.978Z</time></trkpt><trkpt lat="45.4199433" lon="9.0826783"><ele>114.0</ele><time>2026-04-18T14:11:48.978Z</time></trkpt><trkpt lat="45.41988" lon="9.082645"><ele>114.0</ele><time>2026-04-18T14:11:49.978Z</time></trkpt><trkpt lat="45.4198267" lon="9.0825833"><ele>114.0</ele><time>2026-04-18T14:11:50.978Z</time></trkpt><trkpt lat="45.4197933" lon="9.0825"><ele>114.0</ele><time>2026-04-18T14:11:51.978Z</time></trkpt><trkpt lat="45.4197983" lon="9.082315"><ele>114.0</ele><time>2026-04-18T14:11:53.978Z</time></trkpt><trkpt lat="45.41985" lon="9.0822133"><ele>114.0</ele><time>2026-04-18T14:11:54.978Z</time></trkpt><trkpt lat="45.419925" lon="9.0821283"><ele>114.0</ele><time>2026-04-18T14:11:55.978Z</time></trkpt><trkpt lat="45.42002" lon="9.08205"><ele>114.0</ele><time>2026-04-18T14:11:56.978Z</time></trkpt><trkpt lat="45.420115" lon="9.0819667"><ele>114.0</ele><time>2026-04-18T14:11:57.978Z</time></trkpt><trkpt lat="45.420215" lon="9.081875"><ele>114.0</ele><time>2026-04-18T14:11:58.978Z</time></trkpt><trkpt lat="45.42032" lon="9.0817767"><ele>114.0</ele><time>2026-04-18T14:11:59.978Z</time></trkpt><trkpt lat="45.420435" lon="9.081675"><ele>114.0</ele><time>2026-04-18T14:12:00.979Z</time></trkpt><trkpt lat="45.420545" lon="9.0815817"><ele>114.0</ele><time>2026-04-18T14:12:01.978Z</time></trkpt><trkpt lat="45.4206517" lon="9.0814917"><ele>114.5</ele><time>2026-04-18T14:12:02.978Z</time></trkpt><trkpt lat="45.42076" lon="9.0813967"><ele>115.0</ele><time>2026-04-18T14:12:03.978Z</time></trkpt><trkpt lat="45.420875" lon="9.0813"><ele>115.5</ele><time>2026-04-18T14:12:04.978Z</time></trkpt><trkpt lat="45.4210017" lon="9.0811967"><ele>116.0</ele><time>2026-04-18T14:12:05.978Z</time></trkpt><trkpt lat="45.421135" lon="9.0811"><ele>116.0</ele><time>2026-04-18T14:12:06.978Z</time></trkpt><trkpt lat="45.421275" lon="9.0810017"><ele>116.0</ele><time>2026-04-18T14:12:07.978Z</time></trkpt><trkpt lat="45.42142" lon="9.0809033"><ele>116.0</ele><time>2026-04-18T14:12:08.978Z</time></trkpt><trkpt lat="45.42157" lon="9.080805"><ele>116.33333333333333</ele><time>2026-04-18T14:12:09.979Z</time></trkpt><trkpt lat="45.4217167" lon="9.0807117"><ele>116.66666666666666</ele><time>2026-04-18T14:12:10.978Z</time></trkpt><trkpt lat="45.4218633" lon="9.0806133"><ele>117.0</ele><time>2026-04-18T14:12:11.978Z</time></trkpt><trkpt lat="45.4220217" lon="9.0805183"><ele>116.66666666666666</ele><time>2026-04-18T14:12:12.978Z</time></trkpt><trkpt lat="45.4221733" lon="9.0804233"><ele>116.33333333333333</ele><time>2026-04-18T14:12:13.978Z</time></trkpt><trkpt lat="45.422335" lon="9.08033"><ele>116.0</ele><time>2026-04-18T14:12:14.978Z</time></trkpt><trkpt lat="45.4224917" lon="9.080235"><ele>116.0</ele><time>2026-04-18T14:12:15.978Z</time></trkpt><trkpt lat="45.42265" lon="9.0801383"><ele>116.0</ele><time>2026-04-18T14:12:16.978Z</time></trkpt><trkpt lat="45.42281" lon="9.0800483"><ele>116.0</ele><time>2026-04-18T14:12:17.978Z</time></trkpt><trkpt lat="45.4229683" lon="9.079945"><ele>115.0</ele><time>2026-04-18T14:12:18.979Z</time></trkpt><trkpt lat="45.4231317" lon="9.0798533"><ele>114.0</ele><time>2026-04-18T14:12:19.978Z</time></trkpt><trkpt lat="45.423295" lon="9.0797533"><ele>113.0</ele><time>2026-04-18T14:12:20.979Z</time></trkpt><trkpt lat="45.4234567" lon="9.0796483"><ele>113.0</ele><time>2026-04-18T14:12:21.978Z</time></trkpt><trkpt lat="45.4236183" lon="9.0795467"><ele>113.0</ele><time>2026-04-18T14:12:22.978Z</time></trkpt><trkpt lat="45.42378" lon="9.0794417"><ele>113.0</ele><time>2026-04-18T14:12:23.978Z</time></trkpt><trkpt lat="45.4239383" lon="9.0793383"><ele>113.66666666666666</ele><time>2026-04-18T14:12:24.978Z</time></trkpt><trkpt lat="45.4241067" lon="9.0792433"><ele>114.33333333333334</ele><time>2026-04-18T14:12:25.978Z</time></trkpt><trkpt lat="45.4242733" lon="9.07914"><ele>115.0</ele><time>2026-04-18T14:12:26.978Z</time></trkpt><trkpt lat="45.4244483" lon="9.0790317"><ele>115.0</ele><time>2026-04-18T14:12:27.978Z</time></trkpt><trkpt lat="45.42462" lon="9.078925"><ele>115.0</ele><time>2026-04-18T14:12:28.978Z</time></trkpt><trkpt lat="45.4248" lon="9.0788167"><ele>115.0</ele><time>2026-04-18T14:12:29.978Z</time></trkpt><trkpt lat="45.4249733" lon="9.0787"><ele>115.66666666666667</ele><time>2026-04-18T14:12:30.978Z</time></trkpt><trkpt lat="45.4251583" lon="9.0785833"><ele>116.33333333333334</ele><time>2026-04-18T14:12:31.978Z</time></trkpt><trkpt lat="45.4253317" lon="9.0784683"><ele>117.0</ele><time>2026-04-18T14:12:32.979Z</time></trkpt><trkpt lat="45.4255167" lon="9.0783517"><ele>117.33333333333334</ele><time>2026-04-18T14:12:33.978Z</time></trkpt><trkpt lat="45.4257067" lon="9.078235"><ele>117.66666666666667</ele><time>2026-04-18T14:12:34.978Z</time></trkpt><trkpt lat="45.4258967" lon="9.0781283"><ele>118.0</ele><time>2026-04-18T14:12:35.978Z</time></trkpt><trkpt lat="45.4260817" lon="9.078015"><ele>118.0</ele><time>2026-04-18T14:12:36.978Z</time></trkpt><trkpt lat="45.4262617" lon="9.0779"><ele>118.0</ele><time>2026-04-18T14:12:37.978Z</time></trkpt><trkpt lat="45.42645" lon="9.0777817"><ele>118.0</ele><time>2026-04-18T14:12:38.978Z</time></trkpt><trkpt lat="45.426645" lon="9.077665"><ele>118.33333333333334</ele><time>2026-04-18T14:12:39.978Z</time></trkpt><trkpt lat="45.42684" lon="9.0775483"><ele>118.66666666666666</ele><time>2026-04-18T14:12:40.978Z</time></trkpt><trkpt lat="45.4270317" lon="9.0774317"><ele>119.0</ele><time>2026-04-18T14:12:41.979Z</time></trkpt><trkpt lat="45.4272283" lon="9.0773083"><ele>119.0</ele><time>2026-04-18T14:12:42.978Z</time></trkpt><trkpt lat="45.4274267" lon="9.0771933"><ele>119.0</ele><time>2026-04-18T14:12:43.978Z</time></trkpt><trkpt lat="45.42762" lon="9.0770717"><ele>119.0</ele><time>2026-04-18T14:12:44.978Z</time></trkpt><trkpt lat="45.42781" lon="9.0769517"><ele>119.33333333333333</ele><time>2026-04-18T14:12:45.978Z</time></trkpt><trkpt lat="45.428" lon="9.0768317"><ele>119.66666666666666</ele><time>2026-04-18T14:12:46.978Z</time></trkpt><trkpt lat="45.4281883" lon="9.0767283"><ele>120.0</ele><time>2026-04-18T14:12:47.978Z</time></trkpt><trkpt lat="45.4283767" lon="9.0766033"><ele>119.33333333333334</ele><time>2026-04-18T14:12:48.978Z</time></trkpt><trkpt lat="45.4285683" lon="9.076485"><ele>118.66666666666667</ele><time>2026-04-18T14:12:49.978Z</time></trkpt><trkpt lat="45.428755" lon="9.0763733"><ele>118.0</ele><time>2026-04-18T14:12:50.978Z</time></trkpt><trkpt lat="45.42895" lon="9.07626"><ele>118.0</ele><time>2026-04-18T14:12:51.978Z</time></trkpt><trkpt lat="45.4291383" lon="9.076155"><ele>118.0</ele><time>2026-04-18T14:12:52.978Z</time></trkpt><trkpt lat="45.4293267" lon="9.0760467"><ele>118.0</ele><time>2026-04-18T14:12:53.979Z</time></trkpt><trkpt lat="45.4295133" lon="9.075945"><ele>118.0</ele><time>2026-04-18T14:12:54.978Z</time></trkpt><trkpt lat="45.42971" lon="9.0758333"><ele>118.0</ele><time>2026-04-18T14:12:55.978Z</time></trkpt><trkpt lat="45.4299083" lon="9.0757383"><ele>118.0</ele><time>2026-04-18T14:12:56.978Z</time></trkpt><trkpt lat="45.4301117" lon="9.0756433"><ele>117.66666666666667</ele><time>2026-04-18T14:12:57.978Z</time></trkpt><trkpt lat="45.4303083" lon="9.075555"><ele>117.33333333333334</ele><time>2026-04-18T14:12:58.978Z</time></trkpt><trkpt lat="45.430515" lon="9.0754683"><ele>117.0</ele><time>2026-04-18T14:12:59.978Z</time></trkpt><trkpt lat="45.43072" lon="9.075385"><ele>116.66666666666666</ele><time>2026-04-18T14:13:00.978Z</time></trkpt><trkpt lat="45.430925" lon="9.0753067"><ele>116.33333333333333</ele><time>2026-04-18T14:13:01.978Z</time></trkpt><trkpt lat="45.4311383" lon="9.0752283"><ele>116.0</ele><time>2026-04-18T14:13:02.978Z</time></trkpt><trkpt lat="45.4313483" lon="9.0751617"><ele>115.33333333333333</ele><time>2026-04-18T14:13:03.978Z</time></trkpt><trkpt lat="45.4315617" lon="9.075095"><ele>114.66666666666666</ele><time>2026-04-18T14:13:04.978Z</time></trkpt><trkpt lat="45.43177" lon="9.0750217"><ele>114.0</ele><time>2026-04-18T14:13:05.978Z</time></trkpt><trkpt lat="45.43199" lon="9.0749683"><ele>114.0</ele><time>2026-04-18T14:13:06.978Z</time></trkpt><trkpt lat="45.4322083" lon="9.0749117"><ele>114.0</ele><time>2026-04-18T14:13:07.978Z</time></trkpt><trkpt lat="45.4324233" lon="9.0748683"><ele>114.0</ele><time>2026-04-18T14:13:08.978Z</time></trkpt><trkpt lat="45.4326467" lon="9.0748233"><ele>114.0</ele><time>2026-04-18T14:13:09.978Z</time></trkpt><trkpt lat="45.43287" lon="9.0747883"><ele>114.0</ele><time>2026-04-18T14:13:10.978Z</time></trkpt><trkpt lat="45.4330967" lon="9.0747483"><ele>115.33333333333334</ele><time>2026-04-18T14:13:11.978Z</time></trkpt><trkpt lat="45.4333067" lon="9.0747233"><ele>116.66666666666667</ele><time>2026-04-18T14:13:12.978Z</time></trkpt><trkpt lat="45.4335433" lon="9.0747067"><ele>118.0</ele><time>2026-04-18T14:13:13.978Z</time></trkpt><trkpt lat="45.433775" lon="9.07468"><ele>117.5</ele><time>2026-04-18T14:13:14.978Z</time></trkpt><trkpt lat="45.434" lon="9.07466"><ele>117.0</ele><time>2026-04-18T14:13:15.978Z</time></trkpt><trkpt lat="45.4342233" lon="9.0746333"><ele>117.0</ele><time>2026-04-18T14:13:16.977Z</time></trkpt><trkpt lat="45.4344333" lon="9.0746083"><ele>117.0</ele><time>2026-04-18T14:13:17.977Z</time></trkpt><trkpt lat="45.4346583" lon="9.0745833"><ele>117.0</ele><time>2026-04-18T14:13:18.977Z</time></trkpt><trkpt lat="45.4348867" lon="9.0745533"><ele>117.5</ele><time>2026-04-18T14:13:19.977Z</time></trkpt><trkpt lat="45.4351117" lon="9.0745283"><ele>118.0</ele><time>2026-04-18T14:13:20.977Z</time></trkpt><trkpt lat="45.435345" lon="9.0744983"><ele>118.0</ele><time>2026-04-18T14:13:21.977Z</time></trkpt><trkpt lat="45.4355617" lon="9.0744767"><ele>118.0</ele><time>2026-04-18T14:13:22.977Z</time></trkpt><trkpt lat="45.4357733" lon="9.0744583"><ele>118.0</ele><time>2026-04-18T14:13:23.977Z</time></trkpt><trkpt lat="45.4360083" lon="9.0744367"><ele>118.0</ele><time>2026-04-18T14:13:24.977Z</time></trkpt><trkpt lat="45.436235" lon="9.0744183"><ele>118.0</ele><time>2026-04-18T14:13:25.977Z</time></trkpt><trkpt lat="45.4364617" lon="9.0743983"><ele>117.0</ele><time>2026-04-18T14:13:26.977Z</time></trkpt><trkpt lat="45.4366783" lon="9.0743767"><ele>116.0</ele><time>2026-04-18T14:13:27.977Z</time></trkpt><trkpt lat="45.4369" lon="9.0743567"><ele>115.0</ele><time>2026-04-18T14:13:28.977Z</time></trkpt><trkpt lat="45.43711" lon="9.07433"><ele>114.33333333333334</ele><time>2026-04-18T14:13:29.977Z</time></trkpt><trkpt lat="45.43731" lon="9.0743033"><ele>113.66666666666666</ele><time>2026-04-18T14:13:30.977Z</time></trkpt><trkpt lat="45.4375117" lon="9.0742717"><ele>113.0</ele><time>2026-04-18T14:13:31.977Z</time></trkpt><trkpt lat="45.4377183" lon="9.0742483"><ele>113.0</ele><time>2026-04-18T14:13:32.977Z</time></trkpt><trkpt lat="45.4379367" lon="9.0742167"><ele>113.0</ele><time>2026-04-18T14:13:33.977Z</time></trkpt><trkpt lat="45.4381467" lon="9.0741983"><ele>113.0</ele><time>2026-04-18T14:13:34.977Z</time></trkpt><trkpt lat="45.4383433" lon="9.074175"><ele>113.33333333333333</ele><time>2026-04-18T14:13:35.977Z</time></trkpt><trkpt lat="45.43855" lon="9.0741533"><ele>113.66666666666666</ele><time>2026-04-18T14:13:36.977Z</time></trkpt><trkpt lat="45.4387567" lon="9.0741317"><ele>114.0</ele><time>2026-04-18T14:13:37.977Z</time></trkpt><trkpt lat="45.4389633" lon="9.0741117"><ele>114.66666666666666</ele><time>2026-04-18T14:13:38.977Z</time></trkpt><trkpt lat="45.4391767" lon="9.07409"><ele>115.33333333333333</ele><time>2026-04-18T14:13:39.977Z</time></trkpt><trkpt lat="45.43938" lon="9.0740667"><ele>116.0</ele><time>2026-04-18T14:13:40.977Z</time></trkpt><trkpt lat="45.439585" lon="9.0740467"><ele>116.66666666666666</ele><time>2026-04-18T14:13:41.977Z</time></trkpt><trkpt lat="45.439785" lon="9.0740183"><ele>117.33333333333334</ele><time>2026-04-18T14:13:42.977Z</time></trkpt><trkpt lat="45.4399883" lon="9.0739967"><ele>118.0</ele><time>2026-04-18T14:13:43.977Z</time></trkpt><trkpt lat="45.4401917" lon="9.07398"><ele>118.0</ele><time>2026-04-18T14:13:44.977Z</time></trkpt><trkpt lat="45.44039" lon="9.0739567"><ele>118.0</ele><time>2026-04-18T14:13:45.977Z</time></trkpt><trkpt lat="45.4405933" lon="9.0739383"><ele>118.0</ele><time>2026-04-18T14:13:46.977Z</time></trkpt><trkpt lat="45.4407817" lon="9.073925"><ele>118.33333333333334</ele><time>2026-04-18T14:13:47.977Z</time></trkpt><trkpt lat="45.4409717" lon="9.07392"><ele>118.66666666666666</ele><time>2026-04-18T14:13:48.978Z</time></trkpt><trkpt lat="45.4411567" lon="9.073905"><ele>119.0</ele><time>2026-04-18T14:13:49.977Z</time></trkpt><trkpt lat="45.4413533" lon="9.07389"><ele>119.66666666666666</ele><time>2026-04-18T14:13:50.978Z</time></trkpt><trkpt lat="45.4415433" lon="9.0738883"><ele>120.33333333333334</ele><time>2026-04-18T14:13:51.977Z</time></trkpt><trkpt lat="45.4417383" lon="9.0738883"><ele>121.0</ele><time>2026-04-18T14:13:52.977Z</time></trkpt><trkpt lat="45.441935" lon="9.0738833"><ele>119.33333333333334</ele><time>2026-04-18T14:13:53.977Z</time></trkpt><trkpt lat="45.4421333" lon="9.0738817"><ele>117.66666666666666</ele><time>2026-04-18T14:13:54.977Z</time></trkpt><trkpt lat="45.442335" lon="9.0738817"><ele>116.0</ele><time>2026-04-18T14:13:55.977Z</time></trkpt><trkpt lat="45.4425367" lon="9.0738933"><ele>116.0</ele><time>2026-04-18T14:13:56.977Z</time></trkpt><trkpt lat="45.44274" lon="9.073905"><ele>116.0</ele><time>2026-04-18T14:13:57.977Z</time></trkpt><trkpt lat="45.4429383" lon="9.07392"><ele>116.0</ele><time>2026-04-18T14:13:58.977Z</time></trkpt><trkpt lat="45.4431333" lon="9.07394"><ele>117.0</ele><time>2026-04-18T14:13:59.977Z</time></trkpt><trkpt lat="45.4433333" lon="9.0739633"><ele>118.0</ele><time>2026-04-18T14:14:00.977Z</time></trkpt><trkpt lat="45.443535" lon="9.0739917"><ele>119.0</ele><time>2026-04-18T14:14:01.977Z</time></trkpt><trkpt lat="45.4437367" lon="9.0740217"><ele>119.33333333333333</ele><time>2026-04-18T14:14:02.977Z</time></trkpt><trkpt lat="45.4439333" lon="9.0740567"><ele>119.66666666666666</ele><time>2026-04-18T14:14:03.977Z</time></trkpt><trkpt lat="45.4441233" lon="9.0740917"><ele>120.0</ele><time>2026-04-18T14:14:04.978Z</time></trkpt><trkpt lat="45.4443183" lon="9.07412"><ele>120.0</ele><time>2026-04-18T14:14:05.977Z</time></trkpt><trkpt lat="45.4445083" lon="9.07416"><ele>120.0</ele><time>2026-04-18T14:14:06.977Z</time></trkpt><trkpt lat="45.4446917" lon="9.0741967"><ele>120.0</ele><time>2026-04-18T14:14:07.977Z</time></trkpt><trkpt lat="45.444875" lon="9.0742467"><ele>120.33333333333334</ele><time>2026-04-18T14:14:08.977Z</time></trkpt><trkpt lat="45.4450583" lon="9.0742967"><ele>120.66666666666667</ele><time>2026-04-18T14:14:09.977Z</time></trkpt><trkpt lat="45.445235" lon="9.074345"><ele>121.0</ele><time>2026-04-18T14:14:10.977Z</time></trkpt><trkpt lat="45.44541" lon="9.07438"><ele>121.33333333333334</ele><time>2026-04-18T14:14:11.977Z</time></trkpt><trkpt lat="45.4455733" lon="9.0744333"><ele>121.66666666666666</ele><time>2026-04-18T14:14:12.977Z</time></trkpt><trkpt lat="45.4457433" lon="9.0744883"><ele>122.0</ele><time>2026-04-18T14:14:13.977Z</time></trkpt><trkpt lat="45.4458867" lon="9.0745533"><ele>122.0</ele><time>2026-04-18T14:14:14.977Z</time></trkpt><trkpt lat="45.446065" lon="9.0746083"><ele>122.0</ele><time>2026-04-18T14:14:15.977Z</time></trkpt><trkpt lat="45.446245" lon="9.0746517"><ele>122.0</ele><time>2026-04-18T14:14:16.977Z</time></trkpt><trkpt lat="45.4464367" lon="9.0747017"><ele>121.66666666666666</ele><time>2026-04-18T14:14:17.977Z</time></trkpt><trkpt lat="45.4466167" lon="9.0747483"><ele>121.33333333333334</ele><time>2026-04-18T14:14:18.977Z</time></trkpt><trkpt lat="45.4467983" lon="9.0748033"><ele>121.0</ele><time>2026-04-18T14:14:19.977Z</time></trkpt><trkpt lat="45.446975" lon="9.0748533"><ele>120.66666666666667</ele><time>2026-04-18T14:14:20.977Z</time></trkpt><trkpt lat="45.44715" lon="9.0749083"><ele>120.33333333333334</ele><time>2026-04-18T14:14:21.977Z</time></trkpt><trkpt lat="45.4473333" lon="9.0749583"><ele>120.0</ele><time>2026-04-18T14:14:22.977Z</time></trkpt><trkpt lat="45.4475133" lon="9.0750167"><ele>120.0</ele><time>2026-04-18T14:14:23.977Z</time></trkpt><trkpt lat="45.447695" lon="9.07508"><ele>120.0</ele><time>2026-04-18T14:14:24.977Z</time></trkpt><trkpt lat="45.44787" lon="9.075135"><ele>120.0</ele><time>2026-04-18T14:14:25.977Z</time></trkpt><trkpt lat="45.4480533" lon="9.0751867"><ele>120.33333333333334</ele><time>2026-04-18T14:14:26.977Z</time></trkpt><trkpt lat="45.4482383" lon="9.0752417"><ele>120.66666666666667</ele><time>2026-04-18T14:14:27.977Z</time></trkpt><trkpt lat="45.4484217" lon="9.0752967"><ele>121.0</ele><time>2026-04-18T14:14:28.977Z</time></trkpt><trkpt lat="45.4486117" lon="9.07535"><ele>121.33333333333334</ele><time>2026-04-18T14:14:29.977Z</time></trkpt><trkpt lat="45.4488033" lon="9.075395"><ele>121.66666666666666</ele><time>2026-04-18T14:14:30.977Z</time></trkpt><trkpt lat="45.4489833" lon="9.075455"><ele>122.0</ele><time>2026-04-18T14:14:31.977Z</time></trkpt><trkpt lat="45.4491667" lon="9.0755183"><ele>122.0</ele><time>2026-04-18T14:14:32.977Z</time></trkpt><trkpt lat="45.449345" lon="9.0755717"><ele>122.0</ele><time>2026-04-18T14:14:33.977Z</time></trkpt><trkpt lat="45.449525" lon="9.0756283"><ele>122.0</ele><time>2026-04-18T14:14:34.977Z</time></trkpt><trkpt lat="45.449705" lon="9.0756917"><ele>122.0</ele><time>2026-04-18T14:14:35.977Z</time></trkpt><trkpt lat="45.4498933" lon="9.07575"><ele>122.0</ele><time>2026-04-18T14:14:36.977Z</time></trkpt><trkpt lat="45.4500717" lon="9.07581"><ele>122.0</ele><time>2026-04-18T14:14:37.977Z</time></trkpt><trkpt lat="45.4502567" lon="9.07586"><ele>122.0</ele><time>2026-04-18T14:14:38.977Z</time></trkpt><trkpt lat="45.4504383" lon="9.0759167"><ele>122.0</ele><time>2026-04-18T14:14:39.977Z</time></trkpt><trkpt lat="45.4506283" lon="9.0759767"><ele>122.0</ele><time>2026-04-18T14:14:40.977Z</time></trkpt><trkpt lat="45.45081" lon="9.0760267"><ele>122.0</ele><time>2026-04-18T14:14:41.977Z</time></trkpt><trkpt lat="45.4509867" lon="9.0760883"><ele>122.0</ele><time>2026-04-18T14:14:42.977Z</time></trkpt><trkpt lat="45.451165" lon="9.0761417"><ele>122.0</ele><time>2026-04-18T14:14:43.977Z</time></trkpt><trkpt lat="45.45134" lon="9.07619"><ele>122.0</ele><time>2026-04-18T14:14:44.977Z</time></trkpt><trkpt lat="45.4515117" lon="9.0762433"><ele>122.0</ele><time>2026-04-18T14:14:45.977Z</time></trkpt><trkpt lat="45.451685" lon="9.0762933"><ele>122.0</ele><time>2026-04-18T14:14:46.977Z</time></trkpt><trkpt lat="45.4518683" lon="9.0763533"><ele>122.0</ele><time>2026-04-18T14:14:47.977Z</time></trkpt><trkpt lat="45.4520483" lon="9.0764017"><ele>122.0</ele><time>2026-04-18T14:14:48.977Z</time></trkpt><trkpt lat="45.45222" lon="9.0764517"><ele>122.0</ele><time>2026-04-18T14:14:49.977Z</time></trkpt><trkpt lat="45.4523933" lon="9.0765017"><ele>122.0</ele><time>2026-04-18T14:14:50.977Z</time></trkpt><trkpt lat="45.4525517" lon="9.0765567"><ele>122.0</ele><time>2026-04-18T14:14:51.978Z</time></trkpt><trkpt lat="45.4527267" lon="9.0765967"><ele>122.0</ele><time>2026-04-18T14:14:52.977Z</time></trkpt><trkpt lat="45.4528967" lon="9.0766383"><ele>122.33333333333333</ele><time>2026-04-18T14:14:53.977Z</time></trkpt><trkpt lat="45.4530533" lon="9.07669"><ele>122.66666666666666</ele><time>2026-04-18T14:14:54.977Z</time></trkpt><trkpt lat="45.4532033" lon="9.0767483"><ele>123.0</ele><time>2026-04-18T14:14:55.977Z</time></trkpt><trkpt lat="45.45337" lon="9.0768083"><ele>123.0</ele><time>2026-04-18T14:14:56.977Z</time></trkpt><trkpt lat="45.453535" lon="9.0768533"><ele>123.0</ele><time>2026-04-18T14:14:57.977Z</time></trkpt><trkpt lat="45.4536817" lon="9.0769033"><ele>123.0</ele><time>2026-04-18T14:14:58.978Z</time></trkpt><trkpt lat="45.4538483" lon="9.0769533"><ele>123.0</ele><time>2026-04-18T14:14:59.977Z</time></trkpt><trkpt lat="45.45401" lon="9.077"><ele>123.0</ele><time>2026-04-18T14:15:00.978Z</time></trkpt><trkpt lat="45.4541533" lon="9.07706"><ele>123.0</ele><time>2026-04-18T14:15:01.977Z</time></trkpt><trkpt lat="45.4543233" lon="9.0771083"><ele>123.0</ele><time>2026-04-18T14:15:02.977Z</time></trkpt><trkpt lat="45.4544983" lon="9.0771583"><ele>123.0</ele><time>2026-04-18T14:15:03.977Z</time></trkpt><trkpt lat="45.4546633" lon="9.077215"><ele>123.0</ele><time>2026-04-18T14:15:04.977Z</time></trkpt><trkpt lat="45.4548467" lon="9.0772633"><ele>122.66666666666666</ele><time>2026-04-18T14:15:05.977Z</time></trkpt><trkpt lat="45.455025" lon="9.077315"><ele>122.33333333333333</ele><time>2026-04-18T14:15:06.977Z</time></trkpt><trkpt lat="45.455195" lon="9.077365"><ele>122.0</ele><time>2026-04-18T14:15:07.977Z</time></trkpt><trkpt lat="45.455375" lon="9.0774167"><ele>123.0</ele><time>2026-04-18T14:15:08.977Z</time></trkpt><trkpt lat="45.455545" lon="9.0774783"><ele>124.0</ele><time>2026-04-18T14:15:09.977Z</time></trkpt><trkpt lat="45.45572" lon="9.0775467"><ele>125.0</ele><time>2026-04-18T14:15:10.977Z</time></trkpt><trkpt lat="45.4559" lon="9.0776"><ele>125.0</ele><time>2026-04-18T14:15:11.977Z</time></trkpt><trkpt lat="45.4560867" lon="9.0776367"><ele>125.0</ele><time>2026-04-18T14:15:12.978Z</time></trkpt><trkpt lat="45.456285" lon="9.0776417"><ele>125.0</ele><time>2026-04-18T14:15:13.977Z</time></trkpt><trkpt lat="45.4564717" lon="9.077655"><ele>125.33333333333333</ele><time>2026-04-18T14:15:14.977Z</time></trkpt><trkpt lat="45.456675" lon="9.0776567"><ele>125.66666666666666</ele><time>2026-04-18T14:15:15.977Z</time></trkpt><trkpt lat="45.4568617" lon="9.0776583"><ele>126.0</ele><time>2026-04-18T14:15:16.978Z</time></trkpt><trkpt lat="45.457065" lon="9.077655"><ele>125.66666666666666</ele><time>2026-04-18T14:15:17.977Z</time></trkpt><trkpt lat="45.457255" lon="9.0776483"><ele>125.33333333333333</ele><time>2026-04-18T14:15:18.977Z</time></trkpt><trkpt lat="45.4574517" lon="9.0776467"><ele>125.0</ele><time>2026-04-18T14:15:19.977Z</time></trkpt><trkpt lat="45.4576417" lon="9.0776317"><ele>125.0</ele><time>2026-04-18T14:15:20.977Z</time></trkpt><trkpt lat="45.4578217" lon="9.0776083"><ele>125.0</ele><time>2026-04-18T14:15:21.977Z</time></trkpt><trkpt lat="45.4580233" lon="9.077575"><ele>125.0</ele><time>2026-04-18T14:15:22.977Z</time></trkpt><trkpt lat="45.45821" lon="9.07754"><ele>125.66666666666666</ele><time>2026-04-18T14:15:23.978Z</time></trkpt><trkpt lat="45.4584067" lon="9.0774983"><ele>126.33333333333334</ele><time>2026-04-18T14:15:24.977Z</time></trkpt><trkpt lat="45.458605" lon="9.0774617"><ele>127.0</ele><time>2026-04-18T14:15:25.977Z</time></trkpt><trkpt lat="45.4587933" lon="9.0774167"><ele>127.0</ele><time>2026-04-18T14:15:26.977Z</time></trkpt><trkpt lat="45.458985" lon="9.07736"><ele>127.0</ele><time>2026-04-18T14:15:27.977Z</time></trkpt><trkpt lat="45.4591767" lon="9.0773033"><ele>127.0</ele><time>2026-04-18T14:15:28.977Z</time></trkpt><trkpt lat="45.4593583" lon="9.07726"><ele>127.0</ele><time>2026-04-18T14:15:29.977Z</time></trkpt><trkpt lat="45.459555" lon="9.0772017"><ele>127.0</ele><time>2026-04-18T14:15:30.977Z</time></trkpt><trkpt lat="45.4597517" lon="9.077155"><ele>127.0</ele><time>2026-04-18T14:15:31.978Z</time></trkpt><trkpt lat="45.4599417" lon="9.077105"><ele>127.0</ele><time>2026-04-18T14:15:32.977Z</time></trkpt><trkpt lat="45.46014" lon="9.07705"><ele>127.0</ele><time>2026-04-18T14:15:33.977Z</time></trkpt><trkpt lat="45.4603367" lon="9.0769983"><ele>127.0</ele><time>2026-04-18T14:15:34.978Z</time></trkpt><trkpt lat="45.46052" lon="9.076945"><ele>127.66666666666667</ele><time>2026-04-18T14:15:35.977Z</time></trkpt><trkpt lat="45.4607133" lon="9.0768967"><ele>128.33333333333334</ele><time>2026-04-18T14:15:36.977Z</time></trkpt><trkpt lat="45.4609117" lon="9.076845"><ele>129.0</ele><time>2026-04-18T14:15:37.977Z</time></trkpt><trkpt lat="45.4611" lon="9.0767983"><ele>128.33333333333334</ele><time>2026-04-18T14:15:38.977Z</time></trkpt><trkpt lat="45.4612917" lon="9.07675"><ele>127.66666666666667</ele><time>2026-04-18T14:15:39.977Z</time></trkpt><trkpt lat="45.4614833" lon="9.0767017"><ele>127.0</ele><time>2026-04-18T14:15:40.977Z</time></trkpt><trkpt lat="45.4616667" lon="9.07665"><ele>127.0</ele><time>2026-04-18T14:15:41.977Z</time></trkpt><trkpt lat="45.461855" lon="9.0765933"><ele>127.0</ele><time>2026-04-18T14:15:42.977Z</time></trkpt><trkpt lat="45.4620533" lon="9.0765383"><ele>127.0</ele><time>2026-04-18T14:15:43.977Z</time></trkpt><trkpt lat="45.462245" lon="9.0764833"><ele>127.0</ele><time>2026-04-18T14:15:44.977Z</time></trkpt><trkpt lat="45.4624383" lon="9.0764283"><ele>127.0</ele><time>2026-04-18T14:15:45.977Z</time></trkpt><trkpt lat="45.46264" lon="9.0763833"><ele>127.0</ele><time>2026-04-18T14:15:46.977Z</time></trkpt><trkpt lat="45.4628367" lon="9.07635"><ele>127.66666666666667</ele><time>2026-04-18T14:15:47.977Z</time></trkpt><trkpt lat="45.46304" lon="9.0763283"><ele>128.33333333333334</ele><time>2026-04-18T14:15:48.977Z</time></trkpt><trkpt lat="45.4632433" lon="9.076305"><ele>129.0</ele><time>2026-04-18T14:15:49.977Z</time></trkpt><trkpt lat="45.4634467" lon="9.0762833"><ele>129.0</ele><time>2026-04-18T14:15:50.978Z</time></trkpt><trkpt lat="45.46365" lon="9.0762717"><ele>129.0</ele><time>2026-04-18T14:15:51.977Z</time></trkpt><trkpt lat="45.46386" lon="9.0762783"><ele>129.0</ele><time>2026-04-18T14:15:52.977Z</time></trkpt><trkpt lat="45.4640633" lon="9.0762933"><ele>129.33333333333334</ele><time>2026-04-18T14:15:53.977Z</time></trkpt><trkpt lat="45.4642617" lon="9.0763117"><ele>129.66666666666669</ele><time>2026-04-18T14:15:54.977Z</time></trkpt><trkpt lat="45.46447" lon="9.07633"><ele>130.0</ele><time>2026-04-18T14:15:55.977Z</time></trkpt><trkpt lat="45.4646767" lon="9.0763567"><ele>130.0</ele><time>2026-04-18T14:15:56.977Z</time></trkpt><trkpt lat="45.46488" lon="9.0764033"><ele>130.0</ele><time>2026-04-18T14:15:57.978Z</time></trkpt><trkpt lat="45.46509" lon="9.0764583"><ele>130.0</ele><time>2026-04-18T14:15:58.977Z</time></trkpt><trkpt lat="45.4653" lon="9.0765117"><ele>129.0</ele><time>2026-04-18T14:15:59.977Z</time></trkpt><trkpt lat="45.4654983" lon="9.0765783"><ele>128.0</ele><time>2026-04-18T14:16:00.977Z</time></trkpt><trkpt lat="45.46571" lon="9.0766533"><ele>127.0</ele><time>2026-04-18T14:16:01.977Z</time></trkpt><trkpt lat="45.4659167" lon="9.0767433"><ele>127.0</ele><time>2026-04-18T14:16:02.977Z</time></trkpt><trkpt lat="45.4661183" lon="9.0768433"><ele>127.0</ele><time>2026-04-18T14:16:03.977Z</time></trkpt><trkpt lat="45.4663267" lon="9.0769417"><ele>127.0</ele><time>2026-04-18T14:16:04.977Z</time></trkpt><trkpt lat="45.4665317" lon="9.0770583"><ele>127.33333333333334</ele><time>2026-04-18T14:16:05.977Z</time></trkpt><trkpt lat="45.4667333" lon="9.0771817"><ele>127.66666666666666</ele><time>2026-04-18T14:16:06.977Z</time></trkpt><trkpt lat="45.4669383" lon="9.0772983"><ele>128.0</ele><time>2026-04-18T14:16:07.977Z</time></trkpt><trkpt lat="45.4671467" lon="9.0774217"><ele>128.33333333333331</ele><time>2026-04-18T14:16:08.977Z</time></trkpt><trkpt lat="45.4673567" lon="9.0775317"><ele>128.66666666666666</ele><time>2026-04-18T14:16:09.977Z</time></trkpt><trkpt lat="45.46756" lon="9.0776483"><ele>129.0</ele><time>2026-04-18T14:16:10.977Z</time></trkpt><trkpt lat="45.4677683" lon="9.07777"><ele>128.33333333333334</ele><time>2026-04-18T14:16:11.977Z</time></trkpt><trkpt lat="45.4679783" lon="9.0778833"><ele>127.66666666666667</ele><time>2026-04-18T14:16:12.977Z</time></trkpt><trkpt lat="45.46818" lon="9.078005"><ele>127.0</ele><time>2026-04-18T14:16:13.977Z</time></trkpt><trkpt lat="45.4683833" lon="9.0781233"><ele>127.0</ele><time>2026-04-18T14:16:14.977Z</time></trkpt><trkpt lat="45.46858" lon="9.0782467"><ele>127.0</ele><time>2026-04-18T14:16:15.977Z</time></trkpt><trkpt lat="45.4687767" lon="9.078365"><ele>127.0</ele><time>2026-04-18T14:16:16.977Z</time></trkpt><trkpt lat="45.4689717" lon="9.078475"><ele>128.0</ele><time>2026-04-18T14:16:17.977Z</time></trkpt><trkpt lat="45.4691667" lon="9.0785783"><ele>129.0</ele><time>2026-04-18T14:16:18.977Z</time></trkpt><trkpt lat="45.4693567" lon="9.078695"><ele>130.0</ele><time>2026-04-18T14:16:19.977Z</time></trkpt><trkpt lat="45.4695433" lon="9.0788083"><ele>129.66666666666669</ele><time>2026-04-18T14:16:20.977Z</time></trkpt><trkpt lat="45.46973" lon="9.0789167"><ele>129.33333333333334</ele><time>2026-04-18T14:16:21.977Z</time></trkpt><trkpt lat="45.4699117" lon="9.0790283"><ele>129.0</ele><time>2026-04-18T14:16:22.977Z</time></trkpt><trkpt lat="45.4700933" lon="9.0791283"><ele>129.0</ele><time>2026-04-18T14:16:23.977Z</time></trkpt><trkpt lat="45.4702633" lon="9.079225"><ele>129.0</ele><time>2026-04-18T14:16:24.977Z</time></trkpt><trkpt lat="45.470435" lon="9.0793183"><ele>129.0</ele><time>2026-04-18T14:16:25.977Z</time></trkpt><trkpt lat="45.47061" lon="9.0794083"><ele>128.66666666666666</ele><time>2026-04-18T14:16:26.977Z</time></trkpt><trkpt lat="45.47079" lon="9.07949"><ele>128.33333333333331</ele><time>2026-04-18T14:16:27.978Z</time></trkpt><trkpt lat="45.4709617" lon="9.079565"><ele>128.0</ele><time>2026-04-18T14:16:28.977Z</time></trkpt><trkpt lat="45.4711417" lon="9.0796317"><ele>128.0</ele><time>2026-04-18T14:16:29.977Z</time></trkpt><trkpt lat="45.4713167" lon="9.0796933"><ele>128.0</ele><time>2026-04-18T14:16:30.977Z</time></trkpt><trkpt lat="45.4715033" lon="9.079745"><ele>128.0</ele><time>2026-04-18T14:16:31.977Z</time></trkpt><trkpt lat="45.47169" lon="9.079785"><ele>128.0</ele><time>2026-04-18T14:16:32.977Z</time></trkpt><trkpt lat="45.4718683" lon="9.079815"><ele>128.0</ele><time>2026-04-18T14:16:33.977Z</time></trkpt><trkpt lat="45.472045" lon="9.079845"><ele>128.0</ele><time>2026-04-18T14:16:34.977Z</time></trkpt><trkpt lat="45.4722283" lon="9.07986"><ele>128.0</ele><time>2026-04-18T14:16:35.977Z</time></trkpt><trkpt lat="45.47241" lon="9.0798667"><ele>128.0</ele><time>2026-04-18T14:16:36.977Z</time></trkpt><trkpt lat="45.4725933" lon="9.0798683"><ele>128.0</ele><time>2026-04-18T14:16:37.977Z</time></trkpt><trkpt lat="45.4727733" lon="9.079855"><ele>128.66666666666666</ele><time>2026-04-18T14:16:38.977Z</time></trkpt><trkpt lat="45.4729483" lon="9.0798383"><ele>129.33333333333334</ele><time>2026-04-18T14:16:39.977Z</time></trkpt><trkpt lat="45.4731233" lon="9.0798167"><ele>130.0</ele><time>2026-04-18T14:16:40.977Z</time></trkpt><trkpt lat="45.4732967" lon="9.0797767"><ele>130.0</ele><time>2026-04-18T14:16:41.978Z</time></trkpt><trkpt lat="45.47348" lon="9.079735"><ele>130.0</ele><time>2026-04-18T14:16:42.977Z</time></trkpt><trkpt lat="45.4736567" lon="9.0796833"><ele>130.0</ele><time>2026-04-18T14:16:43.977Z</time></trkpt><trkpt lat="45.4738217" lon="9.079625"><ele>130.0</ele><time>2026-04-18T14:16:44.977Z</time></trkpt><trkpt lat="45.4739883" lon="9.079555"><ele>130.0</ele><time>2026-04-18T14:16:45.977Z</time></trkpt><trkpt lat="45.4741567" lon="9.0794783"><ele>130.0</ele><time>2026-04-18T14:16:46.977Z</time></trkpt><trkpt lat="45.4743233" lon="9.0794017"><ele>130.0</ele><time>2026-04-18T14:16:47.977Z</time></trkpt><trkpt lat="45.4744867" lon="9.07931"><ele>130.0</ele><time>2026-04-18T14:16:48.977Z</time></trkpt><trkpt lat="45.47465" lon="9.0792217"><ele>130.0</ele><time>2026-04-18T14:16:49.977Z</time></trkpt><trkpt lat="45.4748067" lon="9.0791233"><ele>130.66666666666669</ele><time>2026-04-18T14:16:50.977Z</time></trkpt><trkpt lat="45.4749683" lon="9.0790133"><ele>131.33333333333334</ele><time>2026-04-18T14:16:51.977Z</time></trkpt><trkpt lat="45.4751217" lon="9.078895"><ele>132.0</ele><time>2026-04-18T14:16:52.977Z</time></trkpt><trkpt lat="45.47528" lon="9.0787667"><ele>132.0</ele><time>2026-04-18T14:16:53.977Z</time></trkpt><trkpt lat="45.4754283" lon="9.078635"><ele>132.0</ele><time>2026-04-18T14:16:54.977Z</time></trkpt><trkpt lat="45.475575" lon="9.078495"><ele>132.0</ele><time>2026-04-18T14:16:55.977Z</time></trkpt><trkpt lat="45.4757167" lon="9.0783617"><ele>131.66666666666666</ele><time>2026-04-18T14:16:56.977Z</time></trkpt><trkpt lat="45.4758617" lon="9.0782283"><ele>131.33333333333331</ele><time>2026-04-18T14:16:57.977Z</time></trkpt><trkpt lat="45.4760117" lon="9.078095"><ele>131.0</ele><time>2026-04-18T14:16:58.978Z</time></trkpt><trkpt lat="45.4761517" lon="9.07796"><ele>131.0</ele><time>2026-04-18T14:16:59.977Z</time></trkpt><trkpt lat="45.4762867" lon="9.07783"><ele>131.0</ele><time>2026-04-18T14:17:00.978Z</time></trkpt><trkpt lat="45.476415" lon="9.077695"><ele>131.0</ele><time>2026-04-18T14:17:01.978Z</time></trkpt><trkpt lat="45.4765533" lon="9.0775667"><ele>130.66666666666666</ele><time>2026-04-18T14:17:02.977Z</time></trkpt><trkpt lat="45.4766917" lon="9.0774333"><ele>130.33333333333334</ele><time>2026-04-18T14:17:03.977Z</time></trkpt><trkpt lat="45.4768333" lon="9.0772917"><ele>130.0</ele><time>2026-04-18T14:17:04.977Z</time></trkpt><trkpt lat="45.4769817" lon="9.0771567"><ele>130.33333333333334</ele><time>2026-04-18T14:17:05.977Z</time></trkpt><trkpt lat="45.477125" lon="9.0770167"><ele>130.66666666666666</ele><time>2026-04-18T14:17:06.977Z</time></trkpt><trkpt lat="45.477265" lon="9.0768783"><ele>131.0</ele><time>2026-04-18T14:17:07.977Z</time></trkpt><trkpt lat="45.4774033" lon="9.0767433"><ele>131.0</ele><time>2026-04-18T14:17:08.977Z</time></trkpt><trkpt lat="45.4775367" lon="9.0766233"><ele>131.0</ele><time>2026-04-18T14:17:09.977Z</time></trkpt><trkpt lat="45.4776767" lon="9.0764933"><ele>131.0</ele><time>2026-04-18T14:17:10.977Z</time></trkpt><trkpt lat="45.477815" lon="9.0763683"><ele>131.33333333333331</ele><time>2026-04-18T14:17:11.977Z</time></trkpt><trkpt lat="45.477955" lon="9.0762367"><ele>131.66666666666666</ele><time>2026-04-18T14:17:12.977Z</time></trkpt><trkpt lat="45.4780867" lon="9.0761067"><ele>132.0</ele><time>2026-04-18T14:17:13.977Z</time></trkpt><trkpt lat="45.4782183" lon="9.0759817"><ele>132.0</ele><time>2026-04-18T14:17:14.977Z</time></trkpt><trkpt lat="45.4783467" lon="9.0758517"><ele>132.0</ele><time>2026-04-18T14:17:15.977Z</time></trkpt><trkpt lat="45.478485" lon="9.07572"><ele>132.0</ele><time>2026-04-18T14:17:16.977Z</time></trkpt><trkpt lat="45.478625" lon="9.07558"><ele>132.0</ele><time>2026-04-18T14:17:17.977Z</time></trkpt><trkpt lat="45.478765" lon="9.0754417"><ele>132.0</ele><time>2026-04-18T14:17:18.977Z</time></trkpt><trkpt lat="45.4789133" lon="9.0752983"><ele>132.0</ele><time>2026-04-18T14:17:19.978Z</time></trkpt><trkpt lat="45.4790567" lon="9.0751667"><ele>132.0</ele><time>2026-04-18T14:17:20.978Z</time></trkpt><trkpt lat="45.4792033" lon="9.07503"><ele>132.0</ele><time>2026-04-18T14:17:21.977Z</time></trkpt><trkpt lat="45.4793467" lon="9.0748933"><ele>132.0</ele><time>2026-04-18T14:17:22.977Z</time></trkpt><trkpt lat="45.4794867" lon="9.0747517"><ele>132.66666666666666</ele><time>2026-04-18T14:17:23.977Z</time></trkpt><trkpt lat="45.4796317" lon="9.0746167"><ele>133.33333333333331</ele><time>2026-04-18T14:17:24.977Z</time></trkpt><trkpt lat="45.4797767" lon="9.07448"><ele>134.0</ele><time>2026-04-18T14:17:25.978Z</time></trkpt><trkpt lat="45.4799167" lon="9.0743433"><ele>134.0</ele><time>2026-04-18T14:17:26.977Z</time></trkpt><trkpt lat="45.4800683" lon="9.0742017"><ele>134.0</ele><time>2026-04-18T14:17:27.977Z</time></trkpt><trkpt lat="45.4802167" lon="9.0740617"><ele>134.0</ele><time>2026-04-18T14:17:28.977Z</time></trkpt><trkpt lat="45.4803633" lon="9.07392"><ele>132.33333333333331</ele><time>2026-04-18T14:17:29.978Z</time></trkpt><trkpt lat="45.4805033" lon="9.0737783"><ele>130.66666666666666</ele><time>2026-04-18T14:17:30.977Z</time></trkpt><trkpt lat="45.4806467" lon="9.0736317"><ele>129.0</ele><time>2026-04-18T14:17:31.977Z</time></trkpt><trkpt lat="45.4807917" lon="9.0734967"><ele>129.0</ele><time>2026-04-18T14:17:32.978Z</time></trkpt><trkpt lat="45.48093" lon="9.0733533"><ele>129.0</ele><time>2026-04-18T14:17:33.977Z</time></trkpt><trkpt lat="45.4810717" lon="9.0732167"><ele>129.0</ele><time>2026-04-18T14:17:34.977Z</time></trkpt><trkpt lat="45.481215" lon="9.0730783"><ele>129.33333333333334</ele><time>2026-04-18T14:17:35.977Z</time></trkpt><trkpt lat="45.48136" lon="9.0729483"><ele>129.66666666666669</ele><time>2026-04-18T14:17:36.977Z</time></trkpt><trkpt lat="45.4815067" lon="9.07281"><ele>130.0</ele><time>2026-04-18T14:17:37.977Z</time></trkpt><trkpt lat="45.4816517" lon="9.0726767"><ele>130.0</ele><time>2026-04-18T14:17:38.977Z</time></trkpt><trkpt lat="45.4817933" lon="9.0725367"><ele>130.0</ele><time>2026-04-18T14:17:39.977Z</time></trkpt><trkpt lat="45.48193" lon="9.072405"><ele>130.0</ele><time>2026-04-18T14:17:40.977Z</time></trkpt><trkpt lat="45.4820733" lon="9.07227"><ele>130.66666666666669</ele><time>2026-04-18T14:17:41.977Z</time></trkpt><trkpt lat="45.4822117" lon="9.0721367"><ele>131.33333333333334</ele><time>2026-04-18T14:17:42.977Z</time></trkpt><trkpt lat="45.4823483" lon="9.0719983"><ele>132.0</ele><time>2026-04-18T14:17:43.977Z</time></trkpt><trkpt lat="45.4824917" lon="9.0718683"><ele>132.0</ele><time>2026-04-18T14:17:44.977Z</time></trkpt><trkpt lat="45.4826283" lon="9.07174"><ele>132.0</ele><time>2026-04-18T14:17:45.977Z</time></trkpt><trkpt lat="45.4827667" lon="9.0716083"><ele>132.0</ele><time>2026-04-18T14:17:46.977Z</time></trkpt><trkpt lat="45.4829083" lon="9.07147"><ele>131.66666666666666</ele><time>2026-04-18T14:17:47.978Z</time></trkpt><trkpt lat="45.4830433" lon="9.0713383"><ele>131.33333333333331</ele><time>2026-04-18T14:17:48.978Z</time></trkpt><trkpt lat="45.483185" lon="9.071205"><ele>131.0</ele><time>2026-04-18T14:17:49.977Z</time></trkpt><trkpt lat="45.483325" lon="9.0710633"><ele>131.0</ele><time>2026-04-18T14:17:50.977Z</time></trkpt><trkpt lat="45.483465" lon="9.0709167"><ele>131.0</ele><time>2026-04-18T14:17:51.977Z</time></trkpt><trkpt lat="45.483615" lon="9.0707783"><ele>131.0</ele><time>2026-04-18T14:17:52.977Z</time></trkpt><trkpt lat="45.4837633" lon="9.070645"><ele>130.33333333333331</ele><time>2026-04-18T14:17:53.977Z</time></trkpt><trkpt lat="45.4839083" lon="9.0705033"><ele>129.66666666666666</ele><time>2026-04-18T14:17:54.978Z</time></trkpt><trkpt lat="45.48405" lon="9.0703667"><ele>129.0</ele><time>2026-04-18T14:17:55.977Z</time></trkpt><trkpt lat="45.4841883" lon="9.0702317"><ele>129.0</ele><time>2026-04-18T14:17:56.977Z</time></trkpt><trkpt lat="45.4843333" lon="9.07009"><ele>129.0</ele><time>2026-04-18T14:17:57.977Z</time></trkpt><trkpt lat="45.4844783" lon="9.0699517"><ele>129.0</ele><time>2026-04-18T14:17:58.977Z</time></trkpt><trkpt lat="45.48462" lon="9.06981"><ele>130.33333333333334</ele><time>2026-04-18T14:17:59.977Z</time></trkpt><trkpt lat="45.4847667" lon="9.0696767"><ele>131.66666666666669</ele><time>2026-04-18T14:18:00.977Z</time></trkpt><trkpt lat="45.484915" lon="9.0695383"><ele>133.0</ele><time>2026-04-18T14:18:01.978Z</time></trkpt><trkpt lat="45.4850633" lon="9.0694033"><ele>133.0</ele><time>2026-04-18T14:18:02.977Z</time></trkpt><trkpt lat="45.4852067" lon="9.0692667"><ele>133.0</ele><time>2026-04-18T14:18:03.977Z</time></trkpt><trkpt lat="45.4853517" lon="9.069125"><ele>133.0</ele><time>2026-04-18T14:18:04.977Z</time></trkpt><trkpt lat="45.4854967" lon="9.0689917"><ele>132.66666666666669</ele><time>2026-04-18T14:18:05.977Z</time></trkpt><trkpt lat="45.4856467" lon="9.068865"><ele>132.33333333333334</ele><time>2026-04-18T14:18:06.977Z</time></trkpt><trkpt lat="45.4857983" lon="9.068735"><ele>132.0</ele><time>2026-04-18T14:18:07.977Z</time></trkpt><trkpt lat="45.4859483" lon="9.068615"><ele>132.0</ele><time>2026-04-18T14:18:08.977Z</time></trkpt><trkpt lat="45.4860983" lon="9.0684983"><ele>132.0</ele><time>2026-04-18T14:18:09.977Z</time></trkpt><trkpt lat="45.4862483" lon="9.0683833"><ele>132.0</ele><time>2026-04-18T14:18:10.977Z</time></trkpt><trkpt lat="45.4864" lon="9.068275"><ele>132.66666666666666</ele><time>2026-04-18T14:18:11.978Z</time></trkpt><trkpt lat="45.4865567" lon="9.0681683"><ele>133.33333333333331</ele><time>2026-04-18T14:18:12.977Z</time></trkpt><trkpt lat="45.4867067" lon="9.0680633"><ele>134.0</ele><time>2026-04-18T14:18:13.977Z</time></trkpt><trkpt lat="45.4868567" lon="9.0679583"><ele>134.0</ele><time>2026-04-18T14:18:14.977Z</time></trkpt><trkpt lat="45.487015" lon="9.0678617"><ele>134.0</ele><time>2026-04-18T14:18:15.977Z</time></trkpt><trkpt lat="45.4871733" lon="9.0677667"><ele>134.0</ele><time>2026-04-18T14:18:16.978Z</time></trkpt><trkpt lat="45.4873333" lon="9.0676817"><ele>134.0</ele><time>2026-04-18T14:18:17.977Z</time></trkpt><trkpt lat="45.4874883" lon="9.0675967"><ele>134.0</ele><time>2026-04-18T14:18:18.977Z</time></trkpt><trkpt lat="45.4876517" lon="9.0675117"><ele>134.0</ele><time>2026-04-18T14:18:19.977Z</time></trkpt><trkpt lat="45.487815" lon="9.0674333"><ele>134.66666666666666</ele><time>2026-04-18T14:18:20.977Z</time></trkpt><trkpt lat="45.4879783" lon="9.0673617"><ele>135.33333333333334</ele><time>2026-04-18T14:18:21.977Z</time></trkpt><trkpt lat="45.488145" lon="9.0672917"><ele>136.0</ele><time>2026-04-18T14:18:22.977Z</time></trkpt><trkpt lat="45.48831" lon="9.0672283"><ele>136.0</ele><time>2026-04-18T14:18:23.977Z</time></trkpt><trkpt lat="45.4884783" lon="9.06716"><ele>136.0</ele><time>2026-04-18T14:18:24.977Z</time></trkpt><trkpt lat="45.4886533" lon="9.0671083"><ele>136.0</ele><time>2026-04-18T14:18:25.977Z</time></trkpt><trkpt lat="45.4888333" lon="9.0670417"><ele>136.0</ele><time>2026-04-18T14:18:26.977Z</time></trkpt><trkpt lat="45.48901" lon="9.0669933"><ele>136.0</ele><time>2026-04-18T14:18:27.977Z</time></trkpt><trkpt lat="45.489185" lon="9.0669417"><ele>136.0</ele><time>2026-04-18T14:18:28.978Z</time></trkpt><trkpt lat="45.48936" lon="9.0669067"><ele>136.0</ele><time>2026-04-18T14:18:29.977Z</time></trkpt><trkpt lat="45.4895433" lon="9.0668683"><ele>136.0</ele><time>2026-04-18T14:18:30.977Z</time></trkpt><trkpt lat="45.489735" lon="9.0668367"><ele>136.0</ele><time>2026-04-18T14:18:31.977Z</time></trkpt><trkpt lat="45.4899267" lon="9.0668033"><ele>136.0</ele><time>2026-04-18T14:18:32.977Z</time></trkpt><trkpt lat="45.49012" lon="9.0667767"><ele>136.0</ele><time>2026-04-18T14:18:33.977Z</time></trkpt><trkpt lat="45.4903117" lon="9.0667433"><ele>136.0</ele><time>2026-04-18T14:18:34.977Z</time></trkpt><trkpt lat="45.4905083" lon="9.06672"><ele>135.33333333333334</ele><time>2026-04-18T14:18:35.977Z</time></trkpt><trkpt lat="45.4907017" lon="9.0667017"><ele>134.66666666666666</ele><time>2026-04-18T14:18:36.977Z</time></trkpt><trkpt lat="45.4909033" lon="9.0666967"><ele>134.0</ele><time>2026-04-18T14:18:37.977Z</time></trkpt><trkpt lat="45.4910983" lon="9.0666883"><ele>133.66666666666666</ele><time>2026-04-18T14:18:38.977Z</time></trkpt><trkpt lat="45.4913" lon="9.066685"><ele>133.33333333333334</ele><time>2026-04-18T14:18:39.977Z</time></trkpt><trkpt lat="45.4915083" lon="9.0666867"><ele>133.0</ele><time>2026-04-18T14:18:40.978Z</time></trkpt><trkpt lat="45.4917117" lon="9.0666917"><ele>133.0</ele><time>2026-04-18T14:18:41.977Z</time></trkpt><trkpt lat="45.4919183" lon="9.0666933"><ele>133.0</ele><time>2026-04-18T14:18:42.977Z</time></trkpt><trkpt lat="45.492125" lon="9.06671"><ele>133.0</ele><time>2026-04-18T14:18:43.977Z</time></trkpt><trkpt lat="45.49232" lon="9.0667267"><ele>133.33333333333334</ele><time>2026-04-18T14:18:44.978Z</time></trkpt><trkpt lat="45.4925167" lon="9.0667267"><ele>133.66666666666666</ele><time>2026-04-18T14:18:45.977Z</time></trkpt><trkpt lat="45.4927117" lon="9.0667233"><ele>134.0</ele><time>2026-04-18T14:18:46.977Z</time></trkpt><trkpt lat="45.49289" lon="9.0667283"><ele>135.33333333333331</ele><time>2026-04-18T14:18:47.977Z</time></trkpt><trkpt lat="45.4930717" lon="9.0667383"><ele>136.66666666666666</ele><time>2026-04-18T14:18:48.977Z</time></trkpt><trkpt lat="45.493245" lon="9.0667433"><ele>138.0</ele><time>2026-04-18T14:18:49.977Z</time></trkpt><trkpt lat="45.4933933" lon="9.06673"><ele>138.0</ele><time>2026-04-18T14:18:50.977Z</time></trkpt><trkpt lat="45.4935333" lon="9.0667433"><ele>138.0</ele><time>2026-04-18T14:18:51.977Z</time></trkpt><trkpt lat="45.4937017" lon="9.0667567"><ele>138.0</ele><time>2026-04-18T14:18:52.977Z</time></trkpt><trkpt lat="45.4938583" lon="9.066775"><ele>137.33333333333334</ele><time>2026-04-18T14:18:53.977Z</time></trkpt><trkpt lat="45.4940133" lon="9.066785"><ele>136.66666666666669</ele><time>2026-04-18T14:18:54.977Z</time></trkpt><trkpt lat="45.4941833" lon="9.066795"><ele>136.0</ele><time>2026-04-18T14:18:55.977Z</time></trkpt><trkpt lat="45.4943467" lon="9.0667967"><ele>136.0</ele><time>2026-04-18T14:18:56.977Z</time></trkpt><trkpt lat="45.49451" lon="9.066795"><ele>136.0</ele><time>2026-04-18T14:18:57.977Z</time></trkpt><trkpt lat="45.4946767" lon="9.0667983"><ele>136.0</ele><time>2026-04-18T14:18:58.977Z</time></trkpt><trkpt lat="45.4948417" lon="9.0668083"><ele>135.66666666666669</ele><time>2026-04-18T14:18:59.978Z</time></trkpt><trkpt lat="45.4950067" lon="9.0668217"><ele>135.33333333333334</ele><time>2026-04-18T14:19:00.977Z</time></trkpt><trkpt lat="45.495175" lon="9.0668333"><ele>135.0</ele><time>2026-04-18T14:19:01.977Z</time></trkpt><trkpt lat="45.4953433" lon="9.0668383"><ele>135.33333333333334</ele><time>2026-04-18T14:19:02.977Z</time></trkpt><trkpt lat="45.4955117" lon="9.0668417"><ele>135.66666666666669</ele><time>2026-04-18T14:19:03.977Z</time></trkpt><trkpt lat="45.4956683" lon="9.066855"><ele>136.0</ele><time>2026-04-18T14:19:04.977Z</time></trkpt><trkpt lat="45.4958417" lon="9.0668617"><ele>136.0</ele><time>2026-04-18T14:19:05.977Z</time></trkpt><trkpt lat="45.4960067" lon="9.0668667"><ele>136.0</ele><time>2026-04-18T14:19:06.977Z</time></trkpt><trkpt lat="45.4961767" lon="9.0668617"><ele>136.0</ele><time>2026-04-18T14:19:07.977Z</time></trkpt><trkpt lat="45.49635" lon="9.0668733"><ele>136.33333333333334</ele><time>2026-04-18T14:19:08.977Z</time></trkpt><trkpt lat="45.4965217" lon="9.06689"><ele>136.66666666666666</ele><time>2026-04-18T14:19:09.977Z</time></trkpt><trkpt lat="45.4966917" lon="9.066905"><ele>137.0</ele><time>2026-04-18T14:19:10.977Z</time></trkpt><trkpt lat="45.4968717" lon="9.0669133"><ele>137.0</ele><time>2026-04-18T14:19:11.977Z</time></trkpt><trkpt lat="45.497035" lon="9.06691"><ele>137.0</ele><time>2026-04-18T14:19:12.977Z</time></trkpt><trkpt lat="45.4972033" lon="9.0669067"><ele>137.0</ele><time>2026-04-18T14:19:13.977Z</time></trkpt><trkpt lat="45.497375" lon="9.06691"><ele>137.0</ele><time>2026-04-18T14:19:14.977Z</time></trkpt><trkpt lat="45.49753" lon="9.0669183"><ele>137.0</ele><time>2026-04-18T14:19:15.977Z</time></trkpt><trkpt lat="45.4977" lon="9.06692"><ele>137.0</ele><time>2026-04-18T14:19:16.977Z</time></trkpt><trkpt lat="45.4978667" lon="9.066935"><ele>136.66666666666666</ele><time>2026-04-18T14:19:17.977Z</time></trkpt><trkpt lat="45.4980283" lon="9.0669333"><ele>136.33333333333334</ele><time>2026-04-18T14:19:18.977Z</time></trkpt><trkpt lat="45.4981817" lon="9.066925"><ele>136.0</ele><time>2026-04-18T14:19:19.977Z</time></trkpt><trkpt lat="45.4983433" lon="9.0669367"><ele>136.0</ele><time>2026-04-18T14:19:20.977Z</time></trkpt><trkpt lat="45.4985117" lon="9.0669517"><ele>136.0</ele><time>2026-04-18T14:19:21.977Z</time></trkpt><trkpt lat="45.4986683" lon="9.0669533"><ele>136.0</ele><time>2026-04-18T14:19:22.977Z</time></trkpt><trkpt lat="45.4988317" lon="9.0669633"><ele>135.66666666666669</ele><time>2026-04-18T14:19:23.977Z</time></trkpt><trkpt lat="45.49899" lon="9.06697"><ele>135.33333333333334</ele><time>2026-04-18T14:19:24.977Z</time></trkpt><trkpt lat="45.49916" lon="9.066975"><ele>135.0</ele><time>2026-04-18T14:19:25.977Z</time></trkpt><trkpt lat="45.4993217" lon="9.0669733"><ele>135.0</ele><time>2026-04-18T14:19:26.978Z</time></trkpt><trkpt lat="45.4994967" lon="9.0669717"><ele>135.0</ele><time>2026-04-18T14:19:27.977Z</time></trkpt><trkpt lat="45.49966" lon="9.0669683"><ele>135.0</ele><time>2026-04-18T14:19:28.977Z</time></trkpt><trkpt lat="45.4998383" lon="9.0669567"><ele>136.0</ele><time>2026-04-18T14:19:29.977Z</time></trkpt><trkpt lat="45.5000083" lon="9.066945"><ele>137.0</ele><time>2026-04-18T14:19:30.977Z</time></trkpt><trkpt lat="45.5001883" lon="9.0669233"><ele>138.0</ele><time>2026-04-18T14:19:31.977Z</time></trkpt><trkpt lat="45.5003567" lon="9.0669033"><ele>137.66666666666666</ele><time>2026-04-18T14:19:32.977Z</time></trkpt><trkpt lat="45.5005333" lon="9.06688"><ele>137.33333333333331</ele><time>2026-04-18T14:19:33.977Z</time></trkpt><trkpt lat="45.5007067" lon="9.0668433"><ele>137.0</ele><time>2026-04-18T14:19:34.977Z</time></trkpt><trkpt lat="45.500875" lon="9.0668067"><ele>137.0</ele><time>2026-04-18T14:19:35.977Z</time></trkpt><trkpt lat="45.5010433" lon="9.0667683"><ele>137.0</ele><time>2026-04-18T14:19:36.977Z</time></trkpt><trkpt lat="45.5012033" lon="9.0667183"><ele>137.0</ele><time>2026-04-18T14:19:37.977Z</time></trkpt><trkpt lat="45.5013733" lon="9.06667"><ele>137.33333333333331</ele><time>2026-04-18T14:19:38.977Z</time></trkpt><trkpt lat="45.5015333" lon="9.0666233"><ele>137.66666666666666</ele><time>2026-04-18T14:19:39.977Z</time></trkpt><trkpt lat="45.5017017" lon="9.06657"><ele>138.0</ele><time>2026-04-18T14:19:40.977Z</time></trkpt><trkpt lat="45.5018567" lon="9.0665133"><ele>138.0</ele><time>2026-04-18T14:19:41.977Z</time></trkpt><trkpt lat="45.5020133" lon="9.0664583"><ele>138.0</ele><time>2026-04-18T14:19:42.977Z</time></trkpt><trkpt lat="45.50217" lon="9.0664033"><ele>138.0</ele><time>2026-04-18T14:19:43.977Z</time></trkpt><trkpt lat="45.5023167" lon="9.06635"><ele>139.0</ele><time>2026-04-18T14:19:44.977Z</time></trkpt><trkpt lat="45.502475" lon="9.0662783"><ele>140.0</ele><time>2026-04-18T14:19:45.977Z</time></trkpt><trkpt lat="45.502625" lon="9.0662183"><ele>141.0</ele><time>2026-04-18T14:19:46.978Z</time></trkpt><trkpt lat="45.5027717" lon="9.0661517"><ele>140.66666666666666</ele><time>2026-04-18T14:19:47.977Z</time></trkpt><trkpt lat="45.5029217" lon="9.0660917"><ele>140.33333333333331</ele><time>2026-04-18T14:19:48.977Z</time></trkpt><trkpt lat="45.5030767" lon="9.0660317"><ele>140.0</ele><time>2026-04-18T14:19:49.977Z</time></trkpt><trkpt lat="45.5032267" lon="9.065965"><ele>140.0</ele><time>2026-04-18T14:19:50.977Z</time></trkpt><trkpt lat="45.5033767" lon="9.065895"><ele>140.0</ele><time>2026-04-18T14:19:51.978Z</time></trkpt><trkpt lat="45.5035283" lon="9.065835"><ele>140.0</ele><time>2026-04-18T14:19:52.977Z</time></trkpt><trkpt lat="45.5036883" lon="9.065775"><ele>139.66666666666666</ele><time>2026-04-18T14:19:53.977Z</time></trkpt><trkpt lat="45.50385" lon="9.0657183"><ele>139.33333333333334</ele><time>2026-04-18T14:19:54.977Z</time></trkpt><trkpt lat="45.50401" lon="9.0656583"><ele>139.0</ele><time>2026-04-18T14:19:55.977Z</time></trkpt><trkpt lat="45.5041733" lon="9.0655967"><ele>139.0</ele><time>2026-04-18T14:19:56.977Z</time></trkpt><trkpt lat="45.50434" lon="9.0655233"><ele>139.0</ele><time>2026-04-18T14:19:57.977Z</time></trkpt><trkpt lat="45.5045033" lon="9.0654617"><ele>139.0</ele><time>2026-04-18T14:19:58.977Z</time></trkpt><trkpt lat="45.5046733" lon="9.0654033"><ele>139.66666666666669</ele><time>2026-04-18T14:19:59.977Z</time></trkpt><trkpt lat="45.5048483" lon="9.06535"><ele>140.33333333333334</ele><time>2026-04-18T14:20:00.977Z</time></trkpt><trkpt lat="45.5050267" lon="9.0652883"><ele>141.0</ele><time>2026-04-18T14:20:01.978Z</time></trkpt><trkpt lat="45.5052067" lon="9.0652267"><ele>141.0</ele><time>2026-04-18T14:20:02.977Z</time></trkpt><trkpt lat="45.505385" lon="9.065165"><ele>141.0</ele><time>2026-04-18T14:20:03.977Z</time></trkpt><trkpt lat="45.5055667" lon="9.0650983"><ele>141.0</ele><time>2026-04-18T14:20:04.977Z</time></trkpt><trkpt lat="45.5057417" lon="9.0650467"><ele>141.33333333333334</ele><time>2026-04-18T14:20:05.977Z</time></trkpt><trkpt lat="45.505925" lon="9.064975"><ele>141.66666666666669</ele><time>2026-04-18T14:20:06.977Z</time></trkpt><trkpt lat="45.5061067" lon="9.064905"><ele>142.0</ele><time>2026-04-18T14:20:07.977Z</time></trkpt><trkpt lat="45.5062917" lon="9.064835"><ele>142.0</ele><time>2026-04-18T14:20:08.977Z</time></trkpt><trkpt lat="45.5064783" lon="9.0647583"><ele>142.0</ele><time>2026-04-18T14:20:09.977Z</time></trkpt><trkpt lat="45.5066633" lon="9.0646817"><ele>142.0</ele><time>2026-04-18T14:20:10.977Z</time></trkpt><trkpt lat="45.506855" lon="9.0646167"><ele>142.0</ele><time>2026-04-18T14:20:11.977Z</time></trkpt><trkpt lat="45.507045" lon="9.0645467"><ele>142.0</ele><time>2026-04-18T14:20:12.977Z</time></trkpt><trkpt lat="45.50723" lon="9.06447"><ele>142.0</ele><time>2026-04-18T14:20:13.977Z</time></trkpt><trkpt lat="45.5074167" lon="9.064385"><ele>143.0</ele><time>2026-04-18T14:20:14.976Z</time></trkpt><trkpt lat="45.5076033" lon="9.0642983"><ele>144.0</ele><time>2026-04-18T14:20:15.976Z</time></trkpt><trkpt lat="45.5077933" lon="9.0641983"><ele>145.0</ele><time>2026-04-18T14:20:16.976Z</time></trkpt><trkpt lat="45.5079833" lon="9.0640933"><ele>145.33333333333334</ele><time>2026-04-18T14:20:17.977Z</time></trkpt><trkpt lat="45.50818" lon="9.063995"><ele>145.66666666666666</ele><time>2026-04-18T14:20:18.976Z</time></trkpt><trkpt lat="45.508375" lon="9.0639"><ele>146.0</ele><time>2026-04-18T14:20:19.976Z</time></trkpt><trkpt lat="45.5085717" lon="9.0638017"><ele>146.0</ele><time>2026-04-18T14:20:20.976Z</time></trkpt><trkpt lat="45.5087633" lon="9.0637"><ele>146.0</ele><time>2026-04-18T14:20:21.976Z</time></trkpt><trkpt lat="45.50896" lon="9.063605"><ele>146.0</ele><time>2026-04-18T14:20:22.976Z</time></trkpt><trkpt lat="45.5091567" lon="9.063505"><ele>146.0</ele><time>2026-04-18T14:20:23.976Z</time></trkpt><trkpt lat="45.5093617" lon="9.0634067"><ele>146.0</ele><time>2026-04-18T14:20:24.976Z</time></trkpt><trkpt lat="45.509545" lon="9.0633"><ele>146.0</ele><time>2026-04-18T14:20:25.976Z</time></trkpt><trkpt lat="45.5097283" lon="9.063205"><ele>145.33333333333331</ele><time>2026-04-18T14:20:26.976Z</time></trkpt><trkpt lat="45.50991" lon="9.0631183"><ele>144.66666666666666</ele><time>2026-04-18T14:20:27.976Z</time></trkpt><trkpt lat="45.51008" lon="9.0630217"><ele>144.0</ele><time>2026-04-18T14:20:28.976Z</time></trkpt><trkpt lat="45.5102367" lon="9.0629417"><ele>144.0</ele><time>2026-04-18T14:20:29.976Z</time></trkpt><trkpt lat="45.5103867" lon="9.0628667"><ele>144.0</ele><time>2026-04-18T14:20:30.976Z</time></trkpt><trkpt lat="45.5105433" lon="9.06279"><ele>144.0</ele><time>2026-04-18T14:20:31.976Z</time></trkpt><trkpt lat="45.5106867" lon="9.0627233"><ele>144.75</ele><time>2026-04-18T14:20:32.976Z</time></trkpt><trkpt lat="45.5108233" lon="9.062645"><ele>145.5</ele><time>2026-04-18T14:20:33.976Z</time></trkpt><trkpt lat="45.51095" lon="9.0625767"><ele>146.25</ele><time>2026-04-18T14:20:34.976Z</time></trkpt><trkpt lat="45.5110683" lon="9.0625283"><ele>147.0</ele><time>2026-04-18T14:20:35.976Z</time></trkpt><trkpt lat="45.5111917" lon="9.0624917"><ele>146.75</ele><time>2026-04-18T14:20:36.976Z</time></trkpt><trkpt lat="45.511315" lon="9.0624817"><ele>146.5</ele><time>2026-04-18T14:20:37.976Z</time></trkpt><trkpt lat="45.5114383" lon="9.062505"><ele>146.25</ele><time>2026-04-18T14:20:38.976Z</time></trkpt><trkpt lat="45.5115567" lon="9.0625917"><ele>146.0</ele><time>2026-04-18T14:20:39.976Z</time></trkpt><trkpt lat="45.511675" lon="9.0626917"><ele>146.0</ele><time>2026-04-18T14:20:40.976Z</time></trkpt><trkpt lat="45.5117967" lon="9.0627967"><ele>146.0</ele><time>2026-04-18T14:20:41.976Z</time></trkpt><trkpt lat="45.5119217" lon="9.0629217"><ele>146.0</ele><time>2026-04-18T14:20:42.976Z</time></trkpt><trkpt lat="45.51204" lon="9.0630517"><ele>146.0</ele><time>2026-04-18T14:20:43.976Z</time></trkpt><trkpt lat="45.5121517" lon="9.0631717"><ele>146.25</ele><time>2026-04-18T14:20:44.976Z</time></trkpt><trkpt lat="45.5122533" lon="9.0632983"><ele>146.5</ele><time>2026-04-18T14:20:45.976Z</time></trkpt><trkpt lat="45.5123433" lon="9.0634483"><ele>146.75</ele><time>2026-04-18T14:20:46.976Z</time></trkpt><trkpt lat="45.5124117" lon="9.0636283"><ele>147.0</ele><time>2026-04-18T14:20:47.976Z</time></trkpt><trkpt lat="45.512455" lon="9.0638383"><ele>147.0</ele><time>2026-04-18T14:20:48.976Z</time></trkpt><trkpt lat="45.5124667" lon="9.0640567"><ele>147.0</ele><time>2026-04-18T14:20:49.976Z</time></trkpt><trkpt lat="45.5124967" lon="9.064305"><ele>147.0</ele><time>2026-04-18T14:20:50.976Z</time></trkpt><trkpt lat="45.5125217" lon="9.0645733"><ele>147.0</ele><time>2026-04-18T14:20:51.976Z</time></trkpt><trkpt lat="45.5125517" lon="9.0648467"><ele>147.0</ele><time>2026-04-18T14:20:52.976Z</time></trkpt><trkpt lat="45.5125817" lon="9.0651083"><ele>147.0</ele><time>2026-04-18T14:20:53.976Z</time></trkpt><trkpt lat="45.51262" lon="9.0653733"><ele>147.33333333333334</ele><time>2026-04-18T14:20:54.976Z</time></trkpt><trkpt lat="45.5126567" lon="9.0656483"><ele>147.66666666666669</ele><time>2026-04-18T14:20:55.976Z</time></trkpt><trkpt lat="45.5126917" lon="9.0659233"><ele>148.0</ele><time>2026-04-18T14:20:56.976Z</time></trkpt><trkpt lat="45.51271" lon="9.0661967"><ele>146.66666666666669</ele><time>2026-04-18T14:20:57.976Z</time></trkpt><trkpt lat="45.5127467" lon="9.0664833"><ele>145.33333333333334</ele><time>2026-04-18T14:20:58.976Z</time></trkpt><trkpt lat="45.5127717" lon="9.0667617"><ele>144.0</ele><time>2026-04-18T14:20:59.976Z</time></trkpt><trkpt lat="45.5128017" lon="9.067045"><ele>144.0</ele><time>2026-04-18T14:21:00.977Z</time></trkpt><trkpt lat="45.5128383" lon="9.0673167"><ele>144.0</ele><time>2026-04-18T14:21:01.976Z</time></trkpt><trkpt lat="45.5128633" lon="9.0676"><ele>144.0</ele><time>2026-04-18T14:21:02.976Z</time></trkpt><trkpt lat="45.512895" lon="9.06788"><ele>144.0</ele><time>2026-04-18T14:21:03.976Z</time></trkpt><trkpt lat="45.5129267" lon="9.06816"><ele>144.0</ele><time>2026-04-18T14:21:04.976Z</time></trkpt><trkpt lat="45.512955" lon="9.0684483"><ele>144.0</ele><time>2026-04-18T14:21:05.976Z</time></trkpt><trkpt lat="45.5129817" lon="9.068735"><ele>144.0</ele><time>2026-04-18T14:21:06.976Z</time></trkpt><trkpt lat="45.5130067" lon="9.0690233"><ele>144.0</ele><time>2026-04-18T14:21:07.976Z</time></trkpt><trkpt lat="45.5130317" lon="9.0693117"><ele>144.0</ele><time>2026-04-18T14:21:08.976Z</time></trkpt><trkpt lat="45.5130533" lon="9.069595"><ele>144.0</ele><time>2026-04-18T14:21:09.976Z</time></trkpt><trkpt lat="45.5130783" lon="9.0698833"><ele>144.0</ele><time>2026-04-18T14:21:10.976Z</time></trkpt><trkpt lat="45.5131033" lon="9.070175"><ele>144.0</ele><time>2026-04-18T14:21:11.976Z</time></trkpt><trkpt lat="45.513125" lon="9.07046"><ele>143.66666666666666</ele><time>2026-04-18T14:21:12.976Z</time></trkpt><trkpt lat="45.5131433" lon="9.0707533"><ele>143.33333333333331</ele><time>2026-04-18T14:21:13.976Z</time></trkpt><trkpt lat="45.5131633" lon="9.0710367"><ele>143.0</ele><time>2026-04-18T14:21:14.976Z</time></trkpt><trkpt lat="45.5131917" lon="9.0713217"><ele>143.0</ele><time>2026-04-18T14:21:15.977Z</time></trkpt><trkpt lat="45.5132183" lon="9.0716133"><ele>143.0</ele><time>2026-04-18T14:21:16.976Z</time></trkpt><trkpt lat="45.51324" lon="9.0719033"><ele>143.0</ele><time>2026-04-18T14:21:17.976Z</time></trkpt><trkpt lat="45.5132617" lon="9.0721867"><ele>143.0</ele><time>2026-04-18T14:21:18.976Z</time></trkpt><trkpt lat="45.51329" lon="9.072475"><ele>143.0</ele><time>2026-04-18T14:21:19.976Z</time></trkpt><trkpt lat="45.5133117" lon="9.0727583"><ele>143.0</ele><time>2026-04-18T14:21:20.976Z</time></trkpt><trkpt lat="45.5133317" lon="9.0730567"><ele>143.0</ele><time>2026-04-18T14:21:21.976Z</time></trkpt><trkpt lat="45.5133567" lon="9.0733467"><ele>143.0</ele><time>2026-04-18T14:21:22.976Z</time></trkpt><trkpt lat="45.513365" lon="9.07365"><ele>143.0</ele><time>2026-04-18T14:21:23.977Z</time></trkpt><trkpt lat="45.51336" lon="9.073975"><ele>143.33333333333331</ele><time>2026-04-18T14:21:24.976Z</time></trkpt><trkpt lat="45.5133783" lon="9.0742767"><ele>143.66666666666666</ele><time>2026-04-18T14:21:25.976Z</time></trkpt><trkpt lat="45.5133917" lon="9.074565"><ele>144.0</ele><time>2026-04-18T14:21:26.976Z</time></trkpt><trkpt lat="45.51341" lon="9.0748617"><ele>143.66666666666666</ele><time>2026-04-18T14:21:27.976Z</time></trkpt><trkpt lat="45.5134183" lon="9.0751633"><ele>143.33333333333331</ele><time>2026-04-18T14:21:28.976Z</time></trkpt><trkpt lat="45.5134317" lon="9.07546"><ele>143.0</ele><time>2026-04-18T14:21:29.976Z</time></trkpt><trkpt lat="45.51345" lon="9.075755"><ele>143.33333333333331</ele><time>2026-04-18T14:21:30.976Z</time></trkpt><trkpt lat="45.5134683" lon="9.0760567"><ele>143.66666666666666</ele><time>2026-04-18T14:21:31.976Z</time></trkpt><trkpt lat="45.5134833" lon="9.0763533"><ele>144.0</ele><time>2026-04-18T14:21:32.976Z</time></trkpt><trkpt lat="45.5135017" lon="9.0766517"><ele>144.33333333333334</ele><time>2026-04-18T14:21:33.976Z</time></trkpt><trkpt lat="45.5135217" lon="9.0769567"><ele>144.66666666666669</ele><time>2026-04-18T14:21:34.976Z</time></trkpt><trkpt lat="45.5135383" lon="9.0772567"><ele>145.0</ele><time>2026-04-18T14:21:35.976Z</time></trkpt><trkpt lat="45.5135567" lon="9.0775517"><ele>144.33333333333334</ele><time>2026-04-18T14:21:36.976Z</time></trkpt><trkpt lat="45.5135733" lon="9.07785"><ele>143.66666666666666</ele><time>2026-04-18T14:21:37.976Z</time></trkpt><trkpt lat="45.5135933" lon="9.0781467"><ele>143.0</ele><time>2026-04-18T14:21:38.976Z</time></trkpt><trkpt lat="45.51361" lon="9.0784533"><ele>143.0</ele><time>2026-04-18T14:21:39.976Z</time></trkpt><trkpt lat="45.5136283" lon="9.0787567"><ele>143.0</ele><time>2026-04-18T14:21:40.976Z</time></trkpt><trkpt lat="45.5136417" lon="9.0790533"><ele>143.0</ele><time>2026-04-18T14:21:41.976Z</time></trkpt><trkpt lat="45.51366" lon="9.07935"><ele>143.0</ele><time>2026-04-18T14:21:42.976Z</time></trkpt><trkpt lat="45.5136867" lon="9.0796383"><ele>143.0</ele><time>2026-04-18T14:21:43.976Z</time></trkpt><trkpt lat="45.5137083" lon="9.0799367"><ele>143.0</ele><time>2026-04-18T14:21:44.976Z</time></trkpt><trkpt lat="45.513725" lon="9.0802367"><ele>143.0</ele><time>2026-04-18T14:21:45.976Z</time></trkpt><trkpt lat="45.5137383" lon="9.0805317"><ele>143.0</ele><time>2026-04-18T14:21:46.976Z</time></trkpt><trkpt lat="45.513755" lon="9.0808317"><ele>143.0</ele><time>2026-04-18T14:21:47.976Z</time></trkpt><trkpt lat="45.513775" lon="9.08113"><ele>143.0</ele><time>2026-04-18T14:21:48.976Z</time></trkpt><trkpt lat="45.5137917" lon="9.0814233"><ele>143.0</ele><time>2026-04-18T14:21:49.976Z</time></trkpt><trkpt lat="45.5138017" lon="9.0817317"><ele>143.0</ele><time>2026-04-18T14:21:50.976Z</time></trkpt><trkpt lat="45.5138017" lon="9.0820383"><ele>143.0</ele><time>2026-04-18T14:21:51.976Z</time></trkpt><trkpt lat="45.5138117" lon="9.0823417"><ele>143.0</ele><time>2026-04-18T14:21:52.976Z</time></trkpt><trkpt lat="45.5138233" lon="9.0826483"><ele>143.0</ele><time>2026-04-18T14:21:53.976Z</time></trkpt><trkpt lat="45.513835" lon="9.0829467"><ele>143.0</ele><time>2026-04-18T14:21:54.976Z</time></trkpt><trkpt lat="45.51385" lon="9.0832433"><ele>143.0</ele><time>2026-04-18T14:21:55.976Z</time></trkpt><trkpt lat="45.513865" lon="9.0835483"><ele>143.0</ele><time>2026-04-18T14:21:56.976Z</time></trkpt><trkpt lat="45.51388" lon="9.0838517"><ele>142.66666666666666</ele><time>2026-04-18T14:21:57.976Z</time></trkpt><trkpt lat="45.5139017" lon="9.08416"><ele>142.33333333333334</ele><time>2026-04-18T14:21:58.976Z</time></trkpt><trkpt lat="45.5139" lon="9.0844667"><ele>142.0</ele><time>2026-04-18T14:21:59.976Z</time></trkpt><trkpt lat="45.5139117" lon="9.0847717"><ele>142.33333333333334</ele><time>2026-04-18T14:22:00.976Z</time></trkpt><trkpt lat="45.5139267" lon="9.0850683"><ele>142.66666666666666</ele><time>2026-04-18T14:22:01.976Z</time></trkpt><trkpt lat="45.5139383" lon="9.08537"><ele>143.0</ele><time>2026-04-18T14:22:02.976Z</time></trkpt><trkpt lat="45.5139533" lon="9.0856783"><ele>143.33333333333331</ele><time>2026-04-18T14:22:03.976Z</time></trkpt><trkpt lat="45.513965" lon="9.0859717"><ele>143.66666666666666</ele><time>2026-04-18T14:22:04.976Z</time></trkpt><trkpt lat="45.5139817" lon="9.0862633"><ele>144.0</ele><time>2026-04-18T14:22:05.976Z</time></trkpt><trkpt lat="45.5139967" lon="9.08656"><ele>144.0</ele><time>2026-04-18T14:22:06.976Z</time></trkpt><trkpt lat="45.5140167" lon="9.0868433"><ele>144.0</ele><time>2026-04-18T14:22:07.976Z</time></trkpt><trkpt lat="45.51403" lon="9.0871333"><ele>144.0</ele><time>2026-04-18T14:22:08.976Z</time></trkpt><trkpt lat="45.5140467" lon="9.0874417"><ele>144.0</ele><time>2026-04-18T14:22:09.976Z</time></trkpt><trkpt lat="45.51406" lon="9.0877483"><ele>144.0</ele><time>2026-04-18T14:22:10.976Z</time></trkpt><trkpt lat="45.514075" lon="9.0880583"><ele>144.0</ele><time>2026-04-18T14:22:11.976Z</time></trkpt><trkpt lat="45.5140883" lon="9.0883633"><ele>143.33333333333334</ele><time>2026-04-18T14:22:12.976Z</time></trkpt><trkpt lat="45.5140983" lon="9.0886683"><ele>142.66666666666669</ele><time>2026-04-18T14:22:13.976Z</time></trkpt><trkpt lat="45.5141117" lon="9.0889767"><ele>142.0</ele><time>2026-04-18T14:22:14.976Z</time></trkpt><trkpt lat="45.514125" lon="9.08928"><ele>141.66666666666669</ele><time>2026-04-18T14:22:15.976Z</time></trkpt><trkpt lat="45.5141433" lon="9.08958"><ele>141.33333333333334</ele><time>2026-04-18T14:22:16.976Z</time></trkpt><trkpt lat="45.514155" lon="9.0898783"><ele>141.0</ele><time>2026-04-18T14:22:17.976Z</time></trkpt><trkpt lat="45.5141717" lon="9.090185"><ele>141.0</ele><time>2026-04-18T14:22:18.976Z</time></trkpt><trkpt lat="45.5141833" lon="9.09049"><ele>141.0</ele><time>2026-04-18T14:22:19.976Z</time></trkpt><trkpt lat="45.5142" lon="9.0907967"><ele>141.0</ele><time>2026-04-18T14:22:20.976Z</time></trkpt><trkpt lat="45.51422" lon="9.091095"><ele>141.0</ele><time>2026-04-18T14:22:21.976Z</time></trkpt><trkpt lat="45.5142333" lon="9.091395"><ele>141.0</ele><time>2026-04-18T14:22:22.976Z</time></trkpt><trkpt lat="45.5142483" lon="9.0916967"><ele>141.0</ele><time>2026-04-18T14:22:23.976Z</time></trkpt><trkpt lat="45.514265" lon="9.0920033"><ele>141.33333333333334</ele><time>2026-04-18T14:22:24.976Z</time></trkpt><trkpt lat="45.51428" lon="9.0923083"><ele>141.66666666666669</ele><time>2026-04-18T14:22:25.976Z</time></trkpt><trkpt lat="45.51429" lon="9.0926133"><ele>142.0</ele><time>2026-04-18T14:22:26.977Z</time></trkpt><trkpt lat="45.514305" lon="9.0929217"><ele>142.0</ele><time>2026-04-18T14:22:27.976Z</time></trkpt><trkpt lat="45.51432" lon="9.0932167"><ele>142.0</ele><time>2026-04-18T14:22:28.976Z</time></trkpt><trkpt lat="45.51434" lon="9.09352"><ele>142.0</ele><time>2026-04-18T14:22:29.976Z</time></trkpt><trkpt lat="45.514355" lon="9.093825"><ele>142.33333333333334</ele><time>2026-04-18T14:22:30.977Z</time></trkpt><trkpt lat="45.5143667" lon="9.094135"><ele>142.66666666666666</ele><time>2026-04-18T14:22:31.976Z</time></trkpt><trkpt lat="45.5143767" lon="9.09444"><ele>143.0</ele><time>2026-04-18T14:22:32.976Z</time></trkpt><trkpt lat="45.5143867" lon="9.094745"><ele>143.66666666666666</ele><time>2026-04-18T14:22:33.976Z</time></trkpt><trkpt lat="45.5144017" lon="9.0950483"><ele>144.33333333333334</ele><time>2026-04-18T14:22:34.976Z</time></trkpt><trkpt lat="45.51442" lon="9.0953417"><ele>145.0</ele><time>2026-04-18T14:22:35.976Z</time></trkpt><trkpt lat="45.5144333" lon="9.0956317"><ele>144.0</ele><time>2026-04-18T14:22:36.976Z</time></trkpt><trkpt lat="45.5144417" lon="9.0959283"><ele>143.0</ele><time>2026-04-18T14:22:37.976Z</time></trkpt><trkpt lat="45.514455" lon="9.096225"><ele>142.0</ele><time>2026-04-18T14:22:38.976Z</time></trkpt><trkpt lat="45.5144667" lon="9.0965267"><ele>142.0</ele><time>2026-04-18T14:22:39.976Z</time></trkpt><trkpt lat="45.5144783" lon="9.0968333"><ele>142.0</ele><time>2026-04-18T14:22:40.976Z</time></trkpt><trkpt lat="45.5144933" lon="9.0971383"><ele>142.0</ele><time>2026-04-18T14:22:41.977Z</time></trkpt><trkpt lat="45.5145067" lon="9.097445"><ele>142.0</ele><time>2026-04-18T14:22:42.976Z</time></trkpt><trkpt lat="45.5145233" lon="9.09776"><ele>142.0</ele><time>2026-04-18T14:22:43.977Z</time></trkpt><trkpt lat="45.51454" lon="9.0980683"><ele>142.0</ele><time>2026-04-18T14:22:44.977Z</time></trkpt><trkpt lat="45.514555" lon="9.098375"><ele>142.0</ele><time>2026-04-18T14:22:45.976Z</time></trkpt><trkpt lat="45.5145617" lon="9.0986867"><ele>142.0</ele><time>2026-04-18T14:22:46.976Z</time></trkpt><trkpt lat="45.5145733" lon="9.098995"><ele>142.0</ele><time>2026-04-18T14:22:47.976Z</time></trkpt><trkpt lat="45.5145933" lon="9.0993033"><ele>142.0</ele><time>2026-04-18T14:22:48.976Z</time></trkpt><trkpt lat="45.514605" lon="9.09961"><ele>142.0</ele><time>2026-04-18T14:22:49.976Z</time></trkpt><trkpt lat="45.5146233" lon="9.0999183"><ele>142.0</ele><time>2026-04-18T14:22:50.976Z</time></trkpt><trkpt lat="45.5146367" lon="9.10022"><ele>142.0</ele><time>2026-04-18T14:22:51.976Z</time></trkpt><trkpt lat="45.514655" lon="9.1005167"><ele>142.0</ele><time>2026-04-18T14:22:52.976Z</time></trkpt><trkpt lat="45.5146683" lon="9.1008233"><ele>142.0</ele><time>2026-04-18T14:22:53.976Z</time></trkpt><trkpt lat="45.514685" lon="9.101125"><ele>142.0</ele><time>2026-04-18T14:22:54.976Z</time></trkpt><trkpt lat="45.5147033" lon="9.1014383"><ele>142.0</ele><time>2026-04-18T14:22:55.976Z</time></trkpt><trkpt lat="45.514715" lon="9.101745"><ele>142.0</ele><time>2026-04-18T14:22:56.976Z</time></trkpt><trkpt lat="45.51472" lon="9.102055"><ele>141.66666666666669</ele><time>2026-04-18T14:22:57.976Z</time></trkpt><trkpt lat="45.5147317" lon="9.10236"><ele>141.33333333333334</ele><time>2026-04-18T14:22:58.976Z</time></trkpt><trkpt lat="45.5147467" lon="9.1026717"><ele>141.0</ele><time>2026-04-18T14:22:59.976Z</time></trkpt><trkpt lat="45.5147633" lon="9.1029717"><ele>142.0</ele><time>2026-04-18T14:23:00.976Z</time></trkpt><trkpt lat="45.5147767" lon="9.1032767"><ele>143.0</ele><time>2026-04-18T14:23:01.976Z</time></trkpt><trkpt lat="45.51479" lon="9.103585"><ele>144.0</ele><time>2026-04-18T14:23:02.976Z</time></trkpt><trkpt lat="45.5148017" lon="9.1038967"><ele>143.33333333333334</ele><time>2026-04-18T14:23:03.976Z</time></trkpt><trkpt lat="45.5148167" lon="9.1042083"><ele>142.66666666666669</ele><time>2026-04-18T14:23:04.976Z</time></trkpt><trkpt lat="45.51483" lon="9.1045217"><ele>142.0</ele><time>2026-04-18T14:23:05.976Z</time></trkpt><trkpt lat="45.5148417" lon="9.1048333"><ele>141.66666666666669</ele><time>2026-04-18T14:23:06.976Z</time></trkpt><trkpt lat="45.5148583" lon="9.10514"><ele>141.33333333333334</ele><time>2026-04-18T14:23:07.976Z</time></trkpt><trkpt lat="45.5148683" lon="9.1054483"><ele>141.0</ele><time>2026-04-18T14:23:08.976Z</time></trkpt><trkpt lat="45.5148833" lon="9.105755"><ele>140.66666666666666</ele><time>2026-04-18T14:23:09.976Z</time></trkpt><trkpt lat="45.5148983" lon="9.10606"><ele>140.33333333333331</ele><time>2026-04-18T14:23:10.976Z</time></trkpt><trkpt lat="45.5149167" lon="9.1063683"><ele>140.0</ele><time>2026-04-18T14:23:11.976Z</time></trkpt><trkpt lat="45.5149283" lon="9.1066783"><ele>140.66666666666666</ele><time>2026-04-18T14:23:12.976Z</time></trkpt><trkpt lat="45.5149317" lon="9.106995"><ele>141.33333333333334</ele><time>2026-04-18T14:23:13.976Z</time></trkpt><trkpt lat="45.514945" lon="9.1073033"><ele>142.0</ele><time>2026-04-18T14:23:14.976Z</time></trkpt><trkpt lat="45.5149567" lon="9.1076083"><ele>142.0</ele><time>2026-04-18T14:23:15.976Z</time></trkpt><trkpt lat="45.5149817" lon="9.1079117"><ele>142.0</ele><time>2026-04-18T14:23:16.976Z</time></trkpt><trkpt lat="45.515005" lon="9.1082167"><ele>142.0</ele><time>2026-04-18T14:23:17.976Z</time></trkpt><trkpt lat="45.51503" lon="9.10852"><ele>142.0</ele><time>2026-04-18T14:23:18.976Z</time></trkpt><trkpt lat="45.5150467" lon="9.1088317"><ele>142.0</ele><time>2026-04-18T14:23:19.976Z</time></trkpt><trkpt lat="45.5150617" lon="9.10915"><ele>142.0</ele><time>2026-04-18T14:23:20.977Z</time></trkpt><trkpt lat="45.5150867" lon="9.109465"><ele>141.5</ele><time>2026-04-18T14:23:21.976Z</time></trkpt><trkpt lat="45.515105" lon="9.1097917"><ele>141.0</ele><time>2026-04-18T14:23:22.976Z</time></trkpt><trkpt lat="45.5151167" lon="9.1101117"><ele>141.33333333333334</ele><time>2026-04-18T14:23:23.976Z</time></trkpt><trkpt lat="45.51513" lon="9.11043"><ele>141.66666666666669</ele><time>2026-04-18T14:23:24.976Z</time></trkpt><trkpt lat="45.5151483" lon="9.11075"><ele>142.0</ele><time>2026-04-18T14:23:25.976Z</time></trkpt><trkpt lat="45.51516" lon="9.111075"><ele>142.0</ele><time>2026-04-18T14:23:26.976Z</time></trkpt><trkpt lat="45.515175" lon="9.1113983"><ele>142.0</ele><time>2026-04-18T14:23:27.976Z</time></trkpt><trkpt lat="45.51519" lon="9.1117233"><ele>139.5</ele><time>2026-04-18T14:23:28.976Z</time></trkpt><trkpt lat="45.5152017" lon="9.1120517"><ele>137.0</ele><time>2026-04-18T14:23:29.976Z</time></trkpt><trkpt lat="45.5152233" lon="9.1123767"><ele>137.0</ele><time>2026-04-18T14:23:30.976Z</time></trkpt><trkpt lat="45.51524" lon="9.1127"><ele>137.0</ele><time>2026-04-18T14:23:31.976Z</time></trkpt><trkpt lat="45.5152517" lon="9.1130167"><ele>137.0</ele><time>2026-04-18T14:23:32.976Z</time></trkpt><trkpt lat="45.5152533" lon="9.113355"><ele>137.0</ele><time>2026-04-18T14:23:33.976Z</time></trkpt><trkpt lat="45.5152867" lon="9.1136783"><ele>137.0</ele><time>2026-04-18T14:23:34.976Z</time></trkpt><trkpt lat="45.5153" lon="9.1140033"><ele>137.5</ele><time>2026-04-18T14:23:35.976Z</time></trkpt><trkpt lat="45.5153117" lon="9.11432"><ele>138.0</ele><time>2026-04-18T14:23:36.976Z</time></trkpt><trkpt lat="45.5153217" lon="9.1146467"><ele>138.0</ele><time>2026-04-18T14:23:37.976Z</time></trkpt><trkpt lat="45.515345" lon="9.1149483"><ele>138.0</ele><time>2026-04-18T14:23:38.976Z</time></trkpt><trkpt lat="45.5153583" lon="9.115245"><ele>138.0</ele><time>2026-04-18T14:23:39.976Z</time></trkpt><trkpt lat="45.515375" lon="9.1155333"><ele>137.66666666666666</ele><time>2026-04-18T14:23:40.976Z</time></trkpt><trkpt lat="45.5153883" lon="9.115815"><ele>137.33333333333331</ele><time>2026-04-18T14:23:41.976Z</time></trkpt><trkpt lat="45.5153967" lon="9.1161033"><ele>137.0</ele><time>2026-04-18T14:23:42.976Z</time></trkpt><trkpt lat="45.515415" lon="9.1163967"><ele>136.66666666666666</ele><time>2026-04-18T14:23:43.976Z</time></trkpt><trkpt lat="45.5154283" lon="9.116695"><ele>136.33333333333334</ele><time>2026-04-18T14:23:44.976Z</time></trkpt><trkpt lat="45.5154533" lon="9.1169867"><ele>136.0</ele><time>2026-04-18T14:23:45.976Z</time></trkpt><trkpt lat="45.51547" lon="9.1172917"><ele>135.33333333333334</ele><time>2026-04-18T14:23:46.977Z</time></trkpt><trkpt lat="45.5154867" lon="9.1175933"><ele>134.66666666666666</ele><time>2026-04-18T14:23:47.976Z</time></trkpt><trkpt lat="45.5154933" lon="9.1179017"><ele>134.0</ele><time>2026-04-18T14:23:48.976Z</time></trkpt><trkpt lat="45.5155067" lon="9.1182133"><ele>135.0</ele><time>2026-04-18T14:23:49.976Z</time></trkpt><trkpt lat="45.5155267" lon="9.1185117"><ele>136.0</ele><time>2026-04-18T14:23:50.976Z</time></trkpt><trkpt lat="45.5155417" lon="9.1188217"><ele>137.0</ele><time>2026-04-18T14:23:51.976Z</time></trkpt><trkpt lat="45.5155533" lon="9.1191383"><ele>138.0</ele><time>2026-04-18T14:23:52.976Z</time></trkpt><trkpt lat="45.5155633" lon="9.1194483"><ele>139.0</ele><time>2026-04-18T14:23:53.976Z</time></trkpt><trkpt lat="45.51558" lon="9.1197583"><ele>140.0</ele><time>2026-04-18T14:23:54.976Z</time></trkpt><trkpt lat="45.515605" lon="9.1200733"><ele>140.0</ele><time>2026-04-18T14:23:55.976Z</time></trkpt><trkpt lat="45.5156333" lon="9.1203867"><ele>140.0</ele><time>2026-04-18T14:23:56.977Z</time></trkpt><trkpt lat="45.5156733" lon="9.1206967"><ele>140.0</ele><time>2026-04-18T14:23:57.976Z</time></trkpt><trkpt lat="45.5157283" lon="9.121005"><ele>139.5</ele><time>2026-04-18T14:23:58.976Z</time></trkpt><trkpt lat="45.5158017" lon="9.12131"><ele>139.0</ele><time>2026-04-18T14:23:59.977Z</time></trkpt><trkpt lat="45.5158883" lon="9.121605"><ele>139.0</ele><time>2026-04-18T14:24:00.976Z</time></trkpt><trkpt lat="45.5159817" lon="9.1218833"><ele>139.0</ele><time>2026-04-18T14:24:01.976Z</time></trkpt><trkpt lat="45.5160833" lon="9.1221633"><ele>139.0</ele><time>2026-04-18T14:24:02.976Z</time></trkpt><trkpt lat="45.5161783" lon="9.1224467"><ele>139.0</ele><time>2026-04-18T14:24:03.976Z</time></trkpt><trkpt lat="45.5162767" lon="9.1227233"><ele>139.0</ele><time>2026-04-18T14:24:04.976Z</time></trkpt><trkpt lat="45.5163817" lon="9.1229867"><ele>139.0</ele><time>2026-04-18T14:24:05.976Z</time></trkpt><trkpt lat="45.516495" lon="9.1232333"><ele>138.66666666666669</ele><time>2026-04-18T14:24:06.976Z</time></trkpt><trkpt lat="45.5166167" lon="9.123475"><ele>138.33333333333334</ele><time>2026-04-18T14:24:07.976Z</time></trkpt><trkpt lat="45.516735" lon="9.1237"><ele>138.0</ele><time>2026-04-18T14:24:08.976Z</time></trkpt><trkpt lat="45.516855" lon="9.1239133"><ele>138.33333333333334</ele><time>2026-04-18T14:24:09.976Z</time></trkpt><trkpt lat="45.5169717" lon="9.1240867"><ele>138.66666666666669</ele><time>2026-04-18T14:24:10.976Z</time></trkpt><trkpt lat="45.517085" lon="9.1242433"><ele>139.0</ele><time>2026-04-18T14:24:11.977Z</time></trkpt><trkpt lat="45.5171983" lon="9.1243867"><ele>139.0</ele><time>2026-04-18T14:24:12.976Z</time></trkpt><trkpt lat="45.5173" lon="9.1245317"><ele>139.0</ele><time>2026-04-18T14:24:13.976Z</time></trkpt><trkpt lat="45.5173933" lon="9.1246733"><ele>139.0</ele><time>2026-04-18T14:24:14.976Z</time></trkpt><trkpt lat="45.5174733" lon="9.12481"><ele>139.0</ele><time>2026-04-18T14:24:15.976Z</time></trkpt><trkpt lat="45.5175517" lon="9.1249317"><ele>139.0</ele><time>2026-04-18T14:24:16.976Z</time></trkpt><trkpt lat="45.5176133" lon="9.1250417"><ele>139.0</ele><time>2026-04-18T14:24:17.976Z</time></trkpt><trkpt lat="45.517675" lon="9.12513"><ele>139.0</ele><time>2026-04-18T14:24:18.976Z</time></trkpt><trkpt lat="45.517725" lon="9.1252167"><ele>139.0</ele><time>2026-04-18T14:24:19.976Z</time></trkpt><trkpt lat="45.5177717" lon="9.1253"><ele>139.0</ele><time>2026-04-18T14:24:20.976Z</time></trkpt><trkpt lat="45.5178233" lon="9.125385"><ele>139.0</ele><time>2026-04-18T14:24:21.976Z</time></trkpt><trkpt lat="45.5178767" lon="9.1254733"><ele>139.28571428571428</ele><time>2026-04-18T14:24:22.976Z</time></trkpt><trkpt lat="45.51793" lon="9.1255617"><ele>139.57142857142858</ele><time>2026-04-18T14:24:23.976Z</time></trkpt><trkpt lat="45.5179867" lon="9.1256417"><ele>139.85714285714286</ele><time>2026-04-18T14:24:24.976Z</time></trkpt><trkpt lat="45.518035" lon="9.1257117"><ele>140.14285714285714</ele><time>2026-04-18T14:24:25.976Z</time></trkpt><trkpt lat="45.5180833" lon="9.1257717"><ele>140.42857142857142</ele><time>2026-04-18T14:24:26.976Z</time></trkpt><trkpt lat="45.5181283" lon="9.125835"><ele>140.71428571428572</ele><time>2026-04-18T14:24:27.976Z</time></trkpt><trkpt lat="45.5181683" lon="9.1259117"><ele>141.0</ele><time>2026-04-18T14:24:28.976Z</time></trkpt><trkpt lat="45.5182167" lon="9.12599"><ele>141.0</ele><time>2026-04-18T14:24:29.976Z</time></trkpt><trkpt lat="45.518265" lon="9.1260733"><ele>141.0</ele><time>2026-04-18T14:24:30.976Z</time></trkpt><trkpt lat="45.518315" lon="9.12615"><ele>141.0</ele><time>2026-04-18T14:24:31.976Z</time></trkpt><trkpt lat="45.5183617" lon="9.1262167"><ele>141.0</ele><time>2026-04-18T14:24:32.976Z</time></trkpt><trkpt lat="45.5184433" lon="9.1263317"><ele>141.0</ele><time>2026-04-18T14:24:34.976Z</time></trkpt><trkpt lat="45.518485" lon="9.1264017"><ele>141.0</ele><time>2026-04-18T14:24:35.977Z</time></trkpt><trkpt lat="45.5185233" lon="9.1264783"><ele>141.16666666666666</ele><time>2026-04-18T14:24:36.977Z</time></trkpt><trkpt lat="45.518565" lon="9.1265633"><ele>141.33333333333334</ele><time>2026-04-18T14:24:37.976Z</time></trkpt><trkpt lat="45.5186117" lon="9.12664"><ele>141.5</ele><time>2026-04-18T14:24:38.976Z</time></trkpt><trkpt lat="45.5186683" lon="9.126725"><ele>141.66666666666669</ele><time>2026-04-18T14:24:39.976Z</time></trkpt><trkpt lat="45.518725" lon="9.1268183"><ele>141.83333333333334</ele><time>2026-04-18T14:24:40.977Z</time></trkpt><trkpt lat="45.5187783" lon="9.126915"><ele>142.0</ele><time>2026-04-18T14:24:41.976Z</time></trkpt><trkpt lat="45.5188267" lon="9.1270067"><ele>142.0</ele><time>2026-04-18T14:24:42.976Z</time></trkpt><trkpt lat="45.5188717" lon="9.12709"><ele>142.0</ele><time>2026-04-18T14:24:43.976Z</time></trkpt><trkpt lat="45.51891" lon="9.1271617"><ele>142.0</ele><time>2026-04-18T14:24:44.976Z</time></trkpt><trkpt lat="45.5189467" lon="9.1272433"><ele>142.0</ele><time>2026-04-18T14:24:45.976Z</time></trkpt><trkpt lat="45.5189967" lon="9.12736"><ele>142.0</ele><time>2026-04-18T14:24:47.976Z</time></trkpt><trkpt lat="45.5190033" lon="9.12746"><ele>142.0</ele><time>2026-04-18T14:24:50.976Z</time></trkpt><trkpt lat="45.51903" lon="9.127585"><ele>141.79999999999998</ele><time>2026-04-18T14:24:52.976Z</time></trkpt><trkpt lat="45.5190833" lon="9.127745"><ele>141.6</ele><time>2026-04-18T14:24:54.976Z</time></trkpt><trkpt lat="45.51912" lon="9.1278267"><ele>141.39999999999998</ele><time>2026-04-18T14:24:55.976Z</time></trkpt><trkpt lat="45.519165" lon="9.12792"><ele>141.2</ele><time>2026-04-18T14:24:56.976Z</time></trkpt><trkpt lat="45.51922" lon="9.1280183"><ele>141.0</ele><time>2026-04-18T14:24:57.976Z</time></trkpt><trkpt lat="45.5192817" lon="9.1281483"><ele>140.5</ele><time>2026-04-18T14:24:58.977Z</time></trkpt><trkpt lat="45.5193567" lon="9.12828"><ele>140.0</ele><time>2026-04-18T14:24:59.976Z</time></trkpt><trkpt lat="45.5194233" lon="9.1284167"><ele>139.5</ele><time>2026-04-18T14:25:00.976Z</time></trkpt><trkpt lat="45.5194833" lon="9.1285583"><ele>139.0</ele><time>2026-04-18T14:25:01.976Z</time></trkpt><trkpt lat="45.5195517" lon="9.1286983"><ele>139.0</ele><time>2026-04-18T14:25:02.976Z</time></trkpt><trkpt lat="45.5196167" lon="9.1288367"><ele>139.0</ele><time>2026-04-18T14:25:03.976Z</time></trkpt><trkpt lat="45.5196783" lon="9.1289683"><ele>139.0</ele><time>2026-04-18T14:25:04.976Z</time></trkpt><trkpt lat="45.5197383" lon="9.12909"><ele>139.0</ele><time>2026-04-18T14:25:05.976Z</time></trkpt><trkpt lat="45.51979" lon="9.1292083"><ele>139.0</ele><time>2026-04-18T14:25:06.976Z</time></trkpt><trkpt lat="45.5198417" lon="9.1293217"><ele>139.2</ele><time>2026-04-18T14:25:07.977Z</time></trkpt><trkpt lat="45.5198967" lon="9.12943"><ele>139.4</ele><time>2026-04-18T14:25:08.976Z</time></trkpt><trkpt lat="45.5199517" lon="9.1295467"><ele>139.6</ele><time>2026-04-18T14:25:09.977Z</time></trkpt><trkpt lat="45.520015" lon="9.1296533"><ele>139.8</ele><time>2026-04-18T14:25:10.976Z</time></trkpt><trkpt lat="45.5200733" lon="9.1297817"><ele>140.0</ele><time>2026-04-18T14:25:11.976Z</time></trkpt><trkpt lat="45.5201383" lon="9.1299067"><ele>140.6</ele><time>2026-04-18T14:25:12.976Z</time></trkpt><trkpt lat="45.5201933" lon="9.13003"><ele>141.2</ele><time>2026-04-18T14:25:13.976Z</time></trkpt><trkpt lat="45.520245" lon="9.1301467"><ele>141.8</ele><time>2026-04-18T14:25:14.976Z</time></trkpt><trkpt lat="45.5202933" lon="9.130255"><ele>142.4</ele><time>2026-04-18T14:25:15.977Z</time></trkpt><trkpt lat="45.5203367" lon="9.13036"><ele>143.0</ele><time>2026-04-18T14:25:16.976Z</time></trkpt><trkpt lat="45.5203817" lon="9.130465"><ele>142.8</ele><time>2026-04-18T14:25:17.976Z</time></trkpt><trkpt lat="45.5204267" lon="9.13057"><ele>142.60000000000002</ele><time>2026-04-18T14:25:18.976Z</time></trkpt><trkpt lat="45.5204767" lon="9.130675"><ele>142.39999999999998</ele><time>2026-04-18T14:25:19.976Z</time></trkpt><trkpt lat="45.5205317" lon="9.1307817"><ele>142.2</ele><time>2026-04-18T14:25:20.976Z</time></trkpt><trkpt lat="45.520585" lon="9.130895"><ele>142.0</ele><time>2026-04-18T14:25:21.976Z</time></trkpt><trkpt lat="45.5206367" lon="9.1310117"><ele>142.0</ele><time>2026-04-18T14:25:22.976Z</time></trkpt><trkpt lat="45.5206967" lon="9.13112"><ele>142.0</ele><time>2026-04-18T14:25:23.976Z</time></trkpt><trkpt lat="45.5207533" lon="9.131235"><ele>142.0</ele><time>2026-04-18T14:25:24.976Z</time></trkpt><trkpt lat="45.5208117" lon="9.1313517"><ele>142.0</ele><time>2026-04-18T14:25:25.976Z</time></trkpt><trkpt lat="45.5208667" lon="9.131465"><ele>142.0</ele><time>2026-04-18T14:25:26.976Z</time></trkpt><trkpt lat="45.5209233" lon="9.1315733"><ele>142.16666666666669</ele><time>2026-04-18T14:25:27.976Z</time></trkpt><trkpt lat="45.5209717" lon="9.131665"><ele>142.33333333333334</ele><time>2026-04-18T14:25:28.976Z</time></trkpt><trkpt lat="45.5210117" lon="9.1317433"><ele>142.5</ele><time>2026-04-18T14:25:29.977Z</time></trkpt><trkpt lat="45.521055" lon="9.1318283"><ele>142.66666666666666</ele><time>2026-04-18T14:25:30.976Z</time></trkpt><trkpt lat="45.5211033" lon="9.1319267"><ele>142.83333333333331</ele><time>2026-04-18T14:25:31.976Z</time></trkpt><trkpt lat="45.521155" lon="9.1320367"><ele>143.0</ele><time>2026-04-18T14:25:32.976Z</time></trkpt><trkpt lat="45.52121" lon="9.132145"><ele>142.4</ele><time>2026-04-18T14:25:33.976Z</time></trkpt><trkpt lat="45.5212633" lon="9.132255"><ele>141.8</ele><time>2026-04-18T14:25:34.976Z</time></trkpt><trkpt lat="45.5213183" lon="9.1323633"><ele>141.2</ele><time>2026-04-18T14:25:35.976Z</time></trkpt><trkpt lat="45.52137" lon="9.1324733"><ele>140.6</ele><time>2026-04-18T14:25:36.976Z</time></trkpt><trkpt lat="45.5214217" lon="9.1325833"><ele>140.0</ele><time>2026-04-18T14:25:37.976Z</time></trkpt><trkpt lat="45.521475" lon="9.1326983"><ele>140.0</ele><time>2026-04-18T14:25:38.976Z</time></trkpt><trkpt lat="45.5215283" lon="9.1328217"><ele>140.0</ele><time>2026-04-18T14:25:39.976Z</time></trkpt><trkpt lat="45.5215867" lon="9.1329467"><ele>140.0</ele><time>2026-04-18T14:25:40.976Z</time></trkpt><trkpt lat="45.5216517" lon="9.133075"><ele>140.0</ele><time>2026-04-18T14:25:41.976Z</time></trkpt><trkpt lat="45.521715" lon="9.1332067"><ele>140.0</ele><time>2026-04-18T14:25:42.976Z</time></trkpt><trkpt lat="45.5217783" lon="9.1333433"><ele>140.6</ele><time>2026-04-18T14:25:43.976Z</time></trkpt><trkpt lat="45.5218383" lon="9.1334767"><ele>141.2</ele><time>2026-04-18T14:25:44.976Z</time></trkpt><trkpt lat="45.5218967" lon="9.1336"><ele>141.8</ele><time>2026-04-18T14:25:45.976Z</time></trkpt><trkpt lat="45.5219533" lon="9.1337133"><ele>142.4</ele><time>2026-04-18T14:25:46.976Z</time></trkpt><trkpt lat="45.5220083" lon="9.133825"><ele>143.0</ele><time>2026-04-18T14:25:47.976Z</time></trkpt><trkpt lat="45.52206" lon="9.1339317"><ele>143.0</ele><time>2026-04-18T14:25:48.976Z</time></trkpt><trkpt lat="45.5221083" lon="9.1340333"><ele>143.0</ele><time>2026-04-18T14:25:49.976Z</time></trkpt><trkpt lat="45.5221567" lon="9.1341367"><ele>143.0</ele><time>2026-04-18T14:25:50.976Z</time></trkpt><trkpt lat="45.5222033" lon="9.13424"><ele>143.0</ele><time>2026-04-18T14:25:51.976Z</time></trkpt><trkpt lat="45.5222583" lon="9.134345"><ele>143.0</ele><time>2026-04-18T14:25:52.976Z</time></trkpt><trkpt lat="45.522315" lon="9.13446"><ele>143.0</ele><time>2026-04-18T14:25:53.976Z</time></trkpt><trkpt lat="45.5223767" lon="9.1345783"><ele>143.0</ele><time>2026-04-18T14:25:54.976Z</time></trkpt><trkpt lat="45.5224383" lon="9.1347017"><ele>143.0</ele><time>2026-04-18T14:25:55.976Z</time></trkpt><trkpt lat="45.522515" lon="9.134845"><ele>143.0</ele><time>2026-04-18T14:25:56.976Z</time></trkpt><trkpt lat="45.5226017" lon="9.135"><ele>142.25</ele><time>2026-04-18T14:25:57.976Z</time></trkpt><trkpt lat="45.5226817" lon="9.13514"><ele>141.5</ele><time>2026-04-18T14:25:58.976Z</time></trkpt><trkpt lat="45.5227517" lon="9.1352683"><ele>140.75</ele><time>2026-04-18T14:25:59.976Z</time></trkpt><trkpt lat="45.5228133" lon="9.1353917"><ele>140.0</ele><time>2026-04-18T14:26:00.976Z</time></trkpt><trkpt lat="45.5228767" lon="9.1355217"><ele>140.4</ele><time>2026-04-18T14:26:01.976Z</time></trkpt><trkpt lat="45.52294" lon="9.1356433"><ele>140.8</ele><time>2026-04-18T14:26:02.976Z</time></trkpt><trkpt lat="45.5230017" lon="9.1357617"><ele>141.2</ele><time>2026-04-18T14:26:03.977Z</time></trkpt><trkpt lat="45.523055" lon="9.1358817"><ele>141.6</ele><time>2026-04-18T14:26:04.977Z</time></trkpt><trkpt lat="45.5231133" lon="9.1360067"><ele>142.0</ele><time>2026-04-18T14:26:05.977Z</time></trkpt><trkpt lat="45.52318" lon="9.1361467"><ele>142.0</ele><time>2026-04-18T14:26:06.976Z</time></trkpt><trkpt lat="45.5232433" lon="9.1362867"><ele>142.0</ele><time>2026-04-18T14:26:07.976Z</time></trkpt><trkpt lat="45.5233" lon="9.13642"><ele>142.0</ele><time>2026-04-18T14:26:08.976Z</time></trkpt><trkpt lat="45.52336" lon="9.13654"><ele>142.0</ele><time>2026-04-18T14:26:09.976Z</time></trkpt><trkpt lat="45.523415" lon="9.1366567"><ele>142.0</ele><time>2026-04-18T14:26:10.976Z</time></trkpt><trkpt lat="45.523475" lon="9.1367817"><ele>142.0</ele><time>2026-04-18T14:26:11.977Z</time></trkpt><trkpt lat="45.5235383" lon="9.1369183"><ele>142.0</ele><time>2026-04-18T14:26:12.977Z</time></trkpt><trkpt lat="45.5236017" lon="9.1370583"><ele>142.0</ele><time>2026-04-18T14:26:13.976Z</time></trkpt><trkpt lat="45.523665" lon="9.1372083"><ele>142.0</ele><time>2026-04-18T14:26:14.976Z</time></trkpt><trkpt lat="45.5237383" lon="9.137355"><ele>142.0</ele><time>2026-04-18T14:26:15.976Z</time></trkpt><trkpt lat="45.5238067" lon="9.137495"><ele>142.0</ele><time>2026-04-18T14:26:16.976Z</time></trkpt><trkpt lat="45.5238767" lon="9.1376383"><ele>142.0</ele><time>2026-04-18T14:26:17.976Z</time></trkpt><trkpt lat="45.523945" lon="9.13777"><ele>142.0</ele><time>2026-04-18T14:26:18.976Z</time></trkpt><trkpt lat="45.5240017" lon="9.1378917"><ele>142.0</ele><time>2026-04-18T14:26:19.976Z</time></trkpt><trkpt lat="45.52406" lon="9.1380133"><ele>142.0</ele><time>2026-04-18T14:26:20.976Z</time></trkpt><trkpt lat="45.5241083" lon="9.13811"><ele>142.0</ele><time>2026-04-18T14:26:21.976Z</time></trkpt><trkpt lat="45.5241567" lon="9.1382017"><ele>142.0</ele><time>2026-04-18T14:26:22.976Z</time></trkpt><trkpt lat="45.524205" lon="9.1382817"><ele>142.0</ele><time>2026-04-18T14:26:23.977Z</time></trkpt><trkpt lat="45.5242483" lon="9.1383667"><ele>142.0</ele><time>2026-04-18T14:26:24.976Z</time></trkpt><trkpt lat="45.5242983" lon="9.13848"><ele>142.0</ele><time>2026-04-18T14:26:26.977Z</time></trkpt><trkpt lat="45.524355" lon="9.1385833"><ele>142.0</ele><time>2026-04-18T14:26:28.976Z</time></trkpt><trkpt lat="45.5244133" lon="9.1387067"><ele>142.0</ele><time>2026-04-18T14:26:30.976Z</time></trkpt><trkpt lat="45.5244567" lon="9.1387867"><ele>142.0</ele><time>2026-04-18T14:26:31.976Z</time></trkpt><trkpt lat="45.5245083" lon="9.13889"><ele>142.0</ele><time>2026-04-18T14:26:32.976Z</time></trkpt><trkpt lat="45.5245717" lon="9.1390083"><ele>142.2</ele><time>2026-04-18T14:26:33.976Z</time></trkpt><trkpt lat="45.5246317" lon="9.1391417"><ele>142.39999999999998</ele><time>2026-04-18T14:26:34.976Z</time></trkpt><trkpt lat="45.5246967" lon="9.1392583"><ele>142.60000000000002</ele><time>2026-04-18T14:26:35.976Z</time></trkpt><trkpt lat="45.5247567" lon="9.1393767"><ele>142.8</ele><time>2026-04-18T14:26:36.976Z</time></trkpt><trkpt lat="45.524815" lon="9.1394833"><ele>143.0</ele><time>2026-04-18T14:26:37.976Z</time></trkpt><trkpt lat="45.5248683" lon="9.1395917"><ele>143.0</ele><time>2026-04-18T14:26:38.977Z</time></trkpt><trkpt lat="45.5249233" lon="9.1397"><ele>143.0</ele><time>2026-04-18T14:26:39.977Z</time></trkpt><trkpt lat="45.524975" lon="9.1398033"><ele>143.0</ele><time>2026-04-18T14:26:40.976Z</time></trkpt><trkpt lat="45.525025" lon="9.1399067"><ele>143.0</ele><time>2026-04-18T14:26:41.976Z</time></trkpt><trkpt lat="45.5250733" lon="9.14001"><ele>143.0</ele><time>2026-04-18T14:26:42.976Z</time></trkpt><trkpt lat="45.525125" lon="9.1401067"><ele>143.0</ele><time>2026-04-18T14:26:43.976Z</time></trkpt><trkpt lat="45.5251767" lon="9.1402"><ele>143.16666666666666</ele><time>2026-04-18T14:26:44.976Z</time></trkpt><trkpt lat="45.5252317" lon="9.1402767"><ele>143.33333333333331</ele><time>2026-04-18T14:26:45.976Z</time></trkpt><trkpt lat="45.52528" lon="9.14036"><ele>143.5</ele><time>2026-04-18T14:26:46.976Z</time></trkpt><trkpt lat="45.52532" lon="9.1404533"><ele>143.66666666666666</ele><time>2026-04-18T14:26:47.976Z</time></trkpt><trkpt lat="45.5253617" lon="9.1405533"><ele>143.83333333333334</ele><time>2026-04-18T14:26:48.976Z</time></trkpt><trkpt lat="45.5254067" lon="9.140665"><ele>144.0</ele><time>2026-04-18T14:26:49.976Z</time></trkpt><trkpt lat="45.5254633" lon="9.1407733"><ele>144.6</ele><time>2026-04-18T14:26:50.976Z</time></trkpt><trkpt lat="45.525515" lon="9.14089"><ele>145.2</ele><time>2026-04-18T14:26:51.976Z</time></trkpt><trkpt lat="45.52557" lon="9.14101"><ele>145.79999999999998</ele><time>2026-04-18T14:26:52.976Z</time></trkpt><trkpt lat="45.525635" lon="9.1411367"><ele>146.4</ele><time>2026-04-18T14:26:53.976Z</time></trkpt><trkpt lat="45.5256983" lon="9.1412683"><ele>147.0</ele><time>2026-04-18T14:26:54.977Z</time></trkpt><trkpt lat="45.5257683" lon="9.1413867"><ele>147.0</ele><time>2026-04-18T14:26:55.976Z</time></trkpt><trkpt lat="45.52583" lon="9.1415133"><ele>147.0</ele><time>2026-04-18T14:26:56.976Z</time></trkpt><trkpt lat="45.5258933" lon="9.14163"><ele>147.0</ele><time>2026-04-18T14:26:57.976Z</time></trkpt><trkpt lat="45.52595" lon="9.1417533"><ele>147.0</ele><time>2026-04-18T14:26:58.976Z</time></trkpt><trkpt lat="45.5260067" lon="9.14188"><ele>147.0</ele><time>2026-04-18T14:26:59.975Z</time></trkpt><trkpt lat="45.5260717" lon="9.1420083"><ele>146.25</ele><time>2026-04-18T14:27:00.975Z</time></trkpt><trkpt lat="45.5261333" lon="9.1421433"><ele>145.5</ele><time>2026-04-18T14:27:01.975Z</time></trkpt><trkpt lat="45.5261983" lon="9.1422933"><ele>144.75</ele><time>2026-04-18T14:27:02.975Z</time></trkpt><trkpt lat="45.526275" lon="9.1424467"><ele>144.0</ele><time>2026-04-18T14:27:03.975Z</time></trkpt><trkpt lat="45.5263467" lon="9.14263"><ele>144.0</ele><time>2026-04-18T14:27:04.975Z</time></trkpt><trkpt lat="45.5264267" lon="9.14281"><ele>144.0</ele><time>2026-04-18T14:27:05.975Z</time></trkpt><trkpt lat="45.5265217" lon="9.1430183"><ele>144.0</ele><time>2026-04-18T14:27:06.975Z</time></trkpt><trkpt lat="45.5266083" lon="9.1432317"><ele>143.33333333333334</ele><time>2026-04-18T14:27:07.975Z</time></trkpt><trkpt lat="45.5267033" lon="9.1434417"><ele>142.66666666666669</ele><time>2026-04-18T14:27:08.975Z</time></trkpt><trkpt lat="45.526815" lon="9.1436483"><ele>142.0</ele><time>2026-04-18T14:27:09.975Z</time></trkpt><trkpt lat="45.526925" lon="9.143865"><ele>141.66666666666669</ele><time>2026-04-18T14:27:10.975Z</time></trkpt><trkpt lat="45.5270433" lon="9.1440683"><ele>141.33333333333334</ele><time>2026-04-18T14:27:11.975Z</time></trkpt><trkpt lat="45.5271583" lon="9.1442783"><ele>141.0</ele><time>2026-04-18T14:27:12.975Z</time></trkpt><trkpt lat="45.5272717" lon="9.1445"><ele>141.0</ele><time>2026-04-18T14:27:13.975Z</time></trkpt><trkpt lat="45.5273783" lon="9.1447283"><ele>141.0</ele><time>2026-04-18T14:27:14.975Z</time></trkpt><trkpt lat="45.5274883" lon="9.14496"><ele>141.0</ele><time>2026-04-18T14:27:15.975Z</time></trkpt><trkpt lat="45.5275967" lon="9.1452"><ele>141.0</ele><time>2026-04-18T14:27:16.975Z</time></trkpt><trkpt lat="45.5277083" lon="9.14545"><ele>141.0</ele><time>2026-04-18T14:27:17.975Z</time></trkpt><trkpt lat="45.5278217" lon="9.1456883"><ele>141.0</ele><time>2026-04-18T14:27:18.975Z</time></trkpt><trkpt lat="45.5279317" lon="9.1459417"><ele>141.66666666666666</ele><time>2026-04-18T14:27:19.975Z</time></trkpt><trkpt lat="45.52805" lon="9.14619"><ele>142.33333333333331</ele><time>2026-04-18T14:27:20.975Z</time></trkpt><trkpt lat="45.5281683" lon="9.1464433"><ele>143.0</ele><time>2026-04-18T14:27:21.975Z</time></trkpt><trkpt lat="45.5282867" lon="9.1466883"><ele>143.0</ele><time>2026-04-18T14:27:22.975Z</time></trkpt><trkpt lat="45.5284083" lon="9.14693"><ele>143.0</ele><time>2026-04-18T14:27:23.975Z</time></trkpt><trkpt lat="45.5285217" lon="9.147185"><ele>143.0</ele><time>2026-04-18T14:27:24.976Z</time></trkpt><trkpt lat="45.5286433" lon="9.1474283"><ele>143.0</ele><time>2026-04-18T14:27:25.975Z</time></trkpt><trkpt lat="45.528765" lon="9.1476917"><ele>143.0</ele><time>2026-04-18T14:27:26.975Z</time></trkpt><trkpt lat="45.528865" lon="9.1479633"><ele>143.0</ele><time>2026-04-18T14:27:27.975Z</time></trkpt><trkpt lat="45.5289767" lon="9.1482233"><ele>143.0</ele><time>2026-04-18T14:27:28.975Z</time></trkpt><trkpt lat="45.5290917" lon="9.1484767"><ele>143.0</ele><time>2026-04-18T14:27:29.975Z</time></trkpt><trkpt lat="45.5292117" lon="9.1487183"><ele>143.0</ele><time>2026-04-18T14:27:30.975Z</time></trkpt><trkpt lat="45.5293317" lon="9.14893"><ele>143.0</ele><time>2026-04-18T14:27:31.975Z</time></trkpt><trkpt lat="45.52944" lon="9.1491517"><ele>143.0</ele><time>2026-04-18T14:27:32.975Z</time></trkpt><trkpt lat="45.52956" lon="9.149365"><ele>143.0</ele><time>2026-04-18T14:27:33.975Z</time></trkpt><trkpt lat="45.5296767" lon="9.14958"><ele>143.0</ele><time>2026-04-18T14:27:34.975Z</time></trkpt><trkpt lat="45.529795" lon="9.1497983"><ele>143.0</ele><time>2026-04-18T14:27:35.975Z</time></trkpt><trkpt lat="45.5299033" lon="9.1500217"><ele>143.0</ele><time>2026-04-18T14:27:36.975Z</time></trkpt><trkpt lat="45.53002" lon="9.150245"><ele>143.0</ele><time>2026-04-18T14:27:37.975Z</time></trkpt><trkpt lat="45.53013" lon="9.1504833"><ele>143.0</ele><time>2026-04-18T14:27:38.976Z</time></trkpt><trkpt lat="45.5302433" lon="9.15071"><ele>143.0</ele><time>2026-04-18T14:27:39.975Z</time></trkpt><trkpt lat="45.5303583" lon="9.150945"><ele>143.66666666666666</ele><time>2026-04-18T14:27:40.975Z</time></trkpt><trkpt lat="45.53047" lon="9.151185"><ele>144.33333333333334</ele><time>2026-04-18T14:27:41.975Z</time></trkpt><trkpt lat="45.5305783" lon="9.1514283"><ele>145.0</ele><time>2026-04-18T14:27:42.975Z</time></trkpt><trkpt lat="45.5306833" lon="9.1516667"><ele>145.0</ele><time>2026-04-18T14:27:43.975Z</time></trkpt><trkpt lat="45.5307917" lon="9.1519117"><ele>145.0</ele><time>2026-04-18T14:27:44.975Z</time></trkpt><trkpt lat="45.5309067" lon="9.1521483"><ele>145.0</ele><time>2026-04-18T14:27:45.975Z</time></trkpt><trkpt lat="45.5310233" lon="9.1523833"><ele>145.0</ele><time>2026-04-18T14:27:46.975Z</time></trkpt><trkpt lat="45.53114" lon="9.15261"><ele>145.0</ele><time>2026-04-18T14:27:47.975Z</time></trkpt><trkpt lat="45.5312567" lon="9.1528367"><ele>145.0</ele><time>2026-04-18T14:27:48.975Z</time></trkpt><trkpt lat="45.5313733" lon="9.153075"><ele>144.66666666666669</ele><time>2026-04-18T14:27:49.975Z</time></trkpt><trkpt lat="45.5314883" lon="9.1533067"><ele>144.33333333333334</ele><time>2026-04-18T14:27:50.975Z</time></trkpt><trkpt lat="45.531595" lon="9.1535417"><ele>144.0</ele><time>2026-04-18T14:27:51.975Z</time></trkpt><trkpt lat="45.531705" lon="9.1537667"><ele>144.0</ele><time>2026-04-18T14:27:52.975Z</time></trkpt><trkpt lat="45.5318117" lon="9.1539867"><ele>144.0</ele><time>2026-04-18T14:27:53.975Z</time></trkpt><trkpt lat="45.531915" lon="9.1542083"><ele>144.0</ele><time>2026-04-18T14:27:54.975Z</time></trkpt><trkpt lat="45.5320183" lon="9.1544217"><ele>145.0</ele><time>2026-04-18T14:27:55.975Z</time></trkpt><trkpt lat="45.532125" lon="9.1546367"><ele>146.0</ele><time>2026-04-18T14:27:56.975Z</time></trkpt><trkpt lat="45.5322267" lon="9.1548633"><ele>147.0</ele><time>2026-04-18T14:27:57.975Z</time></trkpt><trkpt lat="45.5323383" lon="9.1551017"><ele>147.0</ele><time>2026-04-18T14:27:58.975Z</time></trkpt><trkpt lat="45.5324467" lon="9.1553333"><ele>147.0</ele><time>2026-04-18T14:27:59.975Z</time></trkpt><trkpt lat="45.5325567" lon="9.1555633"><ele>147.0</ele><time>2026-04-18T14:28:00.975Z</time></trkpt><trkpt lat="45.5326667" lon="9.1557767"><ele>147.0</ele><time>2026-04-18T14:28:01.975Z</time></trkpt><trkpt lat="45.532775" lon="9.1559917"><ele>147.0</ele><time>2026-04-18T14:28:02.975Z</time></trkpt><trkpt lat="45.53288" lon="9.1562183"><ele>147.0</ele><time>2026-04-18T14:28:03.975Z</time></trkpt><trkpt lat="45.53299" lon="9.156445"><ele>146.33333333333334</ele><time>2026-04-18T14:28:04.975Z</time></trkpt><trkpt lat="45.5331033" lon="9.1566617"><ele>145.66666666666669</ele><time>2026-04-18T14:28:05.975Z</time></trkpt><trkpt lat="45.53321" lon="9.1568883"><ele>145.0</ele><time>2026-04-18T14:28:06.976Z</time></trkpt><trkpt lat="45.53332" lon="9.157115"><ele>145.0</ele><time>2026-04-18T14:28:07.975Z</time></trkpt><trkpt lat="45.5334333" lon="9.1573433"><ele>145.0</ele><time>2026-04-18T14:28:08.975Z</time></trkpt><trkpt lat="45.5335417" lon="9.1575717"><ele>145.0</ele><time>2026-04-18T14:28:09.975Z</time></trkpt><trkpt lat="45.5336483" lon="9.1577983"><ele>145.33333333333334</ele><time>2026-04-18T14:28:10.975Z</time></trkpt><trkpt lat="45.53376" lon="9.158035"><ele>145.66666666666666</ele><time>2026-04-18T14:28:11.975Z</time></trkpt><trkpt lat="45.5338783" lon="9.15828"><ele>146.0</ele><time>2026-04-18T14:28:12.975Z</time></trkpt><trkpt lat="45.5339967" lon="9.1585117"><ele>146.0</ele><time>2026-04-18T14:28:13.975Z</time></trkpt><trkpt lat="45.5341083" lon="9.1587483"><ele>146.0</ele><time>2026-04-18T14:28:14.975Z</time></trkpt><trkpt lat="45.5342283" lon="9.15899"><ele>146.0</ele><time>2026-04-18T14:28:15.975Z</time></trkpt><trkpt lat="45.5343483" lon="9.159225"><ele>146.0</ele><time>2026-04-18T14:28:16.975Z</time></trkpt><trkpt lat="45.5344617" lon="9.1594533"><ele>146.0</ele><time>2026-04-18T14:28:17.975Z</time></trkpt><trkpt lat="45.5345717" lon="9.1596933"><ele>146.0</ele><time>2026-04-18T14:28:18.975Z</time></trkpt><trkpt lat="45.53468" lon="9.1599433"><ele>146.66666666666666</ele><time>2026-04-18T14:28:19.975Z</time></trkpt><trkpt lat="45.534785" lon="9.1601917"><ele>147.33333333333334</ele><time>2026-04-18T14:28:20.975Z</time></trkpt><trkpt lat="45.5348917" lon="9.1604417"><ele>148.0</ele><time>2026-04-18T14:28:21.975Z</time></trkpt><trkpt lat="45.5350033" lon="9.160685"><ele>147.66666666666669</ele><time>2026-04-18T14:28:22.975Z</time></trkpt><trkpt lat="45.5351183" lon="9.1609283"><ele>147.33333333333334</ele><time>2026-04-18T14:28:23.975Z</time></trkpt><trkpt lat="45.5352383" lon="9.1611767"><ele>147.0</ele><time>2026-04-18T14:28:24.975Z</time></trkpt><trkpt lat="45.5353583" lon="9.1614133"><ele>146.66666666666666</ele><time>2026-04-18T14:28:25.975Z</time></trkpt><trkpt lat="45.5354733" lon="9.16166"><ele>146.33333333333331</ele><time>2026-04-18T14:28:26.975Z</time></trkpt><trkpt lat="45.5355867" lon="9.16191"><ele>146.0</ele><time>2026-04-18T14:28:27.975Z</time></trkpt><trkpt lat="45.5357" lon="9.16216"><ele>146.66666666666666</ele><time>2026-04-18T14:28:28.975Z</time></trkpt><trkpt lat="45.5358133" lon="9.162395"><ele>147.33333333333334</ele><time>2026-04-18T14:28:29.976Z</time></trkpt><trkpt lat="45.5359367" lon="9.162635"><ele>148.0</ele><time>2026-04-18T14:28:30.975Z</time></trkpt><trkpt lat="45.5360667" lon="9.1628717"><ele>148.0</ele><time>2026-04-18T14:28:31.975Z</time></trkpt><trkpt lat="45.5361967" lon="9.1631133"><ele>148.0</ele><time>2026-04-18T14:28:32.976Z</time></trkpt><trkpt lat="45.5363183" lon="9.16336"><ele>148.0</ele><time>2026-04-18T14:28:33.975Z</time></trkpt><trkpt lat="45.53644" lon="9.1635933"><ele>147.66666666666669</ele><time>2026-04-18T14:28:34.975Z</time></trkpt><trkpt lat="45.5365567" lon="9.1638267"><ele>147.33333333333334</ele><time>2026-04-18T14:28:35.975Z</time></trkpt><trkpt lat="45.5366717" lon="9.1640683"><ele>147.0</ele><time>2026-04-18T14:28:36.975Z</time></trkpt><trkpt lat="45.5367883" lon="9.1643033"><ele>147.0</ele><time>2026-04-18T14:28:37.975Z</time></trkpt><trkpt lat="45.5369083" lon="9.1645283"><ele>147.0</ele><time>2026-04-18T14:28:38.975Z</time></trkpt><trkpt lat="45.5370317" lon="9.16478"><ele>147.0</ele><time>2026-04-18T14:28:39.975Z</time></trkpt><trkpt lat="45.5371467" lon="9.16503"><ele>147.0</ele><time>2026-04-18T14:28:40.975Z</time></trkpt><trkpt lat="45.5372683" lon="9.165265"><ele>147.0</ele><time>2026-04-18T14:28:41.975Z</time></trkpt><trkpt lat="45.5373867" lon="9.1655067"><ele>147.0</ele><time>2026-04-18T14:28:42.975Z</time></trkpt><trkpt lat="45.5374967" lon="9.1657583"><ele>146.66666666666666</ele><time>2026-04-18T14:28:43.975Z</time></trkpt><trkpt lat="45.5376117" lon="9.1659983"><ele>146.33333333333331</ele><time>2026-04-18T14:28:44.975Z</time></trkpt><trkpt lat="45.5377317" lon="9.1662417"><ele>146.0</ele><time>2026-04-18T14:28:45.975Z</time></trkpt><trkpt lat="45.5378433" lon="9.1665017"><ele>147.33333333333331</ele><time>2026-04-18T14:28:46.975Z</time></trkpt><trkpt lat="45.537955" lon="9.1667583"><ele>148.66666666666666</ele><time>2026-04-18T14:28:47.976Z</time></trkpt><trkpt lat="45.5380667" lon="9.1670133"><ele>150.0</ele><time>2026-04-18T14:28:48.975Z</time></trkpt><trkpt lat="45.5381817" lon="9.1672717"><ele>150.33333333333334</ele><time>2026-04-18T14:28:49.976Z</time></trkpt><trkpt lat="45.5382917" lon="9.1675317"><ele>150.66666666666669</ele><time>2026-04-18T14:28:50.975Z</time></trkpt><trkpt lat="45.538405" lon="9.1677783"><ele>151.0</ele><time>2026-04-18T14:28:51.975Z</time></trkpt><trkpt lat="45.5385333" lon="9.1680117"><ele>150.66666666666669</ele><time>2026-04-18T14:28:52.975Z</time></trkpt><trkpt lat="45.5386583" lon="9.1682633"><ele>150.33333333333334</ele><time>2026-04-18T14:28:53.975Z</time></trkpt><trkpt lat="45.5387683" lon="9.1685217"><ele>150.0</ele><time>2026-04-18T14:28:54.975Z</time></trkpt><trkpt lat="45.5388833" lon="9.1687833"><ele>149.33333333333334</ele><time>2026-04-18T14:28:55.975Z</time></trkpt><trkpt lat="45.5389967" lon="9.169035"><ele>148.66666666666669</ele><time>2026-04-18T14:28:56.975Z</time></trkpt><trkpt lat="45.5391083" lon="9.1692933"><ele>148.0</ele><time>2026-04-18T14:28:57.975Z</time></trkpt><trkpt lat="45.5392167" lon="9.1695483"><ele>148.0</ele><time>2026-04-18T14:28:58.975Z</time></trkpt><trkpt lat="45.539315" lon="9.1698133"><ele>148.0</ele><time>2026-04-18T14:28:59.975Z</time></trkpt><trkpt lat="45.5394067" lon="9.1700817"><ele>148.0</ele><time>2026-04-18T14:29:00.975Z</time></trkpt><trkpt lat="45.5395" lon="9.170345"><ele>148.33333333333334</ele><time>2026-04-18T14:29:01.975Z</time></trkpt><trkpt lat="45.539585" lon="9.1706283"><ele>148.66666666666666</ele><time>2026-04-18T14:29:02.975Z</time></trkpt><trkpt lat="45.5396817" lon="9.17089"><ele>149.0</ele><time>2026-04-18T14:29:03.975Z</time></trkpt><trkpt lat="45.539785" lon="9.171135"><ele>149.0</ele><time>2026-04-18T14:29:04.975Z</time></trkpt><trkpt lat="45.53988" lon="9.1713783"><ele>149.0</ele><time>2026-04-18T14:29:05.975Z</time></trkpt><trkpt lat="45.5399783" lon="9.1716333"><ele>149.0</ele><time>2026-04-18T14:29:06.975Z</time></trkpt><trkpt lat="45.54008" lon="9.171885"><ele>149.0</ele><time>2026-04-18T14:29:07.975Z</time></trkpt><trkpt lat="45.5401767" lon="9.1721383"><ele>149.0</ele><time>2026-04-18T14:29:08.975Z</time></trkpt><trkpt lat="45.5402783" lon="9.17239"><ele>149.0</ele><time>2026-04-18T14:29:09.975Z</time></trkpt><trkpt lat="45.5403783" lon="9.1726533"><ele>149.0</ele><time>2026-04-18T14:29:10.975Z</time></trkpt><trkpt lat="45.54047" lon="9.1729183"><ele>149.0</ele><time>2026-04-18T14:29:11.975Z</time></trkpt><trkpt lat="45.5405633" lon="9.1731967"><ele>149.0</ele><time>2026-04-18T14:29:12.975Z</time></trkpt><trkpt lat="45.5406567" lon="9.1734717"><ele>149.0</ele><time>2026-04-18T14:29:13.975Z</time></trkpt><trkpt lat="45.5407533" lon="9.173755"><ele>149.0</ele><time>2026-04-18T14:29:14.976Z</time></trkpt><trkpt lat="45.540835" lon="9.1740367"><ele>149.0</ele><time>2026-04-18T14:29:15.975Z</time></trkpt><trkpt lat="45.5409067" lon="9.1743167"><ele>149.0</ele><time>2026-04-18T14:29:16.975Z</time></trkpt><trkpt lat="45.5409983" lon="9.1746017"><ele>149.0</ele><time>2026-04-18T14:29:17.975Z</time></trkpt><trkpt lat="45.54109" lon="9.174885"><ele>149.0</ele><time>2026-04-18T14:29:18.975Z</time></trkpt><trkpt lat="45.541165" lon="9.1751633"><ele>149.0</ele><time>2026-04-18T14:29:19.975Z</time></trkpt><trkpt lat="45.54124" lon="9.1754633"><ele>149.0</ele><time>2026-04-18T14:29:20.975Z</time></trkpt><trkpt lat="45.5413167" lon="9.17576"><ele>149.0</ele><time>2026-04-18T14:29:21.975Z</time></trkpt><trkpt lat="45.5413933" lon="9.1760483"><ele>149.0</ele><time>2026-04-18T14:29:22.975Z</time></trkpt><trkpt lat="45.5414617" lon="9.1763433"><ele>149.0</ele><time>2026-04-18T14:29:23.975Z</time></trkpt><trkpt lat="45.5415317" lon="9.1766517"><ele>149.0</ele><time>2026-04-18T14:29:24.975Z</time></trkpt><trkpt lat="45.5416083" lon="9.1769433"><ele>149.0</ele><time>2026-04-18T14:29:25.975Z</time></trkpt><trkpt lat="45.5417017" lon="9.1772083"><ele>149.0</ele><time>2026-04-18T14:29:26.975Z</time></trkpt><trkpt lat="45.5417967" lon="9.177475"><ele>149.0</ele><time>2026-04-18T14:29:27.975Z</time></trkpt><trkpt lat="45.5418883" lon="9.1777567"><ele>148.66666666666666</ele><time>2026-04-18T14:29:28.975Z</time></trkpt><trkpt lat="45.541975" lon="9.178045"><ele>148.33333333333334</ele><time>2026-04-18T14:29:29.975Z</time></trkpt><trkpt lat="45.54206" lon="9.1783267"><ele>148.0</ele><time>2026-04-18T14:29:30.975Z</time></trkpt><trkpt lat="45.5421417" lon="9.1786033"><ele>148.66666666666669</ele><time>2026-04-18T14:29:31.975Z</time></trkpt><trkpt lat="45.542235" lon="9.17887"><ele>149.33333333333334</ele><time>2026-04-18T14:29:32.975Z</time></trkpt><trkpt lat="45.5423183" lon="9.179155"><ele>150.0</ele><time>2026-04-18T14:29:33.975Z</time></trkpt><trkpt lat="45.542405" lon="9.1794283"><ele>150.0</ele><time>2026-04-18T14:29:34.976Z</time></trkpt><trkpt lat="45.5424967" lon="9.1797267"><ele>150.0</ele><time>2026-04-18T14:29:35.975Z</time></trkpt><trkpt lat="45.5425833" lon="9.1800217"><ele>150.0</ele><time>2026-04-18T14:29:36.975Z</time></trkpt><trkpt lat="45.5426667" lon="9.1803083"><ele>150.0</ele><time>2026-04-18T14:29:37.975Z</time></trkpt><trkpt lat="45.5427417" lon="9.1805833"><ele>150.0</ele><time>2026-04-18T14:29:38.975Z</time></trkpt><trkpt lat="45.5428217" lon="9.1808683"><ele>149.66666666666666</ele><time>2026-04-18T14:29:39.975Z</time></trkpt><trkpt lat="45.542905" lon="9.181155"><ele>149.33333333333331</ele><time>2026-04-18T14:29:40.975Z</time></trkpt><trkpt lat="45.5429783" lon="9.1814667"><ele>149.0</ele><time>2026-04-18T14:29:41.975Z</time></trkpt><trkpt lat="45.5430483" lon="9.18177"><ele>148.66666666666666</ele><time>2026-04-18T14:29:42.975Z</time></trkpt><trkpt lat="45.5431267" lon="9.1820533"><ele>148.33333333333334</ele><time>2026-04-18T14:29:43.975Z</time></trkpt><trkpt lat="45.543195" lon="9.1823467"><ele>148.0</ele><time>2026-04-18T14:29:44.975Z</time></trkpt><trkpt lat="45.5432683" lon="9.182645"><ele>148.0</ele><time>2026-04-18T14:29:45.975Z</time></trkpt><trkpt lat="45.543345" lon="9.1829483"><ele>148.0</ele><time>2026-04-18T14:29:46.975Z</time></trkpt><trkpt lat="45.5434167" lon="9.1832517"><ele>148.0</ele><time>2026-04-18T14:29:47.975Z</time></trkpt><trkpt lat="45.54349" lon="9.1835517"><ele>148.0</ele><time>2026-04-18T14:29:48.976Z</time></trkpt><trkpt lat="45.5435783" lon="9.18385"><ele>148.0</ele><time>2026-04-18T14:29:49.975Z</time></trkpt><trkpt lat="45.543655" lon="9.18414"><ele>148.0</ele><time>2026-04-18T14:29:50.975Z</time></trkpt><trkpt lat="45.543735" lon="9.1844383"><ele>148.0</ele><time>2026-04-18T14:29:51.975Z</time></trkpt><trkpt lat="45.5438117" lon="9.1847283"><ele>148.0</ele><time>2026-04-18T14:29:52.975Z</time></trkpt><trkpt lat="45.5438867" lon="9.1850233"><ele>148.33333333333334</ele><time>2026-04-18T14:29:53.975Z</time></trkpt><trkpt lat="45.543965" lon="9.1853217"><ele>148.66666666666666</ele><time>2026-04-18T14:29:54.975Z</time></trkpt><trkpt lat="45.5440467" lon="9.1856067"><ele>149.0</ele><time>2026-04-18T14:29:55.975Z</time></trkpt><trkpt lat="45.544125" lon="9.1859"><ele>149.33333333333331</ele><time>2026-04-18T14:29:56.976Z</time></trkpt><trkpt lat="45.5442" lon="9.1861917"><ele>149.66666666666666</ele><time>2026-04-18T14:29:57.975Z</time></trkpt><trkpt lat="45.54427" lon="9.186485"><ele>150.0</ele><time>2026-04-18T14:29:58.975Z</time></trkpt><trkpt lat="45.5443433" lon="9.1867767"><ele>150.0</ele><time>2026-04-18T14:29:59.975Z</time></trkpt><trkpt lat="45.54442" lon="9.1870667"><ele>150.0</ele><time>2026-04-18T14:30:00.976Z</time></trkpt><trkpt lat="45.5445017" lon="9.1873583"><ele>150.0</ele><time>2026-04-18T14:30:01.975Z</time></trkpt><trkpt lat="45.5445817" lon="9.1876467"><ele>150.0</ele><time>2026-04-18T14:30:02.975Z</time></trkpt><trkpt lat="45.5446567" lon="9.1879367"><ele>150.0</ele><time>2026-04-18T14:30:03.975Z</time></trkpt><trkpt lat="45.5447333" lon="9.1882317"><ele>150.0</ele><time>2026-04-18T14:30:04.975Z</time></trkpt><trkpt lat="45.5448117" lon="9.1885283"><ele>150.33333333333334</ele><time>2026-04-18T14:30:05.975Z</time></trkpt><trkpt lat="45.5448817" lon="9.1888033"><ele>150.66666666666669</ele><time>2026-04-18T14:30:06.975Z</time></trkpt><trkpt lat="45.5449567" lon="9.1891133"><ele>151.0</ele><time>2026-04-18T14:30:07.975Z</time></trkpt><trkpt lat="45.5450333" lon="9.1894183"><ele>151.0</ele><time>2026-04-18T14:30:08.975Z</time></trkpt><trkpt lat="45.5451067" lon="9.1897183"><ele>151.0</ele><time>2026-04-18T14:30:09.975Z</time></trkpt><trkpt lat="45.545175" lon="9.19003"><ele>151.0</ele><time>2026-04-18T14:30:10.975Z</time></trkpt><trkpt lat="45.5452483" lon="9.1903317"><ele>151.0</ele><time>2026-04-18T14:30:11.975Z</time></trkpt><trkpt lat="45.5453167" lon="9.190635"><ele>151.0</ele><time>2026-04-18T14:30:12.975Z</time></trkpt><trkpt lat="45.5453933" lon="9.1909467"><ele>150.5</ele><time>2026-04-18T14:30:13.975Z</time></trkpt><trkpt lat="45.5454683" lon="9.19125"><ele>150.0</ele><time>2026-04-18T14:30:14.975Z</time></trkpt><trkpt lat="45.5455433" lon="9.1915583"><ele>150.0</ele><time>2026-04-18T14:30:15.975Z</time></trkpt><trkpt lat="45.5456233" lon="9.1918617"><ele>150.0</ele><time>2026-04-18T14:30:16.975Z</time></trkpt><trkpt lat="45.5457017" lon="9.19216"><ele>150.0</ele><time>2026-04-18T14:30:17.975Z</time></trkpt><trkpt lat="45.54578" lon="9.1924617"><ele>150.0</ele><time>2026-04-18T14:30:18.975Z</time></trkpt><trkpt lat="45.54586" lon="9.1927617"><ele>150.0</ele><time>2026-04-18T14:30:19.975Z</time></trkpt><trkpt lat="45.5459417" lon="9.193065"><ele>150.0</ele><time>2026-04-18T14:30:20.975Z</time></trkpt><trkpt lat="45.5460233" lon="9.1933667"><ele>150.0</ele><time>2026-04-18T14:30:21.975Z</time></trkpt><trkpt lat="45.5461017" lon="9.1936683"><ele>150.0</ele><time>2026-04-18T14:30:22.975Z</time></trkpt><trkpt lat="45.5461817" lon="9.193965"><ele>150.0</ele><time>2026-04-18T14:30:23.975Z</time></trkpt><trkpt lat="45.5462633" lon="9.1942567"><ele>150.0</ele><time>2026-04-18T14:30:24.975Z</time></trkpt><trkpt lat="45.5463383" lon="9.1945617"><ele>150.0</ele><time>2026-04-18T14:30:25.975Z</time></trkpt><trkpt lat="45.5464133" lon="9.1948517"><ele>150.0</ele><time>2026-04-18T14:30:26.975Z</time></trkpt><trkpt lat="45.5464917" lon="9.1951483"><ele>149.66666666666666</ele><time>2026-04-18T14:30:27.975Z</time></trkpt><trkpt lat="45.5465667" lon="9.1954517"><ele>149.33333333333331</ele><time>2026-04-18T14:30:28.975Z</time></trkpt><trkpt lat="45.5466483" lon="9.1957483"><ele>149.0</ele><time>2026-04-18T14:30:29.975Z</time></trkpt><trkpt lat="45.5467333" lon="9.1960333"><ele>148.66666666666666</ele><time>2026-04-18T14:30:30.975Z</time></trkpt><trkpt lat="45.5468067" lon="9.1963333"><ele>148.33333333333334</ele><time>2026-04-18T14:30:31.975Z</time></trkpt><trkpt lat="45.5468867" lon="9.1966133"><ele>148.0</ele><time>2026-04-18T14:30:32.975Z</time></trkpt><trkpt lat="45.5469683" lon="9.1969067"><ele>147.66666666666669</ele><time>2026-04-18T14:30:33.975Z</time></trkpt><trkpt lat="45.5470367" lon="9.1972067"><ele>147.33333333333334</ele><time>2026-04-18T14:30:34.975Z</time></trkpt><trkpt lat="45.5471167" lon="9.197485"><ele>147.0</ele><time>2026-04-18T14:30:35.976Z</time></trkpt><trkpt lat="45.54719" lon="9.1977917"><ele>147.0</ele><time>2026-04-18T14:30:36.975Z</time></trkpt><trkpt lat="45.5472617" lon="9.19809"><ele>147.0</ele><time>2026-04-18T14:30:37.975Z</time></trkpt><trkpt lat="45.54733" lon="9.1983917"><ele>147.0</ele><time>2026-04-18T14:30:38.975Z</time></trkpt><trkpt lat="45.5473983" lon="9.198685"><ele>147.0</ele><time>2026-04-18T14:30:39.975Z</time></trkpt><trkpt lat="45.547475" lon="9.198975"><ele>147.0</ele><time>2026-04-18T14:30:40.975Z</time></trkpt><trkpt lat="45.547545" lon="9.1992667"><ele>147.0</ele><time>2026-04-18T14:30:41.975Z</time></trkpt><trkpt lat="45.54762" lon="9.1995717"><ele>147.33333333333334</ele><time>2026-04-18T14:30:42.975Z</time></trkpt><trkpt lat="45.547685" lon="9.1998617"><ele>147.66666666666669</ele><time>2026-04-18T14:30:43.975Z</time></trkpt><trkpt lat="45.54775" lon="9.200155"><ele>148.0</ele><time>2026-04-18T14:30:44.975Z</time></trkpt><trkpt lat="45.5478033" lon="9.2004517"><ele>148.0</ele><time>2026-04-18T14:30:45.975Z</time></trkpt><trkpt lat="45.5478533" lon="9.2007433"><ele>148.0</ele><time>2026-04-18T14:30:46.975Z</time></trkpt><trkpt lat="45.5479483" lon="9.201335"><ele>148.5</ele><time>2026-04-18T14:30:48.975Z</time></trkpt><trkpt lat="45.5480367" lon="9.2019233"><ele>149.0</ele><time>2026-04-18T14:30:50.975Z</time></trkpt><trkpt lat="45.5480683" lon="9.2022217"><ele>148.33333333333331</ele><time>2026-04-18T14:30:51.975Z</time></trkpt><trkpt lat="45.5481" lon="9.2025183"><ele>147.66666666666666</ele><time>2026-04-18T14:30:52.975Z</time></trkpt><trkpt lat="45.548125" lon="9.202825"><ele>147.0</ele><time>2026-04-18T14:30:53.975Z</time></trkpt><trkpt lat="45.5481433" lon="9.2031233"><ele>147.33333333333334</ele><time>2026-04-18T14:30:54.975Z</time></trkpt><trkpt lat="45.5481583" lon="9.2034117"><ele>147.66666666666669</ele><time>2026-04-18T14:30:55.975Z</time></trkpt><trkpt lat="45.5481783" lon="9.2036983"><ele>148.0</ele><time>2026-04-18T14:30:56.975Z</time></trkpt><trkpt lat="45.5481883" lon="9.20398"><ele>148.33333333333334</ele><time>2026-04-18T14:30:57.975Z</time></trkpt><trkpt lat="45.5482083" lon="9.2042783"><ele>148.66666666666666</ele><time>2026-04-18T14:30:58.976Z</time></trkpt><trkpt lat="45.54822" lon="9.2045833"><ele>149.0</ele><time>2026-04-18T14:30:59.975Z</time></trkpt><trkpt lat="45.5482217" lon="9.2048867"><ele>149.0</ele><time>2026-04-18T14:31:00.975Z</time></trkpt><trkpt lat="45.5482233" lon="9.205195"><ele>149.0</ele><time>2026-04-18T14:31:01.975Z</time></trkpt><trkpt lat="45.5482267" lon="9.2055017"><ele>149.0</ele><time>2026-04-18T14:31:02.975Z</time></trkpt><trkpt lat="45.5482267" lon="9.2058067"><ele>149.0</ele><time>2026-04-18T14:31:03.975Z</time></trkpt><trkpt lat="45.5482367" lon="9.2061033"><ele>149.0</ele><time>2026-04-18T14:31:04.975Z</time></trkpt><trkpt lat="45.5482467" lon="9.206405"><ele>149.0</ele><time>2026-04-18T14:31:05.975Z</time></trkpt><trkpt lat="45.5482633" lon="9.2067033"><ele>149.0</ele><time>2026-04-18T14:31:06.975Z</time></trkpt><trkpt lat="45.548275" lon="9.2070033"><ele>149.0</ele><time>2026-04-18T14:31:07.975Z</time></trkpt><trkpt lat="45.5482917" lon="9.2073033"><ele>149.0</ele><time>2026-04-18T14:31:08.975Z</time></trkpt><trkpt lat="45.5483033" lon="9.2076067"><ele>149.0</ele><time>2026-04-18T14:31:09.975Z</time></trkpt><trkpt lat="45.5483183" lon="9.2079017"><ele>149.0</ele><time>2026-04-18T14:31:10.975Z</time></trkpt><trkpt lat="45.5483383" lon="9.208195"><ele>149.0</ele><time>2026-04-18T14:31:11.975Z</time></trkpt><trkpt lat="45.5483483" lon="9.2084883"><ele>149.0</ele><time>2026-04-18T14:31:12.975Z</time></trkpt><trkpt lat="45.54836" lon="9.2087833"><ele>149.0</ele><time>2026-04-18T14:31:13.975Z</time></trkpt><trkpt lat="45.5483567" lon="9.2090783"><ele>149.0</ele><time>2026-04-18T14:31:14.976Z</time></trkpt><trkpt lat="45.5483633" lon="9.209365"><ele>149.0</ele><time>2026-04-18T14:31:15.975Z</time></trkpt><trkpt lat="45.5483683" lon="9.20965"><ele>149.0</ele><time>2026-04-18T14:31:16.975Z</time></trkpt><trkpt lat="45.5483767" lon="9.20995"><ele>149.0</ele><time>2026-04-18T14:31:17.975Z</time></trkpt><trkpt lat="45.5483933" lon="9.2102483"><ele>149.0</ele><time>2026-04-18T14:31:18.975Z</time></trkpt><trkpt lat="45.548405" lon="9.2105383"><ele>149.0</ele><time>2026-04-18T14:31:19.975Z</time></trkpt><trkpt lat="45.5484133" lon="9.2108467"><ele>149.0</ele><time>2026-04-18T14:31:20.975Z</time></trkpt><trkpt lat="45.5484167" lon="9.2111467"><ele>149.0</ele><time>2026-04-18T14:31:21.975Z</time></trkpt><trkpt lat="45.5484233" lon="9.21144"><ele>149.0</ele><time>2026-04-18T14:31:22.975Z</time></trkpt><trkpt lat="45.548435" lon="9.2117317"><ele>149.0</ele><time>2026-04-18T14:31:23.975Z</time></trkpt><trkpt lat="45.548445" lon="9.2120283"><ele>149.0</ele><time>2026-04-18T14:31:24.975Z</time></trkpt><trkpt lat="45.54845" lon="9.2123233"><ele>149.0</ele><time>2026-04-18T14:31:25.975Z</time></trkpt><trkpt lat="45.5484533" lon="9.2126133"><ele>149.0</ele><time>2026-04-18T14:31:26.975Z</time></trkpt><trkpt lat="45.548455" lon="9.21291"><ele>148.0</ele><time>2026-04-18T14:31:27.975Z</time></trkpt><trkpt lat="45.548465" lon="9.213195"><ele>147.0</ele><time>2026-04-18T14:31:28.975Z</time></trkpt><trkpt lat="45.548475" lon="9.21348"><ele>146.0</ele><time>2026-04-18T14:31:29.975Z</time></trkpt><trkpt lat="45.5484817" lon="9.2137583"><ele>146.0</ele><time>2026-04-18T14:31:30.975Z</time></trkpt><trkpt lat="45.5484933" lon="9.2140417"><ele>146.0</ele><time>2026-04-18T14:31:31.975Z</time></trkpt><trkpt lat="45.5485067" lon="9.2143233"><ele>146.0</ele><time>2026-04-18T14:31:32.975Z</time></trkpt><trkpt lat="45.54851" lon="9.21461"><ele>147.0</ele><time>2026-04-18T14:31:33.975Z</time></trkpt><trkpt lat="45.5485233" lon="9.2148933"><ele>148.0</ele><time>2026-04-18T14:31:34.975Z</time></trkpt><trkpt lat="45.5485367" lon="9.215185"><ele>149.0</ele><time>2026-04-18T14:31:35.975Z</time></trkpt><trkpt lat="45.5485383" lon="9.2154717"><ele>149.66666666666666</ele><time>2026-04-18T14:31:36.975Z</time></trkpt><trkpt lat="45.54856" lon="9.2157633"><ele>150.33333333333334</ele><time>2026-04-18T14:31:37.975Z</time></trkpt><trkpt lat="45.54857" lon="9.2160433"><ele>151.0</ele><time>2026-04-18T14:31:38.975Z</time></trkpt><trkpt lat="45.5485783" lon="9.2163233"><ele>150.66666666666669</ele><time>2026-04-18T14:31:39.975Z</time></trkpt><trkpt lat="45.5485833" lon="9.2166083"><ele>150.33333333333334</ele><time>2026-04-18T14:31:40.975Z</time></trkpt><trkpt lat="45.548585" lon="9.2168983"><ele>150.0</ele><time>2026-04-18T14:31:41.975Z</time></trkpt><trkpt lat="45.5485917" lon="9.2171767"><ele>149.66666666666666</ele><time>2026-04-18T14:31:42.975Z</time></trkpt><trkpt lat="45.5486067" lon="9.2174683"><ele>149.33333333333331</ele><time>2026-04-18T14:31:43.975Z</time></trkpt><trkpt lat="45.5486183" lon="9.2177667"><ele>149.0</ele><time>2026-04-18T14:31:44.975Z</time></trkpt><trkpt lat="45.5486367" lon="9.2180617"><ele>149.0</ele><time>2026-04-18T14:31:45.975Z</time></trkpt><trkpt lat="45.5486617" lon="9.2183417"><ele>149.0</ele><time>2026-04-18T14:31:46.975Z</time></trkpt><trkpt lat="45.5486683" lon="9.2186333"><ele>149.0</ele><time>2026-04-18T14:31:47.975Z</time></trkpt><trkpt lat="45.5486833" lon="9.2189183"><ele>149.66666666666666</ele><time>2026-04-18T14:31:48.975Z</time></trkpt><trkpt lat="45.5486967" lon="9.2192083"><ele>150.33333333333334</ele><time>2026-04-18T14:31:49.975Z</time></trkpt><trkpt lat="45.5487267" lon="9.2194967"><ele>151.0</ele><time>2026-04-18T14:31:50.975Z</time></trkpt><trkpt lat="45.548755" lon="9.21979"><ele>151.0</ele><time>2026-04-18T14:31:51.976Z</time></trkpt><trkpt lat="45.5487767" lon="9.2200733"><ele>151.0</ele><time>2026-04-18T14:31:52.975Z</time></trkpt><trkpt lat="45.548785" lon="9.2203683"><ele>151.0</ele><time>2026-04-18T14:31:53.975Z</time></trkpt><trkpt lat="45.5488167" lon="9.2206533"><ele>150.66666666666669</ele><time>2026-04-18T14:31:54.975Z</time></trkpt><trkpt lat="45.548865" lon="9.2209283"><ele>150.33333333333334</ele><time>2026-04-18T14:31:55.976Z</time></trkpt><trkpt lat="45.5489133" lon="9.2212067"><ele>150.0</ele><time>2026-04-18T14:31:56.975Z</time></trkpt><trkpt lat="45.5489583" lon="9.2214917"><ele>150.0</ele><time>2026-04-18T14:31:57.975Z</time></trkpt><trkpt lat="45.5490033" lon="9.2217733"><ele>150.0</ele><time>2026-04-18T14:31:58.975Z</time></trkpt><trkpt lat="45.5490417" lon="9.22205"><ele>150.0</ele><time>2026-04-18T14:31:59.975Z</time></trkpt><trkpt lat="45.5490817" lon="9.22233"><ele>149.66666666666666</ele><time>2026-04-18T14:32:00.975Z</time></trkpt><trkpt lat="45.5491233" lon="9.22262"><ele>149.33333333333331</ele><time>2026-04-18T14:32:01.976Z</time></trkpt><trkpt lat="45.5491617" lon="9.22291"><ele>149.0</ele><time>2026-04-18T14:32:02.975Z</time></trkpt><trkpt lat="45.5492" lon="9.223205"><ele>148.66666666666666</ele><time>2026-04-18T14:32:03.975Z</time></trkpt><trkpt lat="45.5492567" lon="9.2235033"><ele>148.33333333333334</ele><time>2026-04-18T14:32:04.975Z</time></trkpt><trkpt lat="45.549325" lon="9.2237917"><ele>148.0</ele><time>2026-04-18T14:32:05.975Z</time></trkpt><trkpt lat="45.5494" lon="9.224085"><ele>148.0</ele><time>2026-04-18T14:32:06.975Z</time></trkpt><trkpt lat="45.549445" lon="9.2243817"><ele>148.0</ele><time>2026-04-18T14:32:07.975Z</time></trkpt><trkpt lat="45.54948" lon="9.22467"><ele>148.0</ele><time>2026-04-18T14:32:08.975Z</time></trkpt><trkpt lat="45.54952" lon="9.2249667"><ele>148.33333333333334</ele><time>2026-04-18T14:32:09.975Z</time></trkpt><trkpt lat="45.5495633" lon="9.2252633"><ele>148.66666666666666</ele><time>2026-04-18T14:32:10.975Z</time></trkpt><trkpt lat="45.54961" lon="9.22556"><ele>149.0</ele><time>2026-04-18T14:32:11.975Z</time></trkpt><trkpt lat="45.5496467" lon="9.2258583"><ele>149.33333333333331</ele><time>2026-04-18T14:32:12.975Z</time></trkpt><trkpt lat="45.5496933" lon="9.2261617"><ele>149.66666666666666</ele><time>2026-04-18T14:32:13.975Z</time></trkpt><trkpt lat="45.5497733" lon="9.2264533"><ele>150.0</ele><time>2026-04-18T14:32:14.975Z</time></trkpt><trkpt lat="45.549815" lon="9.2267467"><ele>150.0</ele><time>2026-04-18T14:32:15.976Z</time></trkpt><trkpt lat="45.5498733" lon="9.2270483"><ele>150.0</ele><time>2026-04-18T14:32:16.975Z</time></trkpt><trkpt lat="45.5499267" lon="9.2273517"><ele>150.0</ele><time>2026-04-18T14:32:17.975Z</time></trkpt><trkpt lat="45.5499817" lon="9.22766"><ele>149.33333333333334</ele><time>2026-04-18T14:32:18.976Z</time></trkpt><trkpt lat="45.5500217" lon="9.2279617"><ele>148.66666666666669</ele><time>2026-04-18T14:32:19.975Z</time></trkpt><trkpt lat="45.5500517" lon="9.22825"><ele>148.0</ele><time>2026-04-18T14:32:20.975Z</time></trkpt><trkpt lat="45.5501167" lon="9.2285533"><ele>148.0</ele><time>2026-04-18T14:32:21.975Z</time></trkpt><trkpt lat="45.5501567" lon="9.2288533"><ele>148.0</ele><time>2026-04-18T14:32:22.975Z</time></trkpt><trkpt lat="45.5501917" lon="9.2291483"><ele>148.0</ele><time>2026-04-18T14:32:23.975Z</time></trkpt><trkpt lat="45.5502483" lon="9.2294483"><ele>148.0</ele><time>2026-04-18T14:32:24.975Z</time></trkpt><trkpt lat="45.5502833" lon="9.2297383"><ele>148.0</ele><time>2026-04-18T14:32:25.975Z</time></trkpt><trkpt lat="45.5502967" lon="9.2300333"><ele>148.0</ele><time>2026-04-18T14:32:26.976Z</time></trkpt><trkpt lat="45.5503383" lon="9.23031"><ele>148.33333333333334</ele><time>2026-04-18T14:32:27.975Z</time></trkpt><trkpt lat="45.550385" lon="9.2306"><ele>148.66666666666666</ele><time>2026-04-18T14:32:28.975Z</time></trkpt><trkpt lat="45.550425" lon="9.2308883"><ele>149.0</ele><time>2026-04-18T14:32:29.975Z</time></trkpt><trkpt lat="45.55047" lon="9.23116"><ele>149.33333333333331</ele><time>2026-04-18T14:32:30.975Z</time></trkpt><trkpt lat="45.55051" lon="9.2314267"><ele>149.66666666666666</ele><time>2026-04-18T14:32:31.975Z</time></trkpt><trkpt lat="45.550555" lon="9.2316833"><ele>150.0</ele><time>2026-04-18T14:32:32.975Z</time></trkpt><trkpt lat="45.5505933" lon="9.2319367"><ele>150.33333333333334</ele><time>2026-04-18T14:32:33.975Z</time></trkpt><trkpt lat="45.5506383" lon="9.2321967"><ele>150.66666666666669</ele><time>2026-04-18T14:32:34.975Z</time></trkpt><trkpt lat="45.5506817" lon="9.2324517"><ele>151.0</ele><time>2026-04-18T14:32:35.975Z</time></trkpt><trkpt lat="45.5507246" lon="9.2284483"><ele>152.0</ele><time>2026-04-18T14:32:48.555Z</time></trkpt><trkpt lat="45.5510817" lon="9.2376133"><ele>152.0</ele><time>2026-04-18T14:32:55.992Z</time></trkpt><trkpt lat="45.551185" lon="9.2378783"><ele>152.0</ele><time>2026-04-18T14:32:56.992Z</time></trkpt><trkpt lat="45.5512383" lon="9.2381767"><ele>152.0</ele><time>2026-04-18T14:32:57.992Z</time></trkpt><trkpt lat="45.5512883" lon="9.2384533"><ele>152.0</ele><time>2026-04-18T14:32:58.992Z</time></trkpt><trkpt lat="45.5513667" lon="9.23869"><ele>152.0</ele><time>2026-04-18T14:32:59.992Z</time></trkpt><trkpt lat="45.5514567" lon="9.2389333"><ele>152.0</ele><time>2026-04-18T14:33:00.992Z</time></trkpt><trkpt lat="45.5515017" lon="9.2392017"><ele>152.0</ele><time>2026-04-18T14:33:01.992Z</time></trkpt><trkpt lat="45.5515433" lon="9.23947"><ele>152.0</ele><time>2026-04-18T14:33:02.993Z</time></trkpt><trkpt lat="45.5515933" lon="9.2397267"><ele>152.0</ele><time>2026-04-18T14:33:03.992Z</time></trkpt><trkpt lat="45.5516317" lon="9.2399833"><ele>151.66666666666666</ele><time>2026-04-18T14:33:04.992Z</time></trkpt><trkpt lat="45.55167" lon="9.2402367"><ele>151.33333333333334</ele><time>2026-04-18T14:33:05.992Z</time></trkpt><trkpt lat="45.5517083" lon="9.24048"><ele>151.0</ele><time>2026-04-18T14:33:06.992Z</time></trkpt><trkpt lat="45.5517433" lon="9.2407233"><ele>152.0</ele><time>2026-04-18T14:33:07.992Z</time></trkpt><trkpt lat="45.5517717" lon="9.2409867"><ele>153.0</ele><time>2026-04-18T14:33:08.992Z</time></trkpt><trkpt lat="45.5518067" lon="9.2412417"><ele>154.0</ele><time>2026-04-18T14:33:09.992Z</time></trkpt><trkpt lat="45.551865" lon="9.24149"><ele>154.33333333333334</ele><time>2026-04-18T14:33:10.992Z</time></trkpt><trkpt lat="45.5519033" lon="9.2417267"><ele>154.66666666666666</ele><time>2026-04-18T14:33:11.992Z</time></trkpt><trkpt lat="45.5519433" lon="9.24196"><ele>155.0</ele><time>2026-04-18T14:33:12.992Z</time></trkpt><trkpt lat="45.5519817" lon="9.2421883"><ele>155.0</ele><time>2026-04-18T14:33:13.992Z</time></trkpt><trkpt lat="45.5520083" lon="9.2424117"><ele>155.0</ele><time>2026-04-18T14:33:14.992Z</time></trkpt><trkpt lat="45.5520267" lon="9.2426567"><ele>155.0</ele><time>2026-04-18T14:33:15.992Z</time></trkpt><trkpt lat="45.5520733" lon="9.2428783"><ele>154.0</ele><time>2026-04-18T14:33:16.992Z</time></trkpt><trkpt lat="45.552105" lon="9.2431083"><ele>153.0</ele><time>2026-04-18T14:33:17.992Z</time></trkpt><trkpt lat="45.5521483" lon="9.2433167"><ele>152.0</ele><time>2026-04-18T14:33:18.992Z</time></trkpt><trkpt lat="45.5521817" lon="9.24354"><ele>152.0</ele><time>2026-04-18T14:33:19.992Z</time></trkpt><trkpt lat="45.5522067" lon="9.24377"><ele>152.0</ele><time>2026-04-18T14:33:20.992Z</time></trkpt><trkpt lat="45.5522217" lon="9.244"><ele>152.0</ele><time>2026-04-18T14:33:21.992Z</time></trkpt><trkpt lat="45.552235" lon="9.24421"><ele>152.0</ele><time>2026-04-18T14:33:22.992Z</time></trkpt><trkpt lat="45.5522433" lon="9.2444133"><ele>152.0</ele><time>2026-04-18T14:33:23.992Z</time></trkpt><trkpt lat="45.5522367" lon="9.2446183"><ele>152.0</ele><time>2026-04-18T14:33:24.992Z</time></trkpt><trkpt lat="45.5522183" lon="9.2448317"><ele>152.0</ele><time>2026-04-18T14:33:25.992Z</time></trkpt><trkpt lat="45.5521983" lon="9.2450433"><ele>151.5</ele><time>2026-04-18T14:33:26.992Z</time></trkpt><trkpt lat="45.552185" lon="9.2452533"><ele>151.0</ele><time>2026-04-18T14:33:27.992Z</time></trkpt><trkpt lat="45.5521833" lon="9.2454517"><ele>150.5</ele><time>2026-04-18T14:33:28.992Z</time></trkpt><trkpt lat="45.5522033" lon="9.24564"><ele>150.0</ele><time>2026-04-18T14:33:29.992Z</time></trkpt><trkpt lat="45.5522433" lon="9.245815"><ele>150.0</ele><time>2026-04-18T14:33:30.992Z</time></trkpt><trkpt lat="45.5523067" lon="9.2459833"><ele>150.0</ele><time>2026-04-18T14:33:31.992Z</time></trkpt><trkpt lat="45.5524033" lon="9.2461283"><ele>150.0</ele><time>2026-04-18T14:33:32.992Z</time></trkpt><trkpt lat="45.552515" lon="9.246235"><ele>150.0</ele><time>2026-04-18T14:33:33.992Z</time></trkpt><trkpt lat="45.552625" lon="9.2463317"><ele>150.0</ele><time>2026-04-18T14:33:34.992Z</time></trkpt><trkpt lat="45.5527433" lon="9.2464067"><ele>150.0</ele><time>2026-04-18T14:33:35.992Z</time></trkpt><trkpt lat="45.552845" lon="9.246465"><ele>150.0</ele><time>2026-04-18T14:33:36.992Z</time></trkpt><trkpt lat="45.5529817" lon="9.2463683"><ele>150.0</ele><time>2026-04-18T14:33:37.992Z</time></trkpt><trkpt lat="45.5531233" lon="9.246195"><ele>149.66666666666666</ele><time>2026-04-18T14:33:38.992Z</time></trkpt><trkpt lat="45.5532467" lon="9.2459717"><ele>149.33333333333331</ele><time>2026-04-18T14:33:39.992Z</time></trkpt><trkpt lat="45.5533483" lon="9.2457733"><ele>149.0</ele><time>2026-04-18T14:33:40.992Z</time></trkpt><trkpt lat="45.5534467" lon="9.245595"><ele>149.0</ele><time>2026-04-18T14:33:41.992Z</time></trkpt><trkpt lat="45.553545" lon="9.245415"><ele>149.0</ele><time>2026-04-18T14:33:42.991Z</time></trkpt><trkpt lat="45.553645" lon="9.2452567"><ele>149.0</ele><time>2026-04-18T14:33:43.991Z</time></trkpt><trkpt lat="45.55374" lon="9.2450917"><ele>149.0</ele><time>2026-04-18T14:33:44.991Z</time></trkpt><trkpt lat="45.553835" lon="9.2449317"><ele>149.0</ele><time>2026-04-18T14:33:45.992Z</time></trkpt><trkpt lat="45.5539233" lon="9.244775"><ele>149.0</ele><time>2026-04-18T14:33:46.991Z</time></trkpt><trkpt lat="45.5540067" lon="9.2446217"><ele>149.0</ele><time>2026-04-18T14:33:47.991Z</time></trkpt><trkpt lat="45.5540883" lon="9.2444833"><ele>149.0</ele><time>2026-04-18T14:33:48.991Z</time></trkpt><trkpt lat="45.5541767" lon="9.244345"><ele>149.0</ele><time>2026-04-18T14:33:49.991Z</time></trkpt><trkpt lat="45.5542617" lon="9.2441983"><ele>149.0</ele><time>2026-04-18T14:33:50.991Z</time></trkpt><trkpt lat="45.5543517" lon="9.2440367"><ele>149.0</ele><time>2026-04-18T14:33:51.991Z</time></trkpt><trkpt lat="45.5544417" lon="9.2438633"><ele>149.0</ele><time>2026-04-18T14:33:52.991Z</time></trkpt><trkpt lat="45.5545317" lon="9.2436667"><ele>149.0</ele><time>2026-04-18T14:33:53.991Z</time></trkpt><trkpt lat="45.5546133" lon="9.243465"><ele>149.0</ele><time>2026-04-18T14:33:54.991Z</time></trkpt><trkpt lat="45.554685" lon="9.2432667"><ele>149.33333333333331</ele><time>2026-04-18T14:33:55.991Z</time></trkpt><trkpt lat="45.5547567" lon="9.2430417"><ele>149.66666666666666</ele><time>2026-04-18T14:33:56.992Z</time></trkpt><trkpt lat="45.5548217" lon="9.2428067"><ele>150.0</ele><time>2026-04-18T14:33:57.991Z</time></trkpt><trkpt lat="45.554885" lon="9.2425567"><ele>150.0</ele><time>2026-04-18T14:33:58.992Z</time></trkpt><trkpt lat="45.55496" lon="9.2423183"><ele>150.0</ele><time>2026-04-18T14:33:59.991Z</time></trkpt><trkpt lat="45.5550367" lon="9.2421233"><ele>150.0</ele><time>2026-04-18T14:34:00.991Z</time></trkpt><trkpt lat="45.5550883" lon="9.2419017"><ele>150.33333333333334</ele><time>2026-04-18T14:34:01.992Z</time></trkpt><trkpt lat="45.55511" lon="9.2416833"><ele>150.66666666666669</ele><time>2026-04-18T14:34:02.991Z</time></trkpt><trkpt lat="45.555145" lon="9.24144"><ele>151.0</ele><time>2026-04-18T14:34:03.992Z</time></trkpt><trkpt lat="45.555175" lon="9.241215"><ele>151.0</ele><time>2026-04-18T14:34:04.991Z</time></trkpt><trkpt lat="45.5552033" lon="9.2410017"><ele>151.0</ele><time>2026-04-18T14:34:05.991Z</time></trkpt><trkpt lat="45.555245" lon="9.2407983"><ele>151.0</ele><time>2026-04-18T14:34:06.991Z</time></trkpt><trkpt lat="45.5552917" lon="9.2405983"><ele>151.0</ele><time>2026-04-18T14:34:07.991Z</time></trkpt><trkpt lat="45.5553533" lon="9.2404283"><ele>151.0</ele><time>2026-04-18T14:34:08.992Z</time></trkpt><trkpt lat="45.5554167" lon="9.240305"><ele>151.0</ele><time>2026-04-18T14:34:09.991Z</time></trkpt><trkpt lat="45.5555067" lon="9.2402067"><ele>151.0</ele><time>2026-04-18T14:34:10.991Z</time></trkpt><trkpt lat="45.5556133" lon="9.2401317"><ele>151.0</ele><time>2026-04-18T14:34:11.991Z</time></trkpt><trkpt lat="45.5557283" lon="9.2401083"><ele>151.0</ele><time>2026-04-18T14:34:12.992Z</time></trkpt><trkpt lat="45.5558633" lon="9.2401183"><ele>151.0</ele><time>2026-04-18T14:34:13.991Z</time></trkpt><trkpt lat="45.556005" lon="9.240165"><ele>151.0</ele><time>2026-04-18T14:34:14.991Z</time></trkpt><trkpt lat="45.55615" lon="9.2402317"><ele>151.0</ele><time>2026-04-18T14:34:15.991Z</time></trkpt><trkpt lat="45.556305" lon="9.24029"><ele>152.0</ele><time>2026-04-18T14:34:16.991Z</time></trkpt><trkpt lat="45.5564583" lon="9.240355"><ele>153.0</ele><time>2026-04-18T14:34:17.991Z</time></trkpt><trkpt lat="45.556615" lon="9.24043"><ele>154.0</ele><time>2026-04-18T14:34:18.992Z</time></trkpt><trkpt lat="45.55678" lon="9.2405083"><ele>154.0</ele><time>2026-04-18T14:34:19.991Z</time></trkpt><trkpt lat="45.5569467" lon="9.2405833"><ele>154.0</ele><time>2026-04-18T14:34:20.991Z</time></trkpt><trkpt lat="45.5571133" lon="9.24065"><ele>154.0</ele><time>2026-04-18T14:34:21.991Z</time></trkpt><trkpt lat="45.5572917" lon="9.2407117"><ele>153.66666666666669</ele><time>2026-04-18T14:34:22.991Z</time></trkpt><trkpt lat="45.55747" lon="9.2407817"><ele>153.33333333333334</ele><time>2026-04-18T14:34:23.991Z</time></trkpt><trkpt lat="45.55765" lon="9.2408467"><ele>153.0</ele><time>2026-04-18T14:34:24.991Z</time></trkpt><trkpt lat="45.557825" lon="9.240925"><ele>153.0</ele><time>2026-04-18T14:34:25.992Z</time></trkpt><trkpt lat="45.5580067" lon="9.2409983"><ele>153.0</ele><time>2026-04-18T14:34:26.991Z</time></trkpt><trkpt lat="45.55819" lon="9.2410783"><ele>153.0</ele><time>2026-04-18T14:34:27.991Z</time></trkpt><trkpt lat="45.55837" lon="9.2411483"><ele>153.0</ele><time>2026-04-18T14:34:28.991Z</time></trkpt><trkpt lat="45.558545" lon="9.2412133"><ele>153.0</ele><time>2026-04-18T14:34:29.992Z</time></trkpt><trkpt lat="45.5587217" lon="9.2412883"><ele>153.0</ele><time>2026-04-18T14:34:30.992Z</time></trkpt><trkpt lat="45.5588983" lon="9.2413733"><ele>153.0</ele><time>2026-04-18T14:34:31.992Z</time></trkpt><trkpt lat="45.5590717" lon="9.2414483"><ele>153.0</ele><time>2026-04-18T14:34:32.991Z</time></trkpt><trkpt lat="45.5592417" lon="9.2415183"><ele>153.0</ele><time>2026-04-18T14:34:33.991Z</time></trkpt><trkpt lat="45.5594117" lon="9.2415883"><ele>153.0</ele><time>2026-04-18T14:34:34.991Z</time></trkpt><trkpt lat="45.55958" lon="9.241655"><ele>153.0</ele><time>2026-04-18T14:34:35.991Z</time></trkpt><trkpt lat="45.5597483" lon="9.2417233"><ele>153.0</ele><time>2026-04-18T14:34:36.991Z</time></trkpt><trkpt lat="45.55992" lon="9.2417733"><ele>153.0</ele><time>2026-04-18T14:34:37.991Z</time></trkpt><trkpt lat="45.56009" lon="9.2418333"><ele>153.0</ele><time>2026-04-18T14:34:38.991Z</time></trkpt><trkpt lat="45.560255" lon="9.2418983"><ele>153.0</ele><time>2026-04-18T14:34:39.991Z</time></trkpt><trkpt lat="45.560415" lon="9.2419767"><ele>152.33333333333334</ele><time>2026-04-18T14:34:40.991Z</time></trkpt><trkpt lat="45.560575" lon="9.2420383"><ele>151.66666666666669</ele><time>2026-04-18T14:34:41.991Z</time></trkpt><trkpt lat="45.5607233" lon="9.2420967"><ele>151.0</ele><time>2026-04-18T14:34:42.991Z</time></trkpt><trkpt lat="45.560865" lon="9.2421517"><ele>151.0</ele><time>2026-04-18T14:34:43.992Z</time></trkpt><trkpt lat="45.5610017" lon="9.2422083"><ele>151.0</ele><time>2026-04-18T14:34:44.991Z</time></trkpt><trkpt lat="45.5611467" lon="9.2422717"><ele>151.0</ele><time>2026-04-18T14:34:45.991Z</time></trkpt><trkpt lat="45.5612917" lon="9.2423483"><ele>151.0</ele><time>2026-04-18T14:34:46.991Z</time></trkpt><trkpt lat="45.561445" lon="9.2424267"><ele>153.0</ele><time>2026-04-18T14:34:47.991Z</time></trkpt><trkpt lat="45.5616117" lon="9.2424967"><ele>155.0</ele><time>2026-04-18T14:34:48.991Z</time></trkpt><trkpt lat="45.5617867" lon="9.2425667"><ele>157.0</ele><time>2026-04-18T14:34:49.991Z</time></trkpt><trkpt lat="45.5619483" lon="9.24262"><ele>157.33333333333334</ele><time>2026-04-18T14:34:50.991Z</time></trkpt><trkpt lat="45.5621033" lon="9.2427"><ele>157.66666666666666</ele><time>2026-04-18T14:34:51.991Z</time></trkpt><trkpt lat="45.562265" lon="9.242775"><ele>158.0</ele><time>2026-04-18T14:34:52.991Z</time></trkpt><trkpt lat="45.5624283" lon="9.24286"><ele>158.0</ele><time>2026-04-18T14:34:53.991Z</time></trkpt><trkpt lat="45.5626017" lon="9.242935"><ele>158.0</ele><time>2026-04-18T14:34:54.991Z</time></trkpt><trkpt lat="45.5627767" lon="9.2430033"><ele>158.0</ele><time>2026-04-18T14:34:55.991Z</time></trkpt><trkpt lat="45.562955" lon="9.2430867"><ele>159.0</ele><time>2026-04-18T14:34:56.991Z</time></trkpt><trkpt lat="45.56314" lon="9.243155"><ele>160.0</ele><time>2026-04-18T14:34:57.991Z</time></trkpt><trkpt lat="45.563325" lon="9.2432233"><ele>161.0</ele><time>2026-04-18T14:34:58.991Z</time></trkpt><trkpt lat="45.5635033" lon="9.243275"><ele>161.0</ele><time>2026-04-18T14:34:59.991Z</time></trkpt><trkpt lat="45.5636883" lon="9.24335"><ele>161.0</ele><time>2026-04-18T14:35:00.991Z</time></trkpt><trkpt lat="45.5638667" lon="9.243415"><ele>161.0</ele><time>2026-04-18T14:35:01.992Z</time></trkpt><trkpt lat="45.56404" lon="9.24348"><ele>160.33333333333331</ele><time>2026-04-18T14:35:02.991Z</time></trkpt><trkpt lat="45.56421" lon="9.24355"><ele>159.66666666666666</ele><time>2026-04-18T14:35:03.991Z</time></trkpt><trkpt lat="45.5643867" lon="9.2436217"><ele>159.0</ele><time>2026-04-18T14:35:04.991Z</time></trkpt><trkpt lat="45.5645583" lon="9.2436883"><ele>159.0</ele><time>2026-04-18T14:35:05.991Z</time></trkpt><trkpt lat="45.5647233" lon="9.24376"><ele>159.0</ele><time>2026-04-18T14:35:06.991Z</time></trkpt><trkpt lat="45.5648833" lon="9.2438183"><ele>159.0</ele><time>2026-04-18T14:35:07.991Z</time></trkpt><trkpt lat="45.56503" lon="9.24388"><ele>159.0</ele><time>2026-04-18T14:35:08.991Z</time></trkpt><trkpt lat="45.56516" lon="9.2439417"><ele>159.0</ele><time>2026-04-18T14:35:09.991Z</time></trkpt><trkpt lat="45.5652917" lon="9.2439817"><ele>159.0</ele><time>2026-04-18T14:35:10.991Z</time></trkpt><trkpt lat="45.5654133" lon="9.2440333"><ele>159.0</ele><time>2026-04-18T14:35:11.991Z</time></trkpt><trkpt lat="45.5655367" lon="9.244085"><ele>159.0</ele><time>2026-04-18T14:35:12.991Z</time></trkpt><trkpt lat="45.565655" lon="9.2441317"><ele>159.0</ele><time>2026-04-18T14:35:13.991Z</time></trkpt><trkpt lat="45.5657817" lon="9.2441783"><ele>159.0</ele><time>2026-04-18T14:35:14.991Z</time></trkpt><trkpt lat="45.5659067" lon="9.244245"><ele>159.0</ele><time>2026-04-18T14:35:15.991Z</time></trkpt><trkpt lat="45.56604" lon="9.2443017"><ele>159.0</ele><time>2026-04-18T14:35:16.991Z</time></trkpt><trkpt lat="45.5661817" lon="9.2443567"><ele>159.0</ele><time>2026-04-18T14:35:17.991Z</time></trkpt><trkpt lat="45.566325" lon="9.2444167"><ele>159.0</ele><time>2026-04-18T14:35:18.991Z</time></trkpt><trkpt lat="45.5664767" lon="9.2444817"><ele>159.0</ele><time>2026-04-18T14:35:19.991Z</time></trkpt><trkpt lat="45.566625" lon="9.2445467"><ele>159.0</ele><time>2026-04-18T14:35:20.991Z</time></trkpt><trkpt lat="45.56677" lon="9.24461"><ele>159.0</ele><time>2026-04-18T14:35:21.991Z</time></trkpt><trkpt lat="45.5669233" lon="9.244665"><ele>158.66666666666666</ele><time>2026-04-18T14:35:22.992Z</time></trkpt><trkpt lat="45.5670783" lon="9.2447283"><ele>158.33333333333331</ele><time>2026-04-18T14:35:23.991Z</time></trkpt><trkpt lat="45.5672383" lon="9.244795"><ele>158.0</ele><time>2026-04-18T14:35:24.991Z</time></trkpt><trkpt lat="45.5673933" lon="9.24486"><ele>158.0</ele><time>2026-04-18T14:35:25.991Z</time></trkpt><trkpt lat="45.567555" lon="9.244925"><ele>158.0</ele><time>2026-04-18T14:35:26.991Z</time></trkpt><trkpt lat="45.5677117" lon="9.2449717"><ele>158.0</ele><time>2026-04-18T14:35:27.991Z</time></trkpt><trkpt lat="45.5678683" lon="9.245035"><ele>159.0</ele><time>2026-04-18T14:35:28.991Z</time></trkpt><trkpt lat="45.5680267" lon="9.2451217"><ele>160.0</ele><time>2026-04-18T14:35:29.991Z</time></trkpt><trkpt lat="45.5681733" lon="9.2452117"><ele>161.0</ele><time>2026-04-18T14:35:30.991Z</time></trkpt><trkpt lat="45.5683333" lon="9.2452867"><ele>161.0</ele><time>2026-04-18T14:35:31.991Z</time></trkpt><trkpt lat="45.5684817" lon="9.24536"><ele>161.0</ele><time>2026-04-18T14:35:32.991Z</time></trkpt><trkpt lat="45.568645" lon="9.2454217"><ele>161.0</ele><time>2026-04-18T14:35:33.992Z</time></trkpt><trkpt lat="45.5688033" lon="9.2454783"><ele>161.33333333333331</ele><time>2026-04-18T14:35:34.991Z</time></trkpt><trkpt lat="45.5689617" lon="9.2455317"><ele>161.66666666666666</ele><time>2026-04-18T14:35:35.992Z</time></trkpt><trkpt lat="45.5691317" lon="9.2455883"><ele>162.0</ele><time>2026-04-18T14:35:36.991Z</time></trkpt><trkpt lat="45.5692783" lon="9.24566"><ele>161.33333333333334</ele><time>2026-04-18T14:35:37.991Z</time></trkpt><trkpt lat="45.5694233" lon="9.2457367"><ele>160.66666666666669</ele><time>2026-04-18T14:35:38.992Z</time></trkpt><trkpt lat="45.5695767" lon="9.2458067"><ele>160.0</ele><time>2026-04-18T14:35:39.991Z</time></trkpt><trkpt lat="45.5697267" lon="9.24588"><ele>160.0</ele><time>2026-04-18T14:35:40.992Z</time></trkpt><trkpt lat="45.5698583" lon="9.24597"><ele>160.0</ele><time>2026-04-18T14:35:41.991Z</time></trkpt><trkpt lat="45.5699717" lon="9.2460667"><ele>160.0</ele><time>2026-04-18T14:35:42.992Z</time></trkpt><trkpt lat="45.5700733" lon="9.246175"><ele>160.0</ele><time>2026-04-18T14:35:43.991Z</time></trkpt><trkpt lat="45.5701633" lon="9.2462867"><ele>160.0</ele><time>2026-04-18T14:35:44.991Z</time></trkpt><trkpt lat="45.5702483" lon="9.246405"><ele>160.0</ele><time>2026-04-18T14:35:45.991Z</time></trkpt><trkpt lat="45.57034" lon="9.2464967"><ele>160.0</ele><time>2026-04-18T14:35:46.991Z</time></trkpt><trkpt lat="45.5704333" lon="9.246565"><ele>160.0</ele><time>2026-04-18T14:35:47.991Z</time></trkpt><trkpt lat="45.57052" lon="9.2466167"><ele>160.0</ele><time>2026-04-18T14:35:48.991Z</time></trkpt><trkpt lat="45.570605" lon="9.2466667"><ele>160.5</ele><time>2026-04-18T14:35:49.991Z</time></trkpt><trkpt lat="45.5706767" lon="9.2467233"><ele>161.0</ele><time>2026-04-18T14:35:50.991Z</time></trkpt><trkpt lat="45.57074" lon="9.2467917"><ele>161.5</ele><time>2026-04-18T14:35:51.991Z</time></trkpt><trkpt lat="45.570795" lon="9.24688"><ele>162.0</ele><time>2026-04-18T14:35:52.991Z</time></trkpt><trkpt lat="45.5708533" lon="9.2469767"><ele>162.5</ele><time>2026-04-18T14:35:53.991Z</time></trkpt><trkpt lat="45.5709133" lon="9.2470717"><ele>163.0</ele><time>2026-04-18T14:35:54.991Z</time></trkpt><trkpt lat="45.5709983" lon="9.24714"><ele>163.0</ele><time>2026-04-18T14:35:55.991Z</time></trkpt><trkpt lat="45.5711033" lon="9.2471733"><ele>163.0</ele><time>2026-04-18T14:35:56.992Z</time></trkpt><trkpt lat="45.5712133" lon="9.247165"><ele>163.0</ele><time>2026-04-18T14:35:57.991Z</time></trkpt><trkpt lat="45.5713217" lon="9.247145"><ele>163.0</ele><time>2026-04-18T14:35:58.991Z</time></trkpt><trkpt lat="45.57142" lon="9.24712"><ele>163.0</ele><time>2026-04-18T14:35:59.991Z</time></trkpt><trkpt lat="45.571505" lon="9.24709"><ele>163.33333333333334</ele><time>2026-04-18T14:36:00.991Z</time></trkpt><trkpt lat="45.5715817" lon="9.2470467"><ele>163.66666666666669</ele><time>2026-04-18T14:36:01.991Z</time></trkpt><trkpt lat="45.57166" lon="9.24698"><ele>164.0</ele><time>2026-04-18T14:36:02.991Z</time></trkpt><trkpt lat="45.571725" lon="9.24689"><ele>164.33333333333334</ele><time>2026-04-18T14:36:03.991Z</time></trkpt><trkpt lat="45.5717683" lon="9.24679"><ele>164.66666666666666</ele><time>2026-04-18T14:36:04.991Z</time></trkpt><trkpt lat="45.5717867" lon="9.2466733"><ele>165.0</ele><time>2026-04-18T14:36:05.991Z</time></trkpt><trkpt lat="45.571785" lon="9.2465467"><ele>164.6</ele><time>2026-04-18T14:36:06.992Z</time></trkpt><trkpt lat="45.5717533" lon="9.2464233"><ele>164.2</ele><time>2026-04-18T14:36:07.991Z</time></trkpt><trkpt lat="45.5716983" lon="9.2463167"><ele>163.8</ele><time>2026-04-18T14:36:08.991Z</time></trkpt><trkpt lat="45.571625" lon="9.246215"><ele>163.4</ele><time>2026-04-18T14:36:09.991Z</time></trkpt><trkpt lat="45.57154" lon="9.246135"><ele>163.0</ele><time>2026-04-18T14:36:10.992Z</time></trkpt><trkpt lat="45.5714617" lon="9.24605"><ele>163.0</ele><time>2026-04-18T14:36:11.991Z</time></trkpt><trkpt lat="45.5714017" lon="9.2459283"><ele>163.0</ele><time>2026-04-18T14:36:12.991Z</time></trkpt><trkpt lat="45.57134" lon="9.2458117"><ele>163.0</ele><time>2026-04-18T14:36:13.991Z</time></trkpt><trkpt lat="45.5712683" lon="9.24568"><ele>163.0</ele><time>2026-04-18T14:36:14.991Z</time></trkpt><trkpt lat="45.5711917" lon="9.2455517"><ele>163.0</ele><time>2026-04-18T14:36:15.991Z</time></trkpt><trkpt lat="45.5711183" lon="9.2454317"><ele>163.0</ele><time>2026-04-18T14:36:16.991Z</time></trkpt><trkpt lat="45.5710467" lon="9.2453333"><ele>163.0</ele><time>2026-04-18T14:36:17.991Z</time></trkpt><trkpt lat="45.5709783" lon="9.2452267"><ele>163.0</ele><time>2026-04-18T14:36:18.991Z</time></trkpt><trkpt lat="45.57092" lon="9.2451217"><ele>163.0</ele><time>2026-04-18T14:36:19.991Z</time></trkpt><trkpt lat="45.5708433" lon="9.245025"><ele>163.0</ele><time>2026-04-18T14:36:20.991Z</time></trkpt><trkpt lat="45.5707583" lon="9.2449333"><ele>163.0</ele><time>2026-04-18T14:36:21.991Z</time></trkpt><trkpt lat="45.570675" lon="9.2448383"><ele>163.0</ele><time>2026-04-18T14:36:22.991Z</time></trkpt><trkpt lat="45.5705883" lon="9.24473"><ele>163.0</ele><time>2026-04-18T14:36:23.991Z</time></trkpt><trkpt lat="45.5704983" lon="9.2446167"><ele>163.0</ele><time>2026-04-18T14:36:24.991Z</time></trkpt><trkpt lat="45.5704083" lon="9.2445017"><ele>163.0</ele><time>2026-04-18T14:36:25.991Z</time></trkpt><trkpt lat="45.5703083" lon="9.2443867"><ele>163.0</ele><time>2026-04-18T14:36:26.991Z</time></trkpt><trkpt lat="45.570205" lon="9.24428"><ele>163.0</ele><time>2026-04-18T14:36:27.991Z</time></trkpt><trkpt lat="45.5701" lon="9.244175"><ele>163.0</ele><time>2026-04-18T14:36:28.991Z</time></trkpt><trkpt lat="45.5699967" lon="9.2440767"><ele>163.0</ele><time>2026-04-18T14:36:29.991Z</time></trkpt><trkpt lat="45.56989" lon="9.2439967"><ele>163.0</ele><time>2026-04-18T14:36:30.991Z</time></trkpt><trkpt lat="45.5697833" lon="9.2439133"><ele>163.0</ele><time>2026-04-18T14:36:31.991Z</time></trkpt><trkpt lat="45.5696867" lon="9.2438283"><ele>163.0</ele><time>2026-04-18T14:36:32.991Z</time></trkpt><trkpt lat="45.5695933" lon="9.2437583"><ele>163.2</ele><time>2026-04-18T14:36:33.991Z</time></trkpt><trkpt lat="45.569505" lon="9.2437133"><ele>163.4</ele><time>2026-04-18T14:36:34.991Z</time></trkpt><trkpt lat="45.569415" lon="9.2436533"><ele>163.6</ele><time>2026-04-18T14:36:35.991Z</time></trkpt><trkpt lat="45.5693383" lon="9.2435883"><ele>163.79999999999998</ele><time>2026-04-18T14:36:36.991Z</time></trkpt><trkpt lat="45.56927" lon="9.2435"><ele>164.0</ele><time>2026-04-18T14:36:37.991Z</time></trkpt><trkpt lat="45.5692133" lon="9.243395"><ele>164.0</ele><time>2026-04-18T14:36:38.991Z</time></trkpt><trkpt lat="45.5691783" lon="9.24326"><ele>164.0</ele><time>2026-04-18T14:36:39.991Z</time></trkpt><trkpt lat="45.5691567" lon="9.2431183"><ele>164.0</ele><time>2026-04-18T14:36:40.992Z</time></trkpt><trkpt lat="45.5691383" lon="9.24293"><ele>164.0</ele><time>2026-04-18T14:36:41.991Z</time></trkpt><trkpt lat="45.5691317" lon="9.2427533"><ele>163.6</ele><time>2026-04-18T14:36:42.991Z</time></trkpt><trkpt lat="45.5691183" lon="9.2425833"><ele>163.2</ele><time>2026-04-18T14:36:43.991Z</time></trkpt><trkpt lat="45.5691133" lon="9.2424433"><ele>162.79999999999998</ele><time>2026-04-18T14:36:44.991Z</time></trkpt><trkpt lat="45.5691083" lon="9.24233"><ele>162.39999999999998</ele><time>2026-04-18T14:36:45.991Z</time></trkpt><trkpt lat="45.5691017" lon="9.2422383"><ele>162.0</ele><time>2026-04-18T14:36:46.991Z</time></trkpt><trkpt lat="45.5691317" lon="9.2421083"><ele>162.0</ele><time>2026-04-18T14:36:48.991Z</time></trkpt><trkpt lat="45.5692267" lon="9.242075"><ele>162.0</ele><time>2026-04-18T14:36:50.992Z</time></trkpt><trkpt lat="45.5692967" lon="9.2420383"><ele>162.0</ele><time>2026-04-18T14:36:51.991Z</time></trkpt><trkpt lat="45.569395" lon="9.2420333"><ele>162.0</ele><time>2026-04-18T14:36:52.991Z</time></trkpt><trkpt lat="45.569515" lon="9.2420417"><ele>162.0</ele><time>2026-04-18T14:36:53.991Z</time></trkpt><trkpt lat="45.5696317" lon="9.242045"><ele>162.0</ele><time>2026-04-18T14:36:54.991Z</time></trkpt><trkpt lat="45.5697467" lon="9.2420333"><ele>162.0</ele><time>2026-04-18T14:36:55.991Z</time></trkpt><trkpt lat="45.56986" lon="9.242025"><ele>162.0</ele><time>2026-04-18T14:36:56.992Z</time></trkpt><trkpt lat="45.569975" lon="9.241995"><ele>162.0</ele><time>2026-04-18T14:36:57.991Z</time></trkpt><trkpt lat="45.5700833" lon="9.24198"><ele>162.0</ele><time>2026-04-18T14:36:58.991Z</time></trkpt><trkpt lat="45.57018" lon="9.2419467"><ele>162.0</ele><time>2026-04-18T14:36:59.991Z</time></trkpt><trkpt lat="45.570265" lon="9.24194"><ele>162.0</ele><time>2026-04-18T14:37:00.991Z</time></trkpt><trkpt lat="45.5703483" lon="9.24195"><ele>162.0</ele><time>2026-04-18T14:37:01.991Z</time></trkpt><trkpt lat="45.5704367" lon="9.2419633"><ele>162.0</ele><time>2026-04-18T14:37:02.991Z</time></trkpt><trkpt lat="45.570525" lon="9.241975"><ele>162.0</ele><time>2026-04-18T14:37:03.991Z</time></trkpt><trkpt lat="45.570615" lon="9.2419883"><ele>162.6</ele><time>2026-04-18T14:37:04.991Z</time></trkpt><trkpt lat="45.5707083" lon="9.2419867"><ele>163.2</ele><time>2026-04-18T14:37:05.991Z</time></trkpt><trkpt lat="45.57081" lon="9.2419617"><ele>163.8</ele><time>2026-04-18T14:37:06.991Z</time></trkpt><trkpt lat="45.570915" lon="9.241945"><ele>164.4</ele><time>2026-04-18T14:37:07.991Z</time></trkpt><trkpt lat="45.571035" lon="9.2419283"><ele>165.0</ele><time>2026-04-18T14:37:08.991Z</time></trkpt><trkpt lat="45.57116" lon="9.2419267"><ele>165.0</ele><time>2026-04-18T14:37:09.991Z</time></trkpt><trkpt lat="45.57128" lon="9.2419183"><ele>165.0</ele><time>2026-04-18T14:37:10.991Z</time></trkpt><trkpt lat="45.57141" lon="9.2419083"><ele>165.0</ele><time>2026-04-18T14:37:11.991Z</time></trkpt><trkpt lat="45.57154" lon="9.2418867"><ele>165.0</ele><time>2026-04-18T14:37:12.991Z</time></trkpt><trkpt lat="45.571665" lon="9.2418767"><ele>165.0</ele><time>2026-04-18T14:37:13.991Z</time></trkpt><trkpt lat="45.5717867" lon="9.2418733"><ele>165.0</ele><time>2026-04-18T14:37:14.991Z</time></trkpt><trkpt lat="45.5719067" lon="9.2418617"><ele>165.0</ele><time>2026-04-18T14:37:15.991Z</time></trkpt><trkpt lat="45.57203" lon="9.2418467"><ele>165.0</ele><time>2026-04-18T14:37:16.991Z</time></trkpt><trkpt lat="45.5721583" lon="9.2418267"><ele>165.5</ele><time>2026-04-18T14:37:17.991Z</time></trkpt><trkpt lat="45.5722883" lon="9.2418233"><ele>166.0</ele><time>2026-04-18T14:37:18.991Z</time></trkpt><trkpt lat="45.572415" lon="9.2418233"><ele>166.5</ele><time>2026-04-18T14:37:19.991Z</time></trkpt><trkpt lat="45.5725433" lon="9.2418017"><ele>167.0</ele><time>2026-04-18T14:37:20.991Z</time></trkpt><trkpt lat="45.572665" lon="9.2417867"><ele>167.0</ele><time>2026-04-18T14:37:21.991Z</time></trkpt><trkpt lat="45.572795" lon="9.24176"><ele>167.0</ele><time>2026-04-18T14:37:22.991Z</time></trkpt><trkpt lat="45.5729167" lon="9.2417467"><ele>167.0</ele><time>2026-04-18T14:37:23.991Z</time></trkpt><trkpt lat="45.57302" lon="9.2417233"><ele>167.0</ele><time>2026-04-18T14:37:24.991Z</time></trkpt><trkpt lat="45.5731117" lon="9.2417083"><ele>166.83333333333331</ele><time>2026-04-18T14:37:25.991Z</time></trkpt><trkpt lat="45.5731933" lon="9.2416833"><ele>166.66666666666666</ele><time>2026-04-18T14:37:26.991Z</time></trkpt><trkpt lat="45.5732733" lon="9.241665"><ele>166.5</ele><time>2026-04-18T14:37:27.991Z</time></trkpt><trkpt lat="45.5733417" lon="9.24165"><ele>166.33333333333334</ele><time>2026-04-18T14:37:28.991Z</time></trkpt><trkpt lat="45.573445" lon="9.2416517"><ele>166.16666666666669</ele><time>2026-04-18T14:37:30.991Z</time></trkpt><trkpt lat="45.5735083" lon="9.24174"><ele>166.0</ele><time>2026-04-18T14:37:32.991Z</time></trkpt><trkpt lat="45.5735267" lon="9.24191"><ele>166.0</ele><time>2026-04-18T14:37:34.991Z</time></trkpt><trkpt lat="45.573545" lon="9.2420117"><ele>166.0</ele><time>2026-04-18T14:37:35.991Z</time></trkpt><trkpt lat="45.5735583" lon="9.24213"><ele>166.0</ele><time>2026-04-18T14:37:36.991Z</time></trkpt><trkpt lat="45.573565" lon="9.2422567"><ele>166.0</ele><time>2026-04-18T14:37:37.991Z</time></trkpt><trkpt lat="45.5735717" lon="9.2423883"><ele>166.0</ele><time>2026-04-18T14:37:38.991Z</time></trkpt><trkpt lat="45.5735867" lon="9.24253"><ele>166.0</ele><time>2026-04-18T14:37:39.991Z</time></trkpt><trkpt lat="45.5736083" lon="9.2426833"><ele>166.60000000000002</ele><time>2026-04-18T14:37:40.992Z</time></trkpt><trkpt lat="45.5736283" lon="9.2428333"><ele>167.2</ele><time>2026-04-18T14:37:41.991Z</time></trkpt><trkpt lat="45.5736483" lon="9.2429817"><ele>167.8</ele><time>2026-04-18T14:37:42.992Z</time></trkpt><trkpt lat="45.5736683" lon="9.2431283"><ele>168.39999999999998</ele><time>2026-04-18T14:37:43.991Z</time></trkpt><trkpt lat="45.5736833" lon="9.2432833"><ele>169.0</ele><time>2026-04-18T14:37:44.991Z</time></trkpt><trkpt lat="45.5736917" lon="9.24343"><ele>169.16666666666669</ele><time>2026-04-18T14:37:45.991Z</time></trkpt><trkpt lat="45.5737017" lon="9.2435667"><ele>169.33333333333334</ele><time>2026-04-18T14:37:46.991Z</time></trkpt><trkpt lat="45.5737217" lon="9.2436917"><ele>169.5</ele><time>2026-04-18T14:37:47.991Z</time></trkpt><trkpt lat="45.5737433" lon="9.2438033"><ele>169.66666666666666</ele><time>2026-04-18T14:37:48.991Z</time></trkpt><trkpt lat="45.57376" lon="9.2438917"><ele>169.83333333333331</ele><time>2026-04-18T14:37:49.991Z</time></trkpt><trkpt lat="45.5737783" lon="9.2440317"><ele>170.0</ele><time>2026-04-18T14:37:51.991Z</time></trkpt><trkpt lat="45.573715" lon="9.2441367"><ele>169.33333333333331</ele><time>2026-04-18T14:37:54.991Z</time></trkpt><trkpt lat="45.573615" lon="9.2441467"><ele>168.66666666666666</ele><time>2026-04-18T14:37:56.991Z</time></trkpt><trkpt lat="45.5735367" lon="9.2441367"><ele>168.0</ele><time>2026-04-18T14:37:58.991Z</time></trkpt><trkpt lat="45.5734733" lon="9.2441433"><ele>167.33333333333334</ele><time>2026-04-18T14:38:01.991Z</time></trkpt><trkpt lat="45.5733983" lon="9.2441233"><ele>166.66666666666669</ele><time>2026-04-18T14:38:03.991Z</time></trkpt><trkpt lat="45.5733033" lon="9.24412"><ele>166.0</ele><time>2026-04-18T14:38:05.991Z</time></trkpt><trkpt lat="45.5732233" lon="9.24415"><ele>166.0</ele><time>2026-04-18T14:38:07.991Z</time></trkpt><trkpt lat="45.5731517" lon="9.2441817"><ele>166.0</ele><time>2026-04-18T14:38:09.992Z</time></trkpt></trkseg></trk></gpx>